<?xml version="1.0" encoding="UTF-8" standalone="no" ?>
<gpx xmlns="http://www.topografix.com/GPX/1/1" xmlns:xsi="http://www.w3.org/2001/XMLSchema-instance" xsi:schemaLocation="http://www.topografix.com/GPX/1/1 http://www.topografix.com/GPX/1/1/gpx.xsd" version="1.1" creator="VisuGPX - https://www.visugpx.com">
  <metadata>
    <name>la rochefortiche</name>
    <desc><![CDATA[du roulant et du technique à la porte d\'angers, dans les côteaux du layon, mytique]]></desc>
  </metadata>
  <trk>
    <name><![CDATA[2015-12-27-01]]></name>
    <trkseg>
      <trkpt lat="47.36006" lon="-0.65623">
        <ele>-66.3</ele>
        <time>2015-12-27T07:50:01Z</time>
      </trkpt>
      <trkpt lat="47.36014" lon="-0.65591">
        <ele>-46.1</ele>
        <time>2015-12-27T07:50:06Z</time>
      </trkpt>
      <trkpt lat="47.3602" lon="-0.65578">
        <ele>-11.2</ele>
        <time>2015-12-27T07:50:09Z</time>
      </trkpt>
      <trkpt lat="47.36027" lon="-0.65561">
        <ele>3.2</ele>
        <time>2015-12-27T07:50:12Z</time>
      </trkpt>
      <trkpt lat="47.36037" lon="-0.65549">
        <ele>9.6</ele>
        <time>2015-12-27T07:50:15Z</time>
      </trkpt>
      <trkpt lat="47.36049" lon="-0.65541">
        <ele>11.6</ele>
        <time>2015-12-27T07:50:18Z</time>
      </trkpt>
      <trkpt lat="47.36058" lon="-0.65537">
        <ele>12.3</ele>
        <time>2015-12-27T07:50:20Z</time>
      </trkpt>
      <trkpt lat="47.36067" lon="-0.65533">
        <ele>13</ele>
        <time>2015-12-27T07:50:22Z</time>
      </trkpt>
      <trkpt lat="47.36078" lon="-0.65528">
        <ele>13.4</ele>
        <time>2015-12-27T07:50:25Z</time>
      </trkpt>
      <trkpt lat="47.36088" lon="-0.65524">
        <ele>13.4</ele>
        <time>2015-12-27T07:50:28Z</time>
      </trkpt>
      <trkpt lat="47.36091" lon="-0.65508">
        <ele>13.3</ele>
        <time>2015-12-27T07:50:32Z</time>
      </trkpt>
      <trkpt lat="47.36095" lon="-0.65522">
        <ele>11.4</ele>
        <time>2015-12-27T07:57:46Z</time>
      </trkpt>
      <trkpt lat="47.36085" lon="-0.65533">
        <ele>12</ele>
        <time>2015-12-27T07:57:49Z</time>
      </trkpt>
      <trkpt lat="47.36073" lon="-0.65539">
        <ele>11.9</ele>
        <time>2015-12-27T07:57:52Z</time>
      </trkpt>
      <trkpt lat="47.36062" lon="-0.65544">
        <ele>12</ele>
        <time>2015-12-27T07:57:55Z</time>
      </trkpt>
      <trkpt lat="47.36052" lon="-0.65549">
        <ele>12.1</ele>
        <time>2015-12-27T07:57:59Z</time>
      </trkpt>
      <trkpt lat="47.36043" lon="-0.65555">
        <ele>12.3</ele>
        <time>2015-12-27T07:58:03Z</time>
      </trkpt>
      <trkpt lat="47.36032" lon="-0.65557">
        <ele>12.6</ele>
        <time>2015-12-27T07:58:07Z</time>
      </trkpt>
      <trkpt lat="47.36022" lon="-0.65555">
        <ele>12.7</ele>
        <time>2015-12-27T07:58:10Z</time>
      </trkpt>
      <trkpt lat="47.36011" lon="-0.6555">
        <ele>12.7</ele>
        <time>2015-12-27T07:58:14Z</time>
      </trkpt>
      <trkpt lat="47.36" lon="-0.65545">
        <ele>13.1</ele>
        <time>2015-12-27T07:58:18Z</time>
      </trkpt>
      <trkpt lat="47.35989" lon="-0.6554">
        <ele>13.3</ele>
        <time>2015-12-27T07:58:22Z</time>
      </trkpt>
      <trkpt lat="47.35977" lon="-0.65536">
        <ele>14.1</ele>
        <time>2015-12-27T07:58:26Z</time>
      </trkpt>
      <trkpt lat="47.35968" lon="-0.65532">
        <ele>14.3</ele>
        <time>2015-12-27T07:58:29Z</time>
      </trkpt>
      <trkpt lat="47.35959" lon="-0.65528">
        <ele>14.9</ele>
        <time>2015-12-27T07:58:32Z</time>
      </trkpt>
      <trkpt lat="47.3595" lon="-0.65525">
        <ele>15.3</ele>
        <time>2015-12-27T07:58:35Z</time>
      </trkpt>
      <trkpt lat="47.35941" lon="-0.65521">
        <ele>15.4</ele>
        <time>2015-12-27T07:58:38Z</time>
      </trkpt>
      <trkpt lat="47.35931" lon="-0.65517">
        <ele>15.4</ele>
        <time>2015-12-27T07:58:41Z</time>
      </trkpt>
      <trkpt lat="47.35921" lon="-0.65514">
        <ele>15.4</ele>
        <time>2015-12-27T07:58:44Z</time>
      </trkpt>
      <trkpt lat="47.35909" lon="-0.65509">
        <ele>15.4</ele>
        <time>2015-12-27T07:58:47Z</time>
      </trkpt>
      <trkpt lat="47.35896" lon="-0.65504">
        <ele>15.1</ele>
        <time>2015-12-27T07:58:50Z</time>
      </trkpt>
      <trkpt lat="47.35887" lon="-0.65506">
        <ele>14.8</ele>
        <time>2015-12-27T07:58:52Z</time>
      </trkpt>
      <trkpt lat="47.3588" lon="-0.65517">
        <ele>14.3</ele>
        <time>2015-12-27T07:58:54Z</time>
      </trkpt>
      <trkpt lat="47.35873" lon="-0.65525">
        <ele>14.2</ele>
        <time>2015-12-27T07:58:56Z</time>
      </trkpt>
      <trkpt lat="47.35863" lon="-0.65528">
        <ele>13.9</ele>
        <time>2015-12-27T07:58:58Z</time>
      </trkpt>
      <trkpt lat="47.3585" lon="-0.65532">
        <ele>13.7</ele>
        <time>2015-12-27T07:59:01Z</time>
      </trkpt>
      <trkpt lat="47.3584" lon="-0.65537">
        <ele>14.5</ele>
        <time>2015-12-27T07:59:04Z</time>
      </trkpt>
      <trkpt lat="47.3583" lon="-0.65547">
        <ele>15.1</ele>
        <time>2015-12-27T07:59:07Z</time>
      </trkpt>
      <trkpt lat="47.35822" lon="-0.65558">
        <ele>15.7</ele>
        <time>2015-12-27T07:59:10Z</time>
      </trkpt>
      <trkpt lat="47.35813" lon="-0.65572">
        <ele>16.2</ele>
        <time>2015-12-27T07:59:13Z</time>
      </trkpt>
      <trkpt lat="47.35805" lon="-0.65583">
        <ele>16.4</ele>
        <time>2015-12-27T07:59:16Z</time>
      </trkpt>
      <trkpt lat="47.35795" lon="-0.65593">
        <ele>15.9</ele>
        <time>2015-12-27T07:59:19Z</time>
      </trkpt>
      <trkpt lat="47.35783" lon="-0.65596">
        <ele>15.6</ele>
        <time>2015-12-27T07:59:22Z</time>
      </trkpt>
      <trkpt lat="47.35772" lon="-0.65593">
        <ele>16</ele>
        <time>2015-12-27T07:59:25Z</time>
      </trkpt>
      <trkpt lat="47.35761" lon="-0.6559">
        <ele>16.6</ele>
        <time>2015-12-27T07:59:28Z</time>
      </trkpt>
      <trkpt lat="47.35751" lon="-0.65586">
        <ele>17.2</ele>
        <time>2015-12-27T07:59:31Z</time>
      </trkpt>
      <trkpt lat="47.35741" lon="-0.6558">
        <ele>17.7</ele>
        <time>2015-12-27T07:59:34Z</time>
      </trkpt>
      <trkpt lat="47.35731" lon="-0.65573">
        <ele>18.3</ele>
        <time>2015-12-27T07:59:37Z</time>
      </trkpt>
      <trkpt lat="47.35721" lon="-0.65565">
        <ele>18.5</ele>
        <time>2015-12-27T07:59:40Z</time>
      </trkpt>
      <trkpt lat="47.35711" lon="-0.65555">
        <ele>19.2</ele>
        <time>2015-12-27T07:59:43Z</time>
      </trkpt>
      <trkpt lat="47.35702" lon="-0.65547">
        <ele>20.1</ele>
        <time>2015-12-27T07:59:46Z</time>
      </trkpt>
      <trkpt lat="47.35692" lon="-0.65538">
        <ele>20.7</ele>
        <time>2015-12-27T07:59:49Z</time>
      </trkpt>
      <trkpt lat="47.35673" lon="-0.65524">
        <ele>22</ele>
        <time>2015-12-27T07:59:55Z</time>
      </trkpt>
      <trkpt lat="47.35662" lon="-0.65519">
        <ele>22.7</ele>
        <time>2015-12-27T07:59:58Z</time>
      </trkpt>
      <trkpt lat="47.35651" lon="-0.65517">
        <ele>23.4</ele>
        <time>2015-12-27T08:00:01Z</time>
      </trkpt>
      <trkpt lat="47.35638" lon="-0.65515">
        <ele>23.8</ele>
        <time>2015-12-27T08:00:04Z</time>
      </trkpt>
      <trkpt lat="47.35627" lon="-0.65507">
        <ele>24.5</ele>
        <time>2015-12-27T08:00:07Z</time>
      </trkpt>
      <trkpt lat="47.35616" lon="-0.65501">
        <ele>25.2</ele>
        <time>2015-12-27T08:00:10Z</time>
      </trkpt>
      <trkpt lat="47.35607" lon="-0.65494">
        <ele>25.5</ele>
        <time>2015-12-27T08:00:13Z</time>
      </trkpt>
      <trkpt lat="47.35598" lon="-0.65485">
        <ele>26</ele>
        <time>2015-12-27T08:00:16Z</time>
      </trkpt>
      <trkpt lat="47.35587" lon="-0.65484">
        <ele>26.3</ele>
        <time>2015-12-27T08:00:19Z</time>
      </trkpt>
      <trkpt lat="47.35576" lon="-0.6548">
        <ele>26.8</ele>
        <time>2015-12-27T08:00:22Z</time>
      </trkpt>
      <trkpt lat="47.35564" lon="-0.65475">
        <ele>27.3</ele>
        <time>2015-12-27T08:00:25Z</time>
      </trkpt>
      <trkpt lat="47.35552" lon="-0.65472">
        <ele>27.5</ele>
        <time>2015-12-27T08:00:28Z</time>
      </trkpt>
      <trkpt lat="47.35541" lon="-0.6547">
        <ele>28</ele>
        <time>2015-12-27T08:00:31Z</time>
      </trkpt>
      <trkpt lat="47.35531" lon="-0.65468">
        <ele>28.1</ele>
        <time>2015-12-27T08:00:34Z</time>
      </trkpt>
      <trkpt lat="47.3552" lon="-0.65465">
        <ele>28.5</ele>
        <time>2015-12-27T08:00:37Z</time>
      </trkpt>
      <trkpt lat="47.35509" lon="-0.65461">
        <ele>28.8</ele>
        <time>2015-12-27T08:00:40Z</time>
      </trkpt>
      <trkpt lat="47.35498" lon="-0.65457">
        <ele>29.4</ele>
        <time>2015-12-27T08:00:43Z</time>
      </trkpt>
      <trkpt lat="47.35486" lon="-0.65454">
        <ele>29.9</ele>
        <time>2015-12-27T08:00:46Z</time>
      </trkpt>
      <trkpt lat="47.35477" lon="-0.65449">
        <ele>30.7</ele>
        <time>2015-12-27T08:00:49Z</time>
      </trkpt>
      <trkpt lat="47.35469" lon="-0.65442">
        <ele>31.4</ele>
        <time>2015-12-27T08:00:52Z</time>
      </trkpt>
      <trkpt lat="47.3545" lon="-0.65429">
        <ele>32.8</ele>
        <time>2015-12-27T08:00:59Z</time>
      </trkpt>
      <trkpt lat="47.35441" lon="-0.65423">
        <ele>33.7</ele>
        <time>2015-12-27T08:01:02Z</time>
      </trkpt>
      <trkpt lat="47.35431" lon="-0.65415">
        <ele>34.6</ele>
        <time>2015-12-27T08:01:05Z</time>
      </trkpt>
      <trkpt lat="47.35423" lon="-0.65408">
        <ele>35.7</ele>
        <time>2015-12-27T08:01:08Z</time>
      </trkpt>
      <trkpt lat="47.35415" lon="-0.654">
        <ele>36.9</ele>
        <time>2015-12-27T08:01:11Z</time>
      </trkpt>
      <trkpt lat="47.35406" lon="-0.65393">
        <ele>38</ele>
        <time>2015-12-27T08:01:14Z</time>
      </trkpt>
      <trkpt lat="47.35397" lon="-0.65394">
        <ele>39.7</ele>
        <time>2015-12-27T08:01:18Z</time>
      </trkpt>
      <trkpt lat="47.35394" lon="-0.65406">
        <ele>40.9</ele>
        <time>2015-12-27T08:01:22Z</time>
      </trkpt>
      <trkpt lat="47.35391" lon="-0.6542">
        <ele>42.1</ele>
        <time>2015-12-27T08:01:27Z</time>
      </trkpt>
      <trkpt lat="47.3539" lon="-0.65438">
        <ele>41.8</ele>
        <time>2015-12-27T08:01:31Z</time>
      </trkpt>
      <trkpt lat="47.35386" lon="-0.65452">
        <ele>41.2</ele>
        <time>2015-12-27T08:01:34Z</time>
      </trkpt>
      <trkpt lat="47.35376" lon="-0.65457">
        <ele>41.4</ele>
        <time>2015-12-27T08:01:37Z</time>
      </trkpt>
      <trkpt lat="47.35365" lon="-0.65456">
        <ele>42</ele>
        <time>2015-12-27T08:01:41Z</time>
      </trkpt>
      <trkpt lat="47.35355" lon="-0.65458">
        <ele>42.6</ele>
        <time>2015-12-27T08:01:45Z</time>
      </trkpt>
      <trkpt lat="47.35346" lon="-0.65463">
        <ele>42.9</ele>
        <time>2015-12-27T08:01:49Z</time>
      </trkpt>
      <trkpt lat="47.35338" lon="-0.65473">
        <ele>43.2</ele>
        <time>2015-12-27T08:01:53Z</time>
      </trkpt>
      <trkpt lat="47.35321" lon="-0.65493">
        <ele>44.8</ele>
        <time>2015-12-27T08:02:01Z</time>
      </trkpt>
      <trkpt lat="47.35312" lon="-0.65499">
        <ele>45.7</ele>
        <time>2015-12-27T08:02:05Z</time>
      </trkpt>
      <trkpt lat="47.35302" lon="-0.65507">
        <ele>46.3</ele>
        <time>2015-12-27T08:02:09Z</time>
      </trkpt>
      <trkpt lat="47.35293" lon="-0.65518">
        <ele>47.5</ele>
        <time>2015-12-27T08:02:13Z</time>
      </trkpt>
      <trkpt lat="47.35285" lon="-0.6553">
        <ele>48.3</ele>
        <time>2015-12-27T08:02:17Z</time>
      </trkpt>
      <trkpt lat="47.35279" lon="-0.65541">
        <ele>48.8</ele>
        <time>2015-12-27T08:02:20Z</time>
      </trkpt>
      <trkpt lat="47.35271" lon="-0.65554">
        <ele>49.8</ele>
        <time>2015-12-27T08:02:24Z</time>
      </trkpt>
      <trkpt lat="47.35264" lon="-0.65565">
        <ele>50.9</ele>
        <time>2015-12-27T08:02:28Z</time>
      </trkpt>
      <trkpt lat="47.35259" lon="-0.65579">
        <ele>51.9</ele>
        <time>2015-12-27T08:02:32Z</time>
      </trkpt>
      <trkpt lat="47.35255" lon="-0.65595">
        <ele>52.3</ele>
        <time>2015-12-27T08:02:36Z</time>
      </trkpt>
      <trkpt lat="47.3525" lon="-0.65609">
        <ele>52.9</ele>
        <time>2015-12-27T08:02:40Z</time>
      </trkpt>
      <trkpt lat="47.35242" lon="-0.65622">
        <ele>53.6</ele>
        <time>2015-12-27T08:02:44Z</time>
      </trkpt>
      <trkpt lat="47.35232" lon="-0.6563">
        <ele>53.5</ele>
        <time>2015-12-27T08:02:48Z</time>
      </trkpt>
      <trkpt lat="47.35221" lon="-0.65637">
        <ele>53.4</ele>
        <time>2015-12-27T08:02:52Z</time>
      </trkpt>
      <trkpt lat="47.35212" lon="-0.65639">
        <ele>53.5</ele>
        <time>2015-12-27T08:02:55Z</time>
      </trkpt>
      <trkpt lat="47.35192" lon="-0.65642">
        <ele>53.7</ele>
        <time>2015-12-27T08:03:01Z</time>
      </trkpt>
      <trkpt lat="47.35183" lon="-0.65643">
        <ele>53.8</ele>
        <time>2015-12-27T08:03:04Z</time>
      </trkpt>
      <trkpt lat="47.35174" lon="-0.65642">
        <ele>54.3</ele>
        <time>2015-12-27T08:03:07Z</time>
      </trkpt>
      <trkpt lat="47.35164" lon="-0.65643">
        <ele>54.6</ele>
        <time>2015-12-27T08:03:10Z</time>
      </trkpt>
      <trkpt lat="47.35155" lon="-0.65644">
        <ele>54.8</ele>
        <time>2015-12-27T08:03:13Z</time>
      </trkpt>
      <trkpt lat="47.35144" lon="-0.65646">
        <ele>54.3</ele>
        <time>2015-12-27T08:03:16Z</time>
      </trkpt>
      <trkpt lat="47.35135" lon="-0.65649">
        <ele>54.7</ele>
        <time>2015-12-27T08:03:18Z</time>
      </trkpt>
      <trkpt lat="47.35125" lon="-0.65658">
        <ele>54.5</ele>
        <time>2015-12-27T08:03:20Z</time>
      </trkpt>
      <trkpt lat="47.35112" lon="-0.65667">
        <ele>52.8</ele>
        <time>2015-12-27T08:03:22Z</time>
      </trkpt>
      <trkpt lat="47.35098" lon="-0.6567">
        <ele>52.8</ele>
        <time>2015-12-27T08:03:24Z</time>
      </trkpt>
      <trkpt lat="47.35085" lon="-0.65675">
        <ele>50.8</ele>
        <time>2015-12-27T08:03:26Z</time>
      </trkpt>
      <trkpt lat="47.35076" lon="-0.65683">
        <ele>50.4</ele>
        <time>2015-12-27T08:03:28Z</time>
      </trkpt>
      <trkpt lat="47.35066" lon="-0.65693">
        <ele>47.1</ele>
        <time>2015-12-27T08:03:31Z</time>
      </trkpt>
      <trkpt lat="47.35053" lon="-0.65698">
        <ele>43.1</ele>
        <time>2015-12-27T08:03:34Z</time>
      </trkpt>
      <trkpt lat="47.35043" lon="-0.65704">
        <ele>41.2</ele>
        <time>2015-12-27T08:03:36Z</time>
      </trkpt>
      <trkpt lat="47.35034" lon="-0.65715">
        <ele>39.4</ele>
        <time>2015-12-27T08:03:39Z</time>
      </trkpt>
      <trkpt lat="47.35026" lon="-0.65723">
        <ele>37</ele>
        <time>2015-12-27T08:03:41Z</time>
      </trkpt>
      <trkpt lat="47.35016" lon="-0.65734">
        <ele>36.2</ele>
        <time>2015-12-27T08:03:43Z</time>
      </trkpt>
      <trkpt lat="47.35004" lon="-0.65744">
        <ele>34.7</ele>
        <time>2015-12-27T08:03:45Z</time>
      </trkpt>
      <trkpt lat="47.34994" lon="-0.65754">
        <ele>33.3</ele>
        <time>2015-12-27T08:03:47Z</time>
      </trkpt>
      <trkpt lat="47.34985" lon="-0.65766">
        <ele>33.3</ele>
        <time>2015-12-27T08:03:49Z</time>
      </trkpt>
      <trkpt lat="47.34975" lon="-0.65774">
        <ele>33.6</ele>
        <time>2015-12-27T08:03:51Z</time>
      </trkpt>
      <trkpt lat="47.34968" lon="-0.65782">
        <ele>34.2</ele>
        <time>2015-12-27T08:03:53Z</time>
      </trkpt>
      <trkpt lat="47.34958" lon="-0.65789">
        <ele>35.2</ele>
        <time>2015-12-27T08:03:56Z</time>
      </trkpt>
      <trkpt lat="47.34939" lon="-0.65798">
        <ele>36.3</ele>
        <time>2015-12-27T08:04:03Z</time>
      </trkpt>
      <trkpt lat="47.34927" lon="-0.65803">
        <ele>35.8</ele>
        <time>2015-12-27T08:04:06Z</time>
      </trkpt>
      <trkpt lat="47.34915" lon="-0.65809">
        <ele>36.3</ele>
        <time>2015-12-27T08:04:09Z</time>
      </trkpt>
      <trkpt lat="47.34903" lon="-0.65816">
        <ele>36.3</ele>
        <time>2015-12-27T08:04:12Z</time>
      </trkpt>
      <trkpt lat="47.34892" lon="-0.65821">
        <ele>36.2</ele>
        <time>2015-12-27T08:04:15Z</time>
      </trkpt>
      <trkpt lat="47.3488" lon="-0.65822">
        <ele>36.3</ele>
        <time>2015-12-27T08:04:18Z</time>
      </trkpt>
      <trkpt lat="47.34867" lon="-0.65824">
        <ele>36.1</ele>
        <time>2015-12-27T08:04:21Z</time>
      </trkpt>
      <trkpt lat="47.34854" lon="-0.65824">
        <ele>36.1</ele>
        <time>2015-12-27T08:04:24Z</time>
      </trkpt>
      <trkpt lat="47.34843" lon="-0.65824">
        <ele>36.6</ele>
        <time>2015-12-27T08:04:27Z</time>
      </trkpt>
      <trkpt lat="47.34832" lon="-0.65825">
        <ele>37.2</ele>
        <time>2015-12-27T08:04:30Z</time>
      </trkpt>
      <trkpt lat="47.34822" lon="-0.65828">
        <ele>37.2</ele>
        <time>2015-12-27T08:04:33Z</time>
      </trkpt>
      <trkpt lat="47.34812" lon="-0.65831">
        <ele>37.2</ele>
        <time>2015-12-27T08:04:36Z</time>
      </trkpt>
      <trkpt lat="47.34802" lon="-0.6584">
        <ele>37.3</ele>
        <time>2015-12-27T08:04:39Z</time>
      </trkpt>
      <trkpt lat="47.34791" lon="-0.65847">
        <ele>37</ele>
        <time>2015-12-27T08:04:42Z</time>
      </trkpt>
      <trkpt lat="47.34781" lon="-0.65857">
        <ele>37.2</ele>
        <time>2015-12-27T08:04:45Z</time>
      </trkpt>
      <trkpt lat="47.3477" lon="-0.65864">
        <ele>37.8</ele>
        <time>2015-12-27T08:04:48Z</time>
      </trkpt>
      <trkpt lat="47.3476" lon="-0.65867">
        <ele>38.2</ele>
        <time>2015-12-27T08:04:51Z</time>
      </trkpt>
      <trkpt lat="47.3475" lon="-0.65866">
        <ele>38.5</ele>
        <time>2015-12-27T08:04:54Z</time>
      </trkpt>
      <trkpt lat="47.3474" lon="-0.65865">
        <ele>38.6</ele>
        <time>2015-12-27T08:04:57Z</time>
      </trkpt>
      <trkpt lat="47.3472" lon="-0.65862">
        <ele>39.3</ele>
        <time>2015-12-27T08:05:03Z</time>
      </trkpt>
      <trkpt lat="47.34711" lon="-0.65861">
        <ele>39.8</ele>
        <time>2015-12-27T08:05:06Z</time>
      </trkpt>
      <trkpt lat="47.34701" lon="-0.65859">
        <ele>40.4</ele>
        <time>2015-12-27T08:05:09Z</time>
      </trkpt>
      <trkpt lat="47.34691" lon="-0.65858">
        <ele>41.1</ele>
        <time>2015-12-27T08:05:12Z</time>
      </trkpt>
      <trkpt lat="47.34683" lon="-0.65869">
        <ele>42.1</ele>
        <time>2015-12-27T08:05:16Z</time>
      </trkpt>
      <trkpt lat="47.34679" lon="-0.65882">
        <ele>42.8</ele>
        <time>2015-12-27T08:05:19Z</time>
      </trkpt>
      <trkpt lat="47.34668" lon="-0.65884">
        <ele>44.1</ele>
        <time>2015-12-27T08:05:23Z</time>
      </trkpt>
      <trkpt lat="47.34659" lon="-0.65881">
        <ele>44.6</ele>
        <time>2015-12-27T08:05:26Z</time>
      </trkpt>
      <trkpt lat="47.34649" lon="-0.65879">
        <ele>45.3</ele>
        <time>2015-12-27T08:05:29Z</time>
      </trkpt>
      <trkpt lat="47.34638" lon="-0.65877">
        <ele>46</ele>
        <time>2015-12-27T08:05:33Z</time>
      </trkpt>
      <trkpt lat="47.34629" lon="-0.65875">
        <ele>46.7</ele>
        <time>2015-12-27T08:05:36Z</time>
      </trkpt>
      <trkpt lat="47.3462" lon="-0.65871">
        <ele>47.3</ele>
        <time>2015-12-27T08:05:39Z</time>
      </trkpt>
      <trkpt lat="47.34611" lon="-0.65867">
        <ele>47.9</ele>
        <time>2015-12-27T08:05:42Z</time>
      </trkpt>
      <trkpt lat="47.34599" lon="-0.65861">
        <ele>48.5</ele>
        <time>2015-12-27T08:05:46Z</time>
      </trkpt>
      <trkpt lat="47.34591" lon="-0.65857">
        <ele>49.2</ele>
        <time>2015-12-27T08:05:49Z</time>
      </trkpt>
      <trkpt lat="47.3458" lon="-0.65851">
        <ele>49.9</ele>
        <time>2015-12-27T08:05:53Z</time>
      </trkpt>
      <trkpt lat="47.3457" lon="-0.65844">
        <ele>50</ele>
        <time>2015-12-27T08:05:57Z</time>
      </trkpt>
      <trkpt lat="47.3456" lon="-0.65838">
        <ele>50.6</ele>
        <time>2015-12-27T08:06:01Z</time>
      </trkpt>
      <trkpt lat="47.3454" lon="-0.65826">
        <ele>52.3</ele>
        <time>2015-12-27T08:06:09Z</time>
      </trkpt>
      <trkpt lat="47.34531" lon="-0.6582">
        <ele>53.3</ele>
        <time>2015-12-27T08:06:13Z</time>
      </trkpt>
      <trkpt lat="47.34522" lon="-0.65815">
        <ele>54.2</ele>
        <time>2015-12-27T08:06:17Z</time>
      </trkpt>
      <trkpt lat="47.34513" lon="-0.65809">
        <ele>55.5</ele>
        <time>2015-12-27T08:06:21Z</time>
      </trkpt>
      <trkpt lat="47.34504" lon="-0.65804">
        <ele>56.8</ele>
        <time>2015-12-27T08:06:25Z</time>
      </trkpt>
      <trkpt lat="47.34494" lon="-0.65799">
        <ele>58</ele>
        <time>2015-12-27T08:06:29Z</time>
      </trkpt>
      <trkpt lat="47.34485" lon="-0.65796">
        <ele>58.9</ele>
        <time>2015-12-27T08:06:33Z</time>
      </trkpt>
      <trkpt lat="47.34475" lon="-0.65792">
        <ele>60</ele>
        <time>2015-12-27T08:06:37Z</time>
      </trkpt>
      <trkpt lat="47.34466" lon="-0.65789">
        <ele>61.2</ele>
        <time>2015-12-27T08:06:41Z</time>
      </trkpt>
      <trkpt lat="47.34458" lon="-0.65795">
        <ele>62.4</ele>
        <time>2015-12-27T08:06:47Z</time>
      </trkpt>
      <trkpt lat="47.34456" lon="-0.6581">
        <ele>63.2</ele>
        <time>2015-12-27T08:06:51Z</time>
      </trkpt>
      <trkpt lat="47.34451" lon="-0.65821">
        <ele>64</ele>
        <time>2015-12-27T08:06:55Z</time>
      </trkpt>
      <trkpt lat="47.34447" lon="-0.65836">
        <ele>64.7</ele>
        <time>2015-12-27T08:06:59Z</time>
      </trkpt>
      <trkpt lat="47.34443" lon="-0.6585">
        <ele>65.9</ele>
        <time>2015-12-27T08:07:03Z</time>
      </trkpt>
      <trkpt lat="47.34434" lon="-0.65876">
        <ele>67.6</ele>
        <time>2015-12-27T08:07:11Z</time>
      </trkpt>
      <trkpt lat="47.3443" lon="-0.65888">
        <ele>68.5</ele>
        <time>2015-12-27T08:07:15Z</time>
      </trkpt>
      <trkpt lat="47.34426" lon="-0.659">
        <ele>68.9</ele>
        <time>2015-12-27T08:07:19Z</time>
      </trkpt>
      <trkpt lat="47.34417" lon="-0.65908">
        <ele>69.3</ele>
        <time>2015-12-27T08:07:23Z</time>
      </trkpt>
      <trkpt lat="47.34408" lon="-0.65905">
        <ele>70.2</ele>
        <time>2015-12-27T08:07:27Z</time>
      </trkpt>
      <trkpt lat="47.34398" lon="-0.65899">
        <ele>71.4</ele>
        <time>2015-12-27T08:07:31Z</time>
      </trkpt>
      <trkpt lat="47.34388" lon="-0.65893">
        <ele>73.4</ele>
        <time>2015-12-27T08:07:36Z</time>
      </trkpt>
      <trkpt lat="47.34378" lon="-0.65889">
        <ele>74.9</ele>
        <time>2015-12-27T08:07:41Z</time>
      </trkpt>
      <trkpt lat="47.34368" lon="-0.65893">
        <ele>75.8</ele>
        <time>2015-12-27T08:07:46Z</time>
      </trkpt>
      <trkpt lat="47.34359" lon="-0.65894">
        <ele>75.8</ele>
        <time>2015-12-27T08:07:50Z</time>
      </trkpt>
      <trkpt lat="47.34349" lon="-0.65892">
        <ele>76.4</ele>
        <time>2015-12-27T08:07:54Z</time>
      </trkpt>
      <trkpt lat="47.34338" lon="-0.65889">
        <ele>76.7</ele>
        <time>2015-12-27T08:07:58Z</time>
      </trkpt>
      <trkpt lat="47.34328" lon="-0.65887">
        <ele>76.8</ele>
        <time>2015-12-27T08:08:02Z</time>
      </trkpt>
      <trkpt lat="47.34317" lon="-0.65883">
        <ele>77.4</ele>
        <time>2015-12-27T08:08:06Z</time>
      </trkpt>
      <trkpt lat="47.34297" lon="-0.65878">
        <ele>77.4</ele>
        <time>2015-12-27T08:08:13Z</time>
      </trkpt>
      <trkpt lat="47.34285" lon="-0.65876">
        <ele>77.5</ele>
        <time>2015-12-27T08:08:17Z</time>
      </trkpt>
      <trkpt lat="47.34274" lon="-0.65876">
        <ele>77.4</ele>
        <time>2015-12-27T08:08:21Z</time>
      </trkpt>
      <trkpt lat="47.3427" lon="-0.6589">
        <ele>78</ele>
        <time>2015-12-27T08:08:25Z</time>
      </trkpt>
      <trkpt lat="47.34268" lon="-0.65907">
        <ele>78.2</ele>
        <time>2015-12-27T08:08:29Z</time>
      </trkpt>
      <trkpt lat="47.34267" lon="-0.65924">
        <ele>78.5</ele>
        <time>2015-12-27T08:08:33Z</time>
      </trkpt>
      <trkpt lat="47.34266" lon="-0.6594">
        <ele>78.4</ele>
        <time>2015-12-27T08:08:37Z</time>
      </trkpt>
      <trkpt lat="47.34264" lon="-0.65956">
        <ele>79.3</ele>
        <time>2015-12-27T08:08:41Z</time>
      </trkpt>
      <trkpt lat="47.34263" lon="-0.65971">
        <ele>79.8</ele>
        <time>2015-12-27T08:08:45Z</time>
      </trkpt>
      <trkpt lat="47.34263" lon="-0.65988">
        <ele>80.3</ele>
        <time>2015-12-27T08:08:49Z</time>
      </trkpt>
      <trkpt lat="47.34263" lon="-0.66001">
        <ele>80.5</ele>
        <time>2015-12-27T08:08:52Z</time>
      </trkpt>
      <trkpt lat="47.34262" lon="-0.66015">
        <ele>80.5</ele>
        <time>2015-12-27T08:08:55Z</time>
      </trkpt>
      <trkpt lat="47.34262" lon="-0.6603">
        <ele>80.3</ele>
        <time>2015-12-27T08:08:58Z</time>
      </trkpt>
      <trkpt lat="47.34261" lon="-0.66045">
        <ele>80.2</ele>
        <time>2015-12-27T08:09:01Z</time>
      </trkpt>
      <trkpt lat="47.3426" lon="-0.66058">
        <ele>80.4</ele>
        <time>2015-12-27T08:09:04Z</time>
      </trkpt>
      <trkpt lat="47.34259" lon="-0.66073">
        <ele>80.7</ele>
        <time>2015-12-27T08:09:07Z</time>
      </trkpt>
      <trkpt lat="47.34255" lon="-0.66103">
        <ele>80.6</ele>
        <time>2015-12-27T08:09:13Z</time>
      </trkpt>
      <trkpt lat="47.34252" lon="-0.66118">
        <ele>80.7</ele>
        <time>2015-12-27T08:09:16Z</time>
      </trkpt>
      <trkpt lat="47.34249" lon="-0.66132">
        <ele>81.1</ele>
        <time>2015-12-27T08:09:19Z</time>
      </trkpt>
      <trkpt lat="47.34245" lon="-0.66145">
        <ele>81.3</ele>
        <time>2015-12-27T08:09:22Z</time>
      </trkpt>
      <trkpt lat="47.34241" lon="-0.6616">
        <ele>81.1</ele>
        <time>2015-12-27T08:09:25Z</time>
      </trkpt>
      <trkpt lat="47.34237" lon="-0.66175">
        <ele>81.3</ele>
        <time>2015-12-27T08:09:28Z</time>
      </trkpt>
      <trkpt lat="47.34232" lon="-0.66189">
        <ele>81</ele>
        <time>2015-12-27T08:09:31Z</time>
      </trkpt>
      <trkpt lat="47.34227" lon="-0.66205">
        <ele>81</ele>
        <time>2015-12-27T08:09:34Z</time>
      </trkpt>
      <trkpt lat="47.34222" lon="-0.6622">
        <ele>81.1</ele>
        <time>2015-12-27T08:09:37Z</time>
      </trkpt>
      <trkpt lat="47.34217" lon="-0.66236">
        <ele>80.9</ele>
        <time>2015-12-27T08:09:40Z</time>
      </trkpt>
      <trkpt lat="47.34212" lon="-0.66251">
        <ele>81.4</ele>
        <time>2015-12-27T08:09:43Z</time>
      </trkpt>
      <trkpt lat="47.34207" lon="-0.66266">
        <ele>81.9</ele>
        <time>2015-12-27T08:09:46Z</time>
      </trkpt>
      <trkpt lat="47.34202" lon="-0.6628">
        <ele>82.5</ele>
        <time>2015-12-27T08:09:49Z</time>
      </trkpt>
      <trkpt lat="47.34195" lon="-0.66293">
        <ele>82.7</ele>
        <time>2015-12-27T08:09:52Z</time>
      </trkpt>
      <trkpt lat="47.34189" lon="-0.66307">
        <ele>83.2</ele>
        <time>2015-12-27T08:09:55Z</time>
      </trkpt>
      <trkpt lat="47.34182" lon="-0.66319">
        <ele>83.7</ele>
        <time>2015-12-27T08:09:58Z</time>
      </trkpt>
      <trkpt lat="47.34173" lon="-0.6633">
        <ele>83.9</ele>
        <time>2015-12-27T08:10:01Z</time>
      </trkpt>
      <trkpt lat="47.34163" lon="-0.66336">
        <ele>84.1</ele>
        <time>2015-12-27T08:10:04Z</time>
      </trkpt>
      <trkpt lat="47.34151" lon="-0.66339">
        <ele>84.5</ele>
        <time>2015-12-27T08:10:07Z</time>
      </trkpt>
      <trkpt lat="47.3414" lon="-0.66336">
        <ele>84.7</ele>
        <time>2015-12-27T08:10:10Z</time>
      </trkpt>
      <trkpt lat="47.34123" lon="-0.6634">
        <ele>85.2</ele>
        <time>2015-12-27T08:10:17Z</time>
      </trkpt>
      <trkpt lat="47.34122" lon="-0.66357">
        <ele>85.1</ele>
        <time>2015-12-27T08:10:20Z</time>
      </trkpt>
      <trkpt lat="47.34121" lon="-0.66376">
        <ele>84.4</ele>
        <time>2015-12-27T08:10:23Z</time>
      </trkpt>
      <trkpt lat="47.34121" lon="-0.6639">
        <ele>84.3</ele>
        <time>2015-12-27T08:10:25Z</time>
      </trkpt>
      <trkpt lat="47.34123" lon="-0.66404">
        <ele>83.9</ele>
        <time>2015-12-27T08:10:27Z</time>
      </trkpt>
      <trkpt lat="47.34125" lon="-0.66419">
        <ele>83</ele>
        <time>2015-12-27T08:10:29Z</time>
      </trkpt>
      <trkpt lat="47.34126" lon="-0.66435">
        <ele>82.7</ele>
        <time>2015-12-27T08:10:31Z</time>
      </trkpt>
      <trkpt lat="47.34127" lon="-0.66452">
        <ele>82.8</ele>
        <time>2015-12-27T08:10:33Z</time>
      </trkpt>
      <trkpt lat="47.34127" lon="-0.66468">
        <ele>82.8</ele>
        <time>2015-12-27T08:10:35Z</time>
      </trkpt>
      <trkpt lat="47.34128" lon="-0.66483">
        <ele>82.3</ele>
        <time>2015-12-27T08:10:37Z</time>
      </trkpt>
      <trkpt lat="47.3413" lon="-0.66499">
        <ele>81.9</ele>
        <time>2015-12-27T08:10:39Z</time>
      </trkpt>
      <trkpt lat="47.34132" lon="-0.66513">
        <ele>81.5</ele>
        <time>2015-12-27T08:10:41Z</time>
      </trkpt>
      <trkpt lat="47.3413" lon="-0.66533">
        <ele>80.9</ele>
        <time>2015-12-27T08:10:44Z</time>
      </trkpt>
      <trkpt lat="47.34129" lon="-0.66546">
        <ele>80.9</ele>
        <time>2015-12-27T08:10:46Z</time>
      </trkpt>
      <trkpt lat="47.34127" lon="-0.66566">
        <ele>81</ele>
        <time>2015-12-27T08:10:49Z</time>
      </trkpt>
      <trkpt lat="47.34125" lon="-0.66584">
        <ele>81.9</ele>
        <time>2015-12-27T08:10:52Z</time>
      </trkpt>
      <trkpt lat="47.34125" lon="-0.66601">
        <ele>82.7</ele>
        <time>2015-12-27T08:10:55Z</time>
      </trkpt>
      <trkpt lat="47.34125" lon="-0.66616">
        <ele>83.3</ele>
        <time>2015-12-27T08:10:58Z</time>
      </trkpt>
      <trkpt lat="47.34125" lon="-0.66631">
        <ele>83.8</ele>
        <time>2015-12-27T08:11:01Z</time>
      </trkpt>
      <trkpt lat="47.34125" lon="-0.66645">
        <ele>84</ele>
        <time>2015-12-27T08:11:04Z</time>
      </trkpt>
      <trkpt lat="47.34126" lon="-0.66659">
        <ele>84.4</ele>
        <time>2015-12-27T08:11:07Z</time>
      </trkpt>
      <trkpt lat="47.34124" lon="-0.66673">
        <ele>84.4</ele>
        <time>2015-12-27T08:11:10Z</time>
      </trkpt>
      <trkpt lat="47.34114" lon="-0.66682">
        <ele>84.8</ele>
        <time>2015-12-27T08:11:14Z</time>
      </trkpt>
      <trkpt lat="47.34093" lon="-0.6669">
        <ele>85.3</ele>
        <time>2015-12-27T08:11:20Z</time>
      </trkpt>
      <trkpt lat="47.34083" lon="-0.66694">
        <ele>85.4</ele>
        <time>2015-12-27T08:11:23Z</time>
      </trkpt>
      <trkpt lat="47.34072" lon="-0.66697">
        <ele>85.6</ele>
        <time>2015-12-27T08:11:26Z</time>
      </trkpt>
      <trkpt lat="47.34062" lon="-0.66698">
        <ele>85.9</ele>
        <time>2015-12-27T08:11:29Z</time>
      </trkpt>
      <trkpt lat="47.34051" lon="-0.66698">
        <ele>85.9</ele>
        <time>2015-12-27T08:11:32Z</time>
      </trkpt>
      <trkpt lat="47.3404" lon="-0.66698">
        <ele>86.2</ele>
        <time>2015-12-27T08:11:35Z</time>
      </trkpt>
      <trkpt lat="47.34029" lon="-0.667">
        <ele>86.1</ele>
        <time>2015-12-27T08:11:38Z</time>
      </trkpt>
      <trkpt lat="47.34019" lon="-0.66704">
        <ele>86.4</ele>
        <time>2015-12-27T08:11:41Z</time>
      </trkpt>
      <trkpt lat="47.34011" lon="-0.6671">
        <ele>86.1</ele>
        <time>2015-12-27T08:11:44Z</time>
      </trkpt>
      <trkpt lat="47.34002" lon="-0.66718">
        <ele>86</ele>
        <time>2015-12-27T08:11:48Z</time>
      </trkpt>
      <trkpt lat="47.33992" lon="-0.66726">
        <ele>85.9</ele>
        <time>2015-12-27T08:11:52Z</time>
      </trkpt>
      <trkpt lat="47.33983" lon="-0.66733">
        <ele>85.6</ele>
        <time>2015-12-27T08:11:55Z</time>
      </trkpt>
      <trkpt lat="47.33973" lon="-0.6674">
        <ele>85.7</ele>
        <time>2015-12-27T08:11:58Z</time>
      </trkpt>
      <trkpt lat="47.33963" lon="-0.66749">
        <ele>86.4</ele>
        <time>2015-12-27T08:12:01Z</time>
      </trkpt>
      <trkpt lat="47.33953" lon="-0.66757">
        <ele>85.9</ele>
        <time>2015-12-27T08:12:04Z</time>
      </trkpt>
      <trkpt lat="47.33942" lon="-0.66767">
        <ele>85.8</ele>
        <time>2015-12-27T08:12:07Z</time>
      </trkpt>
      <trkpt lat="47.33932" lon="-0.66778">
        <ele>85.9</ele>
        <time>2015-12-27T08:12:10Z</time>
      </trkpt>
      <trkpt lat="47.33924" lon="-0.66785">
        <ele>85.5</ele>
        <time>2015-12-27T08:12:12Z</time>
      </trkpt>
      <trkpt lat="47.33914" lon="-0.66796">
        <ele>85.2</ele>
        <time>2015-12-27T08:12:15Z</time>
      </trkpt>
      <trkpt lat="47.33895" lon="-0.66815">
        <ele>84.6</ele>
        <time>2015-12-27T08:12:20Z</time>
      </trkpt>
      <trkpt lat="47.33887" lon="-0.66823">
        <ele>84.9</ele>
        <time>2015-12-27T08:12:22Z</time>
      </trkpt>
      <trkpt lat="47.33877" lon="-0.66834">
        <ele>84.6</ele>
        <time>2015-12-27T08:12:25Z</time>
      </trkpt>
      <trkpt lat="47.33867" lon="-0.66846">
        <ele>84.6</ele>
        <time>2015-12-27T08:12:28Z</time>
      </trkpt>
      <trkpt lat="47.3386" lon="-0.66855">
        <ele>84.5</ele>
        <time>2015-12-27T08:12:30Z</time>
      </trkpt>
      <trkpt lat="47.33853" lon="-0.66865">
        <ele>83.8</ele>
        <time>2015-12-27T08:12:32Z</time>
      </trkpt>
      <trkpt lat="47.33846" lon="-0.66873">
        <ele>83.5</ele>
        <time>2015-12-27T08:12:34Z</time>
      </trkpt>
      <trkpt lat="47.33836" lon="-0.66886">
        <ele>83</ele>
        <time>2015-12-27T08:12:37Z</time>
      </trkpt>
      <trkpt lat="47.33826" lon="-0.66895">
        <ele>82.8</ele>
        <time>2015-12-27T08:12:40Z</time>
      </trkpt>
      <trkpt lat="47.33819" lon="-0.66902">
        <ele>83</ele>
        <time>2015-12-27T08:12:43Z</time>
      </trkpt>
      <trkpt lat="47.3381" lon="-0.66903">
        <ele>83</ele>
        <time>2015-12-27T08:12:46Z</time>
      </trkpt>
      <trkpt lat="47.33797" lon="-0.66902">
        <ele>83.1</ele>
        <time>2015-12-27T08:12:49Z</time>
      </trkpt>
      <trkpt lat="47.33785" lon="-0.66907">
        <ele>83.1</ele>
        <time>2015-12-27T08:12:52Z</time>
      </trkpt>
      <trkpt lat="47.33774" lon="-0.66913">
        <ele>83.2</ele>
        <time>2015-12-27T08:12:55Z</time>
      </trkpt>
      <trkpt lat="47.33762" lon="-0.6692">
        <ele>82.3</ele>
        <time>2015-12-27T08:12:58Z</time>
      </trkpt>
      <trkpt lat="47.33749" lon="-0.66925">
        <ele>81.6</ele>
        <time>2015-12-27T08:13:01Z</time>
      </trkpt>
      <trkpt lat="47.33736" lon="-0.66929">
        <ele>81.3</ele>
        <time>2015-12-27T08:13:04Z</time>
      </trkpt>
      <trkpt lat="47.33727" lon="-0.66931">
        <ele>81.1</ele>
        <time>2015-12-27T08:13:06Z</time>
      </trkpt>
      <trkpt lat="47.33715" lon="-0.66935">
        <ele>81.3</ele>
        <time>2015-12-27T08:13:09Z</time>
      </trkpt>
      <trkpt lat="47.33704" lon="-0.6694">
        <ele>80.7</ele>
        <time>2015-12-27T08:13:12Z</time>
      </trkpt>
      <trkpt lat="47.33701" lon="-0.66955">
        <ele>80</ele>
        <time>2015-12-27T08:13:16Z</time>
      </trkpt>
      <trkpt lat="47.33695" lon="-0.66969">
        <ele>80.4</ele>
        <time>2015-12-27T08:13:20Z</time>
      </trkpt>
      <trkpt lat="47.33676" lon="-0.66982">
        <ele>79.2</ele>
        <time>2015-12-27T08:13:26Z</time>
      </trkpt>
      <trkpt lat="47.33665" lon="-0.66986">
        <ele>79.6</ele>
        <time>2015-12-27T08:13:29Z</time>
      </trkpt>
      <trkpt lat="47.33653" lon="-0.66992">
        <ele>79.8</ele>
        <time>2015-12-27T08:13:32Z</time>
      </trkpt>
      <trkpt lat="47.33642" lon="-0.67">
        <ele>80.1</ele>
        <time>2015-12-27T08:13:35Z</time>
      </trkpt>
      <trkpt lat="47.3363" lon="-0.67006">
        <ele>80.3</ele>
        <time>2015-12-27T08:13:38Z</time>
      </trkpt>
      <trkpt lat="47.33618" lon="-0.67013">
        <ele>80.6</ele>
        <time>2015-12-27T08:13:41Z</time>
      </trkpt>
      <trkpt lat="47.33606" lon="-0.67019">
        <ele>80.8</ele>
        <time>2015-12-27T08:13:44Z</time>
      </trkpt>
      <trkpt lat="47.33595" lon="-0.67026">
        <ele>81.2</ele>
        <time>2015-12-27T08:13:47Z</time>
      </trkpt>
      <trkpt lat="47.33583" lon="-0.67032">
        <ele>81.4</ele>
        <time>2015-12-27T08:13:50Z</time>
      </trkpt>
      <trkpt lat="47.33572" lon="-0.67035">
        <ele>81.7</ele>
        <time>2015-12-27T08:13:53Z</time>
      </trkpt>
      <trkpt lat="47.33561" lon="-0.67035">
        <ele>81.8</ele>
        <time>2015-12-27T08:13:56Z</time>
      </trkpt>
      <trkpt lat="47.33551" lon="-0.67034">
        <ele>82.3</ele>
        <time>2015-12-27T08:13:59Z</time>
      </trkpt>
      <trkpt lat="47.33543" lon="-0.6704">
        <ele>81.9</ele>
        <time>2015-12-27T08:14:53Z</time>
      </trkpt>
      <trkpt lat="47.33523" lon="-0.67051">
        <ele>82.9</ele>
        <time>2015-12-27T08:15:03Z</time>
      </trkpt>
      <trkpt lat="47.33512" lon="-0.67058">
        <ele>83.1</ele>
        <time>2015-12-27T08:15:07Z</time>
      </trkpt>
      <trkpt lat="47.33503" lon="-0.67063">
        <ele>83.3</ele>
        <time>2015-12-27T08:15:10Z</time>
      </trkpt>
      <trkpt lat="47.33493" lon="-0.67068">
        <ele>83.8</ele>
        <time>2015-12-27T08:15:13Z</time>
      </trkpt>
      <trkpt lat="47.33483" lon="-0.67073">
        <ele>84</ele>
        <time>2015-12-27T08:15:16Z</time>
      </trkpt>
      <trkpt lat="47.33473" lon="-0.67079">
        <ele>84.4</ele>
        <time>2015-12-27T08:15:19Z</time>
      </trkpt>
      <trkpt lat="47.33462" lon="-0.67084">
        <ele>84.8</ele>
        <time>2015-12-27T08:15:22Z</time>
      </trkpt>
      <trkpt lat="47.33451" lon="-0.67092">
        <ele>85.1</ele>
        <time>2015-12-27T08:15:25Z</time>
      </trkpt>
      <trkpt lat="47.3344" lon="-0.67098">
        <ele>85.5</ele>
        <time>2015-12-27T08:15:28Z</time>
      </trkpt>
      <trkpt lat="47.33431" lon="-0.67104">
        <ele>85.6</ele>
        <time>2015-12-27T08:15:31Z</time>
      </trkpt>
      <trkpt lat="47.33422" lon="-0.67109">
        <ele>85.7</ele>
        <time>2015-12-27T08:15:35Z</time>
      </trkpt>
      <trkpt lat="47.3342" lon="-0.67122">
        <ele>85.3</ele>
        <time>2015-12-27T08:16:08Z</time>
      </trkpt>
      <trkpt lat="47.33431" lon="-0.67147">
        <ele>85.4</ele>
        <time>2015-12-27T08:16:14Z</time>
      </trkpt>
      <trkpt lat="47.33437" lon="-0.67161">
        <ele>85.9</ele>
        <time>2015-12-27T08:16:17Z</time>
      </trkpt>
      <trkpt lat="47.33443" lon="-0.67175">
        <ele>86.3</ele>
        <time>2015-12-27T08:16:20Z</time>
      </trkpt>
      <trkpt lat="47.33449" lon="-0.67188">
        <ele>86.1</ele>
        <time>2015-12-27T08:16:23Z</time>
      </trkpt>
      <trkpt lat="47.33456" lon="-0.67201">
        <ele>86.3</ele>
        <time>2015-12-27T08:16:26Z</time>
      </trkpt>
      <trkpt lat="47.33461" lon="-0.67213">
        <ele>86.6</ele>
        <time>2015-12-27T08:16:29Z</time>
      </trkpt>
      <trkpt lat="47.33467" lon="-0.67224">
        <ele>87</ele>
        <time>2015-12-27T08:16:32Z</time>
      </trkpt>
      <trkpt lat="47.33473" lon="-0.67237">
        <ele>87.7</ele>
        <time>2015-12-27T08:16:35Z</time>
      </trkpt>
      <trkpt lat="47.33479" lon="-0.67251">
        <ele>87.7</ele>
        <time>2015-12-27T08:16:38Z</time>
      </trkpt>
      <trkpt lat="47.33486" lon="-0.67265">
        <ele>87.4</ele>
        <time>2015-12-27T08:16:41Z</time>
      </trkpt>
      <trkpt lat="47.33493" lon="-0.6728">
        <ele>88</ele>
        <time>2015-12-27T08:16:44Z</time>
      </trkpt>
      <trkpt lat="47.33499" lon="-0.67295">
        <ele>88.4</ele>
        <time>2015-12-27T08:16:47Z</time>
      </trkpt>
      <trkpt lat="47.33505" lon="-0.67309">
        <ele>88.7</ele>
        <time>2015-12-27T08:16:50Z</time>
      </trkpt>
      <trkpt lat="47.33512" lon="-0.67323">
        <ele>89</ele>
        <time>2015-12-27T08:16:53Z</time>
      </trkpt>
      <trkpt lat="47.33519" lon="-0.67336">
        <ele>88.8</ele>
        <time>2015-12-27T08:16:56Z</time>
      </trkpt>
      <trkpt lat="47.33529" lon="-0.67348">
        <ele>88.5</ele>
        <time>2015-12-27T08:16:59Z</time>
      </trkpt>
      <trkpt lat="47.33538" lon="-0.67351">
        <ele>88.2</ele>
        <time>2015-12-27T08:17:01Z</time>
      </trkpt>
      <trkpt lat="47.33551" lon="-0.67357">
        <ele>87.5</ele>
        <time>2015-12-27T08:17:04Z</time>
      </trkpt>
      <trkpt lat="47.33557" lon="-0.67368">
        <ele>87.3</ele>
        <time>2015-12-27T08:17:06Z</time>
      </trkpt>
      <trkpt lat="47.3356" lon="-0.67383">
        <ele>87.2</ele>
        <time>2015-12-27T08:17:08Z</time>
      </trkpt>
      <trkpt lat="47.33565" lon="-0.67399">
        <ele>87</ele>
        <time>2015-12-27T08:17:10Z</time>
      </trkpt>
      <trkpt lat="47.33574" lon="-0.6743">
        <ele>86.4</ele>
        <time>2015-12-27T08:17:14Z</time>
      </trkpt>
      <trkpt lat="47.33579" lon="-0.67447">
        <ele>86</ele>
        <time>2015-12-27T08:17:16Z</time>
      </trkpt>
      <trkpt lat="47.33584" lon="-0.67463">
        <ele>85.4</ele>
        <time>2015-12-27T08:17:18Z</time>
      </trkpt>
      <trkpt lat="47.33591" lon="-0.6748">
        <ele>84.7</ele>
        <time>2015-12-27T08:17:20Z</time>
      </trkpt>
      <trkpt lat="47.33598" lon="-0.67497">
        <ele>83.8</ele>
        <time>2015-12-27T08:17:22Z</time>
      </trkpt>
      <trkpt lat="47.33606" lon="-0.67514">
        <ele>82.7</ele>
        <time>2015-12-27T08:17:24Z</time>
      </trkpt>
      <trkpt lat="47.33616" lon="-0.67533">
        <ele>82.4</ele>
        <time>2015-12-27T08:17:26Z</time>
      </trkpt>
      <trkpt lat="47.33626" lon="-0.67551">
        <ele>81.6</ele>
        <time>2015-12-27T08:17:28Z</time>
      </trkpt>
      <trkpt lat="47.33637" lon="-0.67569">
        <ele>80.6</ele>
        <time>2015-12-27T08:17:30Z</time>
      </trkpt>
      <trkpt lat="47.33646" lon="-0.67586">
        <ele>80.3</ele>
        <time>2015-12-27T08:17:32Z</time>
      </trkpt>
      <trkpt lat="47.33653" lon="-0.67602">
        <ele>79.9</ele>
        <time>2015-12-27T08:17:34Z</time>
      </trkpt>
      <trkpt lat="47.33661" lon="-0.67619">
        <ele>79.9</ele>
        <time>2015-12-27T08:17:36Z</time>
      </trkpt>
      <trkpt lat="47.3367" lon="-0.67635">
        <ele>80.3</ele>
        <time>2015-12-27T08:17:38Z</time>
      </trkpt>
      <trkpt lat="47.3368" lon="-0.67651">
        <ele>80.5</ele>
        <time>2015-12-27T08:17:40Z</time>
      </trkpt>
      <trkpt lat="47.3369" lon="-0.67667">
        <ele>81</ele>
        <time>2015-12-27T08:17:42Z</time>
      </trkpt>
      <trkpt lat="47.33701" lon="-0.67683">
        <ele>81.7</ele>
        <time>2015-12-27T08:17:44Z</time>
      </trkpt>
      <trkpt lat="47.3371" lon="-0.67698">
        <ele>81.3</ele>
        <time>2015-12-27T08:17:46Z</time>
      </trkpt>
      <trkpt lat="47.3372" lon="-0.67714">
        <ele>81.9</ele>
        <time>2015-12-27T08:17:48Z</time>
      </trkpt>
      <trkpt lat="47.33728" lon="-0.67728">
        <ele>82.6</ele>
        <time>2015-12-27T08:17:50Z</time>
      </trkpt>
      <trkpt lat="47.33737" lon="-0.67742">
        <ele>82.6</ele>
        <time>2015-12-27T08:17:52Z</time>
      </trkpt>
      <trkpt lat="47.33744" lon="-0.67757">
        <ele>83</ele>
        <time>2015-12-27T08:17:54Z</time>
      </trkpt>
      <trkpt lat="47.33752" lon="-0.67771">
        <ele>83</ele>
        <time>2015-12-27T08:17:56Z</time>
      </trkpt>
      <trkpt lat="47.33758" lon="-0.67786">
        <ele>83.2</ele>
        <time>2015-12-27T08:17:58Z</time>
      </trkpt>
      <trkpt lat="47.33764" lon="-0.67802">
        <ele>83</ele>
        <time>2015-12-27T08:18:00Z</time>
      </trkpt>
      <trkpt lat="47.3377" lon="-0.67818">
        <ele>83.5</ele>
        <time>2015-12-27T08:18:02Z</time>
      </trkpt>
      <trkpt lat="47.33777" lon="-0.67833">
        <ele>83.8</ele>
        <time>2015-12-27T08:18:04Z</time>
      </trkpt>
      <trkpt lat="47.33784" lon="-0.67847">
        <ele>83.7</ele>
        <time>2015-12-27T08:18:06Z</time>
      </trkpt>
      <trkpt lat="47.33791" lon="-0.67862">
        <ele>84.1</ele>
        <time>2015-12-27T08:18:08Z</time>
      </trkpt>
      <trkpt lat="47.33797" lon="-0.67876">
        <ele>84.3</ele>
        <time>2015-12-27T08:18:10Z</time>
      </trkpt>
      <trkpt lat="47.33804" lon="-0.6789">
        <ele>84.4</ele>
        <time>2015-12-27T08:18:12Z</time>
      </trkpt>
      <trkpt lat="47.33817" lon="-0.67918">
        <ele>84.2</ele>
        <time>2015-12-27T08:18:16Z</time>
      </trkpt>
      <trkpt lat="47.33821" lon="-0.67936">
        <ele>84.2</ele>
        <time>2015-12-27T08:18:18Z</time>
      </trkpt>
      <trkpt lat="47.33825" lon="-0.67953">
        <ele>84.3</ele>
        <time>2015-12-27T08:18:20Z</time>
      </trkpt>
      <trkpt lat="47.33829" lon="-0.6797">
        <ele>84.5</ele>
        <time>2015-12-27T08:18:22Z</time>
      </trkpt>
      <trkpt lat="47.33833" lon="-0.67986">
        <ele>84.1</ele>
        <time>2015-12-27T08:18:24Z</time>
      </trkpt>
      <trkpt lat="47.33837" lon="-0.68002">
        <ele>84.5</ele>
        <time>2015-12-27T08:18:26Z</time>
      </trkpt>
      <trkpt lat="47.33842" lon="-0.68018">
        <ele>84.3</ele>
        <time>2015-12-27T08:18:28Z</time>
      </trkpt>
      <trkpt lat="47.33848" lon="-0.68032">
        <ele>84.1</ele>
        <time>2015-12-27T08:18:30Z</time>
      </trkpt>
      <trkpt lat="47.33856" lon="-0.68045">
        <ele>83.9</ele>
        <time>2015-12-27T08:18:32Z</time>
      </trkpt>
      <trkpt lat="47.33863" lon="-0.68058">
        <ele>83.7</ele>
        <time>2015-12-27T08:18:34Z</time>
      </trkpt>
      <trkpt lat="47.33871" lon="-0.6807">
        <ele>83.6</ele>
        <time>2015-12-27T08:18:36Z</time>
      </trkpt>
      <trkpt lat="47.33876" lon="-0.68082">
        <ele>83.6</ele>
        <time>2015-12-27T08:18:38Z</time>
      </trkpt>
      <trkpt lat="47.3387" lon="-0.68097">
        <ele>83.7</ele>
        <time>2015-12-27T08:18:41Z</time>
      </trkpt>
      <trkpt lat="47.33862" lon="-0.68106">
        <ele>83.7</ele>
        <time>2015-12-27T08:18:43Z</time>
      </trkpt>
      <trkpt lat="47.33864" lon="-0.6812">
        <ele>84</ele>
        <time>2015-12-27T08:18:45Z</time>
      </trkpt>
      <trkpt lat="47.33868" lon="-0.68136">
        <ele>84.2</ele>
        <time>2015-12-27T08:18:47Z</time>
      </trkpt>
      <trkpt lat="47.33873" lon="-0.68151">
        <ele>84.1</ele>
        <time>2015-12-27T08:18:49Z</time>
      </trkpt>
      <trkpt lat="47.33878" lon="-0.68165">
        <ele>84.1</ele>
        <time>2015-12-27T08:18:51Z</time>
      </trkpt>
      <trkpt lat="47.33883" lon="-0.68179">
        <ele>84.2</ele>
        <time>2015-12-27T08:18:53Z</time>
      </trkpt>
      <trkpt lat="47.33883" lon="-0.68194">
        <ele>83.9</ele>
        <time>2015-12-27T08:18:56Z</time>
      </trkpt>
      <trkpt lat="47.33875" lon="-0.68201">
        <ele>82.9</ele>
        <time>2015-12-27T08:19:02Z</time>
      </trkpt>
      <trkpt lat="47.33866" lon="-0.68205">
        <ele>82</ele>
        <time>2015-12-27T08:19:20Z</time>
      </trkpt>
      <trkpt lat="47.33846" lon="-0.68221">
        <ele>81.1</ele>
        <time>2015-12-27T08:19:26Z</time>
      </trkpt>
      <trkpt lat="47.33837" lon="-0.68229">
        <ele>80.9</ele>
        <time>2015-12-27T08:19:28Z</time>
      </trkpt>
      <trkpt lat="47.33826" lon="-0.68238">
        <ele>79.7</ele>
        <time>2015-12-27T08:19:30Z</time>
      </trkpt>
      <trkpt lat="47.33813" lon="-0.68247">
        <ele>78.1</ele>
        <time>2015-12-27T08:19:32Z</time>
      </trkpt>
      <trkpt lat="47.33799" lon="-0.68256">
        <ele>77.8</ele>
        <time>2015-12-27T08:19:34Z</time>
      </trkpt>
      <trkpt lat="47.33782" lon="-0.68267">
        <ele>77.5</ele>
        <time>2015-12-27T08:19:36Z</time>
      </trkpt>
      <trkpt lat="47.33773" lon="-0.68273">
        <ele>76.6</ele>
        <time>2015-12-27T08:19:37Z</time>
      </trkpt>
      <trkpt lat="47.33764" lon="-0.6828">
        <ele>76.4</ele>
        <time>2015-12-27T08:19:38Z</time>
      </trkpt>
      <trkpt lat="47.33755" lon="-0.68287">
        <ele>75.3</ele>
        <time>2015-12-27T08:19:39Z</time>
      </trkpt>
      <trkpt lat="47.33746" lon="-0.68295">
        <ele>74.8</ele>
        <time>2015-12-27T08:19:40Z</time>
      </trkpt>
      <trkpt lat="47.33736" lon="-0.68302">
        <ele>74.3</ele>
        <time>2015-12-27T08:19:41Z</time>
      </trkpt>
      <trkpt lat="47.33727" lon="-0.68309">
        <ele>73.7</ele>
        <time>2015-12-27T08:19:42Z</time>
      </trkpt>
      <trkpt lat="47.33718" lon="-0.68316">
        <ele>72.9</ele>
        <time>2015-12-27T08:19:43Z</time>
      </trkpt>
      <trkpt lat="47.33709" lon="-0.68323">
        <ele>72.7</ele>
        <time>2015-12-27T08:19:44Z</time>
      </trkpt>
      <trkpt lat="47.337" lon="-0.68331">
        <ele>72.3</ele>
        <time>2015-12-27T08:19:45Z</time>
      </trkpt>
      <trkpt lat="47.33692" lon="-0.68338">
        <ele>71.8</ele>
        <time>2015-12-27T08:19:46Z</time>
      </trkpt>
      <trkpt lat="47.33683" lon="-0.68346">
        <ele>71.5</ele>
        <time>2015-12-27T08:19:47Z</time>
      </trkpt>
      <trkpt lat="47.33675" lon="-0.68354">
        <ele>71.4</ele>
        <time>2015-12-27T08:19:48Z</time>
      </trkpt>
      <trkpt lat="47.33667" lon="-0.68362">
        <ele>71</ele>
        <time>2015-12-27T08:19:49Z</time>
      </trkpt>
      <trkpt lat="47.33659" lon="-0.6837">
        <ele>70.7</ele>
        <time>2015-12-27T08:19:50Z</time>
      </trkpt>
      <trkpt lat="47.3365" lon="-0.68376">
        <ele>70.4</ele>
        <time>2015-12-27T08:19:51Z</time>
      </trkpt>
      <trkpt lat="47.3364" lon="-0.68383">
        <ele>69.8</ele>
        <time>2015-12-27T08:19:52Z</time>
      </trkpt>
      <trkpt lat="47.33631" lon="-0.68389">
        <ele>69.6</ele>
        <time>2015-12-27T08:19:53Z</time>
      </trkpt>
      <trkpt lat="47.33623" lon="-0.68395">
        <ele>69.2</ele>
        <time>2015-12-27T08:19:54Z</time>
      </trkpt>
      <trkpt lat="47.3361" lon="-0.68408">
        <ele>68.5</ele>
        <time>2015-12-27T08:19:56Z</time>
      </trkpt>
      <trkpt lat="47.33604" lon="-0.68422">
        <ele>67.1</ele>
        <time>2015-12-27T08:19:58Z</time>
      </trkpt>
      <trkpt lat="47.3361" lon="-0.68433">
        <ele>65.7</ele>
        <time>2015-12-27T08:20:00Z</time>
      </trkpt>
      <trkpt lat="47.33621" lon="-0.6844">
        <ele>64.7</ele>
        <time>2015-12-27T08:20:02Z</time>
      </trkpt>
      <trkpt lat="47.33632" lon="-0.68448">
        <ele>64.1</ele>
        <time>2015-12-27T08:20:04Z</time>
      </trkpt>
      <trkpt lat="47.33631" lon="-0.68464">
        <ele>62</ele>
        <time>2015-12-27T08:20:44Z</time>
      </trkpt>
      <trkpt lat="47.33612" lon="-0.68479">
        <ele>61.5</ele>
        <time>2015-12-27T08:20:49Z</time>
      </trkpt>
      <trkpt lat="47.33602" lon="-0.68488">
        <ele>60.1</ele>
        <time>2015-12-27T08:20:51Z</time>
      </trkpt>
      <trkpt lat="47.33592" lon="-0.68498">
        <ele>58.6</ele>
        <time>2015-12-27T08:20:53Z</time>
      </trkpt>
      <trkpt lat="47.3358" lon="-0.68511">
        <ele>57.3</ele>
        <time>2015-12-27T08:20:55Z</time>
      </trkpt>
      <trkpt lat="47.33567" lon="-0.68526">
        <ele>55.2</ele>
        <time>2015-12-27T08:20:57Z</time>
      </trkpt>
      <trkpt lat="47.33555" lon="-0.68541">
        <ele>52.2</ele>
        <time>2015-12-27T08:20:59Z</time>
      </trkpt>
      <trkpt lat="47.33542" lon="-0.68556">
        <ele>50.8</ele>
        <time>2015-12-27T08:21:01Z</time>
      </trkpt>
      <trkpt lat="47.33529" lon="-0.68565">
        <ele>48.9</ele>
        <time>2015-12-27T08:21:03Z</time>
      </trkpt>
      <trkpt lat="47.33519" lon="-0.68573">
        <ele>47.4</ele>
        <time>2015-12-27T08:21:05Z</time>
      </trkpt>
      <trkpt lat="47.33508" lon="-0.68582">
        <ele>46.6</ele>
        <time>2015-12-27T08:21:07Z</time>
      </trkpt>
      <trkpt lat="47.33494" lon="-0.68591">
        <ele>44.9</ele>
        <time>2015-12-27T08:21:09Z</time>
      </trkpt>
      <trkpt lat="47.3348" lon="-0.686">
        <ele>43.2</ele>
        <time>2015-12-27T08:21:11Z</time>
      </trkpt>
      <trkpt lat="47.33464" lon="-0.68607">
        <ele>42.3</ele>
        <time>2015-12-27T08:21:13Z</time>
      </trkpt>
      <trkpt lat="47.33449" lon="-0.68614">
        <ele>40.4</ele>
        <time>2015-12-27T08:21:15Z</time>
      </trkpt>
      <trkpt lat="47.33433" lon="-0.68621">
        <ele>38.7</ele>
        <time>2015-12-27T08:21:17Z</time>
      </trkpt>
      <trkpt lat="47.33418" lon="-0.68631">
        <ele>37.6</ele>
        <time>2015-12-27T08:21:19Z</time>
      </trkpt>
      <trkpt lat="47.33405" lon="-0.68642">
        <ele>36.5</ele>
        <time>2015-12-27T08:21:21Z</time>
      </trkpt>
      <trkpt lat="47.33391" lon="-0.68651">
        <ele>34.6</ele>
        <time>2015-12-27T08:21:23Z</time>
      </trkpt>
      <trkpt lat="47.33379" lon="-0.68664">
        <ele>33.7</ele>
        <time>2015-12-27T08:21:25Z</time>
      </trkpt>
      <trkpt lat="47.33367" lon="-0.68681">
        <ele>32.8</ele>
        <time>2015-12-27T08:21:27Z</time>
      </trkpt>
      <trkpt lat="47.33355" lon="-0.68695">
        <ele>31.7</ele>
        <time>2015-12-27T08:21:29Z</time>
      </trkpt>
      <trkpt lat="47.33344" lon="-0.68708">
        <ele>30</ele>
        <time>2015-12-27T08:21:31Z</time>
      </trkpt>
      <trkpt lat="47.33332" lon="-0.68722">
        <ele>29.1</ele>
        <time>2015-12-27T08:21:33Z</time>
      </trkpt>
      <trkpt lat="47.33318" lon="-0.68737">
        <ele>27.6</ele>
        <time>2015-12-27T08:21:35Z</time>
      </trkpt>
      <trkpt lat="47.33303" lon="-0.68751">
        <ele>26.9</ele>
        <time>2015-12-27T08:21:37Z</time>
      </trkpt>
      <trkpt lat="47.33289" lon="-0.68766">
        <ele>24.4</ele>
        <time>2015-12-27T08:21:39Z</time>
      </trkpt>
      <trkpt lat="47.33281" lon="-0.68774">
        <ele>23.9</ele>
        <time>2015-12-27T08:21:40Z</time>
      </trkpt>
      <trkpt lat="47.33274" lon="-0.68782">
        <ele>22.8</ele>
        <time>2015-12-27T08:21:41Z</time>
      </trkpt>
      <trkpt lat="47.33266" lon="-0.6879">
        <ele>21.5</ele>
        <time>2015-12-27T08:21:42Z</time>
      </trkpt>
      <trkpt lat="47.33258" lon="-0.68798">
        <ele>21.4</ele>
        <time>2015-12-27T08:21:43Z</time>
      </trkpt>
      <trkpt lat="47.3325" lon="-0.68806">
        <ele>20.5</ele>
        <time>2015-12-27T08:21:44Z</time>
      </trkpt>
      <trkpt lat="47.33243" lon="-0.68814">
        <ele>20</ele>
        <time>2015-12-27T08:21:45Z</time>
      </trkpt>
      <trkpt lat="47.33229" lon="-0.68833">
        <ele>18.2</ele>
        <time>2015-12-27T08:21:47Z</time>
      </trkpt>
      <trkpt lat="47.33222" lon="-0.68843">
        <ele>17.6</ele>
        <time>2015-12-27T08:21:48Z</time>
      </trkpt>
      <trkpt lat="47.33215" lon="-0.68852">
        <ele>17.3</ele>
        <time>2015-12-27T08:21:49Z</time>
      </trkpt>
      <trkpt lat="47.33201" lon="-0.68867">
        <ele>16.2</ele>
        <time>2015-12-27T08:21:51Z</time>
      </trkpt>
      <trkpt lat="47.33189" lon="-0.68878">
        <ele>14.9</ele>
        <time>2015-12-27T08:21:53Z</time>
      </trkpt>
      <trkpt lat="47.33181" lon="-0.68886">
        <ele>13.6</ele>
        <time>2015-12-27T08:21:56Z</time>
      </trkpt>
      <trkpt lat="47.3319" lon="-0.68896">
        <ele>12.1</ele>
        <time>2015-12-27T08:22:45Z</time>
      </trkpt>
      <trkpt lat="47.332" lon="-0.68902">
        <ele>11.7</ele>
        <time>2015-12-27T08:22:48Z</time>
      </trkpt>
      <trkpt lat="47.33222" lon="-0.68914">
        <ele>12.3</ele>
        <time>2015-12-27T08:22:54Z</time>
      </trkpt>
      <trkpt lat="47.33233" lon="-0.6892">
        <ele>12.1</ele>
        <time>2015-12-27T08:22:57Z</time>
      </trkpt>
      <trkpt lat="47.33246" lon="-0.68929">
        <ele>12.2</ele>
        <time>2015-12-27T08:23:00Z</time>
      </trkpt>
      <trkpt lat="47.33255" lon="-0.68935">
        <ele>11.7</ele>
        <time>2015-12-27T08:23:02Z</time>
      </trkpt>
      <trkpt lat="47.33264" lon="-0.68942">
        <ele>11.6</ele>
        <time>2015-12-27T08:23:04Z</time>
      </trkpt>
      <trkpt lat="47.33273" lon="-0.68949">
        <ele>11.1</ele>
        <time>2015-12-27T08:23:06Z</time>
      </trkpt>
      <trkpt lat="47.33282" lon="-0.68959">
        <ele>10.9</ele>
        <time>2015-12-27T08:23:08Z</time>
      </trkpt>
      <trkpt lat="47.3329" lon="-0.6897">
        <ele>10.7</ele>
        <time>2015-12-27T08:23:10Z</time>
      </trkpt>
      <trkpt lat="47.33298" lon="-0.68983">
        <ele>10.3</ele>
        <time>2015-12-27T08:23:12Z</time>
      </trkpt>
      <trkpt lat="47.33305" lon="-0.68994">
        <ele>10.2</ele>
        <time>2015-12-27T08:23:14Z</time>
      </trkpt>
      <trkpt lat="47.33311" lon="-0.69004">
        <ele>9.7</ele>
        <time>2015-12-27T08:23:16Z</time>
      </trkpt>
      <trkpt lat="47.3332" lon="-0.69016">
        <ele>9.2</ele>
        <time>2015-12-27T08:23:19Z</time>
      </trkpt>
      <trkpt lat="47.3333" lon="-0.69025">
        <ele>9.3</ele>
        <time>2015-12-27T08:23:22Z</time>
      </trkpt>
      <trkpt lat="47.33342" lon="-0.6903">
        <ele>9.5</ele>
        <time>2015-12-27T08:23:25Z</time>
      </trkpt>
      <trkpt lat="47.33354" lon="-0.69034">
        <ele>9.2</ele>
        <time>2015-12-27T08:23:28Z</time>
      </trkpt>
      <trkpt lat="47.33366" lon="-0.69037">
        <ele>8.8</ele>
        <time>2015-12-27T08:23:31Z</time>
      </trkpt>
      <trkpt lat="47.33379" lon="-0.6904">
        <ele>8.8</ele>
        <time>2015-12-27T08:23:34Z</time>
      </trkpt>
      <trkpt lat="47.33391" lon="-0.69043">
        <ele>8.5</ele>
        <time>2015-12-27T08:23:37Z</time>
      </trkpt>
      <trkpt lat="47.33404" lon="-0.69047">
        <ele>9.3</ele>
        <time>2015-12-27T08:23:40Z</time>
      </trkpt>
      <trkpt lat="47.33416" lon="-0.69056">
        <ele>9.3</ele>
        <time>2015-12-27T08:23:43Z</time>
      </trkpt>
      <trkpt lat="47.33424" lon="-0.69064">
        <ele>9.8</ele>
        <time>2015-12-27T08:23:45Z</time>
      </trkpt>
      <trkpt lat="47.33432" lon="-0.69073">
        <ele>9.8</ele>
        <time>2015-12-27T08:23:47Z</time>
      </trkpt>
      <trkpt lat="47.33441" lon="-0.69078">
        <ele>9.8</ele>
        <time>2015-12-27T08:23:49Z</time>
      </trkpt>
      <trkpt lat="47.33459" lon="-0.69088">
        <ele>9.2</ele>
        <time>2015-12-27T08:23:53Z</time>
      </trkpt>
      <trkpt lat="47.33468" lon="-0.69092">
        <ele>9</ele>
        <time>2015-12-27T08:23:55Z</time>
      </trkpt>
      <trkpt lat="47.33476" lon="-0.69098">
        <ele>9.1</ele>
        <time>2015-12-27T08:23:57Z</time>
      </trkpt>
      <trkpt lat="47.33487" lon="-0.69107">
        <ele>9.3</ele>
        <time>2015-12-27T08:24:00Z</time>
      </trkpt>
      <trkpt lat="47.33498" lon="-0.69115">
        <ele>10.1</ele>
        <time>2015-12-27T08:24:03Z</time>
      </trkpt>
      <trkpt lat="47.33509" lon="-0.69121">
        <ele>10.5</ele>
        <time>2015-12-27T08:24:06Z</time>
      </trkpt>
      <trkpt lat="47.33519" lon="-0.69128">
        <ele>11.1</ele>
        <time>2015-12-27T08:24:09Z</time>
      </trkpt>
      <trkpt lat="47.33528" lon="-0.6914">
        <ele>11.1</ele>
        <time>2015-12-27T08:24:12Z</time>
      </trkpt>
      <trkpt lat="47.33534" lon="-0.69151">
        <ele>10.7</ele>
        <time>2015-12-27T08:24:14Z</time>
      </trkpt>
      <trkpt lat="47.33542" lon="-0.69165">
        <ele>10.1</ele>
        <time>2015-12-27T08:24:16Z</time>
      </trkpt>
      <trkpt lat="47.33551" lon="-0.69181">
        <ele>9.2</ele>
        <time>2015-12-27T08:24:18Z</time>
      </trkpt>
      <trkpt lat="47.3356" lon="-0.69191">
        <ele>9.1</ele>
        <time>2015-12-27T08:24:20Z</time>
      </trkpt>
      <trkpt lat="47.33567" lon="-0.69203">
        <ele>8.6</ele>
        <time>2015-12-27T08:24:22Z</time>
      </trkpt>
      <trkpt lat="47.33575" lon="-0.69214">
        <ele>9.2</ele>
        <time>2015-12-27T08:24:24Z</time>
      </trkpt>
      <trkpt lat="47.33583" lon="-0.69222">
        <ele>9.1</ele>
        <time>2015-12-27T08:24:26Z</time>
      </trkpt>
      <trkpt lat="47.33594" lon="-0.69233">
        <ele>10</ele>
        <time>2015-12-27T08:24:29Z</time>
      </trkpt>
      <trkpt lat="47.33604" lon="-0.69244">
        <ele>10.8</ele>
        <time>2015-12-27T08:24:32Z</time>
      </trkpt>
      <trkpt lat="47.33614" lon="-0.69258">
        <ele>10.7</ele>
        <time>2015-12-27T08:24:35Z</time>
      </trkpt>
      <trkpt lat="47.33619" lon="-0.6927">
        <ele>10.7</ele>
        <time>2015-12-27T08:24:37Z</time>
      </trkpt>
      <trkpt lat="47.33625" lon="-0.69282">
        <ele>10.7</ele>
        <time>2015-12-27T08:24:39Z</time>
      </trkpt>
      <trkpt lat="47.33632" lon="-0.69295">
        <ele>10.3</ele>
        <time>2015-12-27T08:24:41Z</time>
      </trkpt>
      <trkpt lat="47.33638" lon="-0.69307">
        <ele>9.8</ele>
        <time>2015-12-27T08:24:43Z</time>
      </trkpt>
      <trkpt lat="47.33645" lon="-0.69317">
        <ele>10</ele>
        <time>2015-12-27T08:24:45Z</time>
      </trkpt>
      <trkpt lat="47.33651" lon="-0.69327">
        <ele>9.2</ele>
        <time>2015-12-27T08:24:47Z</time>
      </trkpt>
      <trkpt lat="47.33651" lon="-0.69342">
        <ele>9.2</ele>
        <time>2015-12-27T08:24:49Z</time>
      </trkpt>
      <trkpt lat="47.33648" lon="-0.69355">
        <ele>9.4</ele>
        <time>2015-12-27T08:24:51Z</time>
      </trkpt>
      <trkpt lat="47.33647" lon="-0.69392">
        <ele>8.6</ele>
        <time>2015-12-27T08:24:57Z</time>
      </trkpt>
      <trkpt lat="47.33651" lon="-0.69408">
        <ele>8</ele>
        <time>2015-12-27T08:25:00Z</time>
      </trkpt>
      <trkpt lat="47.33651" lon="-0.69422">
        <ele>7.3</ele>
        <time>2015-12-27T08:25:03Z</time>
      </trkpt>
      <trkpt lat="47.33652" lon="-0.69442">
        <ele>6.9</ele>
        <time>2015-12-27T08:25:06Z</time>
      </trkpt>
      <trkpt lat="47.33651" lon="-0.6946">
        <ele>6.8</ele>
        <time>2015-12-27T08:25:09Z</time>
      </trkpt>
      <trkpt lat="47.33658" lon="-0.69474">
        <ele>6.9</ele>
        <time>2015-12-27T08:25:12Z</time>
      </trkpt>
      <trkpt lat="47.33663" lon="-0.69488">
        <ele>6.8</ele>
        <time>2015-12-27T08:25:15Z</time>
      </trkpt>
      <trkpt lat="47.3367" lon="-0.69501">
        <ele>6.7</ele>
        <time>2015-12-27T08:25:18Z</time>
      </trkpt>
      <trkpt lat="47.33676" lon="-0.69514">
        <ele>6.5</ele>
        <time>2015-12-27T08:25:21Z</time>
      </trkpt>
      <trkpt lat="47.33681" lon="-0.69529">
        <ele>6.7</ele>
        <time>2015-12-27T08:25:24Z</time>
      </trkpt>
      <trkpt lat="47.33689" lon="-0.69545">
        <ele>6.7</ele>
        <time>2015-12-27T08:25:27Z</time>
      </trkpt>
      <trkpt lat="47.33697" lon="-0.69557">
        <ele>6.7</ele>
        <time>2015-12-27T08:25:30Z</time>
      </trkpt>
      <trkpt lat="47.33703" lon="-0.6957">
        <ele>7</ele>
        <time>2015-12-27T08:25:33Z</time>
      </trkpt>
      <trkpt lat="47.33708" lon="-0.69585">
        <ele>7.1</ele>
        <time>2015-12-27T08:25:36Z</time>
      </trkpt>
      <trkpt lat="47.33713" lon="-0.69601">
        <ele>7.2</ele>
        <time>2015-12-27T08:25:39Z</time>
      </trkpt>
      <trkpt lat="47.33719" lon="-0.69617">
        <ele>6.8</ele>
        <time>2015-12-27T08:25:42Z</time>
      </trkpt>
      <trkpt lat="47.33723" lon="-0.69636">
        <ele>6.6</ele>
        <time>2015-12-27T08:25:45Z</time>
      </trkpt>
      <trkpt lat="47.33727" lon="-0.69648">
        <ele>6.5</ele>
        <time>2015-12-27T08:25:47Z</time>
      </trkpt>
      <trkpt lat="47.33732" lon="-0.6966">
        <ele>6.7</ele>
        <time>2015-12-27T08:25:50Z</time>
      </trkpt>
      <trkpt lat="47.33735" lon="-0.69673">
        <ele>7.4</ele>
        <time>2015-12-27T08:25:53Z</time>
      </trkpt>
      <trkpt lat="47.33751" lon="-0.69686">
        <ele>9.2</ele>
        <time>2015-12-27T08:26:01Z</time>
      </trkpt>
      <trkpt lat="47.33761" lon="-0.69687">
        <ele>10.3</ele>
        <time>2015-12-27T08:26:06Z</time>
      </trkpt>
      <trkpt lat="47.33769" lon="-0.69694">
        <ele>11.2</ele>
        <time>2015-12-27T08:26:13Z</time>
      </trkpt>
      <trkpt lat="47.33778" lon="-0.697">
        <ele>12.2</ele>
        <time>2015-12-27T08:26:18Z</time>
      </trkpt>
      <trkpt lat="47.33789" lon="-0.697">
        <ele>13.4</ele>
        <time>2015-12-27T08:26:23Z</time>
      </trkpt>
      <trkpt lat="47.33798" lon="-0.69696">
        <ele>14.6</ele>
        <time>2015-12-27T08:26:27Z</time>
      </trkpt>
      <trkpt lat="47.33808" lon="-0.69691">
        <ele>15.4</ele>
        <time>2015-12-27T08:26:31Z</time>
      </trkpt>
      <trkpt lat="47.33818" lon="-0.69688">
        <ele>16.8</ele>
        <time>2015-12-27T08:26:36Z</time>
      </trkpt>
      <trkpt lat="47.33827" lon="-0.69684">
        <ele>18.7</ele>
        <time>2015-12-27T08:26:41Z</time>
      </trkpt>
      <trkpt lat="47.33838" lon="-0.69683">
        <ele>19.9</ele>
        <time>2015-12-27T08:26:47Z</time>
      </trkpt>
      <trkpt lat="47.33848" lon="-0.69684">
        <ele>21.2</ele>
        <time>2015-12-27T08:26:52Z</time>
      </trkpt>
      <trkpt lat="47.33856" lon="-0.69691">
        <ele>22.4</ele>
        <time>2015-12-27T08:26:57Z</time>
      </trkpt>
      <trkpt lat="47.33872" lon="-0.69702">
        <ele>25.4</ele>
        <time>2015-12-27T08:27:08Z</time>
      </trkpt>
      <trkpt lat="47.33882" lon="-0.69707">
        <ele>27</ele>
        <time>2015-12-27T08:27:15Z</time>
      </trkpt>
      <trkpt lat="47.33891" lon="-0.69711">
        <ele>28.3</ele>
        <time>2015-12-27T08:27:21Z</time>
      </trkpt>
      <trkpt lat="47.339" lon="-0.69719">
        <ele>29.9</ele>
        <time>2015-12-27T08:27:26Z</time>
      </trkpt>
      <trkpt lat="47.33909" lon="-0.69726">
        <ele>31.4</ele>
        <time>2015-12-27T08:27:32Z</time>
      </trkpt>
      <trkpt lat="47.33917" lon="-0.69734">
        <ele>33.4</ele>
        <time>2015-12-27T08:27:39Z</time>
      </trkpt>
      <trkpt lat="47.33924" lon="-0.69745">
        <ele>35.1</ele>
        <time>2015-12-27T08:27:46Z</time>
      </trkpt>
      <trkpt lat="47.33933" lon="-0.69752">
        <ele>35.9</ele>
        <time>2015-12-27T08:27:53Z</time>
      </trkpt>
      <trkpt lat="47.33941" lon="-0.6976">
        <ele>37.3</ele>
        <time>2015-12-27T08:28:00Z</time>
      </trkpt>
      <trkpt lat="47.33954" lon="-0.69781">
        <ele>39.9</ele>
        <time>2015-12-27T08:28:12Z</time>
      </trkpt>
      <trkpt lat="47.33962" lon="-0.6979">
        <ele>41.2</ele>
        <time>2015-12-27T08:28:18Z</time>
      </trkpt>
      <trkpt lat="47.3397" lon="-0.69802">
        <ele>42.5</ele>
        <time>2015-12-27T08:28:24Z</time>
      </trkpt>
      <trkpt lat="47.33975" lon="-0.69812">
        <ele>43.2</ele>
        <time>2015-12-27T08:28:29Z</time>
      </trkpt>
      <trkpt lat="47.33981" lon="-0.69823">
        <ele>44</ele>
        <time>2015-12-27T08:28:35Z</time>
      </trkpt>
      <trkpt lat="47.33987" lon="-0.69834">
        <ele>44.7</ele>
        <time>2015-12-27T08:28:39Z</time>
      </trkpt>
      <trkpt lat="47.33994" lon="-0.69846">
        <ele>45.9</ele>
        <time>2015-12-27T08:28:44Z</time>
      </trkpt>
      <trkpt lat="47.33999" lon="-0.69857">
        <ele>46.6</ele>
        <time>2015-12-27T08:28:48Z</time>
      </trkpt>
      <trkpt lat="47.34009" lon="-0.69852">
        <ele>47.5</ele>
        <time>2015-12-27T08:28:53Z</time>
      </trkpt>
      <trkpt lat="47.34016" lon="-0.69842">
        <ele>49.1</ele>
        <time>2015-12-27T08:28:58Z</time>
      </trkpt>
      <trkpt lat="47.34026" lon="-0.69844">
        <ele>50.4</ele>
        <time>2015-12-27T08:29:04Z</time>
      </trkpt>
      <trkpt lat="47.34038" lon="-0.69864">
        <ele>53.3</ele>
        <time>2015-12-27T08:29:20Z</time>
      </trkpt>
      <trkpt lat="47.34032" lon="-0.69876">
        <ele>53.6</ele>
        <time>2015-12-27T08:32:47Z</time>
      </trkpt>
      <trkpt lat="47.34021" lon="-0.69901">
        <ele>53</ele>
        <time>2015-12-27T08:32:54Z</time>
      </trkpt>
      <trkpt lat="47.34016" lon="-0.69913">
        <ele>52.7</ele>
        <time>2015-12-27T08:32:57Z</time>
      </trkpt>
      <trkpt lat="47.34012" lon="-0.69925">
        <ele>52.7</ele>
        <time>2015-12-27T08:33:00Z</time>
      </trkpt>
      <trkpt lat="47.34007" lon="-0.69937">
        <ele>52.9</ele>
        <time>2015-12-27T08:33:03Z</time>
      </trkpt>
      <trkpt lat="47.34002" lon="-0.6995">
        <ele>52.8</ele>
        <time>2015-12-27T08:33:06Z</time>
      </trkpt>
      <trkpt lat="47.33997" lon="-0.69964">
        <ele>53</ele>
        <time>2015-12-27T08:33:09Z</time>
      </trkpt>
      <trkpt lat="47.33991" lon="-0.69978">
        <ele>53.1</ele>
        <time>2015-12-27T08:33:12Z</time>
      </trkpt>
      <trkpt lat="47.33985" lon="-0.69992">
        <ele>53.7</ele>
        <time>2015-12-27T08:33:15Z</time>
      </trkpt>
      <trkpt lat="47.33979" lon="-0.70006">
        <ele>53.9</ele>
        <time>2015-12-27T08:33:18Z</time>
      </trkpt>
      <trkpt lat="47.33971" lon="-0.70019">
        <ele>54.1</ele>
        <time>2015-12-27T08:33:21Z</time>
      </trkpt>
      <trkpt lat="47.33961" lon="-0.7003">
        <ele>54.2</ele>
        <time>2015-12-27T08:33:24Z</time>
      </trkpt>
      <trkpt lat="47.3395" lon="-0.70039">
        <ele>54.9</ele>
        <time>2015-12-27T08:33:27Z</time>
      </trkpt>
      <trkpt lat="47.33939" lon="-0.70046">
        <ele>55.3</ele>
        <time>2015-12-27T08:33:30Z</time>
      </trkpt>
      <trkpt lat="47.33928" lon="-0.70052">
        <ele>55.6</ele>
        <time>2015-12-27T08:33:33Z</time>
      </trkpt>
      <trkpt lat="47.33917" lon="-0.70059">
        <ele>55.9</ele>
        <time>2015-12-27T08:33:36Z</time>
      </trkpt>
      <trkpt lat="47.33906" lon="-0.70068">
        <ele>56.6</ele>
        <time>2015-12-27T08:33:39Z</time>
      </trkpt>
      <trkpt lat="47.33895" lon="-0.70075">
        <ele>57.1</ele>
        <time>2015-12-27T08:33:42Z</time>
      </trkpt>
      <trkpt lat="47.33886" lon="-0.70085">
        <ele>57.5</ele>
        <time>2015-12-27T08:33:45Z</time>
      </trkpt>
      <trkpt lat="47.33881" lon="-0.70099">
        <ele>58.3</ele>
        <time>2015-12-27T08:33:48Z</time>
      </trkpt>
      <trkpt lat="47.33879" lon="-0.70129">
        <ele>59.2</ele>
        <time>2015-12-27T08:33:54Z</time>
      </trkpt>
      <trkpt lat="47.3388" lon="-0.70145">
        <ele>60</ele>
        <time>2015-12-27T08:33:57Z</time>
      </trkpt>
      <trkpt lat="47.33883" lon="-0.7016">
        <ele>60.4</ele>
        <time>2015-12-27T08:34:00Z</time>
      </trkpt>
      <trkpt lat="47.33886" lon="-0.70175">
        <ele>61.3</ele>
        <time>2015-12-27T08:34:03Z</time>
      </trkpt>
      <trkpt lat="47.33887" lon="-0.70191">
        <ele>62.1</ele>
        <time>2015-12-27T08:34:06Z</time>
      </trkpt>
      <trkpt lat="47.33886" lon="-0.70207">
        <ele>63.1</ele>
        <time>2015-12-27T08:34:09Z</time>
      </trkpt>
      <trkpt lat="47.33884" lon="-0.70222">
        <ele>63.4</ele>
        <time>2015-12-27T08:34:12Z</time>
      </trkpt>
      <trkpt lat="47.3388" lon="-0.70235">
        <ele>63.2</ele>
        <time>2015-12-27T08:34:15Z</time>
      </trkpt>
      <trkpt lat="47.33875" lon="-0.70247">
        <ele>63.1</ele>
        <time>2015-12-27T08:34:18Z</time>
      </trkpt>
      <trkpt lat="47.33871" lon="-0.70263">
        <ele>62.9</ele>
        <time>2015-12-27T08:34:21Z</time>
      </trkpt>
      <trkpt lat="47.33868" lon="-0.70276">
        <ele>62.6</ele>
        <time>2015-12-27T08:34:23Z</time>
      </trkpt>
      <trkpt lat="47.33865" lon="-0.70289">
        <ele>62.6</ele>
        <time>2015-12-27T08:34:25Z</time>
      </trkpt>
      <trkpt lat="47.33863" lon="-0.70303">
        <ele>62.3</ele>
        <time>2015-12-27T08:34:27Z</time>
      </trkpt>
      <trkpt lat="47.3386" lon="-0.70316">
        <ele>61.8</ele>
        <time>2015-12-27T08:34:29Z</time>
      </trkpt>
      <trkpt lat="47.33858" lon="-0.70329">
        <ele>61.6</ele>
        <time>2015-12-27T08:34:31Z</time>
      </trkpt>
      <trkpt lat="47.33855" lon="-0.70342">
        <ele>61.5</ele>
        <time>2015-12-27T08:34:33Z</time>
      </trkpt>
      <trkpt lat="47.33852" lon="-0.70355">
        <ele>61</ele>
        <time>2015-12-27T08:34:35Z</time>
      </trkpt>
      <trkpt lat="47.33848" lon="-0.70369">
        <ele>61.9</ele>
        <time>2015-12-27T08:34:37Z</time>
      </trkpt>
      <trkpt lat="47.33844" lon="-0.70382">
        <ele>61.3</ele>
        <time>2015-12-27T08:34:39Z</time>
      </trkpt>
      <trkpt lat="47.3384" lon="-0.70397">
        <ele>61.2</ele>
        <time>2015-12-27T08:34:41Z</time>
      </trkpt>
      <trkpt lat="47.33837" lon="-0.70412">
        <ele>60.5</ele>
        <time>2015-12-27T08:34:43Z</time>
      </trkpt>
      <trkpt lat="47.33834" lon="-0.70427">
        <ele>60.1</ele>
        <time>2015-12-27T08:34:45Z</time>
      </trkpt>
      <trkpt lat="47.3383" lon="-0.70442">
        <ele>60</ele>
        <time>2015-12-27T08:34:47Z</time>
      </trkpt>
      <trkpt lat="47.33827" lon="-0.70457">
        <ele>59.4</ele>
        <time>2015-12-27T08:34:49Z</time>
      </trkpt>
      <trkpt lat="47.3382" lon="-0.70488">
        <ele>58.9</ele>
        <time>2015-12-27T08:34:53Z</time>
      </trkpt>
      <trkpt lat="47.33816" lon="-0.70503">
        <ele>59</ele>
        <time>2015-12-27T08:34:55Z</time>
      </trkpt>
      <trkpt lat="47.33812" lon="-0.70519">
        <ele>58.8</ele>
        <time>2015-12-27T08:34:57Z</time>
      </trkpt>
      <trkpt lat="47.33809" lon="-0.70534">
        <ele>58.4</ele>
        <time>2015-12-27T08:34:59Z</time>
      </trkpt>
      <trkpt lat="47.33805" lon="-0.70549">
        <ele>59.1</ele>
        <time>2015-12-27T08:35:01Z</time>
      </trkpt>
      <trkpt lat="47.33802" lon="-0.70565">
        <ele>59.7</ele>
        <time>2015-12-27T08:35:03Z</time>
      </trkpt>
      <trkpt lat="47.33799" lon="-0.70579">
        <ele>59.8</ele>
        <time>2015-12-27T08:35:05Z</time>
      </trkpt>
      <trkpt lat="47.33793" lon="-0.70593">
        <ele>60</ele>
        <time>2015-12-27T08:35:07Z</time>
      </trkpt>
      <trkpt lat="47.33787" lon="-0.70606">
        <ele>60.6</ele>
        <time>2015-12-27T08:35:09Z</time>
      </trkpt>
      <trkpt lat="47.3378" lon="-0.70618">
        <ele>60.8</ele>
        <time>2015-12-27T08:35:11Z</time>
      </trkpt>
      <trkpt lat="47.33773" lon="-0.70628">
        <ele>60.3</ele>
        <time>2015-12-27T08:35:13Z</time>
      </trkpt>
      <trkpt lat="47.33765" lon="-0.70642">
        <ele>60.9</ele>
        <time>2015-12-27T08:35:16Z</time>
      </trkpt>
      <trkpt lat="47.33758" lon="-0.70652">
        <ele>61.6</ele>
        <time>2015-12-27T08:35:20Z</time>
      </trkpt>
      <trkpt lat="47.33748" lon="-0.70652">
        <ele>61.5</ele>
        <time>2015-12-27T08:35:26Z</time>
      </trkpt>
      <trkpt lat="47.3374" lon="-0.70641">
        <ele>60.5</ele>
        <time>2015-12-27T08:35:30Z</time>
      </trkpt>
      <trkpt lat="47.3373" lon="-0.70631">
        <ele>59.8</ele>
        <time>2015-12-27T08:35:33Z</time>
      </trkpt>
      <trkpt lat="47.33723" lon="-0.70618">
        <ele>58.3</ele>
        <time>2015-12-27T08:35:35Z</time>
      </trkpt>
      <trkpt lat="47.33718" lon="-0.70603">
        <ele>55.4</ele>
        <time>2015-12-27T08:35:37Z</time>
      </trkpt>
      <trkpt lat="47.33713" lon="-0.70589">
        <ele>54</ele>
        <time>2015-12-27T08:35:39Z</time>
      </trkpt>
      <trkpt lat="47.33707" lon="-0.70577">
        <ele>53</ele>
        <time>2015-12-27T08:35:41Z</time>
      </trkpt>
      <trkpt lat="47.33702" lon="-0.70564">
        <ele>50.4</ele>
        <time>2015-12-27T08:35:44Z</time>
      </trkpt>
      <trkpt lat="47.33696" lon="-0.70552">
        <ele>47.5</ele>
        <time>2015-12-27T08:35:48Z</time>
      </trkpt>
      <trkpt lat="47.33688" lon="-0.70537">
        <ele>43.9</ele>
        <time>2015-12-27T08:35:51Z</time>
      </trkpt>
      <trkpt lat="47.33682" lon="-0.70505">
        <ele>39.6</ele>
        <time>2015-12-27T08:35:56Z</time>
      </trkpt>
      <trkpt lat="47.33681" lon="-0.7049">
        <ele>37.7</ele>
        <time>2015-12-27T08:35:59Z</time>
      </trkpt>
      <trkpt lat="47.33677" lon="-0.70476">
        <ele>36.2</ele>
        <time>2015-12-27T08:36:02Z</time>
      </trkpt>
      <trkpt lat="47.33676" lon="-0.70463">
        <ele>33.5</ele>
        <time>2015-12-27T08:36:04Z</time>
      </trkpt>
      <trkpt lat="47.33673" lon="-0.70446">
        <ele>31.6</ele>
        <time>2015-12-27T08:36:06Z</time>
      </trkpt>
      <trkpt lat="47.33667" lon="-0.70431">
        <ele>29.5</ele>
        <time>2015-12-27T08:36:09Z</time>
      </trkpt>
      <trkpt lat="47.33658" lon="-0.70417">
        <ele>27.6</ele>
        <time>2015-12-27T08:36:12Z</time>
      </trkpt>
      <trkpt lat="47.33652" lon="-0.70407">
        <ele>25.6</ele>
        <time>2015-12-27T08:36:14Z</time>
      </trkpt>
      <trkpt lat="47.33645" lon="-0.70398">
        <ele>24.5</ele>
        <time>2015-12-27T08:36:16Z</time>
      </trkpt>
      <trkpt lat="47.33635" lon="-0.70385">
        <ele>21</ele>
        <time>2015-12-27T08:36:19Z</time>
      </trkpt>
      <trkpt lat="47.33625" lon="-0.70373">
        <ele>17.1</ele>
        <time>2015-12-27T08:36:22Z</time>
      </trkpt>
      <trkpt lat="47.33617" lon="-0.70363">
        <ele>14.1</ele>
        <time>2015-12-27T08:36:25Z</time>
      </trkpt>
      <trkpt lat="47.3361" lon="-0.70353">
        <ele>12</ele>
        <time>2015-12-27T08:36:28Z</time>
      </trkpt>
      <trkpt lat="47.33604" lon="-0.70337">
        <ele>10.5</ele>
        <time>2015-12-27T08:36:31Z</time>
      </trkpt>
      <trkpt lat="47.33602" lon="-0.70322">
        <ele>9.2</ele>
        <time>2015-12-27T08:36:34Z</time>
      </trkpt>
      <trkpt lat="47.33598" lon="-0.7031">
        <ele>7.3</ele>
        <time>2015-12-27T08:36:40Z</time>
      </trkpt>
      <trkpt lat="47.33589" lon="-0.70317">
        <ele>6.8</ele>
        <time>2015-12-27T08:39:20Z</time>
      </trkpt>
      <trkpt lat="47.33578" lon="-0.70341">
        <ele>6.9</ele>
        <time>2015-12-27T08:39:27Z</time>
      </trkpt>
      <trkpt lat="47.33574" lon="-0.70359">
        <ele>7.2</ele>
        <time>2015-12-27T08:39:30Z</time>
      </trkpt>
      <trkpt lat="47.33567" lon="-0.70373">
        <ele>7.6</ele>
        <time>2015-12-27T08:39:33Z</time>
      </trkpt>
      <trkpt lat="47.33572" lon="-0.70389">
        <ele>8.7</ele>
        <time>2015-12-27T08:39:37Z</time>
      </trkpt>
      <trkpt lat="47.3358" lon="-0.70397">
        <ele>9.2</ele>
        <time>2015-12-27T08:39:40Z</time>
      </trkpt>
      <trkpt lat="47.33578" lon="-0.7041">
        <ele>9.6</ele>
        <time>2015-12-27T08:39:45Z</time>
      </trkpt>
      <trkpt lat="47.33568" lon="-0.70422">
        <ele>9.5</ele>
        <time>2015-12-27T08:39:48Z</time>
      </trkpt>
      <trkpt lat="47.3356" lon="-0.70436">
        <ele>9.3</ele>
        <time>2015-12-27T08:39:50Z</time>
      </trkpt>
      <trkpt lat="47.33553" lon="-0.70446">
        <ele>9.3</ele>
        <time>2015-12-27T08:39:52Z</time>
      </trkpt>
      <trkpt lat="47.33545" lon="-0.70457">
        <ele>9.3</ele>
        <time>2015-12-27T08:39:54Z</time>
      </trkpt>
      <trkpt lat="47.33537" lon="-0.70468">
        <ele>8.5</ele>
        <time>2015-12-27T08:39:56Z</time>
      </trkpt>
      <trkpt lat="47.33531" lon="-0.70479">
        <ele>8.7</ele>
        <time>2015-12-27T08:39:58Z</time>
      </trkpt>
      <trkpt lat="47.33522" lon="-0.70492">
        <ele>8.5</ele>
        <time>2015-12-27T08:40:01Z</time>
      </trkpt>
      <trkpt lat="47.33514" lon="-0.70498">
        <ele>8.5</ele>
        <time>2015-12-27T08:40:03Z</time>
      </trkpt>
      <trkpt lat="47.33504" lon="-0.70504">
        <ele>8.5</ele>
        <time>2015-12-27T08:40:05Z</time>
      </trkpt>
      <trkpt lat="47.33496" lon="-0.70511">
        <ele>8.7</ele>
        <time>2015-12-27T08:40:07Z</time>
      </trkpt>
      <trkpt lat="47.33485" lon="-0.70517">
        <ele>8.5</ele>
        <time>2015-12-27T08:40:10Z</time>
      </trkpt>
      <trkpt lat="47.33474" lon="-0.70527">
        <ele>8.1</ele>
        <time>2015-12-27T08:40:13Z</time>
      </trkpt>
      <trkpt lat="47.33466" lon="-0.70534">
        <ele>8.1</ele>
        <time>2015-12-27T08:40:15Z</time>
      </trkpt>
      <trkpt lat="47.33455" lon="-0.70543">
        <ele>8</ele>
        <time>2015-12-27T08:40:18Z</time>
      </trkpt>
      <trkpt lat="47.33444" lon="-0.70552">
        <ele>8</ele>
        <time>2015-12-27T08:40:21Z</time>
      </trkpt>
      <trkpt lat="47.33429" lon="-0.70569">
        <ele>7.7</ele>
        <time>2015-12-27T08:40:25Z</time>
      </trkpt>
      <trkpt lat="47.33419" lon="-0.7058">
        <ele>7.6</ele>
        <time>2015-12-27T08:40:28Z</time>
      </trkpt>
      <trkpt lat="47.33409" lon="-0.70589">
        <ele>7.5</ele>
        <time>2015-12-27T08:40:31Z</time>
      </trkpt>
      <trkpt lat="47.33397" lon="-0.70599">
        <ele>7.5</ele>
        <time>2015-12-27T08:40:34Z</time>
      </trkpt>
      <trkpt lat="47.33386" lon="-0.70608">
        <ele>7.3</ele>
        <time>2015-12-27T08:40:37Z</time>
      </trkpt>
      <trkpt lat="47.33377" lon="-0.70614">
        <ele>7.5</ele>
        <time>2015-12-27T08:40:40Z</time>
      </trkpt>
      <trkpt lat="47.33368" lon="-0.7062">
        <ele>7.1</ele>
        <time>2015-12-27T08:40:43Z</time>
      </trkpt>
      <trkpt lat="47.33358" lon="-0.70628">
        <ele>7.1</ele>
        <time>2015-12-27T08:40:45Z</time>
      </trkpt>
      <trkpt lat="47.33349" lon="-0.70634">
        <ele>6.7</ele>
        <time>2015-12-27T08:40:47Z</time>
      </trkpt>
      <trkpt lat="47.33337" lon="-0.70637">
        <ele>7.4</ele>
        <time>2015-12-27T08:40:50Z</time>
      </trkpt>
      <trkpt lat="47.33325" lon="-0.70641">
        <ele>7.4</ele>
        <time>2015-12-27T08:40:53Z</time>
      </trkpt>
      <trkpt lat="47.33313" lon="-0.70647">
        <ele>7.4</ele>
        <time>2015-12-27T08:40:56Z</time>
      </trkpt>
      <trkpt lat="47.33301" lon="-0.70653">
        <ele>7.2</ele>
        <time>2015-12-27T08:40:59Z</time>
      </trkpt>
      <trkpt lat="47.33291" lon="-0.70657">
        <ele>7.7</ele>
        <time>2015-12-27T08:41:02Z</time>
      </trkpt>
      <trkpt lat="47.33282" lon="-0.70663">
        <ele>7.4</ele>
        <time>2015-12-27T08:41:05Z</time>
      </trkpt>
      <trkpt lat="47.33271" lon="-0.7067">
        <ele>7.4</ele>
        <time>2015-12-27T08:41:08Z</time>
      </trkpt>
      <trkpt lat="47.3326" lon="-0.70675">
        <ele>7.6</ele>
        <time>2015-12-27T08:41:11Z</time>
      </trkpt>
      <trkpt lat="47.33248" lon="-0.70681">
        <ele>8</ele>
        <time>2015-12-27T08:41:14Z</time>
      </trkpt>
      <trkpt lat="47.33236" lon="-0.70685">
        <ele>7.9</ele>
        <time>2015-12-27T08:41:17Z</time>
      </trkpt>
      <trkpt lat="47.33223" lon="-0.7069">
        <ele>7.8</ele>
        <time>2015-12-27T08:41:20Z</time>
      </trkpt>
      <trkpt lat="47.33212" lon="-0.70695">
        <ele>8</ele>
        <time>2015-12-27T08:41:23Z</time>
      </trkpt>
      <trkpt lat="47.33186" lon="-0.70702">
        <ele>7.7</ele>
        <time>2015-12-27T08:41:29Z</time>
      </trkpt>
      <trkpt lat="47.33174" lon="-0.70702">
        <ele>7.8</ele>
        <time>2015-12-27T08:41:32Z</time>
      </trkpt>
      <trkpt lat="47.33163" lon="-0.70704">
        <ele>7.9</ele>
        <time>2015-12-27T08:41:35Z</time>
      </trkpt>
      <trkpt lat="47.33152" lon="-0.70708">
        <ele>8</ele>
        <time>2015-12-27T08:41:38Z</time>
      </trkpt>
      <trkpt lat="47.33139" lon="-0.70709">
        <ele>8.2</ele>
        <time>2015-12-27T08:41:41Z</time>
      </trkpt>
      <trkpt lat="47.33127" lon="-0.7071">
        <ele>8.3</ele>
        <time>2015-12-27T08:41:44Z</time>
      </trkpt>
      <trkpt lat="47.33116" lon="-0.70709">
        <ele>8.1</ele>
        <time>2015-12-27T08:41:47Z</time>
      </trkpt>
      <trkpt lat="47.33105" lon="-0.70709">
        <ele>8.2</ele>
        <time>2015-12-27T08:41:50Z</time>
      </trkpt>
      <trkpt lat="47.33091" lon="-0.70711">
        <ele>8</ele>
        <time>2015-12-27T08:41:53Z</time>
      </trkpt>
      <trkpt lat="47.3308" lon="-0.70714">
        <ele>8.3</ele>
        <time>2015-12-27T08:41:56Z</time>
      </trkpt>
      <trkpt lat="47.33068" lon="-0.70718">
        <ele>8.4</ele>
        <time>2015-12-27T08:41:59Z</time>
      </trkpt>
      <trkpt lat="47.33058" lon="-0.70721">
        <ele>8.3</ele>
        <time>2015-12-27T08:42:01Z</time>
      </trkpt>
      <trkpt lat="47.33048" lon="-0.70724">
        <ele>8</ele>
        <time>2015-12-27T08:42:03Z</time>
      </trkpt>
      <trkpt lat="47.33037" lon="-0.70728">
        <ele>7.8</ele>
        <time>2015-12-27T08:42:05Z</time>
      </trkpt>
      <trkpt lat="47.33028" lon="-0.70732">
        <ele>7.7</ele>
        <time>2015-12-27T08:42:07Z</time>
      </trkpt>
      <trkpt lat="47.33016" lon="-0.70739">
        <ele>7.5</ele>
        <time>2015-12-27T08:42:10Z</time>
      </trkpt>
      <trkpt lat="47.33007" lon="-0.70743">
        <ele>7.5</ele>
        <time>2015-12-27T08:42:12Z</time>
      </trkpt>
      <trkpt lat="47.32995" lon="-0.7075">
        <ele>7.1</ele>
        <time>2015-12-27T08:42:15Z</time>
      </trkpt>
      <trkpt lat="47.32984" lon="-0.70758">
        <ele>7.3</ele>
        <time>2015-12-27T08:42:18Z</time>
      </trkpt>
      <trkpt lat="47.32973" lon="-0.70766">
        <ele>7.2</ele>
        <time>2015-12-27T08:42:21Z</time>
      </trkpt>
      <trkpt lat="47.32961" lon="-0.70772">
        <ele>7.4</ele>
        <time>2015-12-27T08:42:24Z</time>
      </trkpt>
      <trkpt lat="47.32938" lon="-0.70788">
        <ele>7.4</ele>
        <time>2015-12-27T08:42:30Z</time>
      </trkpt>
      <trkpt lat="47.32927" lon="-0.70795">
        <ele>7.7</ele>
        <time>2015-12-27T08:42:33Z</time>
      </trkpt>
      <trkpt lat="47.32917" lon="-0.708">
        <ele>7.5</ele>
        <time>2015-12-27T08:42:35Z</time>
      </trkpt>
      <trkpt lat="47.32908" lon="-0.70804">
        <ele>7.7</ele>
        <time>2015-12-27T08:42:37Z</time>
      </trkpt>
      <trkpt lat="47.32898" lon="-0.70808">
        <ele>7.7</ele>
        <time>2015-12-27T08:42:39Z</time>
      </trkpt>
      <trkpt lat="47.3289" lon="-0.70811">
        <ele>7.5</ele>
        <time>2015-12-27T08:42:41Z</time>
      </trkpt>
      <trkpt lat="47.32881" lon="-0.70817">
        <ele>7.8</ele>
        <time>2015-12-27T08:42:43Z</time>
      </trkpt>
      <trkpt lat="47.3287" lon="-0.70826">
        <ele>7.9</ele>
        <time>2015-12-27T08:42:46Z</time>
      </trkpt>
      <trkpt lat="47.32862" lon="-0.70834">
        <ele>8.2</ele>
        <time>2015-12-27T08:42:48Z</time>
      </trkpt>
      <trkpt lat="47.32853" lon="-0.7084">
        <ele>7.8</ele>
        <time>2015-12-27T08:42:50Z</time>
      </trkpt>
      <trkpt lat="47.32844" lon="-0.70846">
        <ele>8.2</ele>
        <time>2015-12-27T08:42:52Z</time>
      </trkpt>
      <trkpt lat="47.32835" lon="-0.70852">
        <ele>8.2</ele>
        <time>2015-12-27T08:42:54Z</time>
      </trkpt>
      <trkpt lat="47.32825" lon="-0.70859">
        <ele>7.9</ele>
        <time>2015-12-27T08:42:56Z</time>
      </trkpt>
      <trkpt lat="47.32816" lon="-0.70866">
        <ele>7.7</ele>
        <time>2015-12-27T08:42:58Z</time>
      </trkpt>
      <trkpt lat="47.32808" lon="-0.70873">
        <ele>7.7</ele>
        <time>2015-12-27T08:43:00Z</time>
      </trkpt>
      <trkpt lat="47.32799" lon="-0.70879">
        <ele>7.6</ele>
        <time>2015-12-27T08:43:02Z</time>
      </trkpt>
      <trkpt lat="47.3279" lon="-0.70885">
        <ele>7.7</ele>
        <time>2015-12-27T08:43:04Z</time>
      </trkpt>
      <trkpt lat="47.32782" lon="-0.70891">
        <ele>7.7</ele>
        <time>2015-12-27T08:43:06Z</time>
      </trkpt>
      <trkpt lat="47.3277" lon="-0.70898">
        <ele>7.9</ele>
        <time>2015-12-27T08:43:09Z</time>
      </trkpt>
      <trkpt lat="47.32758" lon="-0.70905">
        <ele>8</ele>
        <time>2015-12-27T08:43:12Z</time>
      </trkpt>
      <trkpt lat="47.32748" lon="-0.70915">
        <ele>8.1</ele>
        <time>2015-12-27T08:43:15Z</time>
      </trkpt>
      <trkpt lat="47.32737" lon="-0.70924">
        <ele>8.5</ele>
        <time>2015-12-27T08:43:18Z</time>
      </trkpt>
      <trkpt lat="47.32729" lon="-0.70931">
        <ele>8.2</ele>
        <time>2015-12-27T08:43:20Z</time>
      </trkpt>
      <trkpt lat="47.32719" lon="-0.70939">
        <ele>8.5</ele>
        <time>2015-12-27T08:43:22Z</time>
      </trkpt>
      <trkpt lat="47.32711" lon="-0.70947">
        <ele>8.2</ele>
        <time>2015-12-27T08:43:24Z</time>
      </trkpt>
      <trkpt lat="47.32702" lon="-0.70955">
        <ele>8.2</ele>
        <time>2015-12-27T08:43:26Z</time>
      </trkpt>
      <trkpt lat="47.32684" lon="-0.70972">
        <ele>9.1</ele>
        <time>2015-12-27T08:43:31Z</time>
      </trkpt>
      <trkpt lat="47.32675" lon="-0.70982">
        <ele>10.2</ele>
        <time>2015-12-27T08:43:34Z</time>
      </trkpt>
      <trkpt lat="47.32684" lon="-0.70982">
        <ele>11.7</ele>
        <time>2015-12-27T08:43:43Z</time>
      </trkpt>
      <trkpt lat="47.32695" lon="-0.70975">
        <ele>12.2</ele>
        <time>2015-12-27T08:43:47Z</time>
      </trkpt>
      <trkpt lat="47.32705" lon="-0.7097">
        <ele>12.9</ele>
        <time>2015-12-27T08:43:51Z</time>
      </trkpt>
      <trkpt lat="47.32716" lon="-0.70963">
        <ele>14</ele>
        <time>2015-12-27T08:43:55Z</time>
      </trkpt>
      <trkpt lat="47.32724" lon="-0.70957">
        <ele>14.4</ele>
        <time>2015-12-27T08:43:58Z</time>
      </trkpt>
      <trkpt lat="47.32732" lon="-0.70952">
        <ele>14.7</ele>
        <time>2015-12-27T08:44:01Z</time>
      </trkpt>
      <trkpt lat="47.32742" lon="-0.70946">
        <ele>15.4</ele>
        <time>2015-12-27T08:44:04Z</time>
      </trkpt>
      <trkpt lat="47.32751" lon="-0.7094">
        <ele>16</ele>
        <time>2015-12-27T08:44:07Z</time>
      </trkpt>
      <trkpt lat="47.3276" lon="-0.70934">
        <ele>16.4</ele>
        <time>2015-12-27T08:44:10Z</time>
      </trkpt>
      <trkpt lat="47.32769" lon="-0.70928">
        <ele>17</ele>
        <time>2015-12-27T08:44:13Z</time>
      </trkpt>
      <trkpt lat="47.32779" lon="-0.70922">
        <ele>17.9</ele>
        <time>2015-12-27T08:44:16Z</time>
      </trkpt>
      <trkpt lat="47.32789" lon="-0.70916">
        <ele>18.4</ele>
        <time>2015-12-27T08:44:19Z</time>
      </trkpt>
      <trkpt lat="47.32799" lon="-0.70912">
        <ele>19.2</ele>
        <time>2015-12-27T08:44:22Z</time>
      </trkpt>
      <trkpt lat="47.32809" lon="-0.70908">
        <ele>19.8</ele>
        <time>2015-12-27T08:44:25Z</time>
      </trkpt>
      <trkpt lat="47.3282" lon="-0.70903">
        <ele>20.4</ele>
        <time>2015-12-27T08:44:28Z</time>
      </trkpt>
      <trkpt lat="47.32838" lon="-0.70898">
        <ele>21.2</ele>
        <time>2015-12-27T08:44:34Z</time>
      </trkpt>
      <trkpt lat="47.32848" lon="-0.70893">
        <ele>21.9</ele>
        <time>2015-12-27T08:44:37Z</time>
      </trkpt>
      <trkpt lat="47.32858" lon="-0.70889">
        <ele>22.5</ele>
        <time>2015-12-27T08:44:40Z</time>
      </trkpt>
      <trkpt lat="47.32869" lon="-0.70887">
        <ele>23.4</ele>
        <time>2015-12-27T08:44:43Z</time>
      </trkpt>
      <trkpt lat="47.3288" lon="-0.70884">
        <ele>23.9</ele>
        <time>2015-12-27T08:44:46Z</time>
      </trkpt>
      <trkpt lat="47.3289" lon="-0.70881">
        <ele>24.2</ele>
        <time>2015-12-27T08:44:49Z</time>
      </trkpt>
      <trkpt lat="47.329" lon="-0.70879">
        <ele>24.7</ele>
        <time>2015-12-27T08:44:52Z</time>
      </trkpt>
      <trkpt lat="47.3291" lon="-0.70878">
        <ele>25.7</ele>
        <time>2015-12-27T08:44:55Z</time>
      </trkpt>
      <trkpt lat="47.3292" lon="-0.70879">
        <ele>26.2</ele>
        <time>2015-12-27T08:44:58Z</time>
      </trkpt>
      <trkpt lat="47.3293" lon="-0.70882">
        <ele>26.5</ele>
        <time>2015-12-27T08:45:01Z</time>
      </trkpt>
      <trkpt lat="47.3294" lon="-0.70888">
        <ele>27.1</ele>
        <time>2015-12-27T08:45:04Z</time>
      </trkpt>
      <trkpt lat="47.32949" lon="-0.70894">
        <ele>27.6</ele>
        <time>2015-12-27T08:45:07Z</time>
      </trkpt>
      <trkpt lat="47.32957" lon="-0.709">
        <ele>28.2</ele>
        <time>2015-12-27T08:45:10Z</time>
      </trkpt>
      <trkpt lat="47.32966" lon="-0.70907">
        <ele>28.5</ele>
        <time>2015-12-27T08:45:13Z</time>
      </trkpt>
      <trkpt lat="47.32975" lon="-0.70913">
        <ele>29.1</ele>
        <time>2015-12-27T08:45:16Z</time>
      </trkpt>
      <trkpt lat="47.32986" lon="-0.70913">
        <ele>30</ele>
        <time>2015-12-27T08:45:20Z</time>
      </trkpt>
      <trkpt lat="47.32997" lon="-0.7091">
        <ele>30.6</ele>
        <time>2015-12-27T08:45:24Z</time>
      </trkpt>
      <trkpt lat="47.33008" lon="-0.70913">
        <ele>31.7</ele>
        <time>2015-12-27T08:45:28Z</time>
      </trkpt>
      <trkpt lat="47.33016" lon="-0.70921">
        <ele>33.3</ele>
        <time>2015-12-27T08:45:32Z</time>
      </trkpt>
      <trkpt lat="47.33033" lon="-0.70937">
        <ele>36.3</ele>
        <time>2015-12-27T08:45:40Z</time>
      </trkpt>
      <trkpt lat="47.33043" lon="-0.70945">
        <ele>37.4</ele>
        <time>2015-12-27T08:45:44Z</time>
      </trkpt>
      <trkpt lat="47.33052" lon="-0.70952">
        <ele>38.3</ele>
        <time>2015-12-27T08:45:48Z</time>
      </trkpt>
      <trkpt lat="47.33062" lon="-0.70959">
        <ele>39.8</ele>
        <time>2015-12-27T08:45:52Z</time>
      </trkpt>
      <trkpt lat="47.33072" lon="-0.70967">
        <ele>41.5</ele>
        <time>2015-12-27T08:45:56Z</time>
      </trkpt>
      <trkpt lat="47.33081" lon="-0.70973">
        <ele>41.6</ele>
        <time>2015-12-27T08:46:00Z</time>
      </trkpt>
      <trkpt lat="47.3309" lon="-0.70979">
        <ele>43.4</ele>
        <time>2015-12-27T08:46:04Z</time>
      </trkpt>
      <trkpt lat="47.33101" lon="-0.70986">
        <ele>45.2</ele>
        <time>2015-12-27T08:46:08Z</time>
      </trkpt>
      <trkpt lat="47.33111" lon="-0.7099">
        <ele>46.7</ele>
        <time>2015-12-27T08:46:12Z</time>
      </trkpt>
      <trkpt lat="47.3312" lon="-0.70993">
        <ele>47.7</ele>
        <time>2015-12-27T08:46:16Z</time>
      </trkpt>
      <trkpt lat="47.3313" lon="-0.70996">
        <ele>48.5</ele>
        <time>2015-12-27T08:46:21Z</time>
      </trkpt>
      <trkpt lat="47.33139" lon="-0.71002">
        <ele>49.7</ele>
        <time>2015-12-27T08:46:25Z</time>
      </trkpt>
      <trkpt lat="47.33147" lon="-0.71009">
        <ele>51</ele>
        <time>2015-12-27T08:46:29Z</time>
      </trkpt>
      <trkpt lat="47.33154" lon="-0.71018">
        <ele>51</ele>
        <time>2015-12-27T08:46:32Z</time>
      </trkpt>
      <trkpt lat="47.33163" lon="-0.71028">
        <ele>52.3</ele>
        <time>2015-12-27T08:46:36Z</time>
      </trkpt>
      <trkpt lat="47.33183" lon="-0.71027">
        <ele>54.5</ele>
        <time>2015-12-27T08:46:44Z</time>
      </trkpt>
      <trkpt lat="47.33192" lon="-0.7102">
        <ele>55.1</ele>
        <time>2015-12-27T08:46:48Z</time>
      </trkpt>
      <trkpt lat="47.33202" lon="-0.71014">
        <ele>55.7</ele>
        <time>2015-12-27T08:46:52Z</time>
      </trkpt>
      <trkpt lat="47.33211" lon="-0.71007">
        <ele>56.3</ele>
        <time>2015-12-27T08:46:56Z</time>
      </trkpt>
      <trkpt lat="47.33222" lon="-0.71">
        <ele>57.3</ele>
        <time>2015-12-27T08:47:00Z</time>
      </trkpt>
      <trkpt lat="47.33232" lon="-0.70993">
        <ele>58.1</ele>
        <time>2015-12-27T08:47:04Z</time>
      </trkpt>
      <trkpt lat="47.33241" lon="-0.70986">
        <ele>58.4</ele>
        <time>2015-12-27T08:47:08Z</time>
      </trkpt>
      <trkpt lat="47.33251" lon="-0.70979">
        <ele>58.7</ele>
        <time>2015-12-27T08:47:12Z</time>
      </trkpt>
      <trkpt lat="47.3326" lon="-0.70972">
        <ele>59</ele>
        <time>2015-12-27T08:47:15Z</time>
      </trkpt>
      <trkpt lat="47.33268" lon="-0.70965">
        <ele>59</ele>
        <time>2015-12-27T08:47:18Z</time>
      </trkpt>
      <trkpt lat="47.33277" lon="-0.70959">
        <ele>59.1</ele>
        <time>2015-12-27T08:47:21Z</time>
      </trkpt>
      <trkpt lat="47.33287" lon="-0.70954">
        <ele>59.5</ele>
        <time>2015-12-27T08:47:24Z</time>
      </trkpt>
      <trkpt lat="47.33296" lon="-0.70948">
        <ele>59.7</ele>
        <time>2015-12-27T08:47:27Z</time>
      </trkpt>
      <trkpt lat="47.33306" lon="-0.70941">
        <ele>59.5</ele>
        <time>2015-12-27T08:47:30Z</time>
      </trkpt>
      <trkpt lat="47.33316" lon="-0.70935">
        <ele>59.6</ele>
        <time>2015-12-27T08:47:33Z</time>
      </trkpt>
      <trkpt lat="47.33325" lon="-0.70928">
        <ele>59.7</ele>
        <time>2015-12-27T08:47:36Z</time>
      </trkpt>
      <trkpt lat="47.33334" lon="-0.70923">
        <ele>60.3</ele>
        <time>2015-12-27T08:47:39Z</time>
      </trkpt>
      <trkpt lat="47.33355" lon="-0.70915">
        <ele>60.3</ele>
        <time>2015-12-27T08:47:46Z</time>
      </trkpt>
      <trkpt lat="47.33366" lon="-0.70912">
        <ele>60.5</ele>
        <time>2015-12-27T08:47:50Z</time>
      </trkpt>
      <trkpt lat="47.33377" lon="-0.70908">
        <ele>60.4</ele>
        <time>2015-12-27T08:47:54Z</time>
      </trkpt>
      <trkpt lat="47.33386" lon="-0.70907">
        <ele>60.4</ele>
        <time>2015-12-27T08:47:57Z</time>
      </trkpt>
      <trkpt lat="47.33396" lon="-0.70905">
        <ele>60.2</ele>
        <time>2015-12-27T08:48:00Z</time>
      </trkpt>
      <trkpt lat="47.33406" lon="-0.70907">
        <ele>59.8</ele>
        <time>2015-12-27T08:48:04Z</time>
      </trkpt>
      <trkpt lat="47.334" lon="-0.70918">
        <ele>59</ele>
        <time>2015-12-27T08:48:08Z</time>
      </trkpt>
      <trkpt lat="47.33389" lon="-0.70926">
        <ele>58.3</ele>
        <time>2015-12-27T08:48:11Z</time>
      </trkpt>
      <trkpt lat="47.33381" lon="-0.70931">
        <ele>57.6</ele>
        <time>2015-12-27T08:48:13Z</time>
      </trkpt>
      <trkpt lat="47.33369" lon="-0.70938">
        <ele>57</ele>
        <time>2015-12-27T08:48:16Z</time>
      </trkpt>
      <trkpt lat="47.33369" lon="-0.70956">
        <ele>55.4</ele>
        <time>2015-12-27T08:48:19Z</time>
      </trkpt>
      <trkpt lat="47.33375" lon="-0.70969">
        <ele>54.9</ele>
        <time>2015-12-27T08:48:21Z</time>
      </trkpt>
      <trkpt lat="47.33381" lon="-0.70983">
        <ele>54.9</ele>
        <time>2015-12-27T08:48:24Z</time>
      </trkpt>
      <trkpt lat="47.33385" lon="-0.70996">
        <ele>55.3</ele>
        <time>2015-12-27T08:48:28Z</time>
      </trkpt>
      <trkpt lat="47.33391" lon="-0.71007">
        <ele>57.5</ele>
        <time>2015-12-27T08:48:33Z</time>
      </trkpt>
      <trkpt lat="47.33398" lon="-0.71021">
        <ele>59.4</ele>
        <time>2015-12-27T08:48:38Z</time>
      </trkpt>
      <trkpt lat="47.33409" lon="-0.71027">
        <ele>60.1</ele>
        <time>2015-12-27T08:48:43Z</time>
      </trkpt>
      <trkpt lat="47.33427" lon="-0.71013">
        <ele>60.2</ele>
        <time>2015-12-27T08:48:49Z</time>
      </trkpt>
      <trkpt lat="47.33437" lon="-0.71007">
        <ele>60.1</ele>
        <time>2015-12-27T08:48:52Z</time>
      </trkpt>
      <trkpt lat="47.33446" lon="-0.71014">
        <ele>59.8</ele>
        <time>2015-12-27T08:50:51Z</time>
      </trkpt>
      <trkpt lat="47.33458" lon="-0.71036">
        <ele>59.9</ele>
        <time>2015-12-27T08:50:58Z</time>
      </trkpt>
      <trkpt lat="47.33468" lon="-0.71035">
        <ele>59.9</ele>
        <time>2015-12-27T08:51:02Z</time>
      </trkpt>
      <trkpt lat="47.33477" lon="-0.71029">
        <ele>60.6</ele>
        <time>2015-12-27T08:51:05Z</time>
      </trkpt>
      <trkpt lat="47.33487" lon="-0.71021">
        <ele>60.6</ele>
        <time>2015-12-27T08:51:08Z</time>
      </trkpt>
      <trkpt lat="47.33495" lon="-0.71014">
        <ele>60.7</ele>
        <time>2015-12-27T08:51:10Z</time>
      </trkpt>
      <trkpt lat="47.33507" lon="-0.71006">
        <ele>61.7</ele>
        <time>2015-12-27T08:51:13Z</time>
      </trkpt>
      <trkpt lat="47.33519" lon="-0.70999">
        <ele>61.8</ele>
        <time>2015-12-27T08:51:16Z</time>
      </trkpt>
      <trkpt lat="47.33529" lon="-0.70996">
        <ele>62.7</ele>
        <time>2015-12-27T08:51:19Z</time>
      </trkpt>
      <trkpt lat="47.3354" lon="-0.71">
        <ele>63.1</ele>
        <time>2015-12-27T08:51:22Z</time>
      </trkpt>
      <trkpt lat="47.33552" lon="-0.71004">
        <ele>63.6</ele>
        <time>2015-12-27T08:51:25Z</time>
      </trkpt>
      <trkpt lat="47.33564" lon="-0.71003">
        <ele>63.6</ele>
        <time>2015-12-27T08:51:28Z</time>
      </trkpt>
      <trkpt lat="47.33575" lon="-0.71006">
        <ele>63.9</ele>
        <time>2015-12-27T08:51:31Z</time>
      </trkpt>
      <trkpt lat="47.33582" lon="-0.7102">
        <ele>64.5</ele>
        <time>2015-12-27T08:51:34Z</time>
      </trkpt>
      <trkpt lat="47.33588" lon="-0.71036">
        <ele>64.9</ele>
        <time>2015-12-27T08:51:37Z</time>
      </trkpt>
      <trkpt lat="47.33593" lon="-0.71052">
        <ele>65.2</ele>
        <time>2015-12-27T08:51:40Z</time>
      </trkpt>
      <trkpt lat="47.33597" lon="-0.71068">
        <ele>65.4</ele>
        <time>2015-12-27T08:51:43Z</time>
      </trkpt>
      <trkpt lat="47.336" lon="-0.71081">
        <ele>65.8</ele>
        <time>2015-12-27T08:51:47Z</time>
      </trkpt>
      <trkpt lat="47.33603" lon="-0.71096">
        <ele>66.1</ele>
        <time>2015-12-27T08:51:54Z</time>
      </trkpt>
      <trkpt lat="47.3361" lon="-0.71124">
        <ele>66.5</ele>
        <time>2015-12-27T08:52:21Z</time>
      </trkpt>
      <trkpt lat="47.33614" lon="-0.71138">
        <ele>66.7</ele>
        <time>2015-12-27T08:52:24Z</time>
      </trkpt>
      <trkpt lat="47.33618" lon="-0.71154">
        <ele>66.9</ele>
        <time>2015-12-27T08:52:28Z</time>
      </trkpt>
      <trkpt lat="47.33621" lon="-0.71169">
        <ele>66.9</ele>
        <time>2015-12-27T08:52:32Z</time>
      </trkpt>
      <trkpt lat="47.33626" lon="-0.71181">
        <ele>67</ele>
        <time>2015-12-27T08:52:36Z</time>
      </trkpt>
      <trkpt lat="47.3363" lon="-0.71195">
        <ele>67.2</ele>
        <time>2015-12-27T08:52:40Z</time>
      </trkpt>
      <trkpt lat="47.33635" lon="-0.71209">
        <ele>67.3</ele>
        <time>2015-12-27T08:52:45Z</time>
      </trkpt>
      <trkpt lat="47.33639" lon="-0.71221">
        <ele>67.7</ele>
        <time>2015-12-27T08:52:49Z</time>
      </trkpt>
      <trkpt lat="47.33643" lon="-0.71233">
        <ele>67.6</ele>
        <time>2015-12-27T08:52:53Z</time>
      </trkpt>
      <trkpt lat="47.33649" lon="-0.71246">
        <ele>68</ele>
        <time>2015-12-27T08:52:57Z</time>
      </trkpt>
      <trkpt lat="47.33658" lon="-0.71273">
        <ele>68.1</ele>
        <time>2015-12-27T08:53:05Z</time>
      </trkpt>
      <trkpt lat="47.33663" lon="-0.71286">
        <ele>68.3</ele>
        <time>2015-12-27T08:53:09Z</time>
      </trkpt>
      <trkpt lat="47.33668" lon="-0.713">
        <ele>68.9</ele>
        <time>2015-12-27T08:53:13Z</time>
      </trkpt>
      <trkpt lat="47.33672" lon="-0.71314">
        <ele>68.7</ele>
        <time>2015-12-27T08:53:17Z</time>
      </trkpt>
      <trkpt lat="47.33677" lon="-0.71328">
        <ele>68.6</ele>
        <time>2015-12-27T08:53:21Z</time>
      </trkpt>
      <trkpt lat="47.33682" lon="-0.71341">
        <ele>68.5</ele>
        <time>2015-12-27T08:53:25Z</time>
      </trkpt>
      <trkpt lat="47.33686" lon="-0.71357">
        <ele>67.8</ele>
        <time>2015-12-27T08:53:29Z</time>
      </trkpt>
      <trkpt lat="47.33692" lon="-0.71373">
        <ele>67.6</ele>
        <time>2015-12-27T08:53:33Z</time>
      </trkpt>
      <trkpt lat="47.33696" lon="-0.71387">
        <ele>67.2</ele>
        <time>2015-12-27T08:53:36Z</time>
      </trkpt>
      <trkpt lat="47.33701" lon="-0.71403">
        <ele>66.8</ele>
        <time>2015-12-27T08:53:39Z</time>
      </trkpt>
      <trkpt lat="47.33707" lon="-0.71419">
        <ele>66.8</ele>
        <time>2015-12-27T08:53:42Z</time>
      </trkpt>
      <trkpt lat="47.33703" lon="-0.71435">
        <ele>66.4</ele>
        <time>2015-12-27T08:53:45Z</time>
      </trkpt>
      <trkpt lat="47.33694" lon="-0.71445">
        <ele>66.6</ele>
        <time>2015-12-27T08:53:48Z</time>
      </trkpt>
      <trkpt lat="47.33684" lon="-0.71456">
        <ele>66.7</ele>
        <time>2015-12-27T08:53:52Z</time>
      </trkpt>
      <trkpt lat="47.33677" lon="-0.71465">
        <ele>67</ele>
        <time>2015-12-27T08:53:55Z</time>
      </trkpt>
      <trkpt lat="47.3367" lon="-0.71474">
        <ele>67</ele>
        <time>2015-12-27T08:53:58Z</time>
      </trkpt>
      <trkpt lat="47.33654" lon="-0.7149">
        <ele>66.7</ele>
        <time>2015-12-27T08:54:04Z</time>
      </trkpt>
      <trkpt lat="47.33645" lon="-0.71499">
        <ele>66.8</ele>
        <time>2015-12-27T08:54:07Z</time>
      </trkpt>
      <trkpt lat="47.33637" lon="-0.71508">
        <ele>66.8</ele>
        <time>2015-12-27T08:54:10Z</time>
      </trkpt>
      <trkpt lat="47.33628" lon="-0.71518">
        <ele>66.7</ele>
        <time>2015-12-27T08:54:13Z</time>
      </trkpt>
      <trkpt lat="47.33618" lon="-0.71528">
        <ele>66.3</ele>
        <time>2015-12-27T08:54:16Z</time>
      </trkpt>
      <trkpt lat="47.33609" lon="-0.71537">
        <ele>65.9</ele>
        <time>2015-12-27T08:54:19Z</time>
      </trkpt>
      <trkpt lat="47.336" lon="-0.71547">
        <ele>65.3</ele>
        <time>2015-12-27T08:54:22Z</time>
      </trkpt>
      <trkpt lat="47.3359" lon="-0.71556">
        <ele>65.1</ele>
        <time>2015-12-27T08:54:25Z</time>
      </trkpt>
      <trkpt lat="47.33579" lon="-0.71567">
        <ele>64.5</ele>
        <time>2015-12-27T08:54:28Z</time>
      </trkpt>
      <trkpt lat="47.33572" lon="-0.71574">
        <ele>64.1</ele>
        <time>2015-12-27T08:54:30Z</time>
      </trkpt>
      <trkpt lat="47.33564" lon="-0.71589">
        <ele>63.5</ele>
        <time>2015-12-27T08:54:33Z</time>
      </trkpt>
      <trkpt lat="47.33568" lon="-0.71607">
        <ele>62.4</ele>
        <time>2015-12-27T08:54:36Z</time>
      </trkpt>
      <trkpt lat="47.33572" lon="-0.71619">
        <ele>61.9</ele>
        <time>2015-12-27T08:54:38Z</time>
      </trkpt>
      <trkpt lat="47.33578" lon="-0.71637">
        <ele>61.9</ele>
        <time>2015-12-27T08:54:41Z</time>
      </trkpt>
      <trkpt lat="47.33582" lon="-0.71649">
        <ele>61.7</ele>
        <time>2015-12-27T08:54:43Z</time>
      </trkpt>
      <trkpt lat="47.33586" lon="-0.71661">
        <ele>61.6</ele>
        <time>2015-12-27T08:54:45Z</time>
      </trkpt>
      <trkpt lat="47.33591" lon="-0.71673">
        <ele>61.7</ele>
        <time>2015-12-27T08:54:47Z</time>
      </trkpt>
      <trkpt lat="47.33595" lon="-0.71685">
        <ele>61.5</ele>
        <time>2015-12-27T08:54:49Z</time>
      </trkpt>
      <trkpt lat="47.336" lon="-0.71697">
        <ele>60.9</ele>
        <time>2015-12-27T08:54:51Z</time>
      </trkpt>
      <trkpt lat="47.33605" lon="-0.71709">
        <ele>60.7</ele>
        <time>2015-12-27T08:54:53Z</time>
      </trkpt>
      <trkpt lat="47.33611" lon="-0.71721">
        <ele>60.7</ele>
        <time>2015-12-27T08:54:55Z</time>
      </trkpt>
      <trkpt lat="47.33617" lon="-0.71733">
        <ele>60.1</ele>
        <time>2015-12-27T08:54:57Z</time>
      </trkpt>
      <trkpt lat="47.33623" lon="-0.71744">
        <ele>59.5</ele>
        <time>2015-12-27T08:54:59Z</time>
      </trkpt>
      <trkpt lat="47.33632" lon="-0.71773">
        <ele>58.2</ele>
        <time>2015-12-27T08:55:03Z</time>
      </trkpt>
      <trkpt lat="47.33638" lon="-0.71789">
        <ele>57.5</ele>
        <time>2015-12-27T08:55:05Z</time>
      </trkpt>
      <trkpt lat="47.33643" lon="-0.71803">
        <ele>56</ele>
        <time>2015-12-27T08:55:07Z</time>
      </trkpt>
      <trkpt lat="47.33648" lon="-0.71817">
        <ele>54.3</ele>
        <time>2015-12-27T08:55:09Z</time>
      </trkpt>
      <trkpt lat="47.33652" lon="-0.71832">
        <ele>51.2</ele>
        <time>2015-12-27T08:55:11Z</time>
      </trkpt>
      <trkpt lat="47.33659" lon="-0.7185">
        <ele>48.6</ele>
        <time>2015-12-27T08:55:13Z</time>
      </trkpt>
      <trkpt lat="47.33663" lon="-0.71864">
        <ele>46.5</ele>
        <time>2015-12-27T08:55:15Z</time>
      </trkpt>
      <trkpt lat="47.33663" lon="-0.71879">
        <ele>44.5</ele>
        <time>2015-12-27T08:55:19Z</time>
      </trkpt>
      <trkpt lat="47.33655" lon="-0.71875">
        <ele>43.6</ele>
        <time>2015-12-27T08:59:39Z</time>
      </trkpt>
      <trkpt lat="47.33635" lon="-0.71886">
        <ele>42.5</ele>
        <time>2015-12-27T08:59:44Z</time>
      </trkpt>
      <trkpt lat="47.33626" lon="-0.71894">
        <ele>41.6</ele>
        <time>2015-12-27T08:59:46Z</time>
      </trkpt>
      <trkpt lat="47.33618" lon="-0.719">
        <ele>40.4</ele>
        <time>2015-12-27T08:59:48Z</time>
      </trkpt>
      <trkpt lat="47.3361" lon="-0.71908">
        <ele>38</ele>
        <time>2015-12-27T08:59:56Z</time>
      </trkpt>
      <trkpt lat="47.336" lon="-0.71913">
        <ele>36.6</ele>
        <time>2015-12-27T09:00:01Z</time>
      </trkpt>
      <trkpt lat="47.33591" lon="-0.71919">
        <ele>33.4</ele>
        <time>2015-12-27T09:00:19Z</time>
      </trkpt>
      <trkpt lat="47.33582" lon="-0.71917">
        <ele>33.5</ele>
        <time>2015-12-27T09:00:27Z</time>
      </trkpt>
      <trkpt lat="47.33576" lon="-0.71928">
        <ele>31.7</ele>
        <time>2015-12-27T09:01:39Z</time>
      </trkpt>
      <trkpt lat="47.33564" lon="-0.71963">
        <ele>28.7</ele>
        <time>2015-12-27T09:01:44Z</time>
      </trkpt>
      <trkpt lat="47.33558" lon="-0.71978">
        <ele>27</ele>
        <time>2015-12-27T09:01:46Z</time>
      </trkpt>
      <trkpt lat="47.33552" lon="-0.71993">
        <ele>25.2</ele>
        <time>2015-12-27T09:01:48Z</time>
      </trkpt>
      <trkpt lat="47.33549" lon="-0.72006">
        <ele>23.6</ele>
        <time>2015-12-27T09:01:50Z</time>
      </trkpt>
      <trkpt lat="47.33544" lon="-0.7202">
        <ele>21.5</ele>
        <time>2015-12-27T09:01:52Z</time>
      </trkpt>
      <trkpt lat="47.33539" lon="-0.72034">
        <ele>19.1</ele>
        <time>2015-12-27T09:01:54Z</time>
      </trkpt>
      <trkpt lat="47.33533" lon="-0.72046">
        <ele>17</ele>
        <time>2015-12-27T09:01:56Z</time>
      </trkpt>
      <trkpt lat="47.33527" lon="-0.72058">
        <ele>14.9</ele>
        <time>2015-12-27T09:01:58Z</time>
      </trkpt>
      <trkpt lat="47.33523" lon="-0.7207">
        <ele>13.7</ele>
        <time>2015-12-27T09:02:00Z</time>
      </trkpt>
      <trkpt lat="47.33515" lon="-0.72083">
        <ele>11.6</ele>
        <time>2015-12-27T09:02:03Z</time>
      </trkpt>
      <trkpt lat="47.3351" lon="-0.72098">
        <ele>10.9</ele>
        <time>2015-12-27T09:02:06Z</time>
      </trkpt>
      <trkpt lat="47.33504" lon="-0.72113">
        <ele>10</ele>
        <time>2015-12-27T09:02:09Z</time>
      </trkpt>
      <trkpt lat="47.33506" lon="-0.7213">
        <ele>7.7</ele>
        <time>2015-12-27T09:02:12Z</time>
      </trkpt>
      <trkpt lat="47.33508" lon="-0.72149">
        <ele>7.2</ele>
        <time>2015-12-27T09:02:15Z</time>
      </trkpt>
      <trkpt lat="47.33509" lon="-0.72162">
        <ele>6.6</ele>
        <time>2015-12-27T09:02:18Z</time>
      </trkpt>
      <trkpt lat="47.33515" lon="-0.72176">
        <ele>5.3</ele>
        <time>2015-12-27T09:06:50Z</time>
      </trkpt>
      <trkpt lat="47.33523" lon="-0.72204">
        <ele>5.6</ele>
        <time>2015-12-27T09:06:57Z</time>
      </trkpt>
      <trkpt lat="47.33527" lon="-0.72217">
        <ele>5.4</ele>
        <time>2015-12-27T09:07:00Z</time>
      </trkpt>
      <trkpt lat="47.3353" lon="-0.7223">
        <ele>5.4</ele>
        <time>2015-12-27T09:07:03Z</time>
      </trkpt>
      <trkpt lat="47.33533" lon="-0.72243">
        <ele>5.3</ele>
        <time>2015-12-27T09:07:06Z</time>
      </trkpt>
      <trkpt lat="47.33537" lon="-0.72256">
        <ele>5.3</ele>
        <time>2015-12-27T09:07:09Z</time>
      </trkpt>
      <trkpt lat="47.33541" lon="-0.72269">
        <ele>5.2</ele>
        <time>2015-12-27T09:07:12Z</time>
      </trkpt>
      <trkpt lat="47.33545" lon="-0.72281">
        <ele>5.4</ele>
        <time>2015-12-27T09:07:15Z</time>
      </trkpt>
      <trkpt lat="47.3355" lon="-0.72294">
        <ele>5.2</ele>
        <time>2015-12-27T09:07:18Z</time>
      </trkpt>
      <trkpt lat="47.33556" lon="-0.72307">
        <ele>5.2</ele>
        <time>2015-12-27T09:07:21Z</time>
      </trkpt>
      <trkpt lat="47.33561" lon="-0.72319">
        <ele>5.5</ele>
        <time>2015-12-27T09:07:24Z</time>
      </trkpt>
      <trkpt lat="47.33566" lon="-0.72334">
        <ele>5.4</ele>
        <time>2015-12-27T09:07:27Z</time>
      </trkpt>
      <trkpt lat="47.33572" lon="-0.72348">
        <ele>5</ele>
        <time>2015-12-27T09:07:30Z</time>
      </trkpt>
      <trkpt lat="47.33577" lon="-0.72361">
        <ele>5.1</ele>
        <time>2015-12-27T09:07:33Z</time>
      </trkpt>
      <trkpt lat="47.33582" lon="-0.72374">
        <ele>5.1</ele>
        <time>2015-12-27T09:07:36Z</time>
      </trkpt>
      <trkpt lat="47.3359" lon="-0.72385">
        <ele>5</ele>
        <time>2015-12-27T09:07:39Z</time>
      </trkpt>
      <trkpt lat="47.33599" lon="-0.72394">
        <ele>5.1</ele>
        <time>2015-12-27T09:07:42Z</time>
      </trkpt>
      <trkpt lat="47.33608" lon="-0.72402">
        <ele>5.1</ele>
        <time>2015-12-27T09:07:45Z</time>
      </trkpt>
      <trkpt lat="47.33618" lon="-0.72409">
        <ele>5.2</ele>
        <time>2015-12-27T09:07:48Z</time>
      </trkpt>
      <trkpt lat="47.33627" lon="-0.72416">
        <ele>5</ele>
        <time>2015-12-27T09:07:51Z</time>
      </trkpt>
      <trkpt lat="47.33646" lon="-0.72429">
        <ele>4.8</ele>
        <time>2015-12-27T09:07:57Z</time>
      </trkpt>
      <trkpt lat="47.33657" lon="-0.72435">
        <ele>4.8</ele>
        <time>2015-12-27T09:08:00Z</time>
      </trkpt>
      <trkpt lat="47.33668" lon="-0.72441">
        <ele>4.7</ele>
        <time>2015-12-27T09:08:03Z</time>
      </trkpt>
      <trkpt lat="47.33679" lon="-0.72447">
        <ele>4.8</ele>
        <time>2015-12-27T09:08:06Z</time>
      </trkpt>
      <trkpt lat="47.3369" lon="-0.72452">
        <ele>4.6</ele>
        <time>2015-12-27T09:08:09Z</time>
      </trkpt>
      <trkpt lat="47.33701" lon="-0.72457">
        <ele>4.6</ele>
        <time>2015-12-27T09:08:12Z</time>
      </trkpt>
      <trkpt lat="47.3371" lon="-0.72462">
        <ele>4.7</ele>
        <time>2015-12-27T09:08:15Z</time>
      </trkpt>
      <trkpt lat="47.3372" lon="-0.72466">
        <ele>4.3</ele>
        <time>2015-12-27T09:08:18Z</time>
      </trkpt>
      <trkpt lat="47.3373" lon="-0.72472">
        <ele>4.6</ele>
        <time>2015-12-27T09:08:21Z</time>
      </trkpt>
      <trkpt lat="47.33742" lon="-0.72475">
        <ele>4.9</ele>
        <time>2015-12-27T09:08:24Z</time>
      </trkpt>
      <trkpt lat="47.33754" lon="-0.7248">
        <ele>5</ele>
        <time>2015-12-27T09:08:27Z</time>
      </trkpt>
      <trkpt lat="47.33766" lon="-0.72483">
        <ele>4.9</ele>
        <time>2015-12-27T09:08:30Z</time>
      </trkpt>
      <trkpt lat="47.33778" lon="-0.72486">
        <ele>5.1</ele>
        <time>2015-12-27T09:08:33Z</time>
      </trkpt>
      <trkpt lat="47.3379" lon="-0.7249">
        <ele>4.7</ele>
        <time>2015-12-27T09:08:36Z</time>
      </trkpt>
      <trkpt lat="47.33802" lon="-0.72495">
        <ele>4.7</ele>
        <time>2015-12-27T09:08:39Z</time>
      </trkpt>
      <trkpt lat="47.33813" lon="-0.72498">
        <ele>5.1</ele>
        <time>2015-12-27T09:08:42Z</time>
      </trkpt>
      <trkpt lat="47.33825" lon="-0.72502">
        <ele>5.1</ele>
        <time>2015-12-27T09:08:45Z</time>
      </trkpt>
      <trkpt lat="47.33836" lon="-0.72505">
        <ele>5.1</ele>
        <time>2015-12-27T09:08:48Z</time>
      </trkpt>
      <trkpt lat="47.33846" lon="-0.72509">
        <ele>5</ele>
        <time>2015-12-27T09:08:51Z</time>
      </trkpt>
      <trkpt lat="47.33856" lon="-0.72509">
        <ele>5</ele>
        <time>2015-12-27T09:08:54Z</time>
      </trkpt>
      <trkpt lat="47.33864" lon="-0.72484">
        <ele>5.9</ele>
        <time>2015-12-27T09:09:02Z</time>
      </trkpt>
      <trkpt lat="47.33868" lon="-0.72471">
        <ele>6.7</ele>
        <time>2015-12-27T09:09:06Z</time>
      </trkpt>
      <trkpt lat="47.33872" lon="-0.72459">
        <ele>7.4</ele>
        <time>2015-12-27T09:09:10Z</time>
      </trkpt>
      <trkpt lat="47.33875" lon="-0.72445">
        <ele>8.4</ele>
        <time>2015-12-27T09:09:15Z</time>
      </trkpt>
      <trkpt lat="47.33879" lon="-0.72433">
        <ele>9.7</ele>
        <time>2015-12-27T09:09:20Z</time>
      </trkpt>
      <trkpt lat="47.33883" lon="-0.72419">
        <ele>11.4</ele>
        <time>2015-12-27T09:09:26Z</time>
      </trkpt>
      <trkpt lat="47.33888" lon="-0.72406">
        <ele>13.4</ele>
        <time>2015-12-27T09:09:32Z</time>
      </trkpt>
      <trkpt lat="47.33893" lon="-0.72394">
        <ele>14.6</ele>
        <time>2015-12-27T09:09:38Z</time>
      </trkpt>
      <trkpt lat="47.33897" lon="-0.72381">
        <ele>15.9</ele>
        <time>2015-12-27T09:09:44Z</time>
      </trkpt>
      <trkpt lat="47.33901" lon="-0.72368">
        <ele>17</ele>
        <time>2015-12-27T09:09:50Z</time>
      </trkpt>
      <trkpt lat="47.33905" lon="-0.72356">
        <ele>18.3</ele>
        <time>2015-12-27T09:09:56Z</time>
      </trkpt>
      <trkpt lat="47.33914" lon="-0.7233">
        <ele>20.9</ele>
        <time>2015-12-27T09:10:08Z</time>
      </trkpt>
      <trkpt lat="47.33918" lon="-0.72316">
        <ele>22.2</ele>
        <time>2015-12-27T09:10:15Z</time>
      </trkpt>
      <trkpt lat="47.33922" lon="-0.72302">
        <ele>23.1</ele>
        <time>2015-12-27T09:10:22Z</time>
      </trkpt>
      <trkpt lat="47.33926" lon="-0.7229">
        <ele>24.6</ele>
        <time>2015-12-27T09:10:28Z</time>
      </trkpt>
      <trkpt lat="47.33928" lon="-0.72277">
        <ele>25.7</ele>
        <time>2015-12-27T09:10:34Z</time>
      </trkpt>
      <trkpt lat="47.33932" lon="-0.72263">
        <ele>26.7</ele>
        <time>2015-12-27T09:10:40Z</time>
      </trkpt>
      <trkpt lat="47.33937" lon="-0.72252">
        <ele>27.3</ele>
        <time>2015-12-27T09:10:47Z</time>
      </trkpt>
      <trkpt lat="47.33944" lon="-0.72241">
        <ele>27.2</ele>
        <time>2015-12-27T09:10:54Z</time>
      </trkpt>
      <trkpt lat="47.33949" lon="-0.7223">
        <ele>27.5</ele>
        <time>2015-12-27T09:11:00Z</time>
      </trkpt>
      <trkpt lat="47.33952" lon="-0.722">
        <ele>30.7</ele>
        <time>2015-12-27T09:11:15Z</time>
      </trkpt>
      <trkpt lat="47.33953" lon="-0.72186">
        <ele>31.7</ele>
        <time>2015-12-27T09:11:21Z</time>
      </trkpt>
      <trkpt lat="47.33953" lon="-0.7217">
        <ele>33.1</ele>
        <time>2015-12-27T09:11:28Z</time>
      </trkpt>
      <trkpt lat="47.33952" lon="-0.72155">
        <ele>34.7</ele>
        <time>2015-12-27T09:11:35Z</time>
      </trkpt>
      <trkpt lat="47.33953" lon="-0.72141">
        <ele>36</ele>
        <time>2015-12-27T09:11:42Z</time>
      </trkpt>
      <trkpt lat="47.33954" lon="-0.72126">
        <ele>38</ele>
        <time>2015-12-27T09:11:52Z</time>
      </trkpt>
      <trkpt lat="47.33953" lon="-0.72113">
        <ele>40.3</ele>
        <time>2015-12-27T09:12:05Z</time>
      </trkpt>
      <trkpt lat="47.33949" lon="-0.72085">
        <ele>43.2</ele>
        <time>2015-12-27T09:12:30Z</time>
      </trkpt>
      <trkpt lat="47.33947" lon="-0.72072">
        <ele>45</ele>
        <time>2015-12-27T09:12:39Z</time>
      </trkpt>
      <trkpt lat="47.33945" lon="-0.72058">
        <ele>46.8</ele>
        <time>2015-12-27T09:12:50Z</time>
      </trkpt>
      <trkpt lat="47.33943" lon="-0.72045">
        <ele>49.3</ele>
        <time>2015-12-27T09:13:01Z</time>
      </trkpt>
      <trkpt lat="47.33943" lon="-0.7203">
        <ele>51.8</ele>
        <time>2015-12-27T09:13:13Z</time>
      </trkpt>
      <trkpt lat="47.3394" lon="-0.72001">
        <ele>56.4</ele>
        <time>2015-12-27T09:13:36Z</time>
      </trkpt>
      <trkpt lat="47.33941" lon="-0.71988">
        <ele>58.5</ele>
        <time>2015-12-27T09:13:49Z</time>
      </trkpt>
      <trkpt lat="47.33942" lon="-0.71972">
        <ele>60.5</ele>
        <time>2015-12-27T09:15:58Z</time>
      </trkpt>
      <trkpt lat="47.33934" lon="-0.71948">
        <ele>63.5</ele>
        <time>2015-12-27T09:16:08Z</time>
      </trkpt>
      <trkpt lat="47.33929" lon="-0.71935">
        <ele>64.7</ele>
        <time>2015-12-27T09:16:15Z</time>
      </trkpt>
      <trkpt lat="47.33922" lon="-0.71925">
        <ele>65.6</ele>
        <time>2015-12-27T09:16:22Z</time>
      </trkpt>
      <trkpt lat="47.33916" lon="-0.71914">
        <ele>66.3</ele>
        <time>2015-12-27T09:16:27Z</time>
      </trkpt>
      <trkpt lat="47.33911" lon="-0.71902">
        <ele>66.5</ele>
        <time>2015-12-27T09:16:31Z</time>
      </trkpt>
      <trkpt lat="47.33904" lon="-0.71892">
        <ele>66.9</ele>
        <time>2015-12-27T09:16:35Z</time>
      </trkpt>
      <trkpt lat="47.33897" lon="-0.71881">
        <ele>67</ele>
        <time>2015-12-27T09:16:40Z</time>
      </trkpt>
      <trkpt lat="47.3389" lon="-0.71871">
        <ele>66.9</ele>
        <time>2015-12-27T09:16:48Z</time>
      </trkpt>
      <trkpt lat="47.33884" lon="-0.71859">
        <ele>67</ele>
        <time>2015-12-27T09:16:54Z</time>
      </trkpt>
      <trkpt lat="47.33892" lon="-0.71866">
        <ele>65.1</ele>
        <time>2015-12-27T09:23:46Z</time>
      </trkpt>
      <trkpt lat="47.33905" lon="-0.71891">
        <ele>65</ele>
        <time>2015-12-27T09:23:54Z</time>
      </trkpt>
      <trkpt lat="47.33912" lon="-0.71904">
        <ele>64.9</ele>
        <time>2015-12-27T09:23:57Z</time>
      </trkpt>
      <trkpt lat="47.33919" lon="-0.71917">
        <ele>64.5</ele>
        <time>2015-12-27T09:24:00Z</time>
      </trkpt>
      <trkpt lat="47.33925" lon="-0.71928">
        <ele>64.2</ele>
        <time>2015-12-27T09:24:02Z</time>
      </trkpt>
      <trkpt lat="47.33931" lon="-0.71941">
        <ele>63.9</ele>
        <time>2015-12-27T09:24:04Z</time>
      </trkpt>
      <trkpt lat="47.33936" lon="-0.71955">
        <ele>63.1</ele>
        <time>2015-12-27T09:24:06Z</time>
      </trkpt>
      <trkpt lat="47.33942" lon="-0.7197">
        <ele>62</ele>
        <time>2015-12-27T09:24:08Z</time>
      </trkpt>
      <trkpt lat="47.3395" lon="-0.71987">
        <ele>61</ele>
        <time>2015-12-27T09:24:10Z</time>
      </trkpt>
      <trkpt lat="47.33957" lon="-0.72006">
        <ele>59.8</ele>
        <time>2015-12-27T09:24:12Z</time>
      </trkpt>
      <trkpt lat="47.33966" lon="-0.72028">
        <ele>58.4</ele>
        <time>2015-12-27T09:24:14Z</time>
      </trkpt>
      <trkpt lat="47.33971" lon="-0.72039">
        <ele>57</ele>
        <time>2015-12-27T09:24:15Z</time>
      </trkpt>
      <trkpt lat="47.33976" lon="-0.72051">
        <ele>56.1</ele>
        <time>2015-12-27T09:24:16Z</time>
      </trkpt>
      <trkpt lat="47.33981" lon="-0.72063">
        <ele>54.4</ele>
        <time>2015-12-27T09:24:17Z</time>
      </trkpt>
      <trkpt lat="47.33986" lon="-0.72074">
        <ele>53.9</ele>
        <time>2015-12-27T09:24:18Z</time>
      </trkpt>
      <trkpt lat="47.33996" lon="-0.72095">
        <ele>52</ele>
        <time>2015-12-27T09:24:20Z</time>
      </trkpt>
      <trkpt lat="47.34007" lon="-0.72113">
        <ele>50.7</ele>
        <time>2015-12-27T09:24:22Z</time>
      </trkpt>
      <trkpt lat="47.34019" lon="-0.72133">
        <ele>49.3</ele>
        <time>2015-12-27T09:24:24Z</time>
      </trkpt>
      <trkpt lat="47.34024" lon="-0.72144">
        <ele>47.1</ele>
        <time>2015-12-27T09:24:25Z</time>
      </trkpt>
      <trkpt lat="47.34028" lon="-0.72156">
        <ele>46.5</ele>
        <time>2015-12-27T09:24:26Z</time>
      </trkpt>
      <trkpt lat="47.34032" lon="-0.72169">
        <ele>45.3</ele>
        <time>2015-12-27T09:24:27Z</time>
      </trkpt>
      <trkpt lat="47.34035" lon="-0.72182">
        <ele>45.2</ele>
        <time>2015-12-27T09:24:28Z</time>
      </trkpt>
      <trkpt lat="47.34039" lon="-0.72195">
        <ele>44.1</ele>
        <time>2015-12-27T09:24:29Z</time>
      </trkpt>
      <trkpt lat="47.34043" lon="-0.72207">
        <ele>43.4</ele>
        <time>2015-12-27T09:24:30Z</time>
      </trkpt>
      <trkpt lat="47.34049" lon="-0.7222">
        <ele>42</ele>
        <time>2015-12-27T09:24:31Z</time>
      </trkpt>
      <trkpt lat="47.34054" lon="-0.72232">
        <ele>41.6</ele>
        <time>2015-12-27T09:24:32Z</time>
      </trkpt>
      <trkpt lat="47.3406" lon="-0.72244">
        <ele>40.4</ele>
        <time>2015-12-27T09:24:33Z</time>
      </trkpt>
      <trkpt lat="47.34065" lon="-0.72256">
        <ele>39.4</ele>
        <time>2015-12-27T09:24:34Z</time>
      </trkpt>
      <trkpt lat="47.34071" lon="-0.72266">
        <ele>38.8</ele>
        <time>2015-12-27T09:24:35Z</time>
      </trkpt>
      <trkpt lat="47.34085" lon="-0.72281">
        <ele>36.9</ele>
        <time>2015-12-27T09:24:37Z</time>
      </trkpt>
      <trkpt lat="47.34096" lon="-0.72289">
        <ele>35.4</ele>
        <time>2015-12-27T09:24:39Z</time>
      </trkpt>
      <trkpt lat="47.34107" lon="-0.72295">
        <ele>34.3</ele>
        <time>2015-12-27T09:24:41Z</time>
      </trkpt>
      <trkpt lat="47.3412" lon="-0.72303">
        <ele>32.6</ele>
        <time>2015-12-27T09:24:43Z</time>
      </trkpt>
      <trkpt lat="47.34134" lon="-0.72311">
        <ele>30.9</ele>
        <time>2015-12-27T09:24:45Z</time>
      </trkpt>
      <trkpt lat="47.3415" lon="-0.7232">
        <ele>28.8</ele>
        <time>2015-12-27T09:24:47Z</time>
      </trkpt>
      <trkpt lat="47.34169" lon="-0.72331">
        <ele>26.8</ele>
        <time>2015-12-27T09:24:49Z</time>
      </trkpt>
      <trkpt lat="47.34178" lon="-0.72338">
        <ele>25.6</ele>
        <time>2015-12-27T09:24:50Z</time>
      </trkpt>
      <trkpt lat="47.34188" lon="-0.72346">
        <ele>24</ele>
        <time>2015-12-27T09:24:51Z</time>
      </trkpt>
      <trkpt lat="47.34198" lon="-0.72353">
        <ele>22.2</ele>
        <time>2015-12-27T09:24:52Z</time>
      </trkpt>
      <trkpt lat="47.34209" lon="-0.7236">
        <ele>21.4</ele>
        <time>2015-12-27T09:24:53Z</time>
      </trkpt>
      <trkpt lat="47.34219" lon="-0.72366">
        <ele>19.9</ele>
        <time>2015-12-27T09:24:54Z</time>
      </trkpt>
      <trkpt lat="47.3423" lon="-0.72372">
        <ele>19</ele>
        <time>2015-12-27T09:24:55Z</time>
      </trkpt>
      <trkpt lat="47.34239" lon="-0.72378">
        <ele>18.3</ele>
        <time>2015-12-27T09:24:56Z</time>
      </trkpt>
      <trkpt lat="47.34247" lon="-0.72384">
        <ele>17.5</ele>
        <time>2015-12-27T09:24:57Z</time>
      </trkpt>
      <trkpt lat="47.34261" lon="-0.72395">
        <ele>16.7</ele>
        <time>2015-12-27T09:24:59Z</time>
      </trkpt>
      <trkpt lat="47.34274" lon="-0.72404">
        <ele>16.3</ele>
        <time>2015-12-27T09:25:01Z</time>
      </trkpt>
      <trkpt lat="47.34285" lon="-0.72413">
        <ele>16.2</ele>
        <time>2015-12-27T09:25:03Z</time>
      </trkpt>
      <trkpt lat="47.34294" lon="-0.72424">
        <ele>15.2</ele>
        <time>2015-12-27T09:25:05Z</time>
      </trkpt>
      <trkpt lat="47.34303" lon="-0.7244">
        <ele>14.8</ele>
        <time>2015-12-27T09:25:07Z</time>
      </trkpt>
      <trkpt lat="47.34308" lon="-0.7246">
        <ele>13.7</ele>
        <time>2015-12-27T09:25:09Z</time>
      </trkpt>
      <trkpt lat="47.34313" lon="-0.72481">
        <ele>13</ele>
        <time>2015-12-27T09:25:11Z</time>
      </trkpt>
      <trkpt lat="47.34318" lon="-0.72503">
        <ele>12.6</ele>
        <time>2015-12-27T09:25:13Z</time>
      </trkpt>
      <trkpt lat="47.34322" lon="-0.72525">
        <ele>11.9</ele>
        <time>2015-12-27T09:25:15Z</time>
      </trkpt>
      <trkpt lat="47.34323" lon="-0.72549">
        <ele>11.4</ele>
        <time>2015-12-27T09:25:17Z</time>
      </trkpt>
      <trkpt lat="47.34325" lon="-0.72574">
        <ele>10.2</ele>
        <time>2015-12-27T09:25:19Z</time>
      </trkpt>
      <trkpt lat="47.34324" lon="-0.72598">
        <ele>10.1</ele>
        <time>2015-12-27T09:25:21Z</time>
      </trkpt>
      <trkpt lat="47.34315" lon="-0.7262">
        <ele>8.2</ele>
        <time>2015-12-27T09:25:23Z</time>
      </trkpt>
      <trkpt lat="47.34308" lon="-0.72637">
        <ele>8.1</ele>
        <time>2015-12-27T09:25:25Z</time>
      </trkpt>
      <trkpt lat="47.34313" lon="-0.72653">
        <ele>6.6</ele>
        <time>2015-12-27T09:25:28Z</time>
      </trkpt>
      <trkpt lat="47.34322" lon="-0.72662">
        <ele>6.1</ele>
        <time>2015-12-27T09:25:30Z</time>
      </trkpt>
      <trkpt lat="47.3433" lon="-0.72672">
        <ele>5.7</ele>
        <time>2015-12-27T09:25:32Z</time>
      </trkpt>
      <trkpt lat="47.3434" lon="-0.72682">
        <ele>6.5</ele>
        <time>2015-12-27T09:25:34Z</time>
      </trkpt>
      <trkpt lat="47.34348" lon="-0.72695">
        <ele>5.9</ele>
        <time>2015-12-27T09:25:36Z</time>
      </trkpt>
      <trkpt lat="47.34354" lon="-0.72711">
        <ele>5.4</ele>
        <time>2015-12-27T09:25:38Z</time>
      </trkpt>
      <trkpt lat="47.34358" lon="-0.72729">
        <ele>4.9</ele>
        <time>2015-12-27T09:25:40Z</time>
      </trkpt>
      <trkpt lat="47.34363" lon="-0.72747">
        <ele>4.5</ele>
        <time>2015-12-27T09:25:42Z</time>
      </trkpt>
      <trkpt lat="47.34367" lon="-0.72764">
        <ele>4</ele>
        <time>2015-12-27T09:25:44Z</time>
      </trkpt>
      <trkpt lat="47.34372" lon="-0.72779">
        <ele>3.6</ele>
        <time>2015-12-27T09:25:46Z</time>
      </trkpt>
      <trkpt lat="47.34375" lon="-0.72795">
        <ele>3.5</ele>
        <time>2015-12-27T09:25:48Z</time>
      </trkpt>
      <trkpt lat="47.34377" lon="-0.72822">
        <ele>2.5</ele>
        <time>2015-12-27T09:25:53Z</time>
      </trkpt>
      <trkpt lat="47.34385" lon="-0.72832">
        <ele>2.8</ele>
        <time>2015-12-27T09:26:19Z</time>
      </trkpt>
      <trkpt lat="47.34393" lon="-0.72842">
        <ele>2.9</ele>
        <time>2015-12-27T09:26:22Z</time>
      </trkpt>
      <trkpt lat="47.34401" lon="-0.72851">
        <ele>2.9</ele>
        <time>2015-12-27T09:26:25Z</time>
      </trkpt>
      <trkpt lat="47.3441" lon="-0.72861">
        <ele>3.1</ele>
        <time>2015-12-27T09:26:28Z</time>
      </trkpt>
      <trkpt lat="47.34419" lon="-0.72871">
        <ele>3.1</ele>
        <time>2015-12-27T09:26:31Z</time>
      </trkpt>
      <trkpt lat="47.34428" lon="-0.72879">
        <ele>3.1</ele>
        <time>2015-12-27T09:26:34Z</time>
      </trkpt>
      <trkpt lat="47.34435" lon="-0.72887">
        <ele>3</ele>
        <time>2015-12-27T09:26:37Z</time>
      </trkpt>
      <trkpt lat="47.34443" lon="-0.72895">
        <ele>3</ele>
        <time>2015-12-27T09:27:04Z</time>
      </trkpt>
      <trkpt lat="47.34461" lon="-0.72914">
        <ele>2.8</ele>
        <time>2015-12-27T09:27:10Z</time>
      </trkpt>
      <trkpt lat="47.34469" lon="-0.72923">
        <ele>2.9</ele>
        <time>2015-12-27T09:27:13Z</time>
      </trkpt>
      <trkpt lat="47.34477" lon="-0.72933">
        <ele>2.8</ele>
        <time>2015-12-27T09:27:16Z</time>
      </trkpt>
      <trkpt lat="47.34485" lon="-0.72944">
        <ele>2.8</ele>
        <time>2015-12-27T09:27:19Z</time>
      </trkpt>
      <trkpt lat="47.34493" lon="-0.72955">
        <ele>2.9</ele>
        <time>2015-12-27T09:27:22Z</time>
      </trkpt>
      <trkpt lat="47.34501" lon="-0.72965">
        <ele>2.8</ele>
        <time>2015-12-27T09:27:25Z</time>
      </trkpt>
      <trkpt lat="47.3451" lon="-0.72977">
        <ele>2.7</ele>
        <time>2015-12-27T09:27:28Z</time>
      </trkpt>
      <trkpt lat="47.3452" lon="-0.7299">
        <ele>2.8</ele>
        <time>2015-12-27T09:27:31Z</time>
      </trkpt>
      <trkpt lat="47.3453" lon="-0.73003">
        <ele>3</ele>
        <time>2015-12-27T09:27:34Z</time>
      </trkpt>
      <trkpt lat="47.3454" lon="-0.73015">
        <ele>3</ele>
        <time>2015-12-27T09:27:37Z</time>
      </trkpt>
      <trkpt lat="47.3455" lon="-0.73026">
        <ele>3</ele>
        <time>2015-12-27T09:27:40Z</time>
      </trkpt>
      <trkpt lat="47.34561" lon="-0.73037">
        <ele>2.4</ele>
        <time>2015-12-27T09:27:43Z</time>
      </trkpt>
      <trkpt lat="47.34571" lon="-0.73047">
        <ele>2.8</ele>
        <time>2015-12-27T09:27:46Z</time>
      </trkpt>
      <trkpt lat="47.34582" lon="-0.73058">
        <ele>3.2</ele>
        <time>2015-12-27T09:27:49Z</time>
      </trkpt>
      <trkpt lat="47.34593" lon="-0.73069">
        <ele>3.1</ele>
        <time>2015-12-27T09:27:52Z</time>
      </trkpt>
      <trkpt lat="47.34603" lon="-0.7308">
        <ele>2.9</ele>
        <time>2015-12-27T09:27:55Z</time>
      </trkpt>
      <trkpt lat="47.34613" lon="-0.73092">
        <ele>2.8</ele>
        <time>2015-12-27T09:27:58Z</time>
      </trkpt>
      <trkpt lat="47.34624" lon="-0.73106">
        <ele>2.7</ele>
        <time>2015-12-27T09:28:01Z</time>
      </trkpt>
      <trkpt lat="47.3463" lon="-0.73116">
        <ele>2.7</ele>
        <time>2015-12-27T09:28:03Z</time>
      </trkpt>
      <trkpt lat="47.34639" lon="-0.73131">
        <ele>2.9</ele>
        <time>2015-12-27T09:28:06Z</time>
      </trkpt>
      <trkpt lat="47.34652" lon="-0.73159">
        <ele>3.2</ele>
        <time>2015-12-27T09:28:11Z</time>
      </trkpt>
      <trkpt lat="47.34657" lon="-0.73172">
        <ele>3.2</ele>
        <time>2015-12-27T09:28:13Z</time>
      </trkpt>
      <trkpt lat="47.34663" lon="-0.73185">
        <ele>3</ele>
        <time>2015-12-27T09:28:15Z</time>
      </trkpt>
      <trkpt lat="47.34669" lon="-0.732">
        <ele>2.9</ele>
        <time>2015-12-27T09:28:17Z</time>
      </trkpt>
      <trkpt lat="47.34674" lon="-0.73215">
        <ele>2.8</ele>
        <time>2015-12-27T09:28:19Z</time>
      </trkpt>
      <trkpt lat="47.3468" lon="-0.7323">
        <ele>3.1</ele>
        <time>2015-12-27T09:28:21Z</time>
      </trkpt>
      <trkpt lat="47.34686" lon="-0.73244">
        <ele>3.2</ele>
        <time>2015-12-27T09:28:23Z</time>
      </trkpt>
      <trkpt lat="47.34692" lon="-0.73259">
        <ele>3.7</ele>
        <time>2015-12-27T09:28:25Z</time>
      </trkpt>
      <trkpt lat="47.34697" lon="-0.73273">
        <ele>4.1</ele>
        <time>2015-12-27T09:28:27Z</time>
      </trkpt>
      <trkpt lat="47.34703" lon="-0.73285">
        <ele>4.9</ele>
        <time>2015-12-27T09:28:29Z</time>
      </trkpt>
      <trkpt lat="47.3471" lon="-0.733">
        <ele>6.3</ele>
        <time>2015-12-27T09:28:32Z</time>
      </trkpt>
      <trkpt lat="47.34716" lon="-0.73312">
        <ele>7.6</ele>
        <time>2015-12-27T09:28:35Z</time>
      </trkpt>
      <trkpt lat="47.34723" lon="-0.73326">
        <ele>9.1</ele>
        <time>2015-12-27T09:28:38Z</time>
      </trkpt>
      <trkpt lat="47.34729" lon="-0.73339">
        <ele>10.6</ele>
        <time>2015-12-27T09:28:41Z</time>
      </trkpt>
      <trkpt lat="47.34734" lon="-0.73352">
        <ele>11.9</ele>
        <time>2015-12-27T09:28:44Z</time>
      </trkpt>
      <trkpt lat="47.3474" lon="-0.73363">
        <ele>13</ele>
        <time>2015-12-27T09:28:47Z</time>
      </trkpt>
      <trkpt lat="47.34746" lon="-0.73376">
        <ele>14.1</ele>
        <time>2015-12-27T09:28:51Z</time>
      </trkpt>
      <trkpt lat="47.34752" lon="-0.73389">
        <ele>15.2</ele>
        <time>2015-12-27T09:28:55Z</time>
      </trkpt>
      <trkpt lat="47.34758" lon="-0.73399">
        <ele>16.5</ele>
        <time>2015-12-27T09:28:58Z</time>
      </trkpt>
      <trkpt lat="47.34765" lon="-0.73413">
        <ele>17.9</ele>
        <time>2015-12-27T09:29:02Z</time>
      </trkpt>
      <trkpt lat="47.34771" lon="-0.73426">
        <ele>19.3</ele>
        <time>2015-12-27T09:29:06Z</time>
      </trkpt>
      <trkpt lat="47.34775" lon="-0.73437">
        <ele>20.4</ele>
        <time>2015-12-27T09:29:09Z</time>
      </trkpt>
      <trkpt lat="47.3478" lon="-0.73467">
        <ele>22.4</ele>
        <time>2015-12-27T09:29:16Z</time>
      </trkpt>
      <trkpt lat="47.34779" lon="-0.73484">
        <ele>22.2</ele>
        <time>2015-12-27T09:29:19Z</time>
      </trkpt>
      <trkpt lat="47.34781" lon="-0.73502">
        <ele>22.2</ele>
        <time>2015-12-27T09:29:22Z</time>
      </trkpt>
      <trkpt lat="47.34787" lon="-0.73516">
        <ele>21.8</ele>
        <time>2015-12-27T09:29:25Z</time>
      </trkpt>
      <trkpt lat="47.34796" lon="-0.73526">
        <ele>21.9</ele>
        <time>2015-12-27T09:29:28Z</time>
      </trkpt>
      <trkpt lat="47.34805" lon="-0.73538">
        <ele>21.8</ele>
        <time>2015-12-27T09:29:31Z</time>
      </trkpt>
      <trkpt lat="47.34812" lon="-0.7355">
        <ele>22.2</ele>
        <time>2015-12-27T09:29:34Z</time>
      </trkpt>
      <trkpt lat="47.34815" lon="-0.73564">
        <ele>22.8</ele>
        <time>2015-12-27T09:29:37Z</time>
      </trkpt>
      <trkpt lat="47.34816" lon="-0.73578">
        <ele>23.3</ele>
        <time>2015-12-27T09:29:40Z</time>
      </trkpt>
      <trkpt lat="47.34817" lon="-0.73591">
        <ele>23.9</ele>
        <time>2015-12-27T09:29:43Z</time>
      </trkpt>
      <trkpt lat="47.3482" lon="-0.73609">
        <ele>24.7</ele>
        <time>2015-12-27T09:29:47Z</time>
      </trkpt>
      <trkpt lat="47.34824" lon="-0.73621">
        <ele>25.7</ele>
        <time>2015-12-27T09:29:50Z</time>
      </trkpt>
      <trkpt lat="47.34828" lon="-0.73634">
        <ele>26.7</ele>
        <time>2015-12-27T09:29:53Z</time>
      </trkpt>
      <trkpt lat="47.34832" lon="-0.73647">
        <ele>27.5</ele>
        <time>2015-12-27T09:29:56Z</time>
      </trkpt>
      <trkpt lat="47.34837" lon="-0.7366">
        <ele>28.1</ele>
        <time>2015-12-27T09:29:59Z</time>
      </trkpt>
      <trkpt lat="47.34841" lon="-0.73674">
        <ele>29</ele>
        <time>2015-12-27T09:30:02Z</time>
      </trkpt>
      <trkpt lat="47.34844" lon="-0.73688">
        <ele>29.6</ele>
        <time>2015-12-27T09:30:05Z</time>
      </trkpt>
      <trkpt lat="47.34849" lon="-0.73703">
        <ele>30.2</ele>
        <time>2015-12-27T09:30:08Z</time>
      </trkpt>
      <trkpt lat="47.34853" lon="-0.73717">
        <ele>30.5</ele>
        <time>2015-12-27T09:30:11Z</time>
      </trkpt>
      <trkpt lat="47.34861" lon="-0.73747">
        <ele>31.1</ele>
        <time>2015-12-27T09:30:17Z</time>
      </trkpt>
      <trkpt lat="47.34865" lon="-0.73762">
        <ele>31.5</ele>
        <time>2015-12-27T09:30:20Z</time>
      </trkpt>
      <trkpt lat="47.34866" lon="-0.73778">
        <ele>32.4</ele>
        <time>2015-12-27T09:30:24Z</time>
      </trkpt>
      <trkpt lat="47.34866" lon="-0.73792">
        <ele>32.9</ele>
        <time>2015-12-27T09:30:28Z</time>
      </trkpt>
      <trkpt lat="47.34871" lon="-0.73807">
        <ele>33.4</ele>
        <time>2015-12-27T09:30:32Z</time>
      </trkpt>
      <trkpt lat="47.34875" lon="-0.73823">
        <ele>33.4</ele>
        <time>2015-12-27T09:30:36Z</time>
      </trkpt>
      <trkpt lat="47.34877" lon="-0.73837">
        <ele>33.9</ele>
        <time>2015-12-27T09:30:40Z</time>
      </trkpt>
      <trkpt lat="47.34879" lon="-0.73851">
        <ele>34.7</ele>
        <time>2015-12-27T09:30:44Z</time>
      </trkpt>
      <trkpt lat="47.34881" lon="-0.73866">
        <ele>35.6</ele>
        <time>2015-12-27T09:30:48Z</time>
      </trkpt>
      <trkpt lat="47.34881" lon="-0.73881">
        <ele>36.5</ele>
        <time>2015-12-27T09:30:52Z</time>
      </trkpt>
      <trkpt lat="47.3488" lon="-0.73897">
        <ele>37.4</ele>
        <time>2015-12-27T09:30:56Z</time>
      </trkpt>
      <trkpt lat="47.34877" lon="-0.73912">
        <ele>37.7</ele>
        <time>2015-12-27T09:31:00Z</time>
      </trkpt>
      <trkpt lat="47.34874" lon="-0.73927">
        <ele>38.2</ele>
        <time>2015-12-27T09:31:04Z</time>
      </trkpt>
      <trkpt lat="47.34871" lon="-0.7394">
        <ele>38.9</ele>
        <time>2015-12-27T09:31:08Z</time>
      </trkpt>
      <trkpt lat="47.34869" lon="-0.73955">
        <ele>39.5</ele>
        <time>2015-12-27T09:31:12Z</time>
      </trkpt>
      <trkpt lat="47.34867" lon="-0.73984">
        <ele>41.3</ele>
        <time>2015-12-27T09:31:20Z</time>
      </trkpt>
      <trkpt lat="47.34867" lon="-0.73999">
        <ele>41.7</ele>
        <time>2015-12-27T09:31:24Z</time>
      </trkpt>
      <trkpt lat="47.34866" lon="-0.74013">
        <ele>42.4</ele>
        <time>2015-12-27T09:31:28Z</time>
      </trkpt>
      <trkpt lat="47.34866" lon="-0.74027">
        <ele>42.5</ele>
        <time>2015-12-27T09:31:32Z</time>
      </trkpt>
      <trkpt lat="47.34866" lon="-0.74043">
        <ele>43.2</ele>
        <time>2015-12-27T09:31:36Z</time>
      </trkpt>
      <trkpt lat="47.34864" lon="-0.74057">
        <ele>43.9</ele>
        <time>2015-12-27T09:31:40Z</time>
      </trkpt>
      <trkpt lat="47.34855" lon="-0.74061">
        <ele>44.8</ele>
        <time>2015-12-27T09:31:45Z</time>
      </trkpt>
      <trkpt lat="47.34843" lon="-0.74063">
        <ele>44.7</ele>
        <time>2015-12-27T09:31:49Z</time>
      </trkpt>
      <trkpt lat="47.34832" lon="-0.74066">
        <ele>45.3</ele>
        <time>2015-12-27T09:31:52Z</time>
      </trkpt>
      <trkpt lat="47.34821" lon="-0.74068">
        <ele>45.4</ele>
        <time>2015-12-27T09:31:55Z</time>
      </trkpt>
      <trkpt lat="47.34811" lon="-0.7407">
        <ele>45.6</ele>
        <time>2015-12-27T09:31:58Z</time>
      </trkpt>
      <trkpt lat="47.34802" lon="-0.74072">
        <ele>45.5</ele>
        <time>2015-12-27T09:32:01Z</time>
      </trkpt>
      <trkpt lat="47.34791" lon="-0.74074">
        <ele>46.3</ele>
        <time>2015-12-27T09:32:05Z</time>
      </trkpt>
      <trkpt lat="47.3478" lon="-0.74076">
        <ele>47.2</ele>
        <time>2015-12-27T09:32:09Z</time>
      </trkpt>
      <trkpt lat="47.34771" lon="-0.74079">
        <ele>48.2</ele>
        <time>2015-12-27T09:32:13Z</time>
      </trkpt>
      <trkpt lat="47.34752" lon="-0.74082">
        <ele>49.5</ele>
        <time>2015-12-27T09:32:21Z</time>
      </trkpt>
      <trkpt lat="47.34741" lon="-0.74084">
        <ele>50.1</ele>
        <time>2015-12-27T09:32:25Z</time>
      </trkpt>
      <trkpt lat="47.34732" lon="-0.74088">
        <ele>50.7</ele>
        <time>2015-12-27T09:32:29Z</time>
      </trkpt>
      <trkpt lat="47.34721" lon="-0.74093">
        <ele>50.4</ele>
        <time>2015-12-27T09:32:33Z</time>
      </trkpt>
      <trkpt lat="47.34709" lon="-0.74099">
        <ele>50.3</ele>
        <time>2015-12-27T09:32:36Z</time>
      </trkpt>
      <trkpt lat="47.34697" lon="-0.74104">
        <ele>48.3</ele>
        <time>2015-12-27T09:32:38Z</time>
      </trkpt>
      <trkpt lat="47.34684" lon="-0.7411">
        <ele>46.4</ele>
        <time>2015-12-27T09:32:40Z</time>
      </trkpt>
      <trkpt lat="47.34671" lon="-0.74116">
        <ele>44.9</ele>
        <time>2015-12-27T09:32:42Z</time>
      </trkpt>
      <trkpt lat="47.34658" lon="-0.74122">
        <ele>42.6</ele>
        <time>2015-12-27T09:32:44Z</time>
      </trkpt>
      <trkpt lat="47.34646" lon="-0.74127">
        <ele>39.2</ele>
        <time>2015-12-27T09:32:46Z</time>
      </trkpt>
      <trkpt lat="47.34638" lon="-0.7414">
        <ele>34.5</ele>
        <time>2015-12-27T09:32:49Z</time>
      </trkpt>
      <trkpt lat="47.34642" lon="-0.74154">
        <ele>33</ele>
        <time>2015-12-27T09:32:52Z</time>
      </trkpt>
      <trkpt lat="47.34646" lon="-0.74169">
        <ele>33.4</ele>
        <time>2015-12-27T09:32:55Z</time>
      </trkpt>
      <trkpt lat="47.34651" lon="-0.74183">
        <ele>33.1</ele>
        <time>2015-12-27T09:32:58Z</time>
      </trkpt>
      <trkpt lat="47.34656" lon="-0.74197">
        <ele>33.2</ele>
        <time>2015-12-27T09:33:01Z</time>
      </trkpt>
      <trkpt lat="47.34662" lon="-0.74208">
        <ele>33.1</ele>
        <time>2015-12-27T09:33:04Z</time>
      </trkpt>
      <trkpt lat="47.34657" lon="-0.74225">
        <ele>32.2</ele>
        <time>2015-12-27T09:33:09Z</time>
      </trkpt>
      <trkpt lat="47.34647" lon="-0.74236">
        <ele>30.9</ele>
        <time>2015-12-27T09:33:11Z</time>
      </trkpt>
      <trkpt lat="47.34635" lon="-0.7425">
        <ele>29.3</ele>
        <time>2015-12-27T09:33:13Z</time>
      </trkpt>
      <trkpt lat="47.34624" lon="-0.74262">
        <ele>28</ele>
        <time>2015-12-27T09:33:15Z</time>
      </trkpt>
      <trkpt lat="47.34621" lon="-0.7429">
        <ele>25.3</ele>
        <time>2015-12-27T09:33:20Z</time>
      </trkpt>
      <trkpt lat="47.34627" lon="-0.74304">
        <ele>24.3</ele>
        <time>2015-12-27T09:33:23Z</time>
      </trkpt>
      <trkpt lat="47.34631" lon="-0.74318">
        <ele>24.2</ele>
        <time>2015-12-27T09:33:26Z</time>
      </trkpt>
      <trkpt lat="47.34636" lon="-0.74332">
        <ele>24.2</ele>
        <time>2015-12-27T09:33:29Z</time>
      </trkpt>
      <trkpt lat="47.34636" lon="-0.74346">
        <ele>23</ele>
        <time>2015-12-27T09:33:32Z</time>
      </trkpt>
      <trkpt lat="47.34625" lon="-0.74355">
        <ele>23</ele>
        <time>2015-12-27T09:33:35Z</time>
      </trkpt>
      <trkpt lat="47.34617" lon="-0.74367">
        <ele>22.3</ele>
        <time>2015-12-27T09:33:38Z</time>
      </trkpt>
      <trkpt lat="47.34623" lon="-0.7438">
        <ele>21.6</ele>
        <time>2015-12-27T09:33:41Z</time>
      </trkpt>
      <trkpt lat="47.34629" lon="-0.7439">
        <ele>22.1</ele>
        <time>2015-12-27T09:33:44Z</time>
      </trkpt>
      <trkpt lat="47.34636" lon="-0.744">
        <ele>22.3</ele>
        <time>2015-12-27T09:33:47Z</time>
      </trkpt>
      <trkpt lat="47.34644" lon="-0.74411">
        <ele>22.4</ele>
        <time>2015-12-27T09:33:52Z</time>
      </trkpt>
      <trkpt lat="47.3465" lon="-0.74421">
        <ele>22.1</ele>
        <time>2015-12-27T09:33:58Z</time>
      </trkpt>
      <trkpt lat="47.34657" lon="-0.74433">
        <ele>22.9</ele>
        <time>2015-12-27T09:34:35Z</time>
      </trkpt>
      <trkpt lat="47.34671" lon="-0.74454">
        <ele>22.2</ele>
        <time>2015-12-27T09:34:44Z</time>
      </trkpt>
      <trkpt lat="47.34679" lon="-0.74466">
        <ele>22.1</ele>
        <time>2015-12-27T09:34:48Z</time>
      </trkpt>
      <trkpt lat="47.34687" lon="-0.74478">
        <ele>22</ele>
        <time>2015-12-27T09:34:51Z</time>
      </trkpt>
      <trkpt lat="47.34697" lon="-0.74491">
        <ele>21.4</ele>
        <time>2015-12-27T09:34:54Z</time>
      </trkpt>
      <trkpt lat="47.34704" lon="-0.745">
        <ele>21.3</ele>
        <time>2015-12-27T09:34:56Z</time>
      </trkpt>
      <trkpt lat="47.34711" lon="-0.74509">
        <ele>21.1</ele>
        <time>2015-12-27T09:34:58Z</time>
      </trkpt>
      <trkpt lat="47.34718" lon="-0.74525">
        <ele>20.4</ele>
        <time>2015-12-27T09:35:01Z</time>
      </trkpt>
      <trkpt lat="47.34715" lon="-0.74544">
        <ele>19.8</ele>
        <time>2015-12-27T09:35:04Z</time>
      </trkpt>
      <trkpt lat="47.34707" lon="-0.74551">
        <ele>19.3</ele>
        <time>2015-12-27T09:35:07Z</time>
      </trkpt>
      <trkpt lat="47.34695" lon="-0.74546">
        <ele>19.6</ele>
        <time>2015-12-27T09:35:10Z</time>
      </trkpt>
      <trkpt lat="47.34685" lon="-0.74537">
        <ele>19.9</ele>
        <time>2015-12-27T09:35:13Z</time>
      </trkpt>
      <trkpt lat="47.34674" lon="-0.74528">
        <ele>20</ele>
        <time>2015-12-27T09:35:16Z</time>
      </trkpt>
      <trkpt lat="47.34662" lon="-0.74522">
        <ele>19.8</ele>
        <time>2015-12-27T09:35:19Z</time>
      </trkpt>
      <trkpt lat="47.34649" lon="-0.74524">
        <ele>20</ele>
        <time>2015-12-27T09:35:22Z</time>
      </trkpt>
      <trkpt lat="47.34644" lon="-0.7454">
        <ele>19.5</ele>
        <time>2015-12-27T09:35:25Z</time>
      </trkpt>
      <trkpt lat="47.34639" lon="-0.74556">
        <ele>19.1</ele>
        <time>2015-12-27T09:35:28Z</time>
      </trkpt>
      <trkpt lat="47.34634" lon="-0.74573">
        <ele>18.9</ele>
        <time>2015-12-27T09:35:31Z</time>
      </trkpt>
      <trkpt lat="47.34631" lon="-0.74585">
        <ele>17.8</ele>
        <time>2015-12-27T09:35:34Z</time>
      </trkpt>
      <trkpt lat="47.34622" lon="-0.74591">
        <ele>16.8</ele>
        <time>2015-12-27T09:35:38Z</time>
      </trkpt>
      <trkpt lat="47.346" lon="-0.74585">
        <ele>15</ele>
        <time>2015-12-27T09:35:43Z</time>
      </trkpt>
      <trkpt lat="47.34589" lon="-0.7459">
        <ele>14.1</ele>
        <time>2015-12-27T09:35:45Z</time>
      </trkpt>
      <trkpt lat="47.34581" lon="-0.74605">
        <ele>13.1</ele>
        <time>2015-12-27T09:35:47Z</time>
      </trkpt>
      <trkpt lat="47.34575" lon="-0.74617">
        <ele>12.5</ele>
        <time>2015-12-27T09:35:49Z</time>
      </trkpt>
      <trkpt lat="47.34562" lon="-0.74622">
        <ele>11.7</ele>
        <time>2015-12-27T09:35:52Z</time>
      </trkpt>
      <trkpt lat="47.34552" lon="-0.74621">
        <ele>11.4</ele>
        <time>2015-12-27T09:35:54Z</time>
      </trkpt>
      <trkpt lat="47.34542" lon="-0.74627">
        <ele>11.3</ele>
        <time>2015-12-27T09:35:56Z</time>
      </trkpt>
      <trkpt lat="47.34539" lon="-0.74642">
        <ele>11.2</ele>
        <time>2015-12-27T09:35:58Z</time>
      </trkpt>
      <trkpt lat="47.34541" lon="-0.74658">
        <ele>11.2</ele>
        <time>2015-12-27T09:36:00Z</time>
      </trkpt>
      <trkpt lat="47.34544" lon="-0.74673">
        <ele>11</ele>
        <time>2015-12-27T09:36:02Z</time>
      </trkpt>
      <trkpt lat="47.34539" lon="-0.74687">
        <ele>11</ele>
        <time>2015-12-27T09:36:04Z</time>
      </trkpt>
      <trkpt lat="47.34529" lon="-0.7469">
        <ele>11.1</ele>
        <time>2015-12-27T09:36:06Z</time>
      </trkpt>
      <trkpt lat="47.34518" lon="-0.74692">
        <ele>10.9</ele>
        <time>2015-12-27T09:36:08Z</time>
      </trkpt>
      <trkpt lat="47.34508" lon="-0.74692">
        <ele>11</ele>
        <time>2015-12-27T09:36:10Z</time>
      </trkpt>
      <trkpt lat="47.34498" lon="-0.7469">
        <ele>11.2</ele>
        <time>2015-12-27T09:36:12Z</time>
      </trkpt>
      <trkpt lat="47.34489" lon="-0.74687">
        <ele>11.1</ele>
        <time>2015-12-27T09:36:14Z</time>
      </trkpt>
      <trkpt lat="47.3448" lon="-0.74684">
        <ele>11.3</ele>
        <time>2015-12-27T09:36:16Z</time>
      </trkpt>
      <trkpt lat="47.34471" lon="-0.74681">
        <ele>11.5</ele>
        <time>2015-12-27T09:36:18Z</time>
      </trkpt>
      <trkpt lat="47.34458" lon="-0.74675">
        <ele>11.7</ele>
        <time>2015-12-27T09:36:21Z</time>
      </trkpt>
      <trkpt lat="47.34445" lon="-0.7467">
        <ele>11</ele>
        <time>2015-12-27T09:36:24Z</time>
      </trkpt>
      <trkpt lat="47.34437" lon="-0.74681">
        <ele>11.4</ele>
        <time>2015-12-27T09:36:27Z</time>
      </trkpt>
      <trkpt lat="47.34433" lon="-0.74696">
        <ele>11.6</ele>
        <time>2015-12-27T09:36:30Z</time>
      </trkpt>
      <trkpt lat="47.34433" lon="-0.74709">
        <ele>11.3</ele>
        <time>2015-12-27T09:36:33Z</time>
      </trkpt>
      <trkpt lat="47.34432" lon="-0.74723">
        <ele>11.2</ele>
        <time>2015-12-27T09:36:38Z</time>
      </trkpt>
      <trkpt lat="47.34437" lon="-0.74734">
        <ele>7.6</ele>
        <time>2015-12-27T09:36:45Z</time>
      </trkpt>
      <trkpt lat="47.3445" lon="-0.74754">
        <ele>13.6</ele>
        <time>2015-12-27T09:37:09Z</time>
      </trkpt>
      <trkpt lat="47.34459" lon="-0.74752">
        <ele>-1</ele>
        <time>2015-12-27T09:40:29Z</time>
      </trkpt>
      <trkpt lat="47.34481" lon="-0.74753">
        <ele>-0.8</ele>
        <time>2015-12-27T09:40:38Z</time>
      </trkpt>
      <trkpt lat="47.34493" lon="-0.74756">
        <ele>-0.9</ele>
        <time>2015-12-27T09:40:42Z</time>
      </trkpt>
      <trkpt lat="47.34505" lon="-0.74757">
        <ele>-1</ele>
        <time>2015-12-27T09:40:46Z</time>
      </trkpt>
      <trkpt lat="47.34514" lon="-0.74757">
        <ele>-0.9</ele>
        <time>2015-12-27T09:40:49Z</time>
      </trkpt>
      <trkpt lat="47.34524" lon="-0.74756">
        <ele>-0.7</ele>
        <time>2015-12-27T09:40:52Z</time>
      </trkpt>
      <trkpt lat="47.34534" lon="-0.74754">
        <ele>-0.8</ele>
        <time>2015-12-27T09:40:55Z</time>
      </trkpt>
      <trkpt lat="47.34545" lon="-0.74751">
        <ele>-0.8</ele>
        <time>2015-12-27T09:40:58Z</time>
      </trkpt>
      <trkpt lat="47.34556" lon="-0.74748">
        <ele>-0.6</ele>
        <time>2015-12-27T09:41:01Z</time>
      </trkpt>
      <trkpt lat="47.34568" lon="-0.74746">
        <ele>-0.6</ele>
        <time>2015-12-27T09:41:04Z</time>
      </trkpt>
      <trkpt lat="47.34578" lon="-0.74743">
        <ele>-0.6</ele>
        <time>2015-12-27T09:41:07Z</time>
      </trkpt>
      <trkpt lat="47.34588" lon="-0.74739">
        <ele>-0.7</ele>
        <time>2015-12-27T09:41:10Z</time>
      </trkpt>
      <trkpt lat="47.34599" lon="-0.74735">
        <ele>-0.4</ele>
        <time>2015-12-27T09:41:13Z</time>
      </trkpt>
      <trkpt lat="47.3461" lon="-0.7473">
        <ele>-0.2</ele>
        <time>2015-12-27T09:41:16Z</time>
      </trkpt>
      <trkpt lat="47.34622" lon="-0.74724">
        <ele>-0.2</ele>
        <time>2015-12-27T09:41:19Z</time>
      </trkpt>
      <trkpt lat="47.34636" lon="-0.74723">
        <ele>14.9</ele>
        <time>2015-12-27T09:41:22Z</time>
      </trkpt>
      <trkpt lat="47.34645" lon="-0.74726">
        <ele>-0.1</ele>
        <time>2015-12-27T09:41:24Z</time>
      </trkpt>
      <trkpt lat="47.34654" lon="-0.74728">
        <ele>-0.1</ele>
        <time>2015-12-27T09:41:26Z</time>
      </trkpt>
      <trkpt lat="47.34664" lon="-0.7473">
        <ele>-0.7</ele>
        <time>2015-12-27T09:41:28Z</time>
      </trkpt>
      <trkpt lat="47.34674" lon="-0.74732">
        <ele>-0.9</ele>
        <time>2015-12-27T09:41:30Z</time>
      </trkpt>
      <trkpt lat="47.34693" lon="-0.74739">
        <ele>-0.9</ele>
        <time>2015-12-27T09:41:34Z</time>
      </trkpt>
      <trkpt lat="47.34702" lon="-0.74742">
        <ele>-1</ele>
        <time>2015-12-27T09:41:36Z</time>
      </trkpt>
      <trkpt lat="47.34712" lon="-0.74745">
        <ele>-1.2</ele>
        <time>2015-12-27T09:41:38Z</time>
      </trkpt>
      <trkpt lat="47.34721" lon="-0.74747">
        <ele>-1.3</ele>
        <time>2015-12-27T09:41:40Z</time>
      </trkpt>
      <trkpt lat="47.3473" lon="-0.74749">
        <ele>-1.2</ele>
        <time>2015-12-27T09:41:42Z</time>
      </trkpt>
      <trkpt lat="47.3474" lon="-0.74752">
        <ele>-1.6</ele>
        <time>2015-12-27T09:41:44Z</time>
      </trkpt>
      <trkpt lat="47.3475" lon="-0.74755">
        <ele>-1.7</ele>
        <time>2015-12-27T09:41:46Z</time>
      </trkpt>
      <trkpt lat="47.3476" lon="-0.7476">
        <ele>-1.7</ele>
        <time>2015-12-27T09:41:48Z</time>
      </trkpt>
      <trkpt lat="47.34771" lon="-0.74764">
        <ele>-1.1</ele>
        <time>2015-12-27T09:41:50Z</time>
      </trkpt>
      <trkpt lat="47.34781" lon="-0.74767">
        <ele>-0.9</ele>
        <time>2015-12-27T09:41:52Z</time>
      </trkpt>
      <trkpt lat="47.34791" lon="-0.74771">
        <ele>-1</ele>
        <time>2015-12-27T09:41:54Z</time>
      </trkpt>
      <trkpt lat="47.348" lon="-0.74776">
        <ele>-1</ele>
        <time>2015-12-27T09:41:56Z</time>
      </trkpt>
      <trkpt lat="47.3481" lon="-0.74781">
        <ele>-1</ele>
        <time>2015-12-27T09:41:58Z</time>
      </trkpt>
      <trkpt lat="47.34819" lon="-0.74786">
        <ele>-0.8</ele>
        <time>2015-12-27T09:42:00Z</time>
      </trkpt>
      <trkpt lat="47.34829" lon="-0.7479">
        <ele>-0.7</ele>
        <time>2015-12-27T09:42:02Z</time>
      </trkpt>
      <trkpt lat="47.34839" lon="-0.74793">
        <ele>-0.8</ele>
        <time>2015-12-27T09:42:04Z</time>
      </trkpt>
      <trkpt lat="47.34849" lon="-0.74797">
        <ele>-0.7</ele>
        <time>2015-12-27T09:42:06Z</time>
      </trkpt>
      <trkpt lat="47.3486" lon="-0.74801">
        <ele>-0.7</ele>
        <time>2015-12-27T09:42:08Z</time>
      </trkpt>
      <trkpt lat="47.34872" lon="-0.74804">
        <ele>-0.9</ele>
        <time>2015-12-27T09:42:11Z</time>
      </trkpt>
      <trkpt lat="47.34882" lon="-0.74807">
        <ele>-0.9</ele>
        <time>2015-12-27T09:42:15Z</time>
      </trkpt>
      <trkpt lat="47.34892" lon="-0.74809">
        <ele>-1.2</ele>
        <time>2015-12-27T09:42:20Z</time>
      </trkpt>
      <trkpt lat="47.34903" lon="-0.74813">
        <ele>-1</ele>
        <time>2015-12-27T09:42:25Z</time>
      </trkpt>
      <trkpt lat="47.34913" lon="-0.74818">
        <ele>-1.5</ele>
        <time>2015-12-27T09:42:30Z</time>
      </trkpt>
      <trkpt lat="47.34923" lon="-0.74821">
        <ele>-0.7</ele>
        <time>2015-12-27T09:42:34Z</time>
      </trkpt>
      <trkpt lat="47.34938" lon="-0.74836">
        <ele>-0.6</ele>
        <time>2015-12-27T09:42:44Z</time>
      </trkpt>
      <trkpt lat="47.34946" lon="-0.74848">
        <ele>-3.8</ele>
        <time>2015-12-27T10:02:09Z</time>
      </trkpt>
      <trkpt lat="47.3496" lon="-0.74872">
        <ele>-4</ele>
        <time>2015-12-27T10:02:17Z</time>
      </trkpt>
      <trkpt lat="47.34966" lon="-0.74882">
        <ele>-3.9</ele>
        <time>2015-12-27T10:02:20Z</time>
      </trkpt>
      <trkpt lat="47.34971" lon="-0.74896">
        <ele>-3.8</ele>
        <time>2015-12-27T10:02:23Z</time>
      </trkpt>
      <trkpt lat="47.34976" lon="-0.74913">
        <ele>-3.9</ele>
        <time>2015-12-27T10:02:26Z</time>
      </trkpt>
      <trkpt lat="47.34978" lon="-0.74926">
        <ele>-3.6</ele>
        <time>2015-12-27T10:02:28Z</time>
      </trkpt>
      <trkpt lat="47.34979" lon="-0.7494">
        <ele>-3.5</ele>
        <time>2015-12-27T10:02:30Z</time>
      </trkpt>
      <trkpt lat="47.3498" lon="-0.74956">
        <ele>-3.8</ele>
        <time>2015-12-27T10:02:32Z</time>
      </trkpt>
      <trkpt lat="47.3498" lon="-0.74971">
        <ele>-3.9</ele>
        <time>2015-12-27T10:02:34Z</time>
      </trkpt>
      <trkpt lat="47.34981" lon="-0.74986">
        <ele>-3.5</ele>
        <time>2015-12-27T10:02:36Z</time>
      </trkpt>
      <trkpt lat="47.34981" lon="-0.75">
        <ele>-3.9</ele>
        <time>2015-12-27T10:02:38Z</time>
      </trkpt>
      <trkpt lat="47.3498" lon="-0.75016">
        <ele>-3.9</ele>
        <time>2015-12-27T10:02:40Z</time>
      </trkpt>
      <trkpt lat="47.34979" lon="-0.75031">
        <ele>-3.9</ele>
        <time>2015-12-27T10:02:42Z</time>
      </trkpt>
      <trkpt lat="47.34978" lon="-0.75045">
        <ele>-4.1</ele>
        <time>2015-12-27T10:02:44Z</time>
      </trkpt>
      <trkpt lat="47.34976" lon="-0.75059">
        <ele>-4</ele>
        <time>2015-12-27T10:02:46Z</time>
      </trkpt>
      <trkpt lat="47.34976" lon="-0.75073">
        <ele>-4</ele>
        <time>2015-12-27T10:02:48Z</time>
      </trkpt>
      <trkpt lat="47.34976" lon="-0.75088">
        <ele>-4.1</ele>
        <time>2015-12-27T10:02:50Z</time>
      </trkpt>
      <trkpt lat="47.34976" lon="-0.75103">
        <ele>-4.2</ele>
        <time>2015-12-27T10:02:52Z</time>
      </trkpt>
      <trkpt lat="47.34978" lon="-0.75116">
        <ele>-4</ele>
        <time>2015-12-27T10:02:54Z</time>
      </trkpt>
      <trkpt lat="47.34981" lon="-0.75135">
        <ele>-4</ele>
        <time>2015-12-27T10:02:57Z</time>
      </trkpt>
      <trkpt lat="47.34983" lon="-0.75148">
        <ele>-4.1</ele>
        <time>2015-12-27T10:02:59Z</time>
      </trkpt>
      <trkpt lat="47.34984" lon="-0.75162">
        <ele>-4.1</ele>
        <time>2015-12-27T10:03:01Z</time>
      </trkpt>
      <trkpt lat="47.34986" lon="-0.75175">
        <ele>-3.7</ele>
        <time>2015-12-27T10:03:03Z</time>
      </trkpt>
      <trkpt lat="47.34988" lon="-0.75194">
        <ele>-2.8</ele>
        <time>2015-12-27T10:03:06Z</time>
      </trkpt>
      <trkpt lat="47.34991" lon="-0.7521">
        <ele>-2.4</ele>
        <time>2015-12-27T10:03:09Z</time>
      </trkpt>
      <trkpt lat="47.34992" lon="-0.75226">
        <ele>-2.1</ele>
        <time>2015-12-27T10:03:12Z</time>
      </trkpt>
      <trkpt lat="47.34993" lon="-0.75258">
        <ele>-3.5</ele>
        <time>2015-12-27T10:03:17Z</time>
      </trkpt>
      <trkpt lat="47.34992" lon="-0.75272">
        <ele>-3.3</ele>
        <time>2015-12-27T10:03:19Z</time>
      </trkpt>
      <trkpt lat="47.34992" lon="-0.75286">
        <ele>-3.6</ele>
        <time>2015-12-27T10:03:21Z</time>
      </trkpt>
      <trkpt lat="47.34989" lon="-0.75305">
        <ele>-3.7</ele>
        <time>2015-12-27T10:03:24Z</time>
      </trkpt>
      <trkpt lat="47.34989" lon="-0.75322">
        <ele>-3.7</ele>
        <time>2015-12-27T10:03:27Z</time>
      </trkpt>
      <trkpt lat="47.34993" lon="-0.7534">
        <ele>-3.8</ele>
        <time>2015-12-27T10:03:30Z</time>
      </trkpt>
      <trkpt lat="47.34997" lon="-0.75357">
        <ele>-3.8</ele>
        <time>2015-12-27T10:03:33Z</time>
      </trkpt>
      <trkpt lat="47.34999" lon="-0.75374">
        <ele>-3.9</ele>
        <time>2015-12-27T10:03:36Z</time>
      </trkpt>
      <trkpt lat="47.34995" lon="-0.75389">
        <ele>-3.9</ele>
        <time>2015-12-27T10:03:39Z</time>
      </trkpt>
      <trkpt lat="47.34989" lon="-0.75402">
        <ele>-3.8</ele>
        <time>2015-12-27T10:03:42Z</time>
      </trkpt>
      <trkpt lat="47.34984" lon="-0.75417">
        <ele>-3.8</ele>
        <time>2015-12-27T10:03:45Z</time>
      </trkpt>
      <trkpt lat="47.34979" lon="-0.75432">
        <ele>-3.9</ele>
        <time>2015-12-27T10:03:48Z</time>
      </trkpt>
      <trkpt lat="47.34974" lon="-0.75448">
        <ele>-4.2</ele>
        <time>2015-12-27T10:03:51Z</time>
      </trkpt>
      <trkpt lat="47.3497" lon="-0.75462">
        <ele>-4.1</ele>
        <time>2015-12-27T10:03:53Z</time>
      </trkpt>
      <trkpt lat="47.34969" lon="-0.75475">
        <ele>-3.8</ele>
        <time>2015-12-27T10:03:55Z</time>
      </trkpt>
      <trkpt lat="47.34972" lon="-0.75488">
        <ele>-3.6</ele>
        <time>2015-12-27T10:03:57Z</time>
      </trkpt>
      <trkpt lat="47.34978" lon="-0.75503">
        <ele>-2.5</ele>
        <time>2015-12-27T10:04:00Z</time>
      </trkpt>
      <trkpt lat="47.34984" lon="-0.75515">
        <ele>-1.2</ele>
        <time>2015-12-27T10:04:03Z</time>
      </trkpt>
      <trkpt lat="47.34991" lon="-0.75525">
        <ele>-0.5</ele>
        <time>2015-12-27T10:04:06Z</time>
      </trkpt>
      <trkpt lat="47.35" lon="-0.75533">
        <ele>0.2</ele>
        <time>2015-12-27T10:04:10Z</time>
      </trkpt>
      <trkpt lat="47.35009" lon="-0.75538">
        <ele>0.2</ele>
        <time>2015-12-27T10:04:14Z</time>
      </trkpt>
      <trkpt lat="47.35025" lon="-0.75557">
        <ele>0.5</ele>
        <time>2015-12-27T10:04:23Z</time>
      </trkpt>
      <trkpt lat="47.35034" lon="-0.75562">
        <ele>0.6</ele>
        <time>2015-12-27T10:04:27Z</time>
      </trkpt>
      <trkpt lat="47.35043" lon="-0.75565">
        <ele>0.6</ele>
        <time>2015-12-27T10:04:36Z</time>
      </trkpt>
      <trkpt lat="47.35051" lon="-0.75577">
        <ele>0.7</ele>
        <time>2015-12-27T10:04:41Z</time>
      </trkpt>
      <trkpt lat="47.35052" lon="-0.75591">
        <ele>0.7</ele>
        <time>2015-12-27T10:04:44Z</time>
      </trkpt>
      <trkpt lat="47.35053" lon="-0.75605">
        <ele>0.8</ele>
        <time>2015-12-27T10:04:47Z</time>
      </trkpt>
      <trkpt lat="47.35054" lon="-0.75619">
        <ele>0.5</ele>
        <time>2015-12-27T10:04:50Z</time>
      </trkpt>
      <trkpt lat="47.35055" lon="-0.75632">
        <ele>0.5</ele>
        <time>2015-12-27T10:04:53Z</time>
      </trkpt>
      <trkpt lat="47.3506" lon="-0.75645">
        <ele>0.5</ele>
        <time>2015-12-27T10:04:56Z</time>
      </trkpt>
      <trkpt lat="47.35067" lon="-0.75654">
        <ele>0.3</ele>
        <time>2015-12-27T10:04:59Z</time>
      </trkpt>
      <trkpt lat="47.35077" lon="-0.75663">
        <ele>-0.1</ele>
        <time>2015-12-27T10:05:02Z</time>
      </trkpt>
      <trkpt lat="47.35087" lon="-0.75666">
        <ele>-1.7</ele>
        <time>2015-12-27T10:05:06Z</time>
      </trkpt>
      <trkpt lat="47.35097" lon="-0.75666">
        <ele>-1.6</ele>
        <time>2015-12-27T10:05:09Z</time>
      </trkpt>
      <trkpt lat="47.35106" lon="-0.75667">
        <ele>-2.4</ele>
        <time>2015-12-27T10:05:11Z</time>
      </trkpt>
      <trkpt lat="47.35116" lon="-0.75669">
        <ele>-2.5</ele>
        <time>2015-12-27T10:05:13Z</time>
      </trkpt>
      <trkpt lat="47.35126" lon="-0.75673">
        <ele>-2.8</ele>
        <time>2015-12-27T10:05:15Z</time>
      </trkpt>
      <trkpt lat="47.35145" lon="-0.75688">
        <ele>-3.9</ele>
        <time>2015-12-27T10:05:20Z</time>
      </trkpt>
      <trkpt lat="47.35155" lon="-0.75696">
        <ele>-4.1</ele>
        <time>2015-12-27T10:05:23Z</time>
      </trkpt>
      <trkpt lat="47.35166" lon="-0.75704">
        <ele>-3.8</ele>
        <time>2015-12-27T10:05:26Z</time>
      </trkpt>
      <trkpt lat="47.35175" lon="-0.75709">
        <ele>-4</ele>
        <time>2015-12-27T10:05:28Z</time>
      </trkpt>
      <trkpt lat="47.35183" lon="-0.75719">
        <ele>-3.3</ele>
        <time>2015-12-27T10:05:31Z</time>
      </trkpt>
      <trkpt lat="47.35191" lon="-0.75727">
        <ele>-3.3</ele>
        <time>2015-12-27T10:05:35Z</time>
      </trkpt>
      <trkpt lat="47.35201" lon="-0.75732">
        <ele>-3.6</ele>
        <time>2015-12-27T10:05:56Z</time>
      </trkpt>
      <trkpt lat="47.35206" lon="-0.75744">
        <ele>-3.4</ele>
        <time>2015-12-27T10:06:04Z</time>
      </trkpt>
      <trkpt lat="47.35211" lon="-0.75757">
        <ele>-3.8</ele>
        <time>2015-12-27T10:06:12Z</time>
      </trkpt>
      <trkpt lat="47.35218" lon="-0.75767">
        <ele>-4.3</ele>
        <time>2015-12-27T10:06:22Z</time>
      </trkpt>
      <trkpt lat="47.35233" lon="-0.75784">
        <ele>-3</ele>
        <time>2015-12-27T10:06:39Z</time>
      </trkpt>
      <trkpt lat="47.35238" lon="-0.75797">
        <ele>-3.3</ele>
        <time>2015-12-27T10:06:47Z</time>
      </trkpt>
      <trkpt lat="47.35238" lon="-0.75812">
        <ele>-2.6</ele>
        <time>2015-12-27T10:06:53Z</time>
      </trkpt>
      <trkpt lat="47.35234" lon="-0.75825">
        <ele>-1.6</ele>
        <time>2015-12-27T10:06:57Z</time>
      </trkpt>
      <trkpt lat="47.35232" lon="-0.75838">
        <ele>-1</ele>
        <time>2015-12-27T10:08:26Z</time>
      </trkpt>
      <trkpt lat="47.35235" lon="-0.75865">
        <ele>-0.8</ele>
        <time>2015-12-27T10:08:37Z</time>
      </trkpt>
      <trkpt lat="47.35237" lon="-0.7588">
        <ele>-0.7</ele>
        <time>2015-12-27T10:08:42Z</time>
      </trkpt>
      <trkpt lat="47.35238" lon="-0.75895">
        <ele>-0.6</ele>
        <time>2015-12-27T10:08:45Z</time>
      </trkpt>
      <trkpt lat="47.35241" lon="-0.75911">
        <ele>-0.1</ele>
        <time>2015-12-27T10:08:48Z</time>
      </trkpt>
      <trkpt lat="47.35242" lon="-0.75926">
        <ele>0.1</ele>
        <time>2015-12-27T10:08:51Z</time>
      </trkpt>
      <trkpt lat="47.35242" lon="-0.75943">
        <ele>0.7</ele>
        <time>2015-12-27T10:08:55Z</time>
      </trkpt>
      <trkpt lat="47.35234" lon="-0.75949">
        <ele>0.6</ele>
        <time>2015-12-27T10:08:58Z</time>
      </trkpt>
      <trkpt lat="47.35223" lon="-0.75954">
        <ele>0.8</ele>
        <time>2015-12-27T10:09:02Z</time>
      </trkpt>
      <trkpt lat="47.35211" lon="-0.75962">
        <ele>1</ele>
        <time>2015-12-27T10:09:05Z</time>
      </trkpt>
      <trkpt lat="47.35202" lon="-0.75967">
        <ele>1.4</ele>
        <time>2015-12-27T10:09:07Z</time>
      </trkpt>
      <trkpt lat="47.35192" lon="-0.75972">
        <ele>1.4</ele>
        <time>2015-12-27T10:09:09Z</time>
      </trkpt>
      <trkpt lat="47.35183" lon="-0.75978">
        <ele>1.4</ele>
        <time>2015-12-27T10:09:11Z</time>
      </trkpt>
      <trkpt lat="47.35173" lon="-0.75988">
        <ele>1.4</ele>
        <time>2015-12-27T10:09:14Z</time>
      </trkpt>
      <trkpt lat="47.35166" lon="-0.75998">
        <ele>1.3</ele>
        <time>2015-12-27T10:09:18Z</time>
      </trkpt>
      <trkpt lat="47.35167" lon="-0.76012">
        <ele>1.2</ele>
        <time>2015-12-27T10:09:25Z</time>
      </trkpt>
      <trkpt lat="47.35173" lon="-0.76027">
        <ele>1.2</ele>
        <time>2015-12-27T10:09:28Z</time>
      </trkpt>
      <trkpt lat="47.35187" lon="-0.76061">
        <ele>1.5</ele>
        <time>2015-12-27T10:09:34Z</time>
      </trkpt>
      <trkpt lat="47.35192" lon="-0.76074">
        <ele>1.6</ele>
        <time>2015-12-27T10:09:36Z</time>
      </trkpt>
      <trkpt lat="47.35197" lon="-0.76086">
        <ele>1.8</ele>
        <time>2015-12-27T10:09:38Z</time>
      </trkpt>
      <trkpt lat="47.35202" lon="-0.76098">
        <ele>2</ele>
        <time>2015-12-27T10:09:40Z</time>
      </trkpt>
      <trkpt lat="47.35208" lon="-0.7611">
        <ele>2.1</ele>
        <time>2015-12-27T10:09:42Z</time>
      </trkpt>
      <trkpt lat="47.35213" lon="-0.76123">
        <ele>2.4</ele>
        <time>2015-12-27T10:09:44Z</time>
      </trkpt>
      <trkpt lat="47.35218" lon="-0.76135">
        <ele>2.4</ele>
        <time>2015-12-27T10:09:46Z</time>
      </trkpt>
      <trkpt lat="47.35222" lon="-0.76146">
        <ele>2.6</ele>
        <time>2015-12-27T10:09:48Z</time>
      </trkpt>
      <trkpt lat="47.35222" lon="-0.7616">
        <ele>2.3</ele>
        <time>2015-12-27T10:09:50Z</time>
      </trkpt>
      <trkpt lat="47.35214" lon="-0.76171">
        <ele>2.6</ele>
        <time>2015-12-27T10:09:52Z</time>
      </trkpt>
      <trkpt lat="47.35205" lon="-0.76177">
        <ele>3</ele>
        <time>2015-12-27T10:09:54Z</time>
      </trkpt>
      <trkpt lat="47.35197" lon="-0.76184">
        <ele>3.1</ele>
        <time>2015-12-27T10:09:56Z</time>
      </trkpt>
      <trkpt lat="47.35189" lon="-0.76192">
        <ele>3.4</ele>
        <time>2015-12-27T10:09:58Z</time>
      </trkpt>
      <trkpt lat="47.35181" lon="-0.76199">
        <ele>3.6</ele>
        <time>2015-12-27T10:10:00Z</time>
      </trkpt>
      <trkpt lat="47.35172" lon="-0.7621">
        <ele>4.3</ele>
        <time>2015-12-27T10:10:03Z</time>
      </trkpt>
      <trkpt lat="47.35164" lon="-0.76221">
        <ele>4.6</ele>
        <time>2015-12-27T10:10:07Z</time>
      </trkpt>
      <trkpt lat="47.35155" lon="-0.76228">
        <ele>4.4</ele>
        <time>2015-12-27T10:10:11Z</time>
      </trkpt>
      <trkpt lat="47.35145" lon="-0.76223">
        <ele>4.4</ele>
        <time>2015-12-27T10:10:14Z</time>
      </trkpt>
      <trkpt lat="47.35135" lon="-0.76233">
        <ele>5</ele>
        <time>2015-12-27T10:10:18Z</time>
      </trkpt>
      <trkpt lat="47.35129" lon="-0.76247">
        <ele>5.5</ele>
        <time>2015-12-27T10:10:21Z</time>
      </trkpt>
      <trkpt lat="47.35123" lon="-0.7626">
        <ele>5.7</ele>
        <time>2015-12-27T10:10:24Z</time>
      </trkpt>
      <trkpt lat="47.35118" lon="-0.76273">
        <ele>6</ele>
        <time>2015-12-27T10:10:28Z</time>
      </trkpt>
      <trkpt lat="47.35113" lon="-0.76288">
        <ele>6.7</ele>
        <time>2015-12-27T10:10:32Z</time>
      </trkpt>
      <trkpt lat="47.351" lon="-0.76318">
        <ele>7.3</ele>
        <time>2015-12-27T10:10:38Z</time>
      </trkpt>
      <trkpt lat="47.35091" lon="-0.76333">
        <ele>7.7</ele>
        <time>2015-12-27T10:10:41Z</time>
      </trkpt>
      <trkpt lat="47.35085" lon="-0.76343">
        <ele>8</ele>
        <time>2015-12-27T10:10:43Z</time>
      </trkpt>
      <trkpt lat="47.35077" lon="-0.76357">
        <ele>8.7</ele>
        <time>2015-12-27T10:10:46Z</time>
      </trkpt>
      <trkpt lat="47.35071" lon="-0.76367">
        <ele>8.8</ele>
        <time>2015-12-27T10:10:48Z</time>
      </trkpt>
      <trkpt lat="47.35063" lon="-0.76382">
        <ele>9.4</ele>
        <time>2015-12-27T10:10:51Z</time>
      </trkpt>
      <trkpt lat="47.35054" lon="-0.76397">
        <ele>9.7</ele>
        <time>2015-12-27T10:10:54Z</time>
      </trkpt>
      <trkpt lat="47.35048" lon="-0.76407">
        <ele>9.8</ele>
        <time>2015-12-27T10:10:56Z</time>
      </trkpt>
      <trkpt lat="47.35041" lon="-0.76416">
        <ele>9.9</ele>
        <time>2015-12-27T10:10:58Z</time>
      </trkpt>
      <trkpt lat="47.35034" lon="-0.76425">
        <ele>10.2</ele>
        <time>2015-12-27T10:11:00Z</time>
      </trkpt>
      <trkpt lat="47.35027" lon="-0.76433">
        <ele>10.4</ele>
        <time>2015-12-27T10:11:02Z</time>
      </trkpt>
      <trkpt lat="47.35017" lon="-0.76445">
        <ele>11</ele>
        <time>2015-12-27T10:11:05Z</time>
      </trkpt>
      <trkpt lat="47.35007" lon="-0.76456">
        <ele>11.6</ele>
        <time>2015-12-27T10:11:08Z</time>
      </trkpt>
      <trkpt lat="47.34997" lon="-0.76468">
        <ele>12</ele>
        <time>2015-12-27T10:11:11Z</time>
      </trkpt>
      <trkpt lat="47.34989" lon="-0.76479">
        <ele>12.4</ele>
        <time>2015-12-27T10:11:14Z</time>
      </trkpt>
      <trkpt lat="47.3498" lon="-0.76491">
        <ele>12.9</ele>
        <time>2015-12-27T10:11:17Z</time>
      </trkpt>
      <trkpt lat="47.34973" lon="-0.76504">
        <ele>13.9</ele>
        <time>2015-12-27T10:11:20Z</time>
      </trkpt>
      <trkpt lat="47.34967" lon="-0.7652">
        <ele>14.6</ele>
        <time>2015-12-27T10:11:23Z</time>
      </trkpt>
      <trkpt lat="47.34961" lon="-0.76535">
        <ele>15.4</ele>
        <time>2015-12-27T10:11:26Z</time>
      </trkpt>
      <trkpt lat="47.34958" lon="-0.76549">
        <ele>16.3</ele>
        <time>2015-12-27T10:11:29Z</time>
      </trkpt>
      <trkpt lat="47.34953" lon="-0.76564">
        <ele>17.5</ele>
        <time>2015-12-27T10:11:33Z</time>
      </trkpt>
      <trkpt lat="47.34946" lon="-0.76594">
        <ele>20</ele>
        <time>2015-12-27T10:11:44Z</time>
      </trkpt>
      <trkpt lat="47.34945" lon="-0.76608">
        <ele>20</ele>
        <time>2015-12-27T10:11:47Z</time>
      </trkpt>
      <trkpt lat="47.34943" lon="-0.76622">
        <ele>20.5</ele>
        <time>2015-12-27T10:11:50Z</time>
      </trkpt>
      <trkpt lat="47.34937" lon="-0.76636">
        <ele>21.5</ele>
        <time>2015-12-27T10:11:54Z</time>
      </trkpt>
      <trkpt lat="47.34932" lon="-0.76648">
        <ele>22.6</ele>
        <time>2015-12-27T10:11:57Z</time>
      </trkpt>
      <trkpt lat="47.34927" lon="-0.76663">
        <ele>23.6</ele>
        <time>2015-12-27T10:12:01Z</time>
      </trkpt>
      <trkpt lat="47.34921" lon="-0.76678">
        <ele>24.4</ele>
        <time>2015-12-27T10:12:05Z</time>
      </trkpt>
      <trkpt lat="47.34916" lon="-0.76693">
        <ele>25.2</ele>
        <time>2015-12-27T10:12:09Z</time>
      </trkpt>
      <trkpt lat="47.3491" lon="-0.76708">
        <ele>25.8</ele>
        <time>2015-12-27T10:12:13Z</time>
      </trkpt>
      <trkpt lat="47.34904" lon="-0.76723">
        <ele>26.5</ele>
        <time>2015-12-27T10:12:17Z</time>
      </trkpt>
      <trkpt lat="47.34898" lon="-0.76738">
        <ele>27.3</ele>
        <time>2015-12-27T10:12:21Z</time>
      </trkpt>
      <trkpt lat="47.34892" lon="-0.76752">
        <ele>28.1</ele>
        <time>2015-12-27T10:12:25Z</time>
      </trkpt>
      <trkpt lat="47.34886" lon="-0.76766">
        <ele>29.1</ele>
        <time>2015-12-27T10:12:29Z</time>
      </trkpt>
      <trkpt lat="47.3488" lon="-0.76779">
        <ele>30.4</ele>
        <time>2015-12-27T10:12:33Z</time>
      </trkpt>
      <trkpt lat="47.34873" lon="-0.76793">
        <ele>31.3</ele>
        <time>2015-12-27T10:12:37Z</time>
      </trkpt>
      <trkpt lat="47.34864" lon="-0.76819">
        <ele>32.8</ele>
        <time>2015-12-27T10:12:44Z</time>
      </trkpt>
      <trkpt lat="47.3486" lon="-0.76833">
        <ele>34</ele>
        <time>2015-12-27T10:12:48Z</time>
      </trkpt>
      <trkpt lat="47.34854" lon="-0.76847">
        <ele>35.4</ele>
        <time>2015-12-27T10:12:52Z</time>
      </trkpt>
      <trkpt lat="47.3485" lon="-0.7686">
        <ele>37.1</ele>
        <time>2015-12-27T10:12:56Z</time>
      </trkpt>
      <trkpt lat="47.34845" lon="-0.76873">
        <ele>38.3</ele>
        <time>2015-12-27T10:13:00Z</time>
      </trkpt>
      <trkpt lat="47.3484" lon="-0.76886">
        <ele>39.1</ele>
        <time>2015-12-27T10:13:04Z</time>
      </trkpt>
      <trkpt lat="47.34834" lon="-0.76897">
        <ele>40.1</ele>
        <time>2015-12-27T10:13:08Z</time>
      </trkpt>
      <trkpt lat="47.34827" lon="-0.76907">
        <ele>41.1</ele>
        <time>2015-12-27T10:13:12Z</time>
      </trkpt>
      <trkpt lat="47.34817" lon="-0.7691">
        <ele>42.3</ele>
        <time>2015-12-27T10:13:16Z</time>
      </trkpt>
      <trkpt lat="47.34808" lon="-0.76906">
        <ele>43.2</ele>
        <time>2015-12-27T10:13:22Z</time>
      </trkpt>
      <trkpt lat="47.34804" lon="-0.76892">
        <ele>43.2</ele>
        <time>2015-12-27T10:13:30Z</time>
      </trkpt>
      <trkpt lat="47.34801" lon="-0.76878">
        <ele>42.5</ele>
        <time>2015-12-27T10:14:14Z</time>
      </trkpt>
      <trkpt lat="47.34794" lon="-0.76847">
        <ele>42.2</ele>
        <time>2015-12-27T10:14:22Z</time>
      </trkpt>
      <trkpt lat="47.34792" lon="-0.76831">
        <ele>41.4</ele>
        <time>2015-12-27T10:14:26Z</time>
      </trkpt>
      <trkpt lat="47.3479" lon="-0.76814">
        <ele>40.9</ele>
        <time>2015-12-27T10:14:29Z</time>
      </trkpt>
      <trkpt lat="47.34783" lon="-0.76804">
        <ele>40.7</ele>
        <time>2015-12-27T10:14:31Z</time>
      </trkpt>
      <trkpt lat="47.34774" lon="-0.76798">
        <ele>40.5</ele>
        <time>2015-12-27T10:14:33Z</time>
      </trkpt>
      <trkpt lat="47.34765" lon="-0.76792">
        <ele>40.7</ele>
        <time>2015-12-27T10:14:35Z</time>
      </trkpt>
      <trkpt lat="47.34754" lon="-0.76787">
        <ele>41</ele>
        <time>2015-12-27T10:14:38Z</time>
      </trkpt>
      <trkpt lat="47.34742" lon="-0.76781">
        <ele>41.2</ele>
        <time>2015-12-27T10:14:41Z</time>
      </trkpt>
      <trkpt lat="47.34734" lon="-0.76774">
        <ele>41.6</ele>
        <time>2015-12-27T10:14:43Z</time>
      </trkpt>
      <trkpt lat="47.34726" lon="-0.76767">
        <ele>41.2</ele>
        <time>2015-12-27T10:14:45Z</time>
      </trkpt>
      <trkpt lat="47.34716" lon="-0.76758">
        <ele>40.8</ele>
        <time>2015-12-27T10:14:47Z</time>
      </trkpt>
      <trkpt lat="47.34706" lon="-0.7675">
        <ele>40.1</ele>
        <time>2015-12-27T10:14:49Z</time>
      </trkpt>
      <trkpt lat="47.34695" lon="-0.76753">
        <ele>39</ele>
        <time>2015-12-27T10:14:51Z</time>
      </trkpt>
      <trkpt lat="47.34686" lon="-0.76761">
        <ele>38.3</ele>
        <time>2015-12-27T10:14:53Z</time>
      </trkpt>
      <trkpt lat="47.34678" lon="-0.76771">
        <ele>38.2</ele>
        <time>2015-12-27T10:14:55Z</time>
      </trkpt>
      <trkpt lat="47.34672" lon="-0.76783">
        <ele>38.2</ele>
        <time>2015-12-27T10:14:57Z</time>
      </trkpt>
      <trkpt lat="47.34668" lon="-0.76797">
        <ele>38</ele>
        <time>2015-12-27T10:14:59Z</time>
      </trkpt>
      <trkpt lat="47.34665" lon="-0.76812">
        <ele>37.4</ele>
        <time>2015-12-27T10:15:01Z</time>
      </trkpt>
      <trkpt lat="47.34663" lon="-0.76827">
        <ele>37.6</ele>
        <time>2015-12-27T10:15:03Z</time>
      </trkpt>
      <trkpt lat="47.34659" lon="-0.76843">
        <ele>37</ele>
        <time>2015-12-27T10:15:05Z</time>
      </trkpt>
      <trkpt lat="47.34654" lon="-0.76856">
        <ele>36.7</ele>
        <time>2015-12-27T10:15:07Z</time>
      </trkpt>
      <trkpt lat="47.34646" lon="-0.76871">
        <ele>36.7</ele>
        <time>2015-12-27T10:15:10Z</time>
      </trkpt>
      <trkpt lat="47.34638" lon="-0.76882">
        <ele>36.2</ele>
        <time>2015-12-27T10:15:13Z</time>
      </trkpt>
      <trkpt lat="47.3463" lon="-0.76871">
        <ele>35.9</ele>
        <time>2015-12-27T10:15:17Z</time>
      </trkpt>
      <trkpt lat="47.34612" lon="-0.76861">
        <ele>35</ele>
        <time>2015-12-27T10:15:22Z</time>
      </trkpt>
      <trkpt lat="47.34604" lon="-0.76855">
        <ele>34.5</ele>
        <time>2015-12-27T10:15:24Z</time>
      </trkpt>
      <trkpt lat="47.34595" lon="-0.76848">
        <ele>34.2</ele>
        <time>2015-12-27T10:15:26Z</time>
      </trkpt>
      <trkpt lat="47.34587" lon="-0.76841">
        <ele>34</ele>
        <time>2015-12-27T10:15:28Z</time>
      </trkpt>
      <trkpt lat="47.34579" lon="-0.76834">
        <ele>33.6</ele>
        <time>2015-12-27T10:15:31Z</time>
      </trkpt>
      <trkpt lat="47.3457" lon="-0.76826">
        <ele>33</ele>
        <time>2015-12-27T10:15:36Z</time>
      </trkpt>
      <trkpt lat="47.34561" lon="-0.76819">
        <ele>33</ele>
        <time>2015-12-27T10:15:40Z</time>
      </trkpt>
      <trkpt lat="47.34552" lon="-0.76812">
        <ele>32.7</ele>
        <time>2015-12-27T10:15:43Z</time>
      </trkpt>
      <trkpt lat="47.34542" lon="-0.76802">
        <ele>32.4</ele>
        <time>2015-12-27T10:15:46Z</time>
      </trkpt>
      <trkpt lat="47.34531" lon="-0.76795">
        <ele>32.3</ele>
        <time>2015-12-27T10:15:49Z</time>
      </trkpt>
      <trkpt lat="47.34521" lon="-0.76788">
        <ele>31.9</ele>
        <time>2015-12-27T10:15:52Z</time>
      </trkpt>
      <trkpt lat="47.34512" lon="-0.7678">
        <ele>31.5</ele>
        <time>2015-12-27T10:15:55Z</time>
      </trkpt>
      <trkpt lat="47.34499" lon="-0.7677">
        <ele>31</ele>
        <time>2015-12-27T10:15:58Z</time>
      </trkpt>
      <trkpt lat="47.3449" lon="-0.76765">
        <ele>30.8</ele>
        <time>2015-12-27T10:16:00Z</time>
      </trkpt>
      <trkpt lat="47.34481" lon="-0.76762">
        <ele>30.8</ele>
        <time>2015-12-27T10:16:02Z</time>
      </trkpt>
      <trkpt lat="47.3447" lon="-0.76758">
        <ele>30.2</ele>
        <time>2015-12-27T10:16:05Z</time>
      </trkpt>
      <trkpt lat="47.34461" lon="-0.76753">
        <ele>30.1</ele>
        <time>2015-12-27T10:16:08Z</time>
      </trkpt>
      <trkpt lat="47.3445" lon="-0.76756">
        <ele>30</ele>
        <time>2015-12-27T10:16:12Z</time>
      </trkpt>
      <trkpt lat="47.34445" lon="-0.76771">
        <ele>31.7</ele>
        <time>2015-12-27T10:16:17Z</time>
      </trkpt>
      <trkpt lat="47.34443" lon="-0.76789">
        <ele>33.7</ele>
        <time>2015-12-27T10:16:21Z</time>
      </trkpt>
      <trkpt lat="47.34454" lon="-0.76808">
        <ele>36.5</ele>
        <time>2015-12-27T10:16:30Z</time>
      </trkpt>
      <trkpt lat="47.34464" lon="-0.76812">
        <ele>37.1</ele>
        <time>2015-12-27T10:16:33Z</time>
      </trkpt>
      <trkpt lat="47.34473" lon="-0.76816">
        <ele>37.2</ele>
        <time>2015-12-27T10:16:36Z</time>
      </trkpt>
      <trkpt lat="47.34479" lon="-0.76826">
        <ele>37.7</ele>
        <time>2015-12-27T10:16:39Z</time>
      </trkpt>
      <trkpt lat="47.34484" lon="-0.76838">
        <ele>39.2</ele>
        <time>2015-12-27T10:16:42Z</time>
      </trkpt>
      <trkpt lat="47.34487" lon="-0.76852">
        <ele>40.8</ele>
        <time>2015-12-27T10:16:46Z</time>
      </trkpt>
      <trkpt lat="47.34482" lon="-0.76865">
        <ele>42.2</ele>
        <time>2015-12-27T10:16:50Z</time>
      </trkpt>
      <trkpt lat="47.34474" lon="-0.76878">
        <ele>42.5</ele>
        <time>2015-12-27T10:16:54Z</time>
      </trkpt>
      <trkpt lat="47.34466" lon="-0.7689">
        <ele>43</ele>
        <time>2015-12-27T10:16:58Z</time>
      </trkpt>
      <trkpt lat="47.34457" lon="-0.76902">
        <ele>43.5</ele>
        <time>2015-12-27T10:17:02Z</time>
      </trkpt>
      <trkpt lat="47.34449" lon="-0.76914">
        <ele>43.6</ele>
        <time>2015-12-27T10:17:05Z</time>
      </trkpt>
      <trkpt lat="47.34441" lon="-0.76926">
        <ele>44.1</ele>
        <time>2015-12-27T10:17:08Z</time>
      </trkpt>
      <trkpt lat="47.34432" lon="-0.76938">
        <ele>43.8</ele>
        <time>2015-12-27T10:17:11Z</time>
      </trkpt>
      <trkpt lat="47.34424" lon="-0.7695">
        <ele>44.3</ele>
        <time>2015-12-27T10:17:14Z</time>
      </trkpt>
      <trkpt lat="47.34415" lon="-0.7696">
        <ele>45.2</ele>
        <time>2015-12-27T10:17:17Z</time>
      </trkpt>
      <trkpt lat="47.34405" lon="-0.7697">
        <ele>44.8</ele>
        <time>2015-12-27T10:17:20Z</time>
      </trkpt>
      <trkpt lat="47.34398" lon="-0.76985">
        <ele>45.1</ele>
        <time>2015-12-27T10:17:23Z</time>
      </trkpt>
      <trkpt lat="47.34385" lon="-0.77017">
        <ele>46.1</ele>
        <time>2015-12-27T10:17:29Z</time>
      </trkpt>
      <trkpt lat="47.34379" lon="-0.77031">
        <ele>46.6</ele>
        <time>2015-12-27T10:17:32Z</time>
      </trkpt>
      <trkpt lat="47.34382" lon="-0.77044">
        <ele>47.1</ele>
        <time>2015-12-27T10:17:36Z</time>
      </trkpt>
      <trkpt lat="47.3438" lon="-0.7706">
        <ele>47.1</ele>
        <time>2015-12-27T10:17:39Z</time>
      </trkpt>
      <trkpt lat="47.34376" lon="-0.77076">
        <ele>47.5</ele>
        <time>2015-12-27T10:17:42Z</time>
      </trkpt>
      <trkpt lat="47.34373" lon="-0.7709">
        <ele>48.4</ele>
        <time>2015-12-27T10:17:45Z</time>
      </trkpt>
      <trkpt lat="47.34371" lon="-0.77104">
        <ele>49.6</ele>
        <time>2015-12-27T10:17:48Z</time>
      </trkpt>
      <trkpt lat="47.34367" lon="-0.77119">
        <ele>49.8</ele>
        <time>2015-12-27T10:17:51Z</time>
      </trkpt>
      <trkpt lat="47.34363" lon="-0.77134">
        <ele>50.7</ele>
        <time>2015-12-27T10:17:55Z</time>
      </trkpt>
      <trkpt lat="47.34359" lon="-0.77149">
        <ele>51.1</ele>
        <time>2015-12-27T10:18:00Z</time>
      </trkpt>
      <trkpt lat="47.34356" lon="-0.77165">
        <ele>51.3</ele>
        <time>2015-12-27T10:18:04Z</time>
      </trkpt>
      <trkpt lat="47.34353" lon="-0.77181">
        <ele>51.5</ele>
        <time>2015-12-27T10:18:09Z</time>
      </trkpt>
      <trkpt lat="47.34348" lon="-0.77193">
        <ele>51.1</ele>
        <time>2015-12-27T10:18:13Z</time>
      </trkpt>
      <trkpt lat="47.34342" lon="-0.77204">
        <ele>51.2</ele>
        <time>2015-12-27T10:18:50Z</time>
      </trkpt>
      <trkpt lat="47.34319" lon="-0.77218">
        <ele>50</ele>
        <time>2015-12-27T10:18:57Z</time>
      </trkpt>
      <trkpt lat="47.34309" lon="-0.77225">
        <ele>49.4</ele>
        <time>2015-12-27T10:18:59Z</time>
      </trkpt>
      <trkpt lat="47.34295" lon="-0.77229">
        <ele>47.9</ele>
        <time>2015-12-27T10:19:01Z</time>
      </trkpt>
      <trkpt lat="47.34281" lon="-0.77226">
        <ele>46.7</ele>
        <time>2015-12-27T10:19:03Z</time>
      </trkpt>
      <trkpt lat="47.3427" lon="-0.77213">
        <ele>45.3</ele>
        <time>2015-12-27T10:19:05Z</time>
      </trkpt>
      <trkpt lat="47.34261" lon="-0.77196">
        <ele>44.6</ele>
        <time>2015-12-27T10:19:07Z</time>
      </trkpt>
      <trkpt lat="47.34255" lon="-0.77179">
        <ele>44.9</ele>
        <time>2015-12-27T10:19:09Z</time>
      </trkpt>
      <trkpt lat="47.34249" lon="-0.77168">
        <ele>45.1</ele>
        <time>2015-12-27T10:19:11Z</time>
      </trkpt>
      <trkpt lat="47.34243" lon="-0.77155">
        <ele>44.9</ele>
        <time>2015-12-27T10:19:15Z</time>
      </trkpt>
      <trkpt lat="47.34248" lon="-0.77143">
        <ele>44.1</ele>
        <time>2015-12-27T10:19:19Z</time>
      </trkpt>
      <trkpt lat="47.34258" lon="-0.77139">
        <ele>41.3</ele>
        <time>2015-12-27T10:19:24Z</time>
      </trkpt>
      <trkpt lat="47.34267" lon="-0.77145">
        <ele>34.7</ele>
        <time>2015-12-27T10:19:39Z</time>
      </trkpt>
      <trkpt lat="47.34271" lon="-0.7716">
        <ele>33</ele>
        <time>2015-12-27T10:19:45Z</time>
      </trkpt>
      <trkpt lat="47.34272" lon="-0.77174">
        <ele>32.7</ele>
        <time>2015-12-27T10:19:49Z</time>
      </trkpt>
      <trkpt lat="47.34276" lon="-0.7716">
        <ele>30.3</ele>
        <time>2015-12-27T10:19:57Z</time>
      </trkpt>
      <trkpt lat="47.34281" lon="-0.77132">
        <ele>26</ele>
        <time>2015-12-27T10:20:06Z</time>
      </trkpt>
      <trkpt lat="47.3428" lon="-0.77116">
        <ele>22.9</ele>
        <time>2015-12-27T10:20:10Z</time>
      </trkpt>
      <trkpt lat="47.34274" lon="-0.77103">
        <ele>20.3</ele>
        <time>2015-12-27T10:20:14Z</time>
      </trkpt>
      <trkpt lat="47.34268" lon="-0.77088">
        <ele>18.4</ele>
        <time>2015-12-27T10:20:18Z</time>
      </trkpt>
      <trkpt lat="47.34268" lon="-0.77072">
        <ele>16.2</ele>
        <time>2015-12-27T10:20:22Z</time>
      </trkpt>
      <trkpt lat="47.34261" lon="-0.77058">
        <ele>13.7</ele>
        <time>2015-12-27T10:20:44Z</time>
      </trkpt>
      <trkpt lat="47.3426" lon="-0.77042">
        <ele>12.6</ele>
        <time>2015-12-27T10:20:47Z</time>
      </trkpt>
      <trkpt lat="47.34258" lon="-0.77026">
        <ele>12.7</ele>
        <time>2015-12-27T10:20:50Z</time>
      </trkpt>
      <trkpt lat="47.34251" lon="-0.77009">
        <ele>12</ele>
        <time>2015-12-27T10:20:53Z</time>
      </trkpt>
      <trkpt lat="47.34246" lon="-0.76997">
        <ele>11.2</ele>
        <time>2015-12-27T10:20:55Z</time>
      </trkpt>
      <trkpt lat="47.34241" lon="-0.76986">
        <ele>10.3</ele>
        <time>2015-12-27T10:20:58Z</time>
      </trkpt>
      <trkpt lat="47.34233" lon="-0.76959">
        <ele>8.1</ele>
        <time>2015-12-27T10:21:34Z</time>
      </trkpt>
      <trkpt lat="47.34226" lon="-0.76946">
        <ele>6.4</ele>
        <time>2015-12-27T10:21:39Z</time>
      </trkpt>
      <trkpt lat="47.34219" lon="-0.76936">
        <ele>5.3</ele>
        <time>2015-12-27T10:21:42Z</time>
      </trkpt>
      <trkpt lat="47.34213" lon="-0.76925">
        <ele>3.9</ele>
        <time>2015-12-27T10:21:46Z</time>
      </trkpt>
      <trkpt lat="47.34206" lon="-0.76934">
        <ele>2.7</ele>
        <time>2015-12-27T10:21:58Z</time>
      </trkpt>
      <trkpt lat="47.34201" lon="-0.76945">
        <ele>1.5</ele>
        <time>2015-12-27T10:24:38Z</time>
      </trkpt>
      <trkpt lat="47.34184" lon="-0.76961">
        <ele>1.5</ele>
        <time>2015-12-27T10:24:48Z</time>
      </trkpt>
      <trkpt lat="47.34176" lon="-0.76969">
        <ele>1.6</ele>
        <time>2015-12-27T10:24:52Z</time>
      </trkpt>
      <trkpt lat="47.34167" lon="-0.76973">
        <ele>1.3</ele>
        <time>2015-12-27T10:24:58Z</time>
      </trkpt>
      <trkpt lat="47.34157" lon="-0.76981">
        <ele>1.4</ele>
        <time>2015-12-27T10:25:12Z</time>
      </trkpt>
      <trkpt lat="47.3415" lon="-0.7699">
        <ele>1.7</ele>
        <time>2015-12-27T10:25:16Z</time>
      </trkpt>
      <trkpt lat="47.3414" lon="-0.76999">
        <ele>2.2</ele>
        <time>2015-12-27T10:25:20Z</time>
      </trkpt>
      <trkpt lat="47.34132" lon="-0.77008">
        <ele>2.3</ele>
        <time>2015-12-27T10:25:23Z</time>
      </trkpt>
      <trkpt lat="47.34124" lon="-0.77017">
        <ele>2.1</ele>
        <time>2015-12-27T10:25:26Z</time>
      </trkpt>
      <trkpt lat="47.34117" lon="-0.77028">
        <ele>2.1</ele>
        <time>2015-12-27T10:25:29Z</time>
      </trkpt>
      <trkpt lat="47.3411" lon="-0.77039">
        <ele>2.3</ele>
        <time>2015-12-27T10:25:32Z</time>
      </trkpt>
      <trkpt lat="47.34103" lon="-0.77052">
        <ele>2.5</ele>
        <time>2015-12-27T10:25:35Z</time>
      </trkpt>
      <trkpt lat="47.34096" lon="-0.77065">
        <ele>2.7</ele>
        <time>2015-12-27T10:25:38Z</time>
      </trkpt>
      <trkpt lat="47.34093" lon="-0.7708">
        <ele>3.2</ele>
        <time>2015-12-27T10:25:41Z</time>
      </trkpt>
      <trkpt lat="47.34085" lon="-0.77112">
        <ele>3.8</ele>
        <time>2015-12-27T10:25:47Z</time>
      </trkpt>
      <trkpt lat="47.34082" lon="-0.77128">
        <ele>4.1</ele>
        <time>2015-12-27T10:25:50Z</time>
      </trkpt>
      <trkpt lat="47.3408" lon="-0.77144">
        <ele>4.5</ele>
        <time>2015-12-27T10:25:53Z</time>
      </trkpt>
      <trkpt lat="47.34079" lon="-0.7716">
        <ele>4.7</ele>
        <time>2015-12-27T10:25:56Z</time>
      </trkpt>
      <trkpt lat="47.3408" lon="-0.77177">
        <ele>4.8</ele>
        <time>2015-12-27T10:25:59Z</time>
      </trkpt>
      <trkpt lat="47.34082" lon="-0.77194">
        <ele>5.2</ele>
        <time>2015-12-27T10:26:02Z</time>
      </trkpt>
      <trkpt lat="47.34084" lon="-0.77212">
        <ele>4.9</ele>
        <time>2015-12-27T10:26:05Z</time>
      </trkpt>
      <trkpt lat="47.34085" lon="-0.7723">
        <ele>5</ele>
        <time>2015-12-27T10:26:08Z</time>
      </trkpt>
      <trkpt lat="47.34086" lon="-0.77245">
        <ele>5</ele>
        <time>2015-12-27T10:26:11Z</time>
      </trkpt>
      <trkpt lat="47.34089" lon="-0.77262">
        <ele>5.3</ele>
        <time>2015-12-27T10:26:14Z</time>
      </trkpt>
      <trkpt lat="47.34089" lon="-0.77277">
        <ele>5.1</ele>
        <time>2015-12-27T10:26:17Z</time>
      </trkpt>
      <trkpt lat="47.34089" lon="-0.77294">
        <ele>5.3</ele>
        <time>2015-12-27T10:26:20Z</time>
      </trkpt>
      <trkpt lat="47.34088" lon="-0.77311">
        <ele>5.6</ele>
        <time>2015-12-27T10:26:23Z</time>
      </trkpt>
      <trkpt lat="47.34085" lon="-0.77326">
        <ele>5.5</ele>
        <time>2015-12-27T10:26:26Z</time>
      </trkpt>
      <trkpt lat="47.34083" lon="-0.77342">
        <ele>5.8</ele>
        <time>2015-12-27T10:26:29Z</time>
      </trkpt>
      <trkpt lat="47.34079" lon="-0.77358">
        <ele>6</ele>
        <time>2015-12-27T10:26:32Z</time>
      </trkpt>
      <trkpt lat="47.34075" lon="-0.77373">
        <ele>6.1</ele>
        <time>2015-12-27T10:26:35Z</time>
      </trkpt>
      <trkpt lat="47.34069" lon="-0.77384">
        <ele>6.4</ele>
        <time>2015-12-27T10:26:38Z</time>
      </trkpt>
      <trkpt lat="47.34068" lon="-0.77365">
        <ele>5.6</ele>
        <time>2015-12-27T10:26:43Z</time>
      </trkpt>
      <trkpt lat="47.34064" lon="-0.77337">
        <ele>4.3</ele>
        <time>2015-12-27T10:26:47Z</time>
      </trkpt>
      <trkpt lat="47.34055" lon="-0.77341">
        <ele>4.3</ele>
        <time>2015-12-27T10:26:53Z</time>
      </trkpt>
      <trkpt lat="47.34052" lon="-0.77355">
        <ele>4.3</ele>
        <time>2015-12-27T10:26:56Z</time>
      </trkpt>
      <trkpt lat="47.34047" lon="-0.77371">
        <ele>3.9</ele>
        <time>2015-12-27T10:26:59Z</time>
      </trkpt>
      <trkpt lat="47.34039" lon="-0.77386">
        <ele>4.2</ele>
        <time>2015-12-27T10:27:02Z</time>
      </trkpt>
      <trkpt lat="47.3403" lon="-0.774">
        <ele>4.4</ele>
        <time>2015-12-27T10:27:05Z</time>
      </trkpt>
      <trkpt lat="47.34023" lon="-0.77414">
        <ele>4.7</ele>
        <time>2015-12-27T10:27:08Z</time>
      </trkpt>
      <trkpt lat="47.34013" lon="-0.77423">
        <ele>5.5</ele>
        <time>2015-12-27T10:27:11Z</time>
      </trkpt>
      <trkpt lat="47.34004" lon="-0.77429">
        <ele>5.7</ele>
        <time>2015-12-27T10:27:13Z</time>
      </trkpt>
      <trkpt lat="47.33995" lon="-0.77433">
        <ele>6.5</ele>
        <time>2015-12-27T10:27:15Z</time>
      </trkpt>
      <trkpt lat="47.33983" lon="-0.77437">
        <ele>7.7</ele>
        <time>2015-12-27T10:27:18Z</time>
      </trkpt>
      <trkpt lat="47.33972" lon="-0.77444">
        <ele>8.2</ele>
        <time>2015-12-27T10:27:21Z</time>
      </trkpt>
      <trkpt lat="47.33962" lon="-0.77454">
        <ele>8.3</ele>
        <time>2015-12-27T10:27:24Z</time>
      </trkpt>
      <trkpt lat="47.33951" lon="-0.7746">
        <ele>8.6</ele>
        <time>2015-12-27T10:27:27Z</time>
      </trkpt>
      <trkpt lat="47.33939" lon="-0.77469">
        <ele>8.3</ele>
        <time>2015-12-27T10:27:30Z</time>
      </trkpt>
      <trkpt lat="47.33929" lon="-0.77477">
        <ele>7.9</ele>
        <time>2015-12-27T10:27:32Z</time>
      </trkpt>
      <trkpt lat="47.33919" lon="-0.77488">
        <ele>7.3</ele>
        <time>2015-12-27T10:27:34Z</time>
      </trkpt>
      <trkpt lat="47.33908" lon="-0.77494">
        <ele>6.7</ele>
        <time>2015-12-27T10:27:36Z</time>
      </trkpt>
      <trkpt lat="47.33896" lon="-0.775">
        <ele>6.6</ele>
        <time>2015-12-27T10:27:38Z</time>
      </trkpt>
      <trkpt lat="47.33884" lon="-0.77505">
        <ele>6.4</ele>
        <time>2015-12-27T10:27:40Z</time>
      </trkpt>
      <trkpt lat="47.33875" lon="-0.77512">
        <ele>6.8</ele>
        <time>2015-12-27T10:27:42Z</time>
      </trkpt>
      <trkpt lat="47.33867" lon="-0.77519">
        <ele>6.8</ele>
        <time>2015-12-27T10:27:44Z</time>
      </trkpt>
      <trkpt lat="47.33851" lon="-0.77537">
        <ele>6.3</ele>
        <time>2015-12-27T10:27:48Z</time>
      </trkpt>
      <trkpt lat="47.33843" lon="-0.77545">
        <ele>6.3</ele>
        <time>2015-12-27T10:27:50Z</time>
      </trkpt>
      <trkpt lat="47.3383" lon="-0.77552">
        <ele>6.5</ele>
        <time>2015-12-27T10:27:53Z</time>
      </trkpt>
      <trkpt lat="47.33821" lon="-0.77562">
        <ele>7.1</ele>
        <time>2015-12-27T10:27:57Z</time>
      </trkpt>
      <trkpt lat="47.33816" lon="-0.77575">
        <ele>6.6</ele>
        <time>2015-12-27T10:28:00Z</time>
      </trkpt>
      <trkpt lat="47.33806" lon="-0.77587">
        <ele>6.2</ele>
        <time>2015-12-27T10:28:03Z</time>
      </trkpt>
      <trkpt lat="47.33797" lon="-0.77596">
        <ele>6.8</ele>
        <time>2015-12-27T10:28:05Z</time>
      </trkpt>
      <trkpt lat="47.33791" lon="-0.77606">
        <ele>6.9</ele>
        <time>2015-12-27T10:28:07Z</time>
      </trkpt>
      <trkpt lat="47.33783" lon="-0.77615">
        <ele>7</ele>
        <time>2015-12-27T10:28:09Z</time>
      </trkpt>
      <trkpt lat="47.33774" lon="-0.77628">
        <ele>7.3</ele>
        <time>2015-12-27T10:28:12Z</time>
      </trkpt>
      <trkpt lat="47.33785" lon="-0.77634">
        <ele>6.7</ele>
        <time>2015-12-27T10:28:17Z</time>
      </trkpt>
      <trkpt lat="47.33795" lon="-0.77637">
        <ele>6.8</ele>
        <time>2015-12-27T10:28:22Z</time>
      </trkpt>
      <trkpt lat="47.33805" lon="-0.77639">
        <ele>6.7</ele>
        <time>2015-12-27T10:28:27Z</time>
      </trkpt>
      <trkpt lat="47.33814" lon="-0.7764">
        <ele>7.6</ele>
        <time>2015-12-27T10:28:31Z</time>
      </trkpt>
      <trkpt lat="47.33813" lon="-0.77653">
        <ele>9.7</ele>
        <time>2015-12-27T10:28:38Z</time>
      </trkpt>
      <trkpt lat="47.33814" lon="-0.77666">
        <ele>12</ele>
        <time>2015-12-27T10:28:44Z</time>
      </trkpt>
      <trkpt lat="47.33811" lon="-0.77681">
        <ele>12</ele>
        <time>2015-12-27T10:30:28Z</time>
      </trkpt>
      <trkpt lat="47.33801" lon="-0.77708">
        <ele>12.4</ele>
        <time>2015-12-27T10:30:37Z</time>
      </trkpt>
      <trkpt lat="47.33797" lon="-0.7772">
        <ele>12.1</ele>
        <time>2015-12-27T10:30:40Z</time>
      </trkpt>
      <trkpt lat="47.33793" lon="-0.77732">
        <ele>12.5</ele>
        <time>2015-12-27T10:30:43Z</time>
      </trkpt>
      <trkpt lat="47.33788" lon="-0.77747">
        <ele>12.7</ele>
        <time>2015-12-27T10:30:46Z</time>
      </trkpt>
      <trkpt lat="47.33783" lon="-0.7776">
        <ele>13.1</ele>
        <time>2015-12-27T10:30:49Z</time>
      </trkpt>
      <trkpt lat="47.33778" lon="-0.77774">
        <ele>13.5</ele>
        <time>2015-12-27T10:30:52Z</time>
      </trkpt>
      <trkpt lat="47.33772" lon="-0.77788">
        <ele>13.6</ele>
        <time>2015-12-27T10:30:55Z</time>
      </trkpt>
      <trkpt lat="47.33767" lon="-0.77802">
        <ele>13.8</ele>
        <time>2015-12-27T10:30:58Z</time>
      </trkpt>
      <trkpt lat="47.33761" lon="-0.77818">
        <ele>13.9</ele>
        <time>2015-12-27T10:31:01Z</time>
      </trkpt>
      <trkpt lat="47.33755" lon="-0.77833">
        <ele>14.3</ele>
        <time>2015-12-27T10:31:04Z</time>
      </trkpt>
      <trkpt lat="47.3375" lon="-0.77847">
        <ele>14.4</ele>
        <time>2015-12-27T10:31:07Z</time>
      </trkpt>
      <trkpt lat="47.33744" lon="-0.77859">
        <ele>14.6</ele>
        <time>2015-12-27T10:31:10Z</time>
      </trkpt>
      <trkpt lat="47.33739" lon="-0.77871">
        <ele>14.5</ele>
        <time>2015-12-27T10:31:13Z</time>
      </trkpt>
      <trkpt lat="47.33734" lon="-0.77881">
        <ele>14.6</ele>
        <time>2015-12-27T10:31:16Z</time>
      </trkpt>
      <trkpt lat="47.33726" lon="-0.77892">
        <ele>13.6</ele>
        <time>2015-12-27T10:31:20Z</time>
      </trkpt>
      <trkpt lat="47.33714" lon="-0.77904">
        <ele>12.7</ele>
        <time>2015-12-27T10:31:23Z</time>
      </trkpt>
      <trkpt lat="47.33703" lon="-0.77908">
        <ele>11.8</ele>
        <time>2015-12-27T10:31:25Z</time>
      </trkpt>
      <trkpt lat="47.33691" lon="-0.77905">
        <ele>10.6</ele>
        <time>2015-12-27T10:31:27Z</time>
      </trkpt>
      <trkpt lat="47.33679" lon="-0.77904">
        <ele>10.2</ele>
        <time>2015-12-27T10:31:29Z</time>
      </trkpt>
      <trkpt lat="47.33668" lon="-0.77927">
        <ele>10.3</ele>
        <time>2015-12-27T10:31:34Z</time>
      </trkpt>
      <trkpt lat="47.33666" lon="-0.77941">
        <ele>11.1</ele>
        <time>2015-12-27T10:31:37Z</time>
      </trkpt>
      <trkpt lat="47.33663" lon="-0.77957">
        <ele>12.1</ele>
        <time>2015-12-27T10:31:41Z</time>
      </trkpt>
      <trkpt lat="47.3366" lon="-0.77972">
        <ele>13.3</ele>
        <time>2015-12-27T10:31:46Z</time>
      </trkpt>
      <trkpt lat="47.33655" lon="-0.77984">
        <ele>14</ele>
        <time>2015-12-27T10:31:50Z</time>
      </trkpt>
      <trkpt lat="47.33649" lon="-0.77994">
        <ele>15.4</ele>
        <time>2015-12-27T10:31:56Z</time>
      </trkpt>
      <trkpt lat="47.33639" lon="-0.77995">
        <ele>17.7</ele>
        <time>2015-12-27T10:32:02Z</time>
      </trkpt>
      <trkpt lat="47.33636" lon="-0.77981">
        <ele>19.4</ele>
        <time>2015-12-27T10:32:09Z</time>
      </trkpt>
      <trkpt lat="47.33635" lon="-0.77967">
        <ele>20.9</ele>
        <time>2015-12-27T10:32:15Z</time>
      </trkpt>
      <trkpt lat="47.33633" lon="-0.77951">
        <ele>21.8</ele>
        <time>2015-12-27T10:32:21Z</time>
      </trkpt>
      <trkpt lat="47.3363" lon="-0.77938">
        <ele>23.6</ele>
        <time>2015-12-27T10:32:27Z</time>
      </trkpt>
      <trkpt lat="47.33621" lon="-0.77937">
        <ele>25.5</ele>
        <time>2015-12-27T10:32:34Z</time>
      </trkpt>
      <trkpt lat="47.33611" lon="-0.77963">
        <ele>29.1</ele>
        <time>2015-12-27T10:32:50Z</time>
      </trkpt>
      <trkpt lat="47.33607" lon="-0.77975">
        <ele>32.2</ele>
        <time>2015-12-27T10:33:00Z</time>
      </trkpt>
      <trkpt lat="47.33603" lon="-0.77963">
        <ele>34.4</ele>
        <time>2015-12-27T10:33:10Z</time>
      </trkpt>
      <trkpt lat="47.336" lon="-0.7795">
        <ele>36.1</ele>
        <time>2015-12-27T10:33:16Z</time>
      </trkpt>
      <trkpt lat="47.33597" lon="-0.77935">
        <ele>37.7</ele>
        <time>2015-12-27T10:33:22Z</time>
      </trkpt>
      <trkpt lat="47.33597" lon="-0.77921">
        <ele>38.3</ele>
        <time>2015-12-27T10:33:28Z</time>
      </trkpt>
      <trkpt lat="47.33595" lon="-0.77906">
        <ele>39.1</ele>
        <time>2015-12-27T10:34:18Z</time>
      </trkpt>
      <trkpt lat="47.33611" lon="-0.77882">
        <ele>36.9</ele>
        <time>2015-12-27T10:34:23Z</time>
      </trkpt>
      <trkpt lat="47.33619" lon="-0.77871">
        <ele>36.4</ele>
        <time>2015-12-27T10:34:25Z</time>
      </trkpt>
      <trkpt lat="47.3362" lon="-0.77854">
        <ele>34.4</ele>
        <time>2015-12-27T10:34:27Z</time>
      </trkpt>
      <trkpt lat="47.3361" lon="-0.77841">
        <ele>31.9</ele>
        <time>2015-12-27T10:34:29Z</time>
      </trkpt>
      <trkpt lat="47.33594" lon="-0.77834">
        <ele>29.2</ele>
        <time>2015-12-27T10:34:31Z</time>
      </trkpt>
      <trkpt lat="47.33585" lon="-0.77834">
        <ele>27.8</ele>
        <time>2015-12-27T10:34:32Z</time>
      </trkpt>
      <trkpt lat="47.33575" lon="-0.77834">
        <ele>26.5</ele>
        <time>2015-12-27T10:34:33Z</time>
      </trkpt>
      <trkpt lat="47.33566" lon="-0.77835">
        <ele>25.2</ele>
        <time>2015-12-27T10:34:34Z</time>
      </trkpt>
      <trkpt lat="47.33557" lon="-0.77837">
        <ele>24.3</ele>
        <time>2015-12-27T10:34:35Z</time>
      </trkpt>
      <trkpt lat="47.33548" lon="-0.7784">
        <ele>23.6</ele>
        <time>2015-12-27T10:34:36Z</time>
      </trkpt>
      <trkpt lat="47.33539" lon="-0.77842">
        <ele>22.5</ele>
        <time>2015-12-27T10:34:37Z</time>
      </trkpt>
      <trkpt lat="47.3353" lon="-0.77845">
        <ele>21.7</ele>
        <time>2015-12-27T10:34:38Z</time>
      </trkpt>
      <trkpt lat="47.33521" lon="-0.77849">
        <ele>21.2</ele>
        <time>2015-12-27T10:34:39Z</time>
      </trkpt>
      <trkpt lat="47.33512" lon="-0.77854">
        <ele>21.2</ele>
        <time>2015-12-27T10:34:40Z</time>
      </trkpt>
      <trkpt lat="47.33497" lon="-0.77866">
        <ele>20</ele>
        <time>2015-12-27T10:34:42Z</time>
      </trkpt>
      <trkpt lat="47.33485" lon="-0.7787">
        <ele>18.4</ele>
        <time>2015-12-27T10:34:44Z</time>
      </trkpt>
      <trkpt lat="47.33486" lon="-0.77852">
        <ele>15.7</ele>
        <time>2015-12-27T10:34:47Z</time>
      </trkpt>
      <trkpt lat="47.33493" lon="-0.7784">
        <ele>14.6</ele>
        <time>2015-12-27T10:34:49Z</time>
      </trkpt>
      <trkpt lat="47.33498" lon="-0.77825">
        <ele>13.7</ele>
        <time>2015-12-27T10:34:51Z</time>
      </trkpt>
      <trkpt lat="47.33503" lon="-0.77809">
        <ele>13.2</ele>
        <time>2015-12-27T10:34:53Z</time>
      </trkpt>
      <trkpt lat="47.33507" lon="-0.77795">
        <ele>12.6</ele>
        <time>2015-12-27T10:34:55Z</time>
      </trkpt>
      <trkpt lat="47.33512" lon="-0.77781">
        <ele>12.9</ele>
        <time>2015-12-27T10:34:57Z</time>
      </trkpt>
      <trkpt lat="47.33519" lon="-0.77767">
        <ele>13.5</ele>
        <time>2015-12-27T10:35:00Z</time>
      </trkpt>
      <trkpt lat="47.3353" lon="-0.77759">
        <ele>12.5</ele>
        <time>2015-12-27T10:35:03Z</time>
      </trkpt>
      <trkpt lat="47.3354" lon="-0.77753">
        <ele>12.4</ele>
        <time>2015-12-27T10:35:05Z</time>
      </trkpt>
      <trkpt lat="47.33551" lon="-0.77747">
        <ele>12.7</ele>
        <time>2015-12-27T10:35:07Z</time>
      </trkpt>
      <trkpt lat="47.33561" lon="-0.77742">
        <ele>12.7</ele>
        <time>2015-12-27T10:35:09Z</time>
      </trkpt>
      <trkpt lat="47.3357" lon="-0.77736">
        <ele>12.6</ele>
        <time>2015-12-27T10:35:11Z</time>
      </trkpt>
      <trkpt lat="47.33581" lon="-0.77732">
        <ele>12.1</ele>
        <time>2015-12-27T10:35:13Z</time>
      </trkpt>
      <trkpt lat="47.3359" lon="-0.7773">
        <ele>11.7</ele>
        <time>2015-12-27T10:35:15Z</time>
      </trkpt>
      <trkpt lat="47.33599" lon="-0.77729">
        <ele>11.3</ele>
        <time>2015-12-27T10:35:17Z</time>
      </trkpt>
      <trkpt lat="47.3361" lon="-0.77728">
        <ele>11.6</ele>
        <time>2015-12-27T10:35:19Z</time>
      </trkpt>
      <trkpt lat="47.33633" lon="-0.77721">
        <ele>11.2</ele>
        <time>2015-12-27T10:35:24Z</time>
      </trkpt>
      <trkpt lat="47.33641" lon="-0.77712">
        <ele>11.5</ele>
        <time>2015-12-27T10:35:27Z</time>
      </trkpt>
      <trkpt lat="47.33636" lon="-0.77697">
        <ele>11.8</ele>
        <time>2015-12-27T10:35:31Z</time>
      </trkpt>
      <trkpt lat="47.33631" lon="-0.77685">
        <ele>12.5</ele>
        <time>2015-12-27T10:35:35Z</time>
      </trkpt>
      <trkpt lat="47.33624" lon="-0.77675">
        <ele>13.7</ele>
        <time>2015-12-27T10:35:40Z</time>
      </trkpt>
      <trkpt lat="47.33617" lon="-0.77664">
        <ele>15.3</ele>
        <time>2015-12-27T10:35:45Z</time>
      </trkpt>
      <trkpt lat="47.3361" lon="-0.77654">
        <ele>15.9</ele>
        <time>2015-12-27T10:35:51Z</time>
      </trkpt>
      <trkpt lat="47.33602" lon="-0.77645">
        <ele>16.3</ele>
        <time>2015-12-27T10:36:42Z</time>
      </trkpt>
      <trkpt lat="47.33587" lon="-0.77627">
        <ele>17</ele>
        <time>2015-12-27T10:36:49Z</time>
      </trkpt>
      <trkpt lat="47.3358" lon="-0.77617">
        <ele>17.5</ele>
        <time>2015-12-27T10:36:52Z</time>
      </trkpt>
      <trkpt lat="47.33573" lon="-0.77608">
        <ele>18.3</ele>
        <time>2015-12-27T10:36:55Z</time>
      </trkpt>
      <trkpt lat="47.33566" lon="-0.77598">
        <ele>18.5</ele>
        <time>2015-12-27T10:36:58Z</time>
      </trkpt>
      <trkpt lat="47.33559" lon="-0.77587">
        <ele>18.9</ele>
        <time>2015-12-27T10:37:01Z</time>
      </trkpt>
      <trkpt lat="47.33552" lon="-0.77576">
        <ele>19.5</ele>
        <time>2015-12-27T10:37:04Z</time>
      </trkpt>
      <trkpt lat="47.33545" lon="-0.77566">
        <ele>19.5</ele>
        <time>2015-12-27T10:37:07Z</time>
      </trkpt>
      <trkpt lat="47.33535" lon="-0.7756">
        <ele>21</ele>
        <time>2015-12-27T10:37:10Z</time>
      </trkpt>
      <trkpt lat="47.33525" lon="-0.77552">
        <ele>21.6</ele>
        <time>2015-12-27T10:37:14Z</time>
      </trkpt>
      <trkpt lat="47.33517" lon="-0.77543">
        <ele>22.8</ele>
        <time>2015-12-27T10:37:18Z</time>
      </trkpt>
      <trkpt lat="47.3351" lon="-0.77531">
        <ele>23.5</ele>
        <time>2015-12-27T10:37:22Z</time>
      </trkpt>
      <trkpt lat="47.33503" lon="-0.77519">
        <ele>24.2</ele>
        <time>2015-12-27T10:37:26Z</time>
      </trkpt>
      <trkpt lat="47.33496" lon="-0.77507">
        <ele>25.2</ele>
        <time>2015-12-27T10:37:30Z</time>
      </trkpt>
      <trkpt lat="47.33491" lon="-0.77496">
        <ele>26</ele>
        <time>2015-12-27T10:37:34Z</time>
      </trkpt>
      <trkpt lat="47.33486" lon="-0.77485">
        <ele>26.9</ele>
        <time>2015-12-27T10:37:38Z</time>
      </trkpt>
      <trkpt lat="47.3348" lon="-0.77471">
        <ele>27.8</ele>
        <time>2015-12-27T10:37:42Z</time>
      </trkpt>
      <trkpt lat="47.33474" lon="-0.7746">
        <ele>28.9</ele>
        <time>2015-12-27T10:37:46Z</time>
      </trkpt>
      <trkpt lat="47.33465" lon="-0.77433">
        <ele>31.7</ele>
        <time>2015-12-27T10:37:56Z</time>
      </trkpt>
      <trkpt lat="47.3346" lon="-0.77419">
        <ele>32.9</ele>
        <time>2015-12-27T10:38:02Z</time>
      </trkpt>
      <trkpt lat="47.33456" lon="-0.77405">
        <ele>33.8</ele>
        <time>2015-12-27T10:38:07Z</time>
      </trkpt>
      <trkpt lat="47.33448" lon="-0.77395">
        <ele>34</ele>
        <time>2015-12-27T10:38:11Z</time>
      </trkpt>
      <trkpt lat="47.33439" lon="-0.77388">
        <ele>34.7</ele>
        <time>2015-12-27T10:38:15Z</time>
      </trkpt>
      <trkpt lat="47.33431" lon="-0.77378">
        <ele>35</ele>
        <time>2015-12-27T10:38:19Z</time>
      </trkpt>
      <trkpt lat="47.33421" lon="-0.77369">
        <ele>35.2</ele>
        <time>2015-12-27T10:38:23Z</time>
      </trkpt>
      <trkpt lat="47.33412" lon="-0.77359">
        <ele>35.6</ele>
        <time>2015-12-27T10:38:27Z</time>
      </trkpt>
      <trkpt lat="47.33403" lon="-0.77349">
        <ele>37</ele>
        <time>2015-12-27T10:38:31Z</time>
      </trkpt>
      <trkpt lat="47.33395" lon="-0.77341">
        <ele>37.9</ele>
        <time>2015-12-27T10:38:35Z</time>
      </trkpt>
      <trkpt lat="47.33386" lon="-0.77332">
        <ele>38.6</ele>
        <time>2015-12-27T10:38:39Z</time>
      </trkpt>
      <trkpt lat="47.33377" lon="-0.77326">
        <ele>39.6</ele>
        <time>2015-12-27T10:38:43Z</time>
      </trkpt>
      <trkpt lat="47.33366" lon="-0.77323">
        <ele>40.4</ele>
        <time>2015-12-27T10:38:47Z</time>
      </trkpt>
      <trkpt lat="47.33345" lon="-0.7732">
        <ele>41.5</ele>
        <time>2015-12-27T10:38:55Z</time>
      </trkpt>
      <trkpt lat="47.33334" lon="-0.7732">
        <ele>42.3</ele>
        <time>2015-12-27T10:38:59Z</time>
      </trkpt>
      <trkpt lat="47.33324" lon="-0.77317">
        <ele>42.9</ele>
        <time>2015-12-27T10:39:03Z</time>
      </trkpt>
      <trkpt lat="47.33313" lon="-0.77315">
        <ele>43.5</ele>
        <time>2015-12-27T10:39:07Z</time>
      </trkpt>
      <trkpt lat="47.33304" lon="-0.77313">
        <ele>44.4</ele>
        <time>2015-12-27T10:39:11Z</time>
      </trkpt>
      <trkpt lat="47.33295" lon="-0.77311">
        <ele>45.4</ele>
        <time>2015-12-27T10:39:15Z</time>
      </trkpt>
      <trkpt lat="47.33285" lon="-0.77309">
        <ele>46.1</ele>
        <time>2015-12-27T10:39:19Z</time>
      </trkpt>
      <trkpt lat="47.33274" lon="-0.7731">
        <ele>46.8</ele>
        <time>2015-12-27T10:39:23Z</time>
      </trkpt>
      <trkpt lat="47.33263" lon="-0.7731">
        <ele>47.8</ele>
        <time>2015-12-27T10:39:27Z</time>
      </trkpt>
      <trkpt lat="47.33253" lon="-0.77311">
        <ele>48.2</ele>
        <time>2015-12-27T10:39:31Z</time>
      </trkpt>
      <trkpt lat="47.33244" lon="-0.77309">
        <ele>49</ele>
        <time>2015-12-27T10:39:35Z</time>
      </trkpt>
      <trkpt lat="47.33234" lon="-0.77308">
        <ele>49.6</ele>
        <time>2015-12-27T10:39:39Z</time>
      </trkpt>
      <trkpt lat="47.33223" lon="-0.77305">
        <ele>50.3</ele>
        <time>2015-12-27T10:39:43Z</time>
      </trkpt>
      <trkpt lat="47.33213" lon="-0.77296">
        <ele>51.6</ele>
        <time>2015-12-27T10:39:47Z</time>
      </trkpt>
      <trkpt lat="47.33203" lon="-0.77287">
        <ele>52.5</ele>
        <time>2015-12-27T10:39:51Z</time>
      </trkpt>
      <trkpt lat="47.33184" lon="-0.77268">
        <ele>53.3</ele>
        <time>2015-12-27T10:39:59Z</time>
      </trkpt>
      <trkpt lat="47.33175" lon="-0.77261">
        <ele>54.1</ele>
        <time>2015-12-27T10:40:03Z</time>
      </trkpt>
      <trkpt lat="47.33164" lon="-0.77254">
        <ele>54.4</ele>
        <time>2015-12-27T10:40:07Z</time>
      </trkpt>
      <trkpt lat="47.33154" lon="-0.77249">
        <ele>54.9</ele>
        <time>2015-12-27T10:40:11Z</time>
      </trkpt>
      <trkpt lat="47.33144" lon="-0.77244">
        <ele>55.8</ele>
        <time>2015-12-27T10:40:15Z</time>
      </trkpt>
      <trkpt lat="47.33138" lon="-0.77233">
        <ele>56.8</ele>
        <time>2015-12-27T10:40:19Z</time>
      </trkpt>
      <trkpt lat="47.33136" lon="-0.77219">
        <ele>57.9</ele>
        <time>2015-12-27T10:40:23Z</time>
      </trkpt>
      <trkpt lat="47.33133" lon="-0.77204">
        <ele>59</ele>
        <time>2015-12-27T10:40:27Z</time>
      </trkpt>
      <trkpt lat="47.33131" lon="-0.77188">
        <ele>60</ele>
        <time>2015-12-27T10:40:31Z</time>
      </trkpt>
      <trkpt lat="47.33127" lon="-0.77173">
        <ele>61.1</ele>
        <time>2015-12-27T10:40:35Z</time>
      </trkpt>
      <trkpt lat="47.33123" lon="-0.77159">
        <ele>62</ele>
        <time>2015-12-27T10:40:39Z</time>
      </trkpt>
      <trkpt lat="47.33118" lon="-0.77143">
        <ele>63</ele>
        <time>2015-12-27T10:40:43Z</time>
      </trkpt>
      <trkpt lat="47.33114" lon="-0.77128">
        <ele>63.7</ele>
        <time>2015-12-27T10:40:47Z</time>
      </trkpt>
      <trkpt lat="47.33109" lon="-0.77112">
        <ele>64.5</ele>
        <time>2015-12-27T10:40:51Z</time>
      </trkpt>
      <trkpt lat="47.33102" lon="-0.77101">
        <ele>65.1</ele>
        <time>2015-12-27T10:40:55Z</time>
      </trkpt>
      <trkpt lat="47.33086" lon="-0.77117">
        <ele>66.3</ele>
        <time>2015-12-27T10:41:57Z</time>
      </trkpt>
      <trkpt lat="47.33064" lon="-0.77126">
        <ele>67.3</ele>
        <time>2015-12-27T10:42:05Z</time>
      </trkpt>
      <trkpt lat="47.33055" lon="-0.77129">
        <ele>67.8</ele>
        <time>2015-12-27T10:42:08Z</time>
      </trkpt>
      <trkpt lat="47.33046" lon="-0.77133">
        <ele>68</ele>
        <time>2015-12-27T10:42:11Z</time>
      </trkpt>
      <trkpt lat="47.33036" lon="-0.77138">
        <ele>68.4</ele>
        <time>2015-12-27T10:42:14Z</time>
      </trkpt>
      <trkpt lat="47.33027" lon="-0.77145">
        <ele>68.2</ele>
        <time>2015-12-27T10:42:17Z</time>
      </trkpt>
      <trkpt lat="47.33017" lon="-0.77153">
        <ele>68.5</ele>
        <time>2015-12-27T10:42:20Z</time>
      </trkpt>
      <trkpt lat="47.33007" lon="-0.77161">
        <ele>68.5</ele>
        <time>2015-12-27T10:42:23Z</time>
      </trkpt>
      <trkpt lat="47.32998" lon="-0.7717">
        <ele>68.5</ele>
        <time>2015-12-27T10:42:26Z</time>
      </trkpt>
      <trkpt lat="47.32989" lon="-0.7718">
        <ele>68.8</ele>
        <time>2015-12-27T10:42:29Z</time>
      </trkpt>
      <trkpt lat="47.32979" lon="-0.7719">
        <ele>69.2</ele>
        <time>2015-12-27T10:42:32Z</time>
      </trkpt>
      <trkpt lat="47.32969" lon="-0.77199">
        <ele>69.7</ele>
        <time>2015-12-27T10:42:35Z</time>
      </trkpt>
      <trkpt lat="47.3296" lon="-0.77209">
        <ele>70.1</ele>
        <time>2015-12-27T10:42:38Z</time>
      </trkpt>
      <trkpt lat="47.3295" lon="-0.77218">
        <ele>70.3</ele>
        <time>2015-12-27T10:42:41Z</time>
      </trkpt>
      <trkpt lat="47.32938" lon="-0.77225">
        <ele>70.8</ele>
        <time>2015-12-27T10:42:44Z</time>
      </trkpt>
      <trkpt lat="47.32927" lon="-0.77232">
        <ele>71.2</ele>
        <time>2015-12-27T10:42:47Z</time>
      </trkpt>
      <trkpt lat="47.32916" lon="-0.77238">
        <ele>71.7</ele>
        <time>2015-12-27T10:42:50Z</time>
      </trkpt>
      <trkpt lat="47.32906" lon="-0.77246">
        <ele>71.9</ele>
        <time>2015-12-27T10:42:53Z</time>
      </trkpt>
      <trkpt lat="47.32897" lon="-0.77255">
        <ele>72.4</ele>
        <time>2015-12-27T10:42:56Z</time>
      </trkpt>
      <trkpt lat="47.3289" lon="-0.77267">
        <ele>72.4</ele>
        <time>2015-12-27T10:42:59Z</time>
      </trkpt>
      <trkpt lat="47.32881" lon="-0.77297">
        <ele>72.4</ele>
        <time>2015-12-27T10:43:06Z</time>
      </trkpt>
      <trkpt lat="47.32869" lon="-0.77303">
        <ele>72.7</ele>
        <time>2015-12-27T10:43:09Z</time>
      </trkpt>
      <trkpt lat="47.32857" lon="-0.77306">
        <ele>72.9</ele>
        <time>2015-12-27T10:43:12Z</time>
      </trkpt>
      <trkpt lat="47.32845" lon="-0.77309">
        <ele>73.2</ele>
        <time>2015-12-27T10:43:15Z</time>
      </trkpt>
      <trkpt lat="47.32833" lon="-0.77311">
        <ele>73.5</ele>
        <time>2015-12-27T10:43:18Z</time>
      </trkpt>
      <trkpt lat="47.32821" lon="-0.77312">
        <ele>73.5</ele>
        <time>2015-12-27T10:43:21Z</time>
      </trkpt>
      <trkpt lat="47.32809" lon="-0.77314">
        <ele>73.7</ele>
        <time>2015-12-27T10:43:24Z</time>
      </trkpt>
      <trkpt lat="47.32797" lon="-0.77316">
        <ele>73.9</ele>
        <time>2015-12-27T10:43:27Z</time>
      </trkpt>
      <trkpt lat="47.32785" lon="-0.77318">
        <ele>74</ele>
        <time>2015-12-27T10:43:30Z</time>
      </trkpt>
      <trkpt lat="47.32773" lon="-0.77321">
        <ele>74</ele>
        <time>2015-12-27T10:43:33Z</time>
      </trkpt>
      <trkpt lat="47.3276" lon="-0.77326">
        <ele>74</ele>
        <time>2015-12-27T10:43:36Z</time>
      </trkpt>
      <trkpt lat="47.32749" lon="-0.77331">
        <ele>73.8</ele>
        <time>2015-12-27T10:43:39Z</time>
      </trkpt>
      <trkpt lat="47.3274" lon="-0.77338">
        <ele>73.4</ele>
        <time>2015-12-27T10:43:42Z</time>
      </trkpt>
      <trkpt lat="47.32737" lon="-0.77354">
        <ele>73.2</ele>
        <time>2015-12-27T10:43:45Z</time>
      </trkpt>
      <trkpt lat="47.32737" lon="-0.77374">
        <ele>73</ele>
        <time>2015-12-27T10:43:48Z</time>
      </trkpt>
      <trkpt lat="47.32737" lon="-0.77387">
        <ele>72.8</ele>
        <time>2015-12-27T10:43:50Z</time>
      </trkpt>
      <trkpt lat="47.32738" lon="-0.77401">
        <ele>72.7</ele>
        <time>2015-12-27T10:43:52Z</time>
      </trkpt>
      <trkpt lat="47.32738" lon="-0.77414">
        <ele>72.7</ele>
        <time>2015-12-27T10:43:54Z</time>
      </trkpt>
      <trkpt lat="47.32738" lon="-0.77433">
        <ele>72.7</ele>
        <time>2015-12-27T10:43:57Z</time>
      </trkpt>
      <trkpt lat="47.32736" lon="-0.77447">
        <ele>72.6</ele>
        <time>2015-12-27T10:44:00Z</time>
      </trkpt>
      <trkpt lat="47.32715" lon="-0.77447">
        <ele>72.1</ele>
        <time>2015-12-27T10:44:05Z</time>
      </trkpt>
      <trkpt lat="47.32704" lon="-0.77444">
        <ele>71.8</ele>
        <time>2015-12-27T10:44:07Z</time>
      </trkpt>
      <trkpt lat="47.32692" lon="-0.77441">
        <ele>71.7</ele>
        <time>2015-12-27T10:44:09Z</time>
      </trkpt>
      <trkpt lat="47.32679" lon="-0.77438">
        <ele>71.1</ele>
        <time>2015-12-27T10:44:11Z</time>
      </trkpt>
      <trkpt lat="47.32665" lon="-0.77436">
        <ele>70.4</ele>
        <time>2015-12-27T10:44:13Z</time>
      </trkpt>
      <trkpt lat="47.3265" lon="-0.77437">
        <ele>69.1</ele>
        <time>2015-12-27T10:44:15Z</time>
      </trkpt>
      <trkpt lat="47.3264" lon="-0.77448">
        <ele>67.9</ele>
        <time>2015-12-27T10:44:17Z</time>
      </trkpt>
      <trkpt lat="47.32638" lon="-0.77466">
        <ele>67.5</ele>
        <time>2015-12-27T10:44:19Z</time>
      </trkpt>
      <trkpt lat="47.32636" lon="-0.77484">
        <ele>67</ele>
        <time>2015-12-27T10:44:21Z</time>
      </trkpt>
      <trkpt lat="47.32629" lon="-0.77492">
        <ele>66.7</ele>
        <time>2015-12-27T10:44:23Z</time>
      </trkpt>
      <trkpt lat="47.32617" lon="-0.77488">
        <ele>66.7</ele>
        <time>2015-12-27T10:44:26Z</time>
      </trkpt>
      <trkpt lat="47.32606" lon="-0.77483">
        <ele>67.7</ele>
        <time>2015-12-27T10:44:29Z</time>
      </trkpt>
      <trkpt lat="47.32594" lon="-0.77479">
        <ele>68.4</ele>
        <time>2015-12-27T10:44:32Z</time>
      </trkpt>
      <trkpt lat="47.32582" lon="-0.77475">
        <ele>69.2</ele>
        <time>2015-12-27T10:44:35Z</time>
      </trkpt>
      <trkpt lat="47.3257" lon="-0.77472">
        <ele>69.7</ele>
        <time>2015-12-27T10:44:38Z</time>
      </trkpt>
      <trkpt lat="47.32558" lon="-0.77468">
        <ele>69.1</ele>
        <time>2015-12-27T10:44:41Z</time>
      </trkpt>
      <trkpt lat="47.32546" lon="-0.77463">
        <ele>68.9</ele>
        <time>2015-12-27T10:44:44Z</time>
      </trkpt>
      <trkpt lat="47.32533" lon="-0.77459">
        <ele>68.2</ele>
        <time>2015-12-27T10:44:47Z</time>
      </trkpt>
      <trkpt lat="47.32522" lon="-0.77453">
        <ele>68.1</ele>
        <time>2015-12-27T10:44:50Z</time>
      </trkpt>
      <trkpt lat="47.32522" lon="-0.77439">
        <ele>67.4</ele>
        <time>2015-12-27T10:44:54Z</time>
      </trkpt>
      <trkpt lat="47.32528" lon="-0.77426">
        <ele>67.4</ele>
        <time>2015-12-27T10:44:59Z</time>
      </trkpt>
      <trkpt lat="47.32532" lon="-0.77413">
        <ele>67.3</ele>
        <time>2015-12-27T10:45:03Z</time>
      </trkpt>
      <trkpt lat="47.32538" lon="-0.77385">
        <ele>68.4</ele>
        <time>2015-12-27T10:45:12Z</time>
      </trkpt>
      <trkpt lat="47.32542" lon="-0.77372">
        <ele>68.8</ele>
        <time>2015-12-27T10:45:16Z</time>
      </trkpt>
      <trkpt lat="47.32546" lon="-0.77358">
        <ele>69</ele>
        <time>2015-12-27T10:45:20Z</time>
      </trkpt>
      <trkpt lat="47.32551" lon="-0.77344">
        <ele>69.3</ele>
        <time>2015-12-27T10:45:24Z</time>
      </trkpt>
      <trkpt lat="47.32556" lon="-0.77328">
        <ele>70.1</ele>
        <time>2015-12-27T10:45:28Z</time>
      </trkpt>
      <trkpt lat="47.32561" lon="-0.77312">
        <ele>71.1</ele>
        <time>2015-12-27T10:45:32Z</time>
      </trkpt>
      <trkpt lat="47.32563" lon="-0.77296">
        <ele>71.6</ele>
        <time>2015-12-27T10:45:36Z</time>
      </trkpt>
      <trkpt lat="47.32565" lon="-0.77277">
        <ele>72.3</ele>
        <time>2015-12-27T10:45:40Z</time>
      </trkpt>
      <trkpt lat="47.32566" lon="-0.7726">
        <ele>72.5</ele>
        <time>2015-12-27T10:45:43Z</time>
      </trkpt>
      <trkpt lat="47.32565" lon="-0.77243">
        <ele>73</ele>
        <time>2015-12-27T10:45:46Z</time>
      </trkpt>
      <trkpt lat="47.3256" lon="-0.77229">
        <ele>73.5</ele>
        <time>2015-12-27T10:45:49Z</time>
      </trkpt>
      <trkpt lat="47.3255" lon="-0.77226">
        <ele>73.9</ele>
        <time>2015-12-27T10:45:52Z</time>
      </trkpt>
      <trkpt lat="47.32539" lon="-0.77223">
        <ele>74.2</ele>
        <time>2015-12-27T10:45:55Z</time>
      </trkpt>
      <trkpt lat="47.32528" lon="-0.77217">
        <ele>74.5</ele>
        <time>2015-12-27T10:45:58Z</time>
      </trkpt>
      <trkpt lat="47.32516" lon="-0.7721">
        <ele>74.9</ele>
        <time>2015-12-27T10:46:01Z</time>
      </trkpt>
      <trkpt lat="47.32505" lon="-0.77203">
        <ele>75.2</ele>
        <time>2015-12-27T10:46:04Z</time>
      </trkpt>
      <trkpt lat="47.32482" lon="-0.77204">
        <ele>75.7</ele>
        <time>2015-12-27T10:46:10Z</time>
      </trkpt>
      <trkpt lat="47.3247" lon="-0.77209">
        <ele>75.8</ele>
        <time>2015-12-27T10:46:13Z</time>
      </trkpt>
      <trkpt lat="47.32458" lon="-0.77213">
        <ele>75.9</ele>
        <time>2015-12-27T10:46:16Z</time>
      </trkpt>
      <trkpt lat="47.32446" lon="-0.77215">
        <ele>75.9</ele>
        <time>2015-12-27T10:46:19Z</time>
      </trkpt>
      <trkpt lat="47.32433" lon="-0.77207">
        <ele>76</ele>
        <time>2015-12-27T10:46:22Z</time>
      </trkpt>
      <trkpt lat="47.32424" lon="-0.77193">
        <ele>76.2</ele>
        <time>2015-12-27T10:46:25Z</time>
      </trkpt>
      <trkpt lat="47.32418" lon="-0.77181">
        <ele>76.5</ele>
        <time>2015-12-27T10:46:28Z</time>
      </trkpt>
      <trkpt lat="47.3241" lon="-0.77172">
        <ele>76.6</ele>
        <time>2015-12-27T10:46:33Z</time>
      </trkpt>
      <trkpt lat="47.32408" lon="-0.77158">
        <ele>76.6</ele>
        <time>2015-12-27T10:46:39Z</time>
      </trkpt>
      <trkpt lat="47.32404" lon="-0.77146">
        <ele>76.3</ele>
        <time>2015-12-27T10:47:23Z</time>
      </trkpt>
      <trkpt lat="47.32394" lon="-0.7712">
        <ele>76.4</ele>
        <time>2015-12-27T10:47:31Z</time>
      </trkpt>
      <trkpt lat="47.32389" lon="-0.77108">
        <ele>76.3</ele>
        <time>2015-12-27T10:47:34Z</time>
      </trkpt>
      <trkpt lat="47.32385" lon="-0.77095">
        <ele>76.9</ele>
        <time>2015-12-27T10:47:37Z</time>
      </trkpt>
      <trkpt lat="47.3238" lon="-0.77082">
        <ele>76.9</ele>
        <time>2015-12-27T10:47:40Z</time>
      </trkpt>
      <trkpt lat="47.32375" lon="-0.77069">
        <ele>77</ele>
        <time>2015-12-27T10:47:43Z</time>
      </trkpt>
      <trkpt lat="47.3237" lon="-0.77055">
        <ele>77.1</ele>
        <time>2015-12-27T10:47:46Z</time>
      </trkpt>
      <trkpt lat="47.32365" lon="-0.7704">
        <ele>77.3</ele>
        <time>2015-12-27T10:47:49Z</time>
      </trkpt>
      <trkpt lat="47.32359" lon="-0.77024">
        <ele>77</ele>
        <time>2015-12-27T10:47:52Z</time>
      </trkpt>
      <trkpt lat="47.32353" lon="-0.77007">
        <ele>76.1</ele>
        <time>2015-12-27T10:47:55Z</time>
      </trkpt>
      <trkpt lat="47.32349" lon="-0.76995">
        <ele>75.6</ele>
        <time>2015-12-27T10:47:57Z</time>
      </trkpt>
      <trkpt lat="47.32345" lon="-0.76983">
        <ele>75.1</ele>
        <time>2015-12-27T10:47:59Z</time>
      </trkpt>
      <trkpt lat="47.3234" lon="-0.7697">
        <ele>74.6</ele>
        <time>2015-12-27T10:48:01Z</time>
      </trkpt>
      <trkpt lat="47.32335" lon="-0.76956">
        <ele>74</ele>
        <time>2015-12-27T10:48:03Z</time>
      </trkpt>
      <trkpt lat="47.32329" lon="-0.76942">
        <ele>73.9</ele>
        <time>2015-12-27T10:48:05Z</time>
      </trkpt>
      <trkpt lat="47.32324" lon="-0.76926">
        <ele>73.6</ele>
        <time>2015-12-27T10:48:07Z</time>
      </trkpt>
      <trkpt lat="47.32319" lon="-0.76909">
        <ele>73</ele>
        <time>2015-12-27T10:48:09Z</time>
      </trkpt>
      <trkpt lat="47.32313" lon="-0.76891">
        <ele>72.5</ele>
        <time>2015-12-27T10:48:11Z</time>
      </trkpt>
      <trkpt lat="47.32307" lon="-0.76873">
        <ele>71.8</ele>
        <time>2015-12-27T10:48:13Z</time>
      </trkpt>
      <trkpt lat="47.32302" lon="-0.76856">
        <ele>72.4</ele>
        <time>2015-12-27T10:48:15Z</time>
      </trkpt>
      <trkpt lat="47.32295" lon="-0.76841">
        <ele>71.6</ele>
        <time>2015-12-27T10:48:17Z</time>
      </trkpt>
      <trkpt lat="47.32286" lon="-0.76834">
        <ele>70.9</ele>
        <time>2015-12-27T10:48:19Z</time>
      </trkpt>
      <trkpt lat="47.32277" lon="-0.76834">
        <ele>70.4</ele>
        <time>2015-12-27T10:48:21Z</time>
      </trkpt>
      <trkpt lat="47.32267" lon="-0.76835">
        <ele>69.8</ele>
        <time>2015-12-27T10:48:23Z</time>
      </trkpt>
      <trkpt lat="47.32257" lon="-0.76838">
        <ele>69.2</ele>
        <time>2015-12-27T10:48:25Z</time>
      </trkpt>
      <trkpt lat="47.32236" lon="-0.76846">
        <ele>68.4</ele>
        <time>2015-12-27T10:48:29Z</time>
      </trkpt>
      <trkpt lat="47.32226" lon="-0.76848">
        <ele>68.3</ele>
        <time>2015-12-27T10:48:31Z</time>
      </trkpt>
      <trkpt lat="47.32217" lon="-0.76849">
        <ele>68.4</ele>
        <time>2015-12-27T10:48:33Z</time>
      </trkpt>
      <trkpt lat="47.32207" lon="-0.76846">
        <ele>68.4</ele>
        <time>2015-12-27T10:48:35Z</time>
      </trkpt>
      <trkpt lat="47.32197" lon="-0.76841">
        <ele>67.5</ele>
        <time>2015-12-27T10:48:37Z</time>
      </trkpt>
      <trkpt lat="47.32189" lon="-0.76836">
        <ele>66.7</ele>
        <time>2015-12-27T10:48:39Z</time>
      </trkpt>
      <trkpt lat="47.32179" lon="-0.7683">
        <ele>66.9</ele>
        <time>2015-12-27T10:48:42Z</time>
      </trkpt>
      <trkpt lat="47.32168" lon="-0.76826">
        <ele>66.6</ele>
        <time>2015-12-27T10:48:45Z</time>
      </trkpt>
      <trkpt lat="47.32156" lon="-0.76821">
        <ele>67.3</ele>
        <time>2015-12-27T10:48:48Z</time>
      </trkpt>
      <trkpt lat="47.32145" lon="-0.76814">
        <ele>67.2</ele>
        <time>2015-12-27T10:48:51Z</time>
      </trkpt>
      <trkpt lat="47.32133" lon="-0.76805">
        <ele>66.4</ele>
        <time>2015-12-27T10:48:54Z</time>
      </trkpt>
      <trkpt lat="47.32121" lon="-0.76808">
        <ele>66.4</ele>
        <time>2015-12-27T10:48:57Z</time>
      </trkpt>
      <trkpt lat="47.3211" lon="-0.76817">
        <ele>66.9</ele>
        <time>2015-12-27T10:49:00Z</time>
      </trkpt>
      <trkpt lat="47.32098" lon="-0.76825">
        <ele>67</ele>
        <time>2015-12-27T10:49:03Z</time>
      </trkpt>
      <trkpt lat="47.32086" lon="-0.76832">
        <ele>66.7</ele>
        <time>2015-12-27T10:49:06Z</time>
      </trkpt>
      <trkpt lat="47.32075" lon="-0.76841">
        <ele>67</ele>
        <time>2015-12-27T10:49:09Z</time>
      </trkpt>
      <trkpt lat="47.32065" lon="-0.76849">
        <ele>67.5</ele>
        <time>2015-12-27T10:49:12Z</time>
      </trkpt>
      <trkpt lat="47.32055" lon="-0.76857">
        <ele>68.2</ele>
        <time>2015-12-27T10:49:15Z</time>
      </trkpt>
      <trkpt lat="47.32046" lon="-0.76864">
        <ele>69</ele>
        <time>2015-12-27T10:49:18Z</time>
      </trkpt>
      <trkpt lat="47.32037" lon="-0.76872">
        <ele>69</ele>
        <time>2015-12-27T10:49:21Z</time>
      </trkpt>
      <trkpt lat="47.32029" lon="-0.76878">
        <ele>69.4</ele>
        <time>2015-12-27T10:49:24Z</time>
      </trkpt>
      <trkpt lat="47.3202" lon="-0.76869">
        <ele>69.6</ele>
        <time>2015-12-27T10:49:29Z</time>
      </trkpt>
      <trkpt lat="47.32013" lon="-0.76842">
        <ele>69.4</ele>
        <time>2015-12-27T10:49:35Z</time>
      </trkpt>
      <trkpt lat="47.32008" lon="-0.76829">
        <ele>69.3</ele>
        <time>2015-12-27T10:49:38Z</time>
      </trkpt>
      <trkpt lat="47.32002" lon="-0.76816">
        <ele>69</ele>
        <time>2015-12-27T10:49:41Z</time>
      </trkpt>
      <trkpt lat="47.31997" lon="-0.76804">
        <ele>68.8</ele>
        <time>2015-12-27T10:49:44Z</time>
      </trkpt>
      <trkpt lat="47.31993" lon="-0.76792">
        <ele>68.8</ele>
        <time>2015-12-27T10:49:47Z</time>
      </trkpt>
      <trkpt lat="47.31989" lon="-0.76775">
        <ele>68.7</ele>
        <time>2015-12-27T10:49:51Z</time>
      </trkpt>
      <trkpt lat="47.31992" lon="-0.7676">
        <ele>68</ele>
        <time>2015-12-27T10:49:54Z</time>
      </trkpt>
      <trkpt lat="47.32" lon="-0.76746">
        <ele>67.3</ele>
        <time>2015-12-27T10:49:57Z</time>
      </trkpt>
      <trkpt lat="47.32006" lon="-0.76736">
        <ele>67.2</ele>
        <time>2015-12-27T10:49:59Z</time>
      </trkpt>
      <trkpt lat="47.32013" lon="-0.76725">
        <ele>67</ele>
        <time>2015-12-27T10:50:01Z</time>
      </trkpt>
      <trkpt lat="47.32019" lon="-0.76715">
        <ele>67.2</ele>
        <time>2015-12-27T10:50:03Z</time>
      </trkpt>
      <trkpt lat="47.32024" lon="-0.76704">
        <ele>66.9</ele>
        <time>2015-12-27T10:50:05Z</time>
      </trkpt>
      <trkpt lat="47.32029" lon="-0.76691">
        <ele>66.7</ele>
        <time>2015-12-27T10:50:07Z</time>
      </trkpt>
      <trkpt lat="47.32031" lon="-0.76677">
        <ele>66.6</ele>
        <time>2015-12-27T10:50:09Z</time>
      </trkpt>
      <trkpt lat="47.32034" lon="-0.76662">
        <ele>66.3</ele>
        <time>2015-12-27T10:50:11Z</time>
      </trkpt>
      <trkpt lat="47.32037" lon="-0.76646">
        <ele>65.7</ele>
        <time>2015-12-27T10:50:13Z</time>
      </trkpt>
      <trkpt lat="47.32042" lon="-0.76629">
        <ele>65.1</ele>
        <time>2015-12-27T10:50:15Z</time>
      </trkpt>
      <trkpt lat="47.32048" lon="-0.76613">
        <ele>64.9</ele>
        <time>2015-12-27T10:50:17Z</time>
      </trkpt>
      <trkpt lat="47.32056" lon="-0.76598">
        <ele>64.2</ele>
        <time>2015-12-27T10:50:19Z</time>
      </trkpt>
      <trkpt lat="47.32064" lon="-0.76582">
        <ele>63.9</ele>
        <time>2015-12-27T10:50:21Z</time>
      </trkpt>
      <trkpt lat="47.32071" lon="-0.76567">
        <ele>63.1</ele>
        <time>2015-12-27T10:50:23Z</time>
      </trkpt>
      <trkpt lat="47.32078" lon="-0.76552">
        <ele>62.3</ele>
        <time>2015-12-27T10:50:25Z</time>
      </trkpt>
      <trkpt lat="47.32085" lon="-0.76536">
        <ele>61.9</ele>
        <time>2015-12-27T10:50:27Z</time>
      </trkpt>
      <trkpt lat="47.32093" lon="-0.76519">
        <ele>61.2</ele>
        <time>2015-12-27T10:50:29Z</time>
      </trkpt>
      <trkpt lat="47.321" lon="-0.76502">
        <ele>60.8</ele>
        <time>2015-12-27T10:50:31Z</time>
      </trkpt>
      <trkpt lat="47.3211" lon="-0.76464">
        <ele>59.7</ele>
        <time>2015-12-27T10:50:35Z</time>
      </trkpt>
      <trkpt lat="47.32114" lon="-0.76442">
        <ele>59.1</ele>
        <time>2015-12-27T10:50:37Z</time>
      </trkpt>
      <trkpt lat="47.32116" lon="-0.76418">
        <ele>59.2</ele>
        <time>2015-12-27T10:50:39Z</time>
      </trkpt>
      <trkpt lat="47.32117" lon="-0.76405">
        <ele>58.8</ele>
        <time>2015-12-27T10:50:40Z</time>
      </trkpt>
      <trkpt lat="47.32117" lon="-0.76391">
        <ele>57.8</ele>
        <time>2015-12-27T10:50:41Z</time>
      </trkpt>
      <trkpt lat="47.32117" lon="-0.76377">
        <ele>57.4</ele>
        <time>2015-12-27T10:50:42Z</time>
      </trkpt>
      <trkpt lat="47.32118" lon="-0.76364">
        <ele>56.8</ele>
        <time>2015-12-27T10:50:43Z</time>
      </trkpt>
      <trkpt lat="47.32119" lon="-0.76338">
        <ele>56</ele>
        <time>2015-12-27T10:50:45Z</time>
      </trkpt>
      <trkpt lat="47.32121" lon="-0.76325">
        <ele>55.3</ele>
        <time>2015-12-27T10:50:46Z</time>
      </trkpt>
      <trkpt lat="47.32122" lon="-0.76311">
        <ele>54.7</ele>
        <time>2015-12-27T10:50:47Z</time>
      </trkpt>
      <trkpt lat="47.32123" lon="-0.76297">
        <ele>54.3</ele>
        <time>2015-12-27T10:50:48Z</time>
      </trkpt>
      <trkpt lat="47.32124" lon="-0.76284">
        <ele>53.7</ele>
        <time>2015-12-27T10:50:49Z</time>
      </trkpt>
      <trkpt lat="47.32126" lon="-0.7627">
        <ele>53.5</ele>
        <time>2015-12-27T10:50:50Z</time>
      </trkpt>
      <trkpt lat="47.32127" lon="-0.76256">
        <ele>53.1</ele>
        <time>2015-12-27T10:50:51Z</time>
      </trkpt>
      <trkpt lat="47.32129" lon="-0.76241">
        <ele>52.1</ele>
        <time>2015-12-27T10:50:52Z</time>
      </trkpt>
      <trkpt lat="47.32131" lon="-0.76226">
        <ele>51.4</ele>
        <time>2015-12-27T10:50:53Z</time>
      </trkpt>
      <trkpt lat="47.32132" lon="-0.76211">
        <ele>50</ele>
        <time>2015-12-27T10:50:54Z</time>
      </trkpt>
      <trkpt lat="47.32134" lon="-0.76196">
        <ele>49.5</ele>
        <time>2015-12-27T10:50:55Z</time>
      </trkpt>
      <trkpt lat="47.32135" lon="-0.7618">
        <ele>49.1</ele>
        <time>2015-12-27T10:50:56Z</time>
      </trkpt>
      <trkpt lat="47.32138" lon="-0.76165">
        <ele>48.4</ele>
        <time>2015-12-27T10:50:57Z</time>
      </trkpt>
      <trkpt lat="47.32142" lon="-0.7615">
        <ele>47.7</ele>
        <time>2015-12-27T10:50:58Z</time>
      </trkpt>
      <trkpt lat="47.32146" lon="-0.76134">
        <ele>47.4</ele>
        <time>2015-12-27T10:50:59Z</time>
      </trkpt>
      <trkpt lat="47.3215" lon="-0.76119">
        <ele>46.4</ele>
        <time>2015-12-27T10:51:00Z</time>
      </trkpt>
      <trkpt lat="47.32153" lon="-0.76104">
        <ele>46</ele>
        <time>2015-12-27T10:51:01Z</time>
      </trkpt>
      <trkpt lat="47.32156" lon="-0.76089">
        <ele>44.7</ele>
        <time>2015-12-27T10:51:02Z</time>
      </trkpt>
      <trkpt lat="47.32159" lon="-0.76073">
        <ele>43.4</ele>
        <time>2015-12-27T10:51:03Z</time>
      </trkpt>
      <trkpt lat="47.32161" lon="-0.76058">
        <ele>42.3</ele>
        <time>2015-12-27T10:51:04Z</time>
      </trkpt>
      <trkpt lat="47.32164" lon="-0.76042">
        <ele>41.5</ele>
        <time>2015-12-27T10:51:05Z</time>
      </trkpt>
      <trkpt lat="47.32167" lon="-0.76026">
        <ele>40.8</ele>
        <time>2015-12-27T10:51:06Z</time>
      </trkpt>
      <trkpt lat="47.3217" lon="-0.7601">
        <ele>39.8</ele>
        <time>2015-12-27T10:51:07Z</time>
      </trkpt>
      <trkpt lat="47.32172" lon="-0.75994">
        <ele>39.1</ele>
        <time>2015-12-27T10:51:08Z</time>
      </trkpt>
      <trkpt lat="47.32174" lon="-0.75977">
        <ele>38</ele>
        <time>2015-12-27T10:51:09Z</time>
      </trkpt>
      <trkpt lat="47.32176" lon="-0.75961">
        <ele>36.5</ele>
        <time>2015-12-27T10:51:10Z</time>
      </trkpt>
      <trkpt lat="47.32178" lon="-0.75944">
        <ele>35.6</ele>
        <time>2015-12-27T10:51:11Z</time>
      </trkpt>
      <trkpt lat="47.32179" lon="-0.75927">
        <ele>34.5</ele>
        <time>2015-12-27T10:51:12Z</time>
      </trkpt>
      <trkpt lat="47.32181" lon="-0.75909">
        <ele>32.9</ele>
        <time>2015-12-27T10:51:13Z</time>
      </trkpt>
      <trkpt lat="47.32182" lon="-0.75891">
        <ele>31.7</ele>
        <time>2015-12-27T10:51:14Z</time>
      </trkpt>
      <trkpt lat="47.32184" lon="-0.75873">
        <ele>31</ele>
        <time>2015-12-27T10:51:15Z</time>
      </trkpt>
      <trkpt lat="47.32185" lon="-0.75855">
        <ele>30.5</ele>
        <time>2015-12-27T10:51:16Z</time>
      </trkpt>
      <trkpt lat="47.32188" lon="-0.75838">
        <ele>28.9</ele>
        <time>2015-12-27T10:51:17Z</time>
      </trkpt>
      <trkpt lat="47.32191" lon="-0.75822">
        <ele>28.1</ele>
        <time>2015-12-27T10:51:18Z</time>
      </trkpt>
      <trkpt lat="47.32194" lon="-0.75806">
        <ele>27.4</ele>
        <time>2015-12-27T10:51:19Z</time>
      </trkpt>
      <trkpt lat="47.32197" lon="-0.75792">
        <ele>26.6</ele>
        <time>2015-12-27T10:51:20Z</time>
      </trkpt>
      <trkpt lat="47.32201" lon="-0.75778">
        <ele>24.8</ele>
        <time>2015-12-27T10:51:21Z</time>
      </trkpt>
      <trkpt lat="47.32209" lon="-0.75755">
        <ele>22.6</ele>
        <time>2015-12-27T10:51:23Z</time>
      </trkpt>
      <trkpt lat="47.32214" lon="-0.75734">
        <ele>21.8</ele>
        <time>2015-12-27T10:51:25Z</time>
      </trkpt>
      <trkpt lat="47.32216" lon="-0.75712">
        <ele>19.3</ele>
        <time>2015-12-27T10:51:27Z</time>
      </trkpt>
      <trkpt lat="47.32223" lon="-0.75695">
        <ele>16.7</ele>
        <time>2015-12-27T10:51:29Z</time>
      </trkpt>
      <trkpt lat="47.32227" lon="-0.75683">
        <ele>13.8</ele>
        <time>2015-12-27T10:51:31Z</time>
      </trkpt>
      <trkpt lat="47.32233" lon="-0.7567">
        <ele>11</ele>
        <time>2015-12-27T10:51:33Z</time>
      </trkpt>
      <trkpt lat="47.32239" lon="-0.75636">
        <ele>8.7</ele>
        <time>2015-12-27T10:51:37Z</time>
      </trkpt>
      <trkpt lat="47.3224" lon="-0.75621">
        <ele>6.7</ele>
        <time>2015-12-27T10:51:39Z</time>
      </trkpt>
      <trkpt lat="47.32246" lon="-0.7561">
        <ele>3.8</ele>
        <time>2015-12-27T10:51:43Z</time>
      </trkpt>
      <trkpt lat="47.3225" lon="-0.75596">
        <ele>1.8</ele>
        <time>2015-12-27T10:52:45Z</time>
      </trkpt>
      <trkpt lat="47.32251" lon="-0.75566">
        <ele>1.5</ele>
        <time>2015-12-27T10:52:52Z</time>
      </trkpt>
      <trkpt lat="47.32251" lon="-0.75549">
        <ele>1.2</ele>
        <time>2015-12-27T10:52:55Z</time>
      </trkpt>
      <trkpt lat="47.32254" lon="-0.75533">
        <ele>1.1</ele>
        <time>2015-12-27T10:52:58Z</time>
      </trkpt>
      <trkpt lat="47.3226" lon="-0.7552">
        <ele>1.2</ele>
        <time>2015-12-27T10:53:01Z</time>
      </trkpt>
      <trkpt lat="47.32267" lon="-0.75508">
        <ele>1.1</ele>
        <time>2015-12-27T10:53:04Z</time>
      </trkpt>
      <trkpt lat="47.32275" lon="-0.75495">
        <ele>0.9</ele>
        <time>2015-12-27T10:53:07Z</time>
      </trkpt>
      <trkpt lat="47.32285" lon="-0.75481">
        <ele>0.6</ele>
        <time>2015-12-27T10:53:10Z</time>
      </trkpt>
      <trkpt lat="47.32294" lon="-0.75467">
        <ele>0.5</ele>
        <time>2015-12-27T10:53:13Z</time>
      </trkpt>
      <trkpt lat="47.32301" lon="-0.75459">
        <ele>0.7</ele>
        <time>2015-12-27T10:53:15Z</time>
      </trkpt>
      <trkpt lat="47.32312" lon="-0.75447">
        <ele>0.5</ele>
        <time>2015-12-27T10:53:18Z</time>
      </trkpt>
      <trkpt lat="47.32319" lon="-0.75437">
        <ele>0.9</ele>
        <time>2015-12-27T10:53:20Z</time>
      </trkpt>
      <trkpt lat="47.32325" lon="-0.75426">
        <ele>0.8</ele>
        <time>2015-12-27T10:53:22Z</time>
      </trkpt>
      <trkpt lat="47.32332" lon="-0.75409">
        <ele>0.5</ele>
        <time>2015-12-27T10:53:25Z</time>
      </trkpt>
      <trkpt lat="47.32337" lon="-0.75396">
        <ele>0.3</ele>
        <time>2015-12-27T10:53:27Z</time>
      </trkpt>
      <trkpt lat="47.32341" lon="-0.75383">
        <ele>0.2</ele>
        <time>2015-12-27T10:53:29Z</time>
      </trkpt>
      <trkpt lat="47.32346" lon="-0.75372">
        <ele>0.2</ele>
        <time>2015-12-27T10:53:31Z</time>
      </trkpt>
      <trkpt lat="47.32352" lon="-0.75361">
        <ele>0.1</ele>
        <time>2015-12-27T10:53:33Z</time>
      </trkpt>
      <trkpt lat="47.32359" lon="-0.75351">
        <ele>20.6</ele>
        <time>2015-12-27T10:53:35Z</time>
      </trkpt>
      <trkpt lat="47.32368" lon="-0.75338">
        <ele>-0.2</ele>
        <time>2015-12-27T10:53:38Z</time>
      </trkpt>
      <trkpt lat="47.32376" lon="-0.75327">
        <ele>0.2</ele>
        <time>2015-12-27T10:53:41Z</time>
      </trkpt>
      <trkpt lat="47.32378" lon="-0.75312">
        <ele>-0.3</ele>
        <time>2015-12-27T10:53:45Z</time>
      </trkpt>
      <trkpt lat="47.32377" lon="-0.75296">
        <ele>-0.9</ele>
        <time>2015-12-27T10:53:49Z</time>
      </trkpt>
      <trkpt lat="47.32378" lon="-0.75264">
        <ele>-0.7</ele>
        <time>2015-12-27T10:53:57Z</time>
      </trkpt>
      <trkpt lat="47.32382" lon="-0.75251">
        <ele>-0.9</ele>
        <time>2015-12-27T10:54:10Z</time>
      </trkpt>
      <trkpt lat="47.32374" lon="-0.75244">
        <ele>-1.5</ele>
        <time>2015-12-27T10:55:00Z</time>
      </trkpt>
      <trkpt lat="47.32365" lon="-0.75222">
        <ele>19.7</ele>
        <time>2015-12-27T10:56:40Z</time>
      </trkpt>
      <trkpt lat="47.32348" lon="-0.75198">
        <ele>0.6</ele>
        <time>2015-12-27T10:56:48Z</time>
      </trkpt>
      <trkpt lat="47.32339" lon="-0.75191">
        <ele>0.9</ele>
        <time>2015-12-27T10:56:51Z</time>
      </trkpt>
      <trkpt lat="47.32329" lon="-0.75185">
        <ele>0.8</ele>
        <time>2015-12-27T10:56:54Z</time>
      </trkpt>
      <trkpt lat="47.32319" lon="-0.75182">
        <ele>0.6</ele>
        <time>2015-12-27T10:56:57Z</time>
      </trkpt>
      <trkpt lat="47.32308" lon="-0.75178">
        <ele>-0.1</ele>
        <time>2015-12-27T10:57:00Z</time>
      </trkpt>
      <trkpt lat="47.32298" lon="-0.75171">
        <ele>-0.8</ele>
        <time>2015-12-27T10:57:03Z</time>
      </trkpt>
      <trkpt lat="47.32287" lon="-0.75161">
        <ele>-1.1</ele>
        <time>2015-12-27T10:57:06Z</time>
      </trkpt>
      <trkpt lat="47.32275" lon="-0.75154">
        <ele>-1.4</ele>
        <time>2015-12-27T10:57:09Z</time>
      </trkpt>
      <trkpt lat="47.32263" lon="-0.75151">
        <ele>-1.9</ele>
        <time>2015-12-27T10:57:12Z</time>
      </trkpt>
      <trkpt lat="47.32251" lon="-0.75144">
        <ele>-1.5</ele>
        <time>2015-12-27T10:57:15Z</time>
      </trkpt>
      <trkpt lat="47.32241" lon="-0.75134">
        <ele>-1.1</ele>
        <time>2015-12-27T10:57:18Z</time>
      </trkpt>
      <trkpt lat="47.32234" lon="-0.75119">
        <ele>-0.9</ele>
        <time>2015-12-27T10:57:21Z</time>
      </trkpt>
      <trkpt lat="47.32227" lon="-0.75102">
        <ele>-0.7</ele>
        <time>2015-12-27T10:57:24Z</time>
      </trkpt>
      <trkpt lat="47.32222" lon="-0.75086">
        <ele>-0.3</ele>
        <time>2015-12-27T10:57:27Z</time>
      </trkpt>
      <trkpt lat="47.32215" lon="-0.75071">
        <ele>-0.2</ele>
        <time>2015-12-27T10:57:30Z</time>
      </trkpt>
      <trkpt lat="47.3221" lon="-0.75059">
        <ele>19.5</ele>
        <time>2015-12-27T10:57:32Z</time>
      </trkpt>
      <trkpt lat="47.32203" lon="-0.75042">
        <ele>0.3</ele>
        <time>2015-12-27T10:57:35Z</time>
      </trkpt>
      <trkpt lat="47.32201" lon="-0.75028">
        <ele>0.4</ele>
        <time>2015-12-27T10:57:37Z</time>
      </trkpt>
      <trkpt lat="47.32201" lon="-0.75013">
        <ele>0.5</ele>
        <time>2015-12-27T10:57:39Z</time>
      </trkpt>
      <trkpt lat="47.32203" lon="-0.74998">
        <ele>0.6</ele>
        <time>2015-12-27T10:57:41Z</time>
      </trkpt>
      <trkpt lat="47.32215" lon="-0.74975">
        <ele>0.6</ele>
        <time>2015-12-27T10:57:45Z</time>
      </trkpt>
      <trkpt lat="47.32221" lon="-0.74965">
        <ele>0.5</ele>
        <time>2015-12-27T10:57:47Z</time>
      </trkpt>
      <trkpt lat="47.32228" lon="-0.74955">
        <ele>0.3</ele>
        <time>2015-12-27T10:57:49Z</time>
      </trkpt>
      <trkpt lat="47.32235" lon="-0.74945">
        <ele>0.2</ele>
        <time>2015-12-27T10:57:51Z</time>
      </trkpt>
      <trkpt lat="47.32243" lon="-0.74935">
        <ele>18.9</ele>
        <time>2015-12-27T10:57:53Z</time>
      </trkpt>
      <trkpt lat="47.32251" lon="-0.74926">
        <ele>-0.1</ele>
        <time>2015-12-27T10:57:55Z</time>
      </trkpt>
      <trkpt lat="47.32258" lon="-0.74918">
        <ele>-0.3</ele>
        <time>2015-12-27T10:57:57Z</time>
      </trkpt>
      <trkpt lat="47.32269" lon="-0.74906">
        <ele>-0.1</ele>
        <time>2015-12-27T10:58:00Z</time>
      </trkpt>
      <trkpt lat="47.32279" lon="-0.74894">
        <ele>0.4</ele>
        <time>2015-12-27T10:58:03Z</time>
      </trkpt>
      <trkpt lat="47.32286" lon="-0.74885">
        <ele>0.3</ele>
        <time>2015-12-27T10:58:05Z</time>
      </trkpt>
      <trkpt lat="47.32294" lon="-0.74875">
        <ele>19.9</ele>
        <time>2015-12-27T10:58:07Z</time>
      </trkpt>
      <trkpt lat="47.32301" lon="-0.74865">
        <ele>-0.2</ele>
        <time>2015-12-27T10:58:09Z</time>
      </trkpt>
      <trkpt lat="47.32308" lon="-0.74854">
        <ele>-0.2</ele>
        <time>2015-12-27T10:58:11Z</time>
      </trkpt>
      <trkpt lat="47.32316" lon="-0.74842">
        <ele>-0.4</ele>
        <time>2015-12-27T10:58:13Z</time>
      </trkpt>
      <trkpt lat="47.32323" lon="-0.7483">
        <ele>-0.1</ele>
        <time>2015-12-27T10:58:15Z</time>
      </trkpt>
      <trkpt lat="47.32327" lon="-0.74818">
        <ele>0.3</ele>
        <time>2015-12-27T10:58:17Z</time>
      </trkpt>
      <trkpt lat="47.32332" lon="-0.74805">
        <ele>0.7</ele>
        <time>2015-12-27T10:58:19Z</time>
      </trkpt>
      <trkpt lat="47.32339" lon="-0.74789">
        <ele>1.3</ele>
        <time>2015-12-27T10:58:22Z</time>
      </trkpt>
      <trkpt lat="47.32344" lon="-0.74778">
        <ele>1.4</ele>
        <time>2015-12-27T10:58:24Z</time>
      </trkpt>
      <trkpt lat="47.3235" lon="-0.74766">
        <ele>1.3</ele>
        <time>2015-12-27T10:58:26Z</time>
      </trkpt>
      <trkpt lat="47.32359" lon="-0.74757">
        <ele>1</ele>
        <time>2015-12-27T10:58:28Z</time>
      </trkpt>
      <trkpt lat="47.32365" lon="-0.74748">
        <ele>0.8</ele>
        <time>2015-12-27T10:58:30Z</time>
      </trkpt>
      <trkpt lat="47.32374" lon="-0.74737">
        <ele>0.6</ele>
        <time>2015-12-27T10:58:32Z</time>
      </trkpt>
      <trkpt lat="47.32382" lon="-0.74725">
        <ele>0.6</ele>
        <time>2015-12-27T10:58:34Z</time>
      </trkpt>
      <trkpt lat="47.3239" lon="-0.74714">
        <ele>0.6</ele>
        <time>2015-12-27T10:58:36Z</time>
      </trkpt>
      <trkpt lat="47.32397" lon="-0.74703">
        <ele>0.4</ele>
        <time>2015-12-27T10:58:38Z</time>
      </trkpt>
      <trkpt lat="47.32402" lon="-0.74693">
        <ele>0.9</ele>
        <time>2015-12-27T10:58:40Z</time>
      </trkpt>
      <trkpt lat="47.32412" lon="-0.7468">
        <ele>1.2</ele>
        <time>2015-12-27T10:58:43Z</time>
      </trkpt>
      <trkpt lat="47.32431" lon="-0.74661">
        <ele>0.3</ele>
        <time>2015-12-27T10:58:47Z</time>
      </trkpt>
      <trkpt lat="47.32441" lon="-0.74651">
        <ele>-0.5</ele>
        <time>2015-12-27T10:58:49Z</time>
      </trkpt>
      <trkpt lat="47.32453" lon="-0.74639">
        <ele>-0.9</ele>
        <time>2015-12-27T10:58:51Z</time>
      </trkpt>
      <trkpt lat="47.32462" lon="-0.74628">
        <ele>-1.6</ele>
        <time>2015-12-27T10:58:53Z</time>
      </trkpt>
      <trkpt lat="47.32471" lon="-0.74618">
        <ele>-1.8</ele>
        <time>2015-12-27T10:58:55Z</time>
      </trkpt>
      <trkpt lat="47.32479" lon="-0.74607">
        <ele>-1.8</ele>
        <time>2015-12-27T10:58:57Z</time>
      </trkpt>
      <trkpt lat="47.32486" lon="-0.74595">
        <ele>-2</ele>
        <time>2015-12-27T10:58:59Z</time>
      </trkpt>
      <trkpt lat="47.32492" lon="-0.74579">
        <ele>-2</ele>
        <time>2015-12-27T10:59:02Z</time>
      </trkpt>
      <trkpt lat="47.32489" lon="-0.74566">
        <ele>-1.1</ele>
        <time>2015-12-27T10:59:07Z</time>
      </trkpt>
      <trkpt lat="47.32481" lon="-0.74555">
        <ele>1.1</ele>
        <time>2015-12-27T10:59:14Z</time>
      </trkpt>
      <trkpt lat="47.32472" lon="-0.74549">
        <ele>3.2</ele>
        <time>2015-12-27T10:59:19Z</time>
      </trkpt>
      <trkpt lat="47.32464" lon="-0.74543">
        <ele>5.4</ele>
        <time>2015-12-27T10:59:25Z</time>
      </trkpt>
      <trkpt lat="47.32455" lon="-0.74537">
        <ele>7.7</ele>
        <time>2015-12-27T10:59:32Z</time>
      </trkpt>
      <trkpt lat="47.32446" lon="-0.74532">
        <ele>10.3</ele>
        <time>2015-12-27T10:59:39Z</time>
      </trkpt>
      <trkpt lat="47.32437" lon="-0.74526">
        <ele>12</ele>
        <time>2015-12-27T10:59:46Z</time>
      </trkpt>
      <trkpt lat="47.32417" lon="-0.74517">
        <ele>16.2</ele>
        <time>2015-12-27T11:00:01Z</time>
      </trkpt>
      <trkpt lat="47.32407" lon="-0.74513">
        <ele>17.3</ele>
        <time>2015-12-27T11:00:07Z</time>
      </trkpt>
      <trkpt lat="47.32398" lon="-0.74509">
        <ele>18.9</ele>
        <time>2015-12-27T11:00:14Z</time>
      </trkpt>
      <trkpt lat="47.32388" lon="-0.74506">
        <ele>20.7</ele>
        <time>2015-12-27T11:00:21Z</time>
      </trkpt>
      <trkpt lat="47.32377" lon="-0.74504">
        <ele>21.9</ele>
        <time>2015-12-27T11:00:27Z</time>
      </trkpt>
      <trkpt lat="47.32367" lon="-0.74504">
        <ele>22.8</ele>
        <time>2015-12-27T11:00:32Z</time>
      </trkpt>
      <trkpt lat="47.32358" lon="-0.74502">
        <ele>24</ele>
        <time>2015-12-27T11:00:36Z</time>
      </trkpt>
      <trkpt lat="47.32348" lon="-0.74502">
        <ele>24.4</ele>
        <time>2015-12-27T11:00:40Z</time>
      </trkpt>
      <trkpt lat="47.32338" lon="-0.74503">
        <ele>25</ele>
        <time>2015-12-27T11:00:44Z</time>
      </trkpt>
      <trkpt lat="47.32329" lon="-0.74504">
        <ele>25.6</ele>
        <time>2015-12-27T11:00:48Z</time>
      </trkpt>
      <trkpt lat="47.3231" lon="-0.74509">
        <ele>27.2</ele>
        <time>2015-12-27T11:00:56Z</time>
      </trkpt>
      <trkpt lat="47.323" lon="-0.74516">
        <ele>28</ele>
        <time>2015-12-27T11:01:01Z</time>
      </trkpt>
      <trkpt lat="47.32291" lon="-0.74524">
        <ele>28.7</ele>
        <time>2015-12-27T11:01:06Z</time>
      </trkpt>
      <trkpt lat="47.32281" lon="-0.7453">
        <ele>29.8</ele>
        <time>2015-12-27T11:01:11Z</time>
      </trkpt>
      <trkpt lat="47.32271" lon="-0.74534">
        <ele>30.4</ele>
        <time>2015-12-27T11:01:16Z</time>
      </trkpt>
      <trkpt lat="47.32261" lon="-0.74536">
        <ele>31.3</ele>
        <time>2015-12-27T11:01:20Z</time>
      </trkpt>
      <trkpt lat="47.32252" lon="-0.74539">
        <ele>32.2</ele>
        <time>2015-12-27T11:01:24Z</time>
      </trkpt>
      <trkpt lat="47.32242" lon="-0.74542">
        <ele>33</ele>
        <time>2015-12-27T11:01:29Z</time>
      </trkpt>
      <trkpt lat="47.32233" lon="-0.74546">
        <ele>34</ele>
        <time>2015-12-27T11:01:33Z</time>
      </trkpt>
      <trkpt lat="47.32223" lon="-0.74551">
        <ele>35.5</ele>
        <time>2015-12-27T11:01:38Z</time>
      </trkpt>
      <trkpt lat="47.32214" lon="-0.74556">
        <ele>36.6</ele>
        <time>2015-12-27T11:01:42Z</time>
      </trkpt>
      <trkpt lat="47.32205" lon="-0.7456">
        <ele>37.9</ele>
        <time>2015-12-27T11:01:46Z</time>
      </trkpt>
      <trkpt lat="47.32195" lon="-0.74566">
        <ele>38.8</ele>
        <time>2015-12-27T11:01:50Z</time>
      </trkpt>
      <trkpt lat="47.32175" lon="-0.74579">
        <ele>40.7</ele>
        <time>2015-12-27T11:01:58Z</time>
      </trkpt>
      <trkpt lat="47.32166" lon="-0.74584">
        <ele>40.7</ele>
        <time>2015-12-27T11:02:04Z</time>
      </trkpt>
      <trkpt lat="47.32163" lon="-0.74572">
        <ele>40.3</ele>
        <time>2015-12-27T11:03:23Z</time>
      </trkpt>
      <trkpt lat="47.32176" lon="-0.74541">
        <ele>39.5</ele>
        <time>2015-12-27T11:03:30Z</time>
      </trkpt>
      <trkpt lat="47.32182" lon="-0.74529">
        <ele>39.1</ele>
        <time>2015-12-27T11:03:32Z</time>
      </trkpt>
      <trkpt lat="47.32189" lon="-0.74516">
        <ele>38.6</ele>
        <time>2015-12-27T11:03:34Z</time>
      </trkpt>
      <trkpt lat="47.32197" lon="-0.74501">
        <ele>37.7</ele>
        <time>2015-12-27T11:03:36Z</time>
      </trkpt>
      <trkpt lat="47.32206" lon="-0.74485">
        <ele>36.5</ele>
        <time>2015-12-27T11:03:38Z</time>
      </trkpt>
      <trkpt lat="47.32217" lon="-0.74468">
        <ele>35.7</ele>
        <time>2015-12-27T11:03:40Z</time>
      </trkpt>
      <trkpt lat="47.32229" lon="-0.74451">
        <ele>34.5</ele>
        <time>2015-12-27T11:03:42Z</time>
      </trkpt>
      <trkpt lat="47.32242" lon="-0.74432">
        <ele>33.1</ele>
        <time>2015-12-27T11:03:44Z</time>
      </trkpt>
      <trkpt lat="47.32249" lon="-0.74421">
        <ele>32.4</ele>
        <time>2015-12-27T11:03:45Z</time>
      </trkpt>
      <trkpt lat="47.32255" lon="-0.74411">
        <ele>31.7</ele>
        <time>2015-12-27T11:03:46Z</time>
      </trkpt>
      <trkpt lat="47.32262" lon="-0.744">
        <ele>30.8</ele>
        <time>2015-12-27T11:03:47Z</time>
      </trkpt>
      <trkpt lat="47.3227" lon="-0.74388">
        <ele>30.1</ele>
        <time>2015-12-27T11:03:48Z</time>
      </trkpt>
      <trkpt lat="47.32277" lon="-0.74377">
        <ele>29.3</ele>
        <time>2015-12-27T11:03:49Z</time>
      </trkpt>
      <trkpt lat="47.32284" lon="-0.74365">
        <ele>28.7</ele>
        <time>2015-12-27T11:03:50Z</time>
      </trkpt>
      <trkpt lat="47.32291" lon="-0.74353">
        <ele>27.7</ele>
        <time>2015-12-27T11:03:51Z</time>
      </trkpt>
      <trkpt lat="47.32298" lon="-0.74341">
        <ele>27</ele>
        <time>2015-12-27T11:03:52Z</time>
      </trkpt>
      <trkpt lat="47.32306" lon="-0.74328">
        <ele>26.2</ele>
        <time>2015-12-27T11:03:53Z</time>
      </trkpt>
      <trkpt lat="47.32313" lon="-0.74316">
        <ele>25.1</ele>
        <time>2015-12-27T11:03:54Z</time>
      </trkpt>
      <trkpt lat="47.32321" lon="-0.74303">
        <ele>24.8</ele>
        <time>2015-12-27T11:03:55Z</time>
      </trkpt>
      <trkpt lat="47.32329" lon="-0.74291">
        <ele>23.4</ele>
        <time>2015-12-27T11:03:56Z</time>
      </trkpt>
      <trkpt lat="47.32338" lon="-0.74278">
        <ele>22.5</ele>
        <time>2015-12-27T11:03:57Z</time>
      </trkpt>
      <trkpt lat="47.32347" lon="-0.74265">
        <ele>20.7</ele>
        <time>2015-12-27T11:03:58Z</time>
      </trkpt>
      <trkpt lat="47.32357" lon="-0.74251">
        <ele>18.8</ele>
        <time>2015-12-27T11:03:59Z</time>
      </trkpt>
      <trkpt lat="47.32367" lon="-0.74237">
        <ele>17.3</ele>
        <time>2015-12-27T11:04:00Z</time>
      </trkpt>
      <trkpt lat="47.32377" lon="-0.74223">
        <ele>15.8</ele>
        <time>2015-12-27T11:04:01Z</time>
      </trkpt>
      <trkpt lat="47.32387" lon="-0.74208">
        <ele>14.5</ele>
        <time>2015-12-27T11:04:02Z</time>
      </trkpt>
      <trkpt lat="47.32397" lon="-0.74193">
        <ele>13.6</ele>
        <time>2015-12-27T11:04:03Z</time>
      </trkpt>
      <trkpt lat="47.32407" lon="-0.74178">
        <ele>11.9</ele>
        <time>2015-12-27T11:04:04Z</time>
      </trkpt>
      <trkpt lat="47.32416" lon="-0.74162">
        <ele>10.8</ele>
        <time>2015-12-27T11:04:05Z</time>
      </trkpt>
      <trkpt lat="47.32426" lon="-0.74146">
        <ele>9.4</ele>
        <time>2015-12-27T11:04:06Z</time>
      </trkpt>
      <trkpt lat="47.32436" lon="-0.74131">
        <ele>7.8</ele>
        <time>2015-12-27T11:04:07Z</time>
      </trkpt>
      <trkpt lat="47.32445" lon="-0.74116">
        <ele>7</ele>
        <time>2015-12-27T11:04:08Z</time>
      </trkpt>
      <trkpt lat="47.32454" lon="-0.74101">
        <ele>6.1</ele>
        <time>2015-12-27T11:04:09Z</time>
      </trkpt>
      <trkpt lat="47.32463" lon="-0.74087">
        <ele>5.3</ele>
        <time>2015-12-27T11:04:10Z</time>
      </trkpt>
      <trkpt lat="47.32471" lon="-0.74074">
        <ele>4.3</ele>
        <time>2015-12-27T11:04:11Z</time>
      </trkpt>
      <trkpt lat="47.32478" lon="-0.74062">
        <ele>3.4</ele>
        <time>2015-12-27T11:04:12Z</time>
      </trkpt>
      <trkpt lat="47.32489" lon="-0.74045">
        <ele>1.7</ele>
        <time>2015-12-27T11:04:14Z</time>
      </trkpt>
      <trkpt lat="47.32494" lon="-0.74033">
        <ele>0.7</ele>
        <time>2015-12-27T11:04:16Z</time>
      </trkpt>
      <trkpt lat="47.32498" lon="-0.7402">
        <ele>0.4</ele>
        <time>2015-12-27T11:04:18Z</time>
      </trkpt>
      <trkpt lat="47.32501" lon="-0.74006">
        <ele>0.1</ele>
        <time>2015-12-27T11:04:20Z</time>
      </trkpt>
      <trkpt lat="47.32504" lon="-0.73992">
        <ele>-0.4</ele>
        <time>2015-12-27T11:04:22Z</time>
      </trkpt>
      <trkpt lat="47.32508" lon="-0.73976">
        <ele>-0.5</ele>
        <time>2015-12-27T11:04:24Z</time>
      </trkpt>
      <trkpt lat="47.32518" lon="-0.73945">
        <ele>-0.6</ele>
        <time>2015-12-27T11:04:28Z</time>
      </trkpt>
      <trkpt lat="47.32521" lon="-0.7393">
        <ele>-0.6</ele>
        <time>2015-12-27T11:04:30Z</time>
      </trkpt>
      <trkpt lat="47.32525" lon="-0.73916">
        <ele>-0.4</ele>
        <time>2015-12-27T11:04:32Z</time>
      </trkpt>
      <trkpt lat="47.32529" lon="-0.73903">
        <ele>-0.3</ele>
        <time>2015-12-27T11:04:34Z</time>
      </trkpt>
      <trkpt lat="47.32533" lon="-0.7389">
        <ele>-0.5</ele>
        <time>2015-12-27T11:04:36Z</time>
      </trkpt>
      <trkpt lat="47.32537" lon="-0.73877">
        <ele>-0.6</ele>
        <time>2015-12-27T11:04:38Z</time>
      </trkpt>
      <trkpt lat="47.32542" lon="-0.73863">
        <ele>-0.7</ele>
        <time>2015-12-27T11:04:40Z</time>
      </trkpt>
      <trkpt lat="47.32546" lon="-0.7385">
        <ele>-0.9</ele>
        <time>2015-12-27T11:04:42Z</time>
      </trkpt>
      <trkpt lat="47.32552" lon="-0.73836">
        <ele>-0.9</ele>
        <time>2015-12-27T11:04:44Z</time>
      </trkpt>
      <trkpt lat="47.32558" lon="-0.73823">
        <ele>-1</ele>
        <time>2015-12-27T11:04:46Z</time>
      </trkpt>
      <trkpt lat="47.32565" lon="-0.7381">
        <ele>-0.8</ele>
        <time>2015-12-27T11:04:48Z</time>
      </trkpt>
      <trkpt lat="47.32572" lon="-0.73799">
        <ele>-1</ele>
        <time>2015-12-27T11:04:50Z</time>
      </trkpt>
      <trkpt lat="47.32579" lon="-0.73787">
        <ele>-0.8</ele>
        <time>2015-12-27T11:04:52Z</time>
      </trkpt>
      <trkpt lat="47.32586" lon="-0.73776">
        <ele>-0.8</ele>
        <time>2015-12-27T11:04:54Z</time>
      </trkpt>
      <trkpt lat="47.32592" lon="-0.73765">
        <ele>-0.7</ele>
        <time>2015-12-27T11:04:56Z</time>
      </trkpt>
      <trkpt lat="47.32602" lon="-0.73752">
        <ele>-0.5</ele>
        <time>2015-12-27T11:04:59Z</time>
      </trkpt>
      <trkpt lat="47.3261" lon="-0.73739">
        <ele>-0.4</ele>
        <time>2015-12-27T11:05:02Z</time>
      </trkpt>
      <trkpt lat="47.32619" lon="-0.73727">
        <ele>-0.2</ele>
        <time>2015-12-27T11:05:05Z</time>
      </trkpt>
      <trkpt lat="47.32626" lon="-0.73715">
        <ele>0.1</ele>
        <time>2015-12-27T11:05:08Z</time>
      </trkpt>
      <trkpt lat="47.32634" lon="-0.73702">
        <ele>0.3</ele>
        <time>2015-12-27T11:05:11Z</time>
      </trkpt>
      <trkpt lat="47.32642" lon="-0.7369">
        <ele>0.6</ele>
        <time>2015-12-27T11:05:14Z</time>
      </trkpt>
      <trkpt lat="47.3265" lon="-0.73678">
        <ele>0.9</ele>
        <time>2015-12-27T11:05:17Z</time>
      </trkpt>
      <trkpt lat="47.32659" lon="-0.73666">
        <ele>0.6</ele>
        <time>2015-12-27T11:05:20Z</time>
      </trkpt>
      <trkpt lat="47.32665" lon="-0.73656">
        <ele>0.7</ele>
        <time>2015-12-27T11:05:22Z</time>
      </trkpt>
      <trkpt lat="47.32675" lon="-0.73643">
        <ele>0.6</ele>
        <time>2015-12-27T11:05:25Z</time>
      </trkpt>
      <trkpt lat="47.32691" lon="-0.7362">
        <ele>0.5</ele>
        <time>2015-12-27T11:05:30Z</time>
      </trkpt>
      <trkpt lat="47.32697" lon="-0.7361">
        <ele>0.7</ele>
        <time>2015-12-27T11:05:32Z</time>
      </trkpt>
      <trkpt lat="47.32706" lon="-0.73598">
        <ele>0.6</ele>
        <time>2015-12-27T11:05:35Z</time>
      </trkpt>
      <trkpt lat="47.32713" lon="-0.7359">
        <ele>0.7</ele>
        <time>2015-12-27T11:05:38Z</time>
      </trkpt>
      <trkpt lat="47.32721" lon="-0.7358">
        <ele>1</ele>
        <time>2015-12-27T11:05:44Z</time>
      </trkpt>
      <trkpt lat="47.32728" lon="-0.73573">
        <ele>1.5</ele>
        <time>2015-12-27T11:05:57Z</time>
      </trkpt>
      <trkpt lat="47.32736" lon="-0.73565">
        <ele>2.1</ele>
        <time>2015-12-27T11:06:09Z</time>
      </trkpt>
      <trkpt lat="47.32745" lon="-0.73557">
        <ele>2</ele>
        <time>2015-12-27T11:06:18Z</time>
      </trkpt>
      <trkpt lat="47.32753" lon="-0.73546">
        <ele>2.1</ele>
        <time>2015-12-27T11:06:24Z</time>
      </trkpt>
      <trkpt lat="47.32761" lon="-0.73538">
        <ele>2.3</ele>
        <time>2015-12-27T11:06:29Z</time>
      </trkpt>
      <trkpt lat="47.32777" lon="-0.73522">
        <ele>2.4</ele>
        <time>2015-12-27T11:06:38Z</time>
      </trkpt>
      <trkpt lat="47.32784" lon="-0.73514">
        <ele>2.4</ele>
        <time>2015-12-27T11:06:42Z</time>
      </trkpt>
      <trkpt lat="47.32792" lon="-0.73503">
        <ele>2.6</ele>
        <time>2015-12-27T11:06:46Z</time>
      </trkpt>
      <trkpt lat="47.32799" lon="-0.73494">
        <ele>2.7</ele>
        <time>2015-12-27T11:06:49Z</time>
      </trkpt>
      <trkpt lat="47.32806" lon="-0.73482">
        <ele>2.6</ele>
        <time>2015-12-27T11:06:52Z</time>
      </trkpt>
      <trkpt lat="47.32813" lon="-0.73468">
        <ele>2.4</ele>
        <time>2015-12-27T11:06:55Z</time>
      </trkpt>
      <trkpt lat="47.32821" lon="-0.73453">
        <ele>2</ele>
        <time>2015-12-27T11:06:58Z</time>
      </trkpt>
      <trkpt lat="47.32828" lon="-0.73435">
        <ele>2.1</ele>
        <time>2015-12-27T11:07:01Z</time>
      </trkpt>
      <trkpt lat="47.32832" lon="-0.73423">
        <ele>2.2</ele>
        <time>2015-12-27T11:07:03Z</time>
      </trkpt>
      <trkpt lat="47.32836" lon="-0.73409">
        <ele>2.2</ele>
        <time>2015-12-27T11:07:05Z</time>
      </trkpt>
      <trkpt lat="47.3284" lon="-0.73397">
        <ele>2.4</ele>
        <time>2015-12-27T11:07:07Z</time>
      </trkpt>
      <trkpt lat="47.32843" lon="-0.73378">
        <ele>2.5</ele>
        <time>2015-12-27T11:07:10Z</time>
      </trkpt>
      <trkpt lat="47.32847" lon="-0.73363">
        <ele>2.4</ele>
        <time>2015-12-27T11:07:13Z</time>
      </trkpt>
      <trkpt lat="47.3285" lon="-0.73349">
        <ele>2.5</ele>
        <time>2015-12-27T11:07:16Z</time>
      </trkpt>
      <trkpt lat="47.32854" lon="-0.73333">
        <ele>2.5</ele>
        <time>2015-12-27T11:07:19Z</time>
      </trkpt>
      <trkpt lat="47.32858" lon="-0.73315">
        <ele>2.1</ele>
        <time>2015-12-27T11:07:22Z</time>
      </trkpt>
      <trkpt lat="47.32862" lon="-0.73298">
        <ele>1.9</ele>
        <time>2015-12-27T11:07:25Z</time>
      </trkpt>
      <trkpt lat="47.32864" lon="-0.73281">
        <ele>2.1</ele>
        <time>2015-12-27T11:07:28Z</time>
      </trkpt>
      <trkpt lat="47.32866" lon="-0.73263">
        <ele>2.5</ele>
        <time>2015-12-27T11:07:31Z</time>
      </trkpt>
      <trkpt lat="47.32866" lon="-0.73233">
        <ele>2.7</ele>
        <time>2015-12-27T11:07:37Z</time>
      </trkpt>
      <trkpt lat="47.32865" lon="-0.73218">
        <ele>2.8</ele>
        <time>2015-12-27T11:07:40Z</time>
      </trkpt>
      <trkpt lat="47.32863" lon="-0.73203">
        <ele>2.9</ele>
        <time>2015-12-27T11:07:44Z</time>
      </trkpt>
      <trkpt lat="47.32861" lon="-0.73187">
        <ele>2.8</ele>
        <time>2015-12-27T11:07:48Z</time>
      </trkpt>
      <trkpt lat="47.32857" lon="-0.73171">
        <ele>3.2</ele>
        <time>2015-12-27T11:07:52Z</time>
      </trkpt>
      <trkpt lat="47.32854" lon="-0.73155">
        <ele>3.7</ele>
        <time>2015-12-27T11:07:56Z</time>
      </trkpt>
      <trkpt lat="47.32852" lon="-0.73142">
        <ele>4</ele>
        <time>2015-12-27T11:07:59Z</time>
      </trkpt>
      <trkpt lat="47.3285" lon="-0.73128">
        <ele>4.2</ele>
        <time>2015-12-27T11:08:02Z</time>
      </trkpt>
      <trkpt lat="47.32848" lon="-0.73112">
        <ele>4.5</ele>
        <time>2015-12-27T11:08:05Z</time>
      </trkpt>
      <trkpt lat="47.32846" lon="-0.73097">
        <ele>4.7</ele>
        <time>2015-12-27T11:08:08Z</time>
      </trkpt>
      <trkpt lat="47.32844" lon="-0.73081">
        <ele>5.1</ele>
        <time>2015-12-27T11:08:11Z</time>
      </trkpt>
      <trkpt lat="47.32843" lon="-0.73066">
        <ele>5.1</ele>
        <time>2015-12-27T11:08:14Z</time>
      </trkpt>
      <trkpt lat="47.32842" lon="-0.73051">
        <ele>5.2</ele>
        <time>2015-12-27T11:08:17Z</time>
      </trkpt>
      <trkpt lat="47.32843" lon="-0.73034">
        <ele>5.6</ele>
        <time>2015-12-27T11:08:20Z</time>
      </trkpt>
      <trkpt lat="47.32846" lon="-0.73018">
        <ele>5.9</ele>
        <time>2015-12-27T11:08:23Z</time>
      </trkpt>
      <trkpt lat="47.3285" lon="-0.73001">
        <ele>6.1</ele>
        <time>2015-12-27T11:08:26Z</time>
      </trkpt>
      <trkpt lat="47.32855" lon="-0.72987">
        <ele>5.9</ele>
        <time>2015-12-27T11:08:29Z</time>
      </trkpt>
      <trkpt lat="47.32859" lon="-0.72973">
        <ele>6.1</ele>
        <time>2015-12-27T11:08:32Z</time>
      </trkpt>
      <trkpt lat="47.32868" lon="-0.72944">
        <ele>6.4</ele>
        <time>2015-12-27T11:08:38Z</time>
      </trkpt>
      <trkpt lat="47.3287" lon="-0.72928">
        <ele>6.8</ele>
        <time>2015-12-27T11:08:41Z</time>
      </trkpt>
      <trkpt lat="47.32871" lon="-0.72914">
        <ele>7</ele>
        <time>2015-12-27T11:08:44Z</time>
      </trkpt>
      <trkpt lat="47.32871" lon="-0.72901">
        <ele>7.1</ele>
        <time>2015-12-27T11:08:47Z</time>
      </trkpt>
      <trkpt lat="47.32871" lon="-0.72887">
        <ele>7.3</ele>
        <time>2015-12-27T11:08:50Z</time>
      </trkpt>
      <trkpt lat="47.3287" lon="-0.72871">
        <ele>7.4</ele>
        <time>2015-12-27T11:08:53Z</time>
      </trkpt>
      <trkpt lat="47.32869" lon="-0.72856">
        <ele>7.9</ele>
        <time>2015-12-27T11:08:56Z</time>
      </trkpt>
      <trkpt lat="47.32868" lon="-0.72838">
        <ele>7.8</ele>
        <time>2015-12-27T11:08:59Z</time>
      </trkpt>
      <trkpt lat="47.32866" lon="-0.72822">
        <ele>8</ele>
        <time>2015-12-27T11:09:02Z</time>
      </trkpt>
      <trkpt lat="47.32865" lon="-0.72805">
        <ele>8.5</ele>
        <time>2015-12-27T11:09:05Z</time>
      </trkpt>
      <trkpt lat="47.32864" lon="-0.72788">
        <ele>8.6</ele>
        <time>2015-12-27T11:09:08Z</time>
      </trkpt>
      <trkpt lat="47.32862" lon="-0.7277">
        <ele>8.9</ele>
        <time>2015-12-27T11:09:11Z</time>
      </trkpt>
      <trkpt lat="47.3286" lon="-0.72751">
        <ele>8.6</ele>
        <time>2015-12-27T11:09:14Z</time>
      </trkpt>
      <trkpt lat="47.32859" lon="-0.72737">
        <ele>8.8</ele>
        <time>2015-12-27T11:09:16Z</time>
      </trkpt>
      <trkpt lat="47.32858" lon="-0.72724">
        <ele>8.6</ele>
        <time>2015-12-27T11:09:18Z</time>
      </trkpt>
      <trkpt lat="47.32856" lon="-0.7271">
        <ele>8.3</ele>
        <time>2015-12-27T11:09:20Z</time>
      </trkpt>
      <trkpt lat="47.32854" lon="-0.72697">
        <ele>8.1</ele>
        <time>2015-12-27T11:09:22Z</time>
      </trkpt>
      <trkpt lat="47.32851" lon="-0.72683">
        <ele>7.9</ele>
        <time>2015-12-27T11:09:24Z</time>
      </trkpt>
      <trkpt lat="47.32846" lon="-0.72671">
        <ele>7.8</ele>
        <time>2015-12-27T11:09:26Z</time>
      </trkpt>
      <trkpt lat="47.32839" lon="-0.72658">
        <ele>7.8</ele>
        <time>2015-12-27T11:09:28Z</time>
      </trkpt>
      <trkpt lat="47.32832" lon="-0.72646">
        <ele>7.6</ele>
        <time>2015-12-27T11:09:30Z</time>
      </trkpt>
      <trkpt lat="47.32825" lon="-0.72635">
        <ele>7.5</ele>
        <time>2015-12-27T11:09:32Z</time>
      </trkpt>
      <trkpt lat="47.32819" lon="-0.72623">
        <ele>7.3</ele>
        <time>2015-12-27T11:09:34Z</time>
      </trkpt>
      <trkpt lat="47.32809" lon="-0.72596">
        <ele>7.5</ele>
        <time>2015-12-27T11:09:38Z</time>
      </trkpt>
      <trkpt lat="47.32804" lon="-0.72577">
        <ele>7.3</ele>
        <time>2015-12-27T11:09:41Z</time>
      </trkpt>
      <trkpt lat="47.32801" lon="-0.72564">
        <ele>7.1</ele>
        <time>2015-12-27T11:09:43Z</time>
      </trkpt>
      <trkpt lat="47.32797" lon="-0.72551">
        <ele>7.2</ele>
        <time>2015-12-27T11:09:45Z</time>
      </trkpt>
      <trkpt lat="47.32794" lon="-0.72538">
        <ele>7.2</ele>
        <time>2015-12-27T11:09:47Z</time>
      </trkpt>
      <trkpt lat="47.32791" lon="-0.72524">
        <ele>7</ele>
        <time>2015-12-27T11:09:49Z</time>
      </trkpt>
      <trkpt lat="47.32788" lon="-0.72512">
        <ele>6.8</ele>
        <time>2015-12-27T11:09:51Z</time>
      </trkpt>
      <trkpt lat="47.32785" lon="-0.72498">
        <ele>6.6</ele>
        <time>2015-12-27T11:09:54Z</time>
      </trkpt>
      <trkpt lat="47.32774" lon="-0.72494">
        <ele>6.7</ele>
        <time>2015-12-27T11:09:58Z</time>
      </trkpt>
      <trkpt lat="47.32764" lon="-0.72495">
        <ele>7.3</ele>
        <time>2015-12-27T11:10:02Z</time>
      </trkpt>
      <trkpt lat="47.32758" lon="-0.7251">
        <ele>7.6</ele>
        <time>2015-12-27T11:10:06Z</time>
      </trkpt>
      <trkpt lat="47.32754" lon="-0.72526">
        <ele>8.3</ele>
        <time>2015-12-27T11:10:10Z</time>
      </trkpt>
      <trkpt lat="47.32743" lon="-0.72533">
        <ele>8.5</ele>
        <time>2015-12-27T11:10:14Z</time>
      </trkpt>
      <trkpt lat="47.32733" lon="-0.72526">
        <ele>9</ele>
        <time>2015-12-27T11:10:18Z</time>
      </trkpt>
      <trkpt lat="47.32726" lon="-0.72516">
        <ele>9.2</ele>
        <time>2015-12-27T11:10:21Z</time>
      </trkpt>
      <trkpt lat="47.32719" lon="-0.72504">
        <ele>9.6</ele>
        <time>2015-12-27T11:10:25Z</time>
      </trkpt>
      <trkpt lat="47.32713" lon="-0.72492">
        <ele>10.1</ele>
        <time>2015-12-27T11:10:29Z</time>
      </trkpt>
      <trkpt lat="47.32705" lon="-0.7248">
        <ele>10.4</ele>
        <time>2015-12-27T11:10:34Z</time>
      </trkpt>
      <trkpt lat="47.32697" lon="-0.72472">
        <ele>10.7</ele>
        <time>2015-12-27T11:10:38Z</time>
      </trkpt>
      <trkpt lat="47.32676" lon="-0.7246">
        <ele>11.5</ele>
        <time>2015-12-27T11:10:48Z</time>
      </trkpt>
      <trkpt lat="47.32667" lon="-0.72455">
        <ele>12.2</ele>
        <time>2015-12-27T11:10:53Z</time>
      </trkpt>
      <trkpt lat="47.32657" lon="-0.72448">
        <ele>13</ele>
        <time>2015-12-27T11:10:58Z</time>
      </trkpt>
      <trkpt lat="47.32649" lon="-0.72443">
        <ele>14.1</ele>
        <time>2015-12-27T11:11:03Z</time>
      </trkpt>
      <trkpt lat="47.32639" lon="-0.72437">
        <ele>14.5</ele>
        <time>2015-12-27T11:11:09Z</time>
      </trkpt>
      <trkpt lat="47.3263" lon="-0.72437">
        <ele>15.8</ele>
        <time>2015-12-27T11:11:15Z</time>
      </trkpt>
      <trkpt lat="47.32621" lon="-0.72442">
        <ele>16.5</ele>
        <time>2015-12-27T11:11:21Z</time>
      </trkpt>
      <trkpt lat="47.32612" lon="-0.72451">
        <ele>19.4</ele>
        <time>2015-12-27T11:11:33Z</time>
      </trkpt>
      <trkpt lat="47.32604" lon="-0.72457">
        <ele>20.7</ele>
        <time>2015-12-27T11:11:40Z</time>
      </trkpt>
      <trkpt lat="47.32586" lon="-0.72457">
        <ele>23.9</ele>
        <time>2015-12-27T11:12:16Z</time>
      </trkpt>
      <trkpt lat="47.32577" lon="-0.72457">
        <ele>25.9</ele>
        <time>2015-12-27T11:12:29Z</time>
      </trkpt>
      <trkpt lat="47.32567" lon="-0.72458">
        <ele>27.8</ele>
        <time>2015-12-27T11:12:43Z</time>
      </trkpt>
      <trkpt lat="47.32548" lon="-0.72457">
        <ele>32.5</ele>
        <time>2015-12-27T11:13:08Z</time>
      </trkpt>
      <trkpt lat="47.32539" lon="-0.72455">
        <ele>34.8</ele>
        <time>2015-12-27T11:13:21Z</time>
      </trkpt>
      <trkpt lat="47.32529" lon="-0.72455">
        <ele>35.9</ele>
        <time>2015-12-27T11:13:32Z</time>
      </trkpt>
      <trkpt lat="47.3252" lon="-0.72458">
        <ele>37.4</ele>
        <time>2015-12-27T11:13:40Z</time>
      </trkpt>
      <trkpt lat="47.32511" lon="-0.72461">
        <ele>39.1</ele>
        <time>2015-12-27T11:13:49Z</time>
      </trkpt>
      <trkpt lat="47.32492" lon="-0.72464">
        <ele>42</ele>
        <time>2015-12-27T11:14:09Z</time>
      </trkpt>
      <trkpt lat="47.32483" lon="-0.72467">
        <ele>42.8</ele>
        <time>2015-12-27T11:14:16Z</time>
      </trkpt>
      <trkpt lat="47.32474" lon="-0.7247">
        <ele>44.5</ele>
        <time>2015-12-27T11:14:22Z</time>
      </trkpt>
      <trkpt lat="47.32464" lon="-0.72475">
        <ele>45.3</ele>
        <time>2015-12-27T11:14:28Z</time>
      </trkpt>
      <trkpt lat="47.32455" lon="-0.72478">
        <ele>46.3</ele>
        <time>2015-12-27T11:14:33Z</time>
      </trkpt>
      <trkpt lat="47.32445" lon="-0.72481">
        <ele>46.7</ele>
        <time>2015-12-27T11:14:38Z</time>
      </trkpt>
      <trkpt lat="47.32434" lon="-0.72484">
        <ele>47.6</ele>
        <time>2015-12-27T11:14:43Z</time>
      </trkpt>
      <trkpt lat="47.32424" lon="-0.72487">
        <ele>48.7</ele>
        <time>2015-12-27T11:14:48Z</time>
      </trkpt>
      <trkpt lat="47.32413" lon="-0.7249">
        <ele>49.8</ele>
        <time>2015-12-27T11:14:53Z</time>
      </trkpt>
      <trkpt lat="47.32394" lon="-0.72494">
        <ele>51.3</ele>
        <time>2015-12-27T11:15:04Z</time>
      </trkpt>
      <trkpt lat="47.32385" lon="-0.725">
        <ele>51.7</ele>
        <time>2015-12-27T11:15:10Z</time>
      </trkpt>
      <trkpt lat="47.32376" lon="-0.72506">
        <ele>53.2</ele>
        <time>2015-12-27T11:15:17Z</time>
      </trkpt>
      <trkpt lat="47.32367" lon="-0.72504">
        <ele>53.3</ele>
        <time>2015-12-27T11:15:28Z</time>
      </trkpt>
      <trkpt lat="47.32357" lon="-0.72505">
        <ele>53.8</ele>
        <time>2015-12-27T11:15:36Z</time>
      </trkpt>
      <trkpt lat="47.32346" lon="-0.72504">
        <ele>54.3</ele>
        <time>2015-12-27T11:15:42Z</time>
      </trkpt>
      <trkpt lat="47.32336" lon="-0.72504">
        <ele>54.6</ele>
        <time>2015-12-27T11:15:47Z</time>
      </trkpt>
      <trkpt lat="47.32327" lon="-0.72502">
        <ele>55</ele>
        <time>2015-12-27T11:15:52Z</time>
      </trkpt>
      <trkpt lat="47.32318" lon="-0.72499">
        <ele>55.4</ele>
        <time>2015-12-27T11:15:58Z</time>
      </trkpt>
      <trkpt lat="47.32315" lon="-0.72466">
        <ele>56.4</ele>
        <time>2015-12-27T11:16:12Z</time>
      </trkpt>
      <trkpt lat="47.32317" lon="-0.72452">
        <ele>56.2</ele>
        <time>2015-12-27T11:16:15Z</time>
      </trkpt>
      <trkpt lat="47.32318" lon="-0.72437">
        <ele>56.1</ele>
        <time>2015-12-27T11:16:18Z</time>
      </trkpt>
      <trkpt lat="47.32318" lon="-0.72421">
        <ele>56.1</ele>
        <time>2015-12-27T11:16:21Z</time>
      </trkpt>
      <trkpt lat="47.32318" lon="-0.72404">
        <ele>55.9</ele>
        <time>2015-12-27T11:16:24Z</time>
      </trkpt>
      <trkpt lat="47.32317" lon="-0.72388">
        <ele>56.2</ele>
        <time>2015-12-27T11:16:27Z</time>
      </trkpt>
      <trkpt lat="47.32315" lon="-0.72373">
        <ele>56.1</ele>
        <time>2015-12-27T11:16:30Z</time>
      </trkpt>
      <trkpt lat="47.32313" lon="-0.7236">
        <ele>55.8</ele>
        <time>2015-12-27T11:16:33Z</time>
      </trkpt>
      <trkpt lat="47.3232" lon="-0.72346">
        <ele>55.3</ele>
        <time>2015-12-27T11:16:37Z</time>
      </trkpt>
      <trkpt lat="47.32328" lon="-0.72341">
        <ele>54.8</ele>
        <time>2015-12-27T11:16:40Z</time>
      </trkpt>
      <trkpt lat="47.32338" lon="-0.72335">
        <ele>54.5</ele>
        <time>2015-12-27T11:16:43Z</time>
      </trkpt>
      <trkpt lat="47.32348" lon="-0.7233">
        <ele>54.6</ele>
        <time>2015-12-27T11:16:46Z</time>
      </trkpt>
      <trkpt lat="47.32358" lon="-0.72325">
        <ele>53.5</ele>
        <time>2015-12-27T11:16:49Z</time>
      </trkpt>
      <trkpt lat="47.32367" lon="-0.7232">
        <ele>53</ele>
        <time>2015-12-27T11:16:52Z</time>
      </trkpt>
      <trkpt lat="47.32378" lon="-0.72315">
        <ele>52.1</ele>
        <time>2015-12-27T11:16:56Z</time>
      </trkpt>
      <trkpt lat="47.3239" lon="-0.72308">
        <ele>50.7</ele>
        <time>2015-12-27T11:16:59Z</time>
      </trkpt>
      <trkpt lat="47.3241" lon="-0.72315">
        <ele>49</ele>
        <time>2015-12-27T11:17:05Z</time>
      </trkpt>
      <trkpt lat="47.32418" lon="-0.72323">
        <ele>49.7</ele>
        <time>2015-12-27T11:17:09Z</time>
      </trkpt>
      <trkpt lat="47.32424" lon="-0.72335">
        <ele>50.8</ele>
        <time>2015-12-27T11:17:15Z</time>
      </trkpt>
      <trkpt lat="47.32432" lon="-0.7234">
        <ele>51.1</ele>
        <time>2015-12-27T11:17:21Z</time>
      </trkpt>
      <trkpt lat="47.32442" lon="-0.72335">
        <ele>50.6</ele>
        <time>2015-12-27T11:17:33Z</time>
      </trkpt>
      <trkpt lat="47.32452" lon="-0.72329">
        <ele>49</ele>
        <time>2015-12-27T11:17:36Z</time>
      </trkpt>
      <trkpt lat="47.32461" lon="-0.72323">
        <ele>47.9</ele>
        <time>2015-12-27T11:17:38Z</time>
      </trkpt>
      <trkpt lat="47.32472" lon="-0.72316">
        <ele>45.7</ele>
        <time>2015-12-27T11:17:41Z</time>
      </trkpt>
      <trkpt lat="47.3248" lon="-0.72309">
        <ele>43.3</ele>
        <time>2015-12-27T11:17:46Z</time>
      </trkpt>
      <trkpt lat="47.32483" lon="-0.72296">
        <ele>39.9</ele>
        <time>2015-12-27T11:17:50Z</time>
      </trkpt>
      <trkpt lat="47.32491" lon="-0.72287">
        <ele>35.4</ele>
        <time>2015-12-27T11:18:04Z</time>
      </trkpt>
      <trkpt lat="47.32511" lon="-0.72283">
        <ele>31.3</ele>
        <time>2015-12-27T11:18:20Z</time>
      </trkpt>
      <trkpt lat="47.32521" lon="-0.72277">
        <ele>29.1</ele>
        <time>2015-12-27T11:18:26Z</time>
      </trkpt>
      <trkpt lat="47.32529" lon="-0.7227">
        <ele>27.2</ele>
        <time>2015-12-27T11:18:34Z</time>
      </trkpt>
      <trkpt lat="47.32538" lon="-0.7226">
        <ele>26.1</ele>
        <time>2015-12-27T11:18:38Z</time>
      </trkpt>
      <trkpt lat="47.32545" lon="-0.72253">
        <ele>24.4</ele>
        <time>2015-12-27T11:18:54Z</time>
      </trkpt>
      <trkpt lat="47.32554" lon="-0.72257">
        <ele>23</ele>
        <time>2015-12-27T11:20:40Z</time>
      </trkpt>
      <trkpt lat="47.3257" lon="-0.72276">
        <ele>20.4</ele>
        <time>2015-12-27T11:20:50Z</time>
      </trkpt>
      <trkpt lat="47.32573" lon="-0.7229">
        <ele>19.7</ele>
        <time>2015-12-27T11:21:01Z</time>
      </trkpt>
      <trkpt lat="47.32583" lon="-0.72287">
        <ele>18.1</ele>
        <time>2015-12-27T11:21:07Z</time>
      </trkpt>
      <trkpt lat="47.32592" lon="-0.72281">
        <ele>16.7</ele>
        <time>2015-12-27T11:21:10Z</time>
      </trkpt>
      <trkpt lat="47.32601" lon="-0.72284">
        <ele>15</ele>
        <time>2015-12-27T11:21:13Z</time>
      </trkpt>
      <trkpt lat="47.32611" lon="-0.72287">
        <ele>12.6</ele>
        <time>2015-12-27T11:21:29Z</time>
      </trkpt>
      <trkpt lat="47.32619" lon="-0.72293">
        <ele>10.1</ele>
        <time>2015-12-27T11:21:39Z</time>
      </trkpt>
      <trkpt lat="47.32619" lon="-0.7228">
        <ele>5.5</ele>
        <time>2015-12-27T11:22:11Z</time>
      </trkpt>
      <trkpt lat="47.32596" lon="-0.72253">
        <ele>5</ele>
        <time>2015-12-27T11:23:42Z</time>
      </trkpt>
      <trkpt lat="47.32586" lon="-0.72244">
        <ele>4.7</ele>
        <time>2015-12-27T11:23:46Z</time>
      </trkpt>
      <trkpt lat="47.32578" lon="-0.72234">
        <ele>4.8</ele>
        <time>2015-12-27T11:23:49Z</time>
      </trkpt>
      <trkpt lat="47.3257" lon="-0.72225">
        <ele>4.7</ele>
        <time>2015-12-27T11:23:52Z</time>
      </trkpt>
      <trkpt lat="47.32562" lon="-0.72217">
        <ele>4.5</ele>
        <time>2015-12-27T11:23:55Z</time>
      </trkpt>
      <trkpt lat="47.32553" lon="-0.72206">
        <ele>4.5</ele>
        <time>2015-12-27T11:23:59Z</time>
      </trkpt>
      <trkpt lat="47.32546" lon="-0.72197">
        <ele>3.8</ele>
        <time>2015-12-27T11:24:02Z</time>
      </trkpt>
      <trkpt lat="47.32539" lon="-0.72187">
        <ele>4.1</ele>
        <time>2015-12-27T11:24:05Z</time>
      </trkpt>
      <trkpt lat="47.3253" lon="-0.72175">
        <ele>4</ele>
        <time>2015-12-27T11:24:08Z</time>
      </trkpt>
      <trkpt lat="47.32521" lon="-0.72164">
        <ele>4.2</ele>
        <time>2015-12-27T11:24:11Z</time>
      </trkpt>
      <trkpt lat="47.32512" lon="-0.72153">
        <ele>3.9</ele>
        <time>2015-12-27T11:24:14Z</time>
      </trkpt>
      <trkpt lat="47.32503" lon="-0.72141">
        <ele>3.8</ele>
        <time>2015-12-27T11:24:17Z</time>
      </trkpt>
      <trkpt lat="47.32494" lon="-0.72127">
        <ele>4.2</ele>
        <time>2015-12-27T11:24:20Z</time>
      </trkpt>
      <trkpt lat="47.32488" lon="-0.72117">
        <ele>3.9</ele>
        <time>2015-12-27T11:24:22Z</time>
      </trkpt>
      <trkpt lat="47.32478" lon="-0.72104">
        <ele>3.7</ele>
        <time>2015-12-27T11:24:25Z</time>
      </trkpt>
      <trkpt lat="47.32469" lon="-0.72088">
        <ele>3.3</ele>
        <time>2015-12-27T11:24:28Z</time>
      </trkpt>
      <trkpt lat="47.32463" lon="-0.72077">
        <ele>2.8</ele>
        <time>2015-12-27T11:24:30Z</time>
      </trkpt>
      <trkpt lat="47.32457" lon="-0.72065">
        <ele>2.8</ele>
        <time>2015-12-27T11:24:32Z</time>
      </trkpt>
      <trkpt lat="47.32451" lon="-0.72053">
        <ele>2.9</ele>
        <time>2015-12-27T11:24:34Z</time>
      </trkpt>
      <trkpt lat="47.32444" lon="-0.72041">
        <ele>2.8</ele>
        <time>2015-12-27T11:24:36Z</time>
      </trkpt>
      <trkpt lat="47.32433" lon="-0.72018">
        <ele>2.4</ele>
        <time>2015-12-27T11:24:40Z</time>
      </trkpt>
      <trkpt lat="47.32428" lon="-0.72005">
        <ele>2.3</ele>
        <time>2015-12-27T11:24:42Z</time>
      </trkpt>
      <trkpt lat="47.32424" lon="-0.71993">
        <ele>2.4</ele>
        <time>2015-12-27T11:24:44Z</time>
      </trkpt>
      <trkpt lat="47.32419" lon="-0.71982">
        <ele>2.4</ele>
        <time>2015-12-27T11:24:46Z</time>
      </trkpt>
      <trkpt lat="47.32414" lon="-0.7197">
        <ele>2.4</ele>
        <time>2015-12-27T11:24:48Z</time>
      </trkpt>
      <trkpt lat="47.32408" lon="-0.71953">
        <ele>2.7</ele>
        <time>2015-12-27T11:24:51Z</time>
      </trkpt>
      <trkpt lat="47.32402" lon="-0.71937">
        <ele>2.5</ele>
        <time>2015-12-27T11:24:54Z</time>
      </trkpt>
      <trkpt lat="47.32397" lon="-0.7192">
        <ele>1.9</ele>
        <time>2015-12-27T11:24:57Z</time>
      </trkpt>
      <trkpt lat="47.32391" lon="-0.71904">
        <ele>1.9</ele>
        <time>2015-12-27T11:25:00Z</time>
      </trkpt>
      <trkpt lat="47.32384" lon="-0.71887">
        <ele>2.2</ele>
        <time>2015-12-27T11:25:03Z</time>
      </trkpt>
      <trkpt lat="47.32379" lon="-0.71869">
        <ele>2</ele>
        <time>2015-12-27T11:25:06Z</time>
      </trkpt>
      <trkpt lat="47.32373" lon="-0.71851">
        <ele>2</ele>
        <time>2015-12-27T11:25:09Z</time>
      </trkpt>
      <trkpt lat="47.3237" lon="-0.71838">
        <ele>2</ele>
        <time>2015-12-27T11:25:11Z</time>
      </trkpt>
      <trkpt lat="47.32366" lon="-0.71826">
        <ele>2</ele>
        <time>2015-12-27T11:25:13Z</time>
      </trkpt>
      <trkpt lat="47.32362" lon="-0.71813">
        <ele>2.2</ele>
        <time>2015-12-27T11:25:15Z</time>
      </trkpt>
      <trkpt lat="47.32358" lon="-0.71801">
        <ele>2.7</ele>
        <time>2015-12-27T11:25:17Z</time>
      </trkpt>
      <trkpt lat="47.32352" lon="-0.71785">
        <ele>2.7</ele>
        <time>2015-12-27T11:25:20Z</time>
      </trkpt>
      <trkpt lat="47.32347" lon="-0.71767">
        <ele>2.6</ele>
        <time>2015-12-27T11:25:23Z</time>
      </trkpt>
      <trkpt lat="47.32343" lon="-0.71755">
        <ele>2.2</ele>
        <time>2015-12-27T11:25:25Z</time>
      </trkpt>
      <trkpt lat="47.32339" lon="-0.71743">
        <ele>2.3</ele>
        <time>2015-12-27T11:25:27Z</time>
      </trkpt>
      <trkpt lat="47.32333" lon="-0.71725">
        <ele>2.3</ele>
        <time>2015-12-27T11:25:30Z</time>
      </trkpt>
      <trkpt lat="47.32329" lon="-0.71713">
        <ele>1.8</ele>
        <time>2015-12-27T11:25:32Z</time>
      </trkpt>
      <trkpt lat="47.32325" lon="-0.71701">
        <ele>2.1</ele>
        <time>2015-12-27T11:25:34Z</time>
      </trkpt>
      <trkpt lat="47.32321" lon="-0.71688">
        <ele>2</ele>
        <time>2015-12-27T11:25:36Z</time>
      </trkpt>
      <trkpt lat="47.32315" lon="-0.71671">
        <ele>2.3</ele>
        <time>2015-12-27T11:25:39Z</time>
      </trkpt>
      <trkpt lat="47.32307" lon="-0.71638">
        <ele>1.8</ele>
        <time>2015-12-27T11:25:44Z</time>
      </trkpt>
      <trkpt lat="47.32303" lon="-0.71625">
        <ele>2.1</ele>
        <time>2015-12-27T11:25:46Z</time>
      </trkpt>
      <trkpt lat="47.323" lon="-0.71612">
        <ele>2.2</ele>
        <time>2015-12-27T11:25:48Z</time>
      </trkpt>
      <trkpt lat="47.32296" lon="-0.71599">
        <ele>1.9</ele>
        <time>2015-12-27T11:25:50Z</time>
      </trkpt>
      <trkpt lat="47.32293" lon="-0.7158">
        <ele>1.9</ele>
        <time>2015-12-27T11:25:53Z</time>
      </trkpt>
      <trkpt lat="47.3229" lon="-0.71566">
        <ele>2</ele>
        <time>2015-12-27T11:25:55Z</time>
      </trkpt>
      <trkpt lat="47.32288" lon="-0.71552">
        <ele>2.2</ele>
        <time>2015-12-27T11:25:57Z</time>
      </trkpt>
      <trkpt lat="47.32285" lon="-0.71537">
        <ele>2.2</ele>
        <time>2015-12-27T11:25:59Z</time>
      </trkpt>
      <trkpt lat="47.32284" lon="-0.71523">
        <ele>2.3</ele>
        <time>2015-12-27T11:26:01Z</time>
      </trkpt>
      <trkpt lat="47.32282" lon="-0.71509">
        <ele>2.3</ele>
        <time>2015-12-27T11:26:03Z</time>
      </trkpt>
      <trkpt lat="47.32281" lon="-0.71494">
        <ele>2.3</ele>
        <time>2015-12-27T11:26:05Z</time>
      </trkpt>
      <trkpt lat="47.3228" lon="-0.7148">
        <ele>2.5</ele>
        <time>2015-12-27T11:26:07Z</time>
      </trkpt>
      <trkpt lat="47.32279" lon="-0.71463">
        <ele>2.5</ele>
        <time>2015-12-27T11:26:10Z</time>
      </trkpt>
      <trkpt lat="47.32279" lon="-0.71448">
        <ele>2.5</ele>
        <time>2015-12-27T11:26:13Z</time>
      </trkpt>
      <trkpt lat="47.32281" lon="-0.71432">
        <ele>2.6</ele>
        <time>2015-12-27T11:26:16Z</time>
      </trkpt>
      <trkpt lat="47.3228" lon="-0.71415">
        <ele>2.6</ele>
        <time>2015-12-27T11:26:19Z</time>
      </trkpt>
      <trkpt lat="47.32279" lon="-0.71398">
        <ele>2.5</ele>
        <time>2015-12-27T11:26:22Z</time>
      </trkpt>
      <trkpt lat="47.32277" lon="-0.7138">
        <ele>2</ele>
        <time>2015-12-27T11:26:25Z</time>
      </trkpt>
      <trkpt lat="47.32277" lon="-0.71361">
        <ele>1.8</ele>
        <time>2015-12-27T11:26:28Z</time>
      </trkpt>
      <trkpt lat="47.32278" lon="-0.71346">
        <ele>1.2</ele>
        <time>2015-12-27T11:26:30Z</time>
      </trkpt>
      <trkpt lat="47.32279" lon="-0.71331">
        <ele>1.4</ele>
        <time>2015-12-27T11:26:32Z</time>
      </trkpt>
      <trkpt lat="47.32282" lon="-0.71316">
        <ele>1</ele>
        <time>2015-12-27T11:26:34Z</time>
      </trkpt>
      <trkpt lat="47.32285" lon="-0.71301">
        <ele>1.2</ele>
        <time>2015-12-27T11:26:36Z</time>
      </trkpt>
      <trkpt lat="47.32287" lon="-0.71287">
        <ele>1.2</ele>
        <time>2015-12-27T11:26:38Z</time>
      </trkpt>
      <trkpt lat="47.3229" lon="-0.71274">
        <ele>1</ele>
        <time>2015-12-27T11:26:40Z</time>
      </trkpt>
      <trkpt lat="47.32297" lon="-0.71248">
        <ele>1</ele>
        <time>2015-12-27T11:26:44Z</time>
      </trkpt>
      <trkpt lat="47.32301" lon="-0.71236">
        <ele>1.1</ele>
        <time>2015-12-27T11:26:46Z</time>
      </trkpt>
      <trkpt lat="47.32305" lon="-0.71223">
        <ele>1</ele>
        <time>2015-12-27T11:26:48Z</time>
      </trkpt>
      <trkpt lat="47.32309" lon="-0.71211">
        <ele>1.1</ele>
        <time>2015-12-27T11:26:50Z</time>
      </trkpt>
      <trkpt lat="47.32314" lon="-0.71199">
        <ele>1.1</ele>
        <time>2015-12-27T11:26:52Z</time>
      </trkpt>
      <trkpt lat="47.32319" lon="-0.71187">
        <ele>1.2</ele>
        <time>2015-12-27T11:26:54Z</time>
      </trkpt>
      <trkpt lat="47.32324" lon="-0.71174">
        <ele>0.9</ele>
        <time>2015-12-27T11:26:56Z</time>
      </trkpt>
      <trkpt lat="47.32329" lon="-0.71162">
        <ele>0.9</ele>
        <time>2015-12-27T11:26:58Z</time>
      </trkpt>
      <trkpt lat="47.32334" lon="-0.7115">
        <ele>0.9</ele>
        <time>2015-12-27T11:27:00Z</time>
      </trkpt>
      <trkpt lat="47.32339" lon="-0.71138">
        <ele>1</ele>
        <time>2015-12-27T11:27:02Z</time>
      </trkpt>
      <trkpt lat="47.32344" lon="-0.71125">
        <ele>0.8</ele>
        <time>2015-12-27T11:27:04Z</time>
      </trkpt>
      <trkpt lat="47.32347" lon="-0.71112">
        <ele>0.7</ele>
        <time>2015-12-27T11:27:06Z</time>
      </trkpt>
      <trkpt lat="47.32349" lon="-0.71097">
        <ele>0.9</ele>
        <time>2015-12-27T11:27:08Z</time>
      </trkpt>
      <trkpt lat="47.32351" lon="-0.71084">
        <ele>0.9</ele>
        <time>2015-12-27T11:27:10Z</time>
      </trkpt>
      <trkpt lat="47.32355" lon="-0.7107">
        <ele>0.9</ele>
        <time>2015-12-27T11:27:12Z</time>
      </trkpt>
      <trkpt lat="47.32359" lon="-0.71052">
        <ele>1.3</ele>
        <time>2015-12-27T11:27:15Z</time>
      </trkpt>
      <trkpt lat="47.32359" lon="-0.71033">
        <ele>1.7</ele>
        <time>2015-12-27T11:27:18Z</time>
      </trkpt>
      <trkpt lat="47.32361" lon="-0.71017">
        <ele>1.8</ele>
        <time>2015-12-27T11:27:21Z</time>
      </trkpt>
      <trkpt lat="47.32364" lon="-0.71">
        <ele>1.7</ele>
        <time>2015-12-27T11:27:24Z</time>
      </trkpt>
      <trkpt lat="47.32368" lon="-0.70984">
        <ele>1.9</ele>
        <time>2015-12-27T11:27:27Z</time>
      </trkpt>
      <trkpt lat="47.32377" lon="-0.7097">
        <ele>2.1</ele>
        <time>2015-12-27T11:27:30Z</time>
      </trkpt>
      <trkpt lat="47.32386" lon="-0.70956">
        <ele>1.9</ele>
        <time>2015-12-27T11:27:33Z</time>
      </trkpt>
      <trkpt lat="47.32394" lon="-0.70942">
        <ele>2.7</ele>
        <time>2015-12-27T11:27:36Z</time>
      </trkpt>
      <trkpt lat="47.32402" lon="-0.70929">
        <ele>3.4</ele>
        <time>2015-12-27T11:27:39Z</time>
      </trkpt>
      <trkpt lat="47.3241" lon="-0.70917">
        <ele>3.6</ele>
        <time>2015-12-27T11:27:42Z</time>
      </trkpt>
      <trkpt lat="47.32426" lon="-0.70895">
        <ele>3.5</ele>
        <time>2015-12-27T11:27:48Z</time>
      </trkpt>
      <trkpt lat="47.32435" lon="-0.70884">
        <ele>3.6</ele>
        <time>2015-12-27T11:27:51Z</time>
      </trkpt>
      <trkpt lat="47.32442" lon="-0.70872">
        <ele>3.5</ele>
        <time>2015-12-27T11:27:54Z</time>
      </trkpt>
      <trkpt lat="47.3245" lon="-0.70858">
        <ele>3.6</ele>
        <time>2015-12-27T11:27:57Z</time>
      </trkpt>
      <trkpt lat="47.32457" lon="-0.70843">
        <ele>3.7</ele>
        <time>2015-12-27T11:28:00Z</time>
      </trkpt>
      <trkpt lat="47.32463" lon="-0.70828">
        <ele>3.8</ele>
        <time>2015-12-27T11:28:03Z</time>
      </trkpt>
      <trkpt lat="47.32469" lon="-0.70816">
        <ele>3.8</ele>
        <time>2015-12-27T11:28:06Z</time>
      </trkpt>
      <trkpt lat="47.32476" lon="-0.70804">
        <ele>3.5</ele>
        <time>2015-12-27T11:28:09Z</time>
      </trkpt>
      <trkpt lat="47.32482" lon="-0.70792">
        <ele>3.2</ele>
        <time>2015-12-27T11:28:12Z</time>
      </trkpt>
      <trkpt lat="47.32488" lon="-0.70778">
        <ele>3.1</ele>
        <time>2015-12-27T11:28:15Z</time>
      </trkpt>
      <trkpt lat="47.32494" lon="-0.70764">
        <ele>2.8</ele>
        <time>2015-12-27T11:28:18Z</time>
      </trkpt>
      <trkpt lat="47.32507" lon="-0.7077">
        <ele>2.2</ele>
        <time>2015-12-27T11:28:22Z</time>
      </trkpt>
      <trkpt lat="47.32516" lon="-0.70783">
        <ele>2.1</ele>
        <time>2015-12-27T11:28:25Z</time>
      </trkpt>
      <trkpt lat="47.32526" lon="-0.70795">
        <ele>1.9</ele>
        <time>2015-12-27T11:28:28Z</time>
      </trkpt>
      <trkpt lat="47.32535" lon="-0.70808">
        <ele>1.6</ele>
        <time>2015-12-27T11:28:31Z</time>
      </trkpt>
      <trkpt lat="47.32545" lon="-0.70822">
        <ele>1.3</ele>
        <time>2015-12-27T11:28:34Z</time>
      </trkpt>
      <trkpt lat="47.32552" lon="-0.70838">
        <ele>1.4</ele>
        <time>2015-12-27T11:28:37Z</time>
      </trkpt>
      <trkpt lat="47.3256" lon="-0.70852">
        <ele>1.8</ele>
        <time>2015-12-27T11:28:40Z</time>
      </trkpt>
      <trkpt lat="47.32565" lon="-0.70866">
        <ele>2.1</ele>
        <time>2015-12-27T11:28:43Z</time>
      </trkpt>
      <trkpt lat="47.32581" lon="-0.70891">
        <ele>2.1</ele>
        <time>2015-12-27T11:28:49Z</time>
      </trkpt>
      <trkpt lat="47.32588" lon="-0.70903">
        <ele>2.2</ele>
        <time>2015-12-27T11:28:52Z</time>
      </trkpt>
      <trkpt lat="47.32597" lon="-0.70915">
        <ele>2.3</ele>
        <time>2015-12-27T11:28:55Z</time>
      </trkpt>
      <trkpt lat="47.32607" lon="-0.70927">
        <ele>1.9</ele>
        <time>2015-12-27T11:28:58Z</time>
      </trkpt>
      <trkpt lat="47.32616" lon="-0.70941">
        <ele>1.6</ele>
        <time>2015-12-27T11:29:01Z</time>
      </trkpt>
      <trkpt lat="47.32625" lon="-0.70954">
        <ele>1.4</ele>
        <time>2015-12-27T11:29:04Z</time>
      </trkpt>
      <trkpt lat="47.32634" lon="-0.70967">
        <ele>1.1</ele>
        <time>2015-12-27T11:29:07Z</time>
      </trkpt>
      <trkpt lat="47.32642" lon="-0.70979">
        <ele>1.5</ele>
        <time>2015-12-27T11:29:10Z</time>
      </trkpt>
      <trkpt lat="47.32653" lon="-0.70987">
        <ele>1.6</ele>
        <time>2015-12-27T11:29:13Z</time>
      </trkpt>
      <trkpt lat="47.32664" lon="-0.7099">
        <ele>2.1</ele>
        <time>2015-12-27T11:29:16Z</time>
      </trkpt>
      <trkpt lat="47.32672" lon="-0.70981">
        <ele>1.8</ele>
        <time>2015-12-27T11:29:19Z</time>
      </trkpt>
      <trkpt lat="47.32683" lon="-0.7097">
        <ele>1.1</ele>
        <time>2015-12-27T11:29:22Z</time>
      </trkpt>
      <trkpt lat="47.32692" lon="-0.70961">
        <ele>0.5</ele>
        <time>2015-12-27T11:29:24Z</time>
      </trkpt>
      <trkpt lat="47.32702" lon="-0.70952">
        <ele>17.5</ele>
        <time>2015-12-27T11:29:26Z</time>
      </trkpt>
      <trkpt lat="47.32712" lon="-0.70944">
        <ele>0.5</ele>
        <time>2015-12-27T11:29:28Z</time>
      </trkpt>
      <trkpt lat="47.3272" lon="-0.70936">
        <ele>-0.1</ele>
        <time>2015-12-27T11:29:30Z</time>
      </trkpt>
      <trkpt lat="47.32732" lon="-0.70926">
        <ele>-0.6</ele>
        <time>2015-12-27T11:29:33Z</time>
      </trkpt>
      <trkpt lat="47.3274" lon="-0.70918">
        <ele>-0.9</ele>
        <time>2015-12-27T11:29:35Z</time>
      </trkpt>
      <trkpt lat="47.32748" lon="-0.70911">
        <ele>-1.1</ele>
        <time>2015-12-27T11:29:37Z</time>
      </trkpt>
      <trkpt lat="47.32757" lon="-0.70904">
        <ele>-1.3</ele>
        <time>2015-12-27T11:29:39Z</time>
      </trkpt>
      <trkpt lat="47.32767" lon="-0.70896">
        <ele>-1.1</ele>
        <time>2015-12-27T11:29:41Z</time>
      </trkpt>
      <trkpt lat="47.32776" lon="-0.70889">
        <ele>-1.6</ele>
        <time>2015-12-27T11:29:43Z</time>
      </trkpt>
      <trkpt lat="47.32788" lon="-0.70881">
        <ele>-1.3</ele>
        <time>2015-12-27T11:29:45Z</time>
      </trkpt>
      <trkpt lat="47.32812" lon="-0.70862">
        <ele>-1.9</ele>
        <time>2015-12-27T11:29:49Z</time>
      </trkpt>
      <trkpt lat="47.32821" lon="-0.70854">
        <ele>-1.7</ele>
        <time>2015-12-27T11:29:51Z</time>
      </trkpt>
      <trkpt lat="47.32833" lon="-0.70847">
        <ele>-1.9</ele>
        <time>2015-12-27T11:29:53Z</time>
      </trkpt>
      <trkpt lat="47.32844" lon="-0.7084">
        <ele>-1.5</ele>
        <time>2015-12-27T11:29:55Z</time>
      </trkpt>
      <trkpt lat="47.32854" lon="-0.70832">
        <ele>-1.2</ele>
        <time>2015-12-27T11:29:57Z</time>
      </trkpt>
      <trkpt lat="47.32864" lon="-0.70825">
        <ele>-1.6</ele>
        <time>2015-12-27T11:29:59Z</time>
      </trkpt>
      <trkpt lat="47.32873" lon="-0.70817">
        <ele>-1.7</ele>
        <time>2015-12-27T11:30:01Z</time>
      </trkpt>
      <trkpt lat="47.32883" lon="-0.70809">
        <ele>-2.3</ele>
        <time>2015-12-27T11:30:03Z</time>
      </trkpt>
      <trkpt lat="47.32893" lon="-0.70805">
        <ele>-2.4</ele>
        <time>2015-12-27T11:30:05Z</time>
      </trkpt>
      <trkpt lat="47.32904" lon="-0.70803">
        <ele>-2.3</ele>
        <time>2015-12-27T11:30:07Z</time>
      </trkpt>
      <trkpt lat="47.32916" lon="-0.708">
        <ele>-1.2</ele>
        <time>2015-12-27T11:30:09Z</time>
      </trkpt>
      <trkpt lat="47.32926" lon="-0.70794">
        <ele>-1</ele>
        <time>2015-12-27T11:30:11Z</time>
      </trkpt>
      <trkpt lat="47.32935" lon="-0.70785">
        <ele>-1.3</ele>
        <time>2015-12-27T11:30:13Z</time>
      </trkpt>
      <trkpt lat="47.32943" lon="-0.70776">
        <ele>-1.5</ele>
        <time>2015-12-27T11:30:16Z</time>
      </trkpt>
      <trkpt lat="47.32953" lon="-0.70773">
        <ele>-1.5</ele>
        <time>2015-12-27T11:30:19Z</time>
      </trkpt>
      <trkpt lat="47.32963" lon="-0.70768">
        <ele>-1.4</ele>
        <time>2015-12-27T11:30:23Z</time>
      </trkpt>
      <trkpt lat="47.32972" lon="-0.70761">
        <ele>-1.9</ele>
        <time>2015-12-27T11:30:27Z</time>
      </trkpt>
      <trkpt lat="47.32983" lon="-0.70755">
        <ele>-1.7</ele>
        <time>2015-12-27T11:31:53Z</time>
      </trkpt>
      <trkpt lat="47.33003" lon="-0.70741">
        <ele>-1.9</ele>
        <time>2015-12-27T11:32:02Z</time>
      </trkpt>
      <trkpt lat="47.33012" lon="-0.70735">
        <ele>-2</ele>
        <time>2015-12-27T11:32:06Z</time>
      </trkpt>
      <trkpt lat="47.33023" lon="-0.70733">
        <ele>-2.1</ele>
        <time>2015-12-27T11:32:11Z</time>
      </trkpt>
      <trkpt lat="47.33032" lon="-0.70728">
        <ele>-2</ele>
        <time>2015-12-27T11:42:51Z</time>
      </trkpt>
      <trkpt lat="47.33052" lon="-0.70724">
        <ele>-1.4</ele>
        <time>2015-12-27T11:42:58Z</time>
      </trkpt>
      <trkpt lat="47.33062" lon="-0.70723">
        <ele>-1</ele>
        <time>2015-12-27T11:43:01Z</time>
      </trkpt>
      <trkpt lat="47.33073" lon="-0.7072">
        <ele>-0.4</ele>
        <time>2015-12-27T11:43:05Z</time>
      </trkpt>
      <trkpt lat="47.33083" lon="-0.70717">
        <ele>-0.2</ele>
        <time>2015-12-27T11:43:09Z</time>
      </trkpt>
      <trkpt lat="47.33093" lon="-0.70713">
        <ele>-0.5</ele>
        <time>2015-12-27T11:43:12Z</time>
      </trkpt>
      <trkpt lat="47.33102" lon="-0.70713">
        <ele>-0.4</ele>
        <time>2015-12-27T11:43:15Z</time>
      </trkpt>
      <trkpt lat="47.33112" lon="-0.70714">
        <ele>-0.5</ele>
        <time>2015-12-27T11:43:18Z</time>
      </trkpt>
      <trkpt lat="47.33122" lon="-0.70714">
        <ele>-0.4</ele>
        <time>2015-12-27T11:43:21Z</time>
      </trkpt>
      <trkpt lat="47.33135" lon="-0.70713">
        <ele>-0.6</ele>
        <time>2015-12-27T11:43:24Z</time>
      </trkpt>
      <trkpt lat="47.33149" lon="-0.70711">
        <ele>-0.6</ele>
        <time>2015-12-27T11:43:27Z</time>
      </trkpt>
      <trkpt lat="47.33161" lon="-0.70708">
        <ele>-1</ele>
        <time>2015-12-27T11:43:30Z</time>
      </trkpt>
      <trkpt lat="47.33173" lon="-0.70705">
        <ele>-0.7</ele>
        <time>2015-12-27T11:43:33Z</time>
      </trkpt>
      <trkpt lat="47.33184" lon="-0.70701">
        <ele>-1</ele>
        <time>2015-12-27T11:43:36Z</time>
      </trkpt>
      <trkpt lat="47.33196" lon="-0.70697">
        <ele>-0.9</ele>
        <time>2015-12-27T11:43:39Z</time>
      </trkpt>
      <trkpt lat="47.33209" lon="-0.70692">
        <ele>-0.7</ele>
        <time>2015-12-27T11:43:42Z</time>
      </trkpt>
      <trkpt lat="47.33221" lon="-0.70687">
        <ele>-0.8</ele>
        <time>2015-12-27T11:43:45Z</time>
      </trkpt>
      <trkpt lat="47.33233" lon="-0.70682">
        <ele>-0.8</ele>
        <time>2015-12-27T11:43:48Z</time>
      </trkpt>
      <trkpt lat="47.33246" lon="-0.70676">
        <ele>-0.7</ele>
        <time>2015-12-27T11:43:51Z</time>
      </trkpt>
      <trkpt lat="47.33258" lon="-0.70669">
        <ele>-0.9</ele>
        <time>2015-12-27T11:43:54Z</time>
      </trkpt>
      <trkpt lat="47.33277" lon="-0.70657">
        <ele>-1.3</ele>
        <time>2015-12-27T11:43:58Z</time>
      </trkpt>
      <trkpt lat="47.33286" lon="-0.7065">
        <ele>-0.7</ele>
        <time>2015-12-27T11:44:00Z</time>
      </trkpt>
      <trkpt lat="47.33295" lon="-0.70644">
        <ele>-0.7</ele>
        <time>2015-12-27T11:44:02Z</time>
      </trkpt>
      <trkpt lat="47.33306" lon="-0.70637">
        <ele>-1.2</ele>
        <time>2015-12-27T11:44:05Z</time>
      </trkpt>
      <trkpt lat="47.33316" lon="-0.70634">
        <ele>-0.9</ele>
        <time>2015-12-27T11:44:07Z</time>
      </trkpt>
      <trkpt lat="47.33326" lon="-0.70632">
        <ele>-0.5</ele>
        <time>2015-12-27T11:44:09Z</time>
      </trkpt>
      <trkpt lat="47.33339" lon="-0.70628">
        <ele>-0.6</ele>
        <time>2015-12-27T11:44:12Z</time>
      </trkpt>
      <trkpt lat="47.33348" lon="-0.70623">
        <ele>-0.7</ele>
        <time>2015-12-27T11:44:14Z</time>
      </trkpt>
      <trkpt lat="47.33357" lon="-0.70617">
        <ele>-0.2</ele>
        <time>2015-12-27T11:44:16Z</time>
      </trkpt>
      <trkpt lat="47.33369" lon="-0.7061">
        <ele>-0.3</ele>
        <time>2015-12-27T11:44:19Z</time>
      </trkpt>
      <trkpt lat="47.33379" lon="-0.70602">
        <ele>-0.2</ele>
        <time>2015-12-27T11:44:22Z</time>
      </trkpt>
      <trkpt lat="47.33391" lon="-0.70593">
        <ele>-0.9</ele>
        <time>2015-12-27T11:44:25Z</time>
      </trkpt>
      <trkpt lat="47.33404" lon="-0.70587">
        <ele>-0.9</ele>
        <time>2015-12-27T11:44:27Z</time>
      </trkpt>
      <trkpt lat="47.33414" lon="-0.70579">
        <ele>-1</ele>
        <time>2015-12-27T11:44:29Z</time>
      </trkpt>
      <trkpt lat="47.33423" lon="-0.70571">
        <ele>-0.7</ele>
        <time>2015-12-27T11:44:31Z</time>
      </trkpt>
      <trkpt lat="47.33433" lon="-0.70559">
        <ele>-0.9</ele>
        <time>2015-12-27T11:44:34Z</time>
      </trkpt>
      <trkpt lat="47.33441" lon="-0.70553">
        <ele>-0.7</ele>
        <time>2015-12-27T11:44:36Z</time>
      </trkpt>
      <trkpt lat="47.33451" lon="-0.70546">
        <ele>-0.9</ele>
        <time>2015-12-27T11:44:38Z</time>
      </trkpt>
      <trkpt lat="47.33459" lon="-0.70539">
        <ele>-0.5</ele>
        <time>2015-12-27T11:44:40Z</time>
      </trkpt>
      <trkpt lat="47.33467" lon="-0.70532">
        <ele>-0.3</ele>
        <time>2015-12-27T11:44:42Z</time>
      </trkpt>
      <trkpt lat="47.33475" lon="-0.70525">
        <ele>0.5</ele>
        <time>2015-12-27T11:44:44Z</time>
      </trkpt>
      <trkpt lat="47.33484" lon="-0.70519">
        <ele>0.5</ele>
        <time>2015-12-27T11:44:46Z</time>
      </trkpt>
      <trkpt lat="47.33492" lon="-0.70514">
        <ele>0.8</ele>
        <time>2015-12-27T11:44:48Z</time>
      </trkpt>
      <trkpt lat="47.33501" lon="-0.70507">
        <ele>1.1</ele>
        <time>2015-12-27T11:44:50Z</time>
      </trkpt>
      <trkpt lat="47.33508" lon="-0.70499">
        <ele>0.6</ele>
        <time>2015-12-27T11:44:52Z</time>
      </trkpt>
      <trkpt lat="47.33514" lon="-0.70489">
        <ele>1</ele>
        <time>2015-12-27T11:44:54Z</time>
      </trkpt>
      <trkpt lat="47.33524" lon="-0.70473">
        <ele>0.8</ele>
        <time>2015-12-27T11:44:57Z</time>
      </trkpt>
      <trkpt lat="47.3354" lon="-0.70454">
        <ele>1</ele>
        <time>2015-12-27T11:45:01Z</time>
      </trkpt>
      <trkpt lat="47.33549" lon="-0.70442">
        <ele>1.6</ele>
        <time>2015-12-27T11:45:04Z</time>
      </trkpt>
      <trkpt lat="47.33556" lon="-0.70433">
        <ele>1.5</ele>
        <time>2015-12-27T11:45:07Z</time>
      </trkpt>
      <trkpt lat="47.33564" lon="-0.70422">
        <ele>2.5</ele>
        <time>2015-12-27T11:45:10Z</time>
      </trkpt>
      <trkpt lat="47.33559" lon="-0.70407">
        <ele>2.4</ele>
        <time>2015-12-27T11:45:13Z</time>
      </trkpt>
      <trkpt lat="47.33553" lon="-0.70397">
        <ele>2.2</ele>
        <time>2015-12-27T11:45:15Z</time>
      </trkpt>
      <trkpt lat="47.33553" lon="-0.70377">
        <ele>1.6</ele>
        <time>2015-12-27T11:45:18Z</time>
      </trkpt>
      <trkpt lat="47.33559" lon="-0.70358">
        <ele>0.3</ele>
        <time>2015-12-27T11:45:21Z</time>
      </trkpt>
      <trkpt lat="47.33563" lon="-0.70342">
        <ele>14.8</ele>
        <time>2015-12-27T11:45:23Z</time>
      </trkpt>
      <trkpt lat="47.33568" lon="-0.70329">
        <ele>-0.2</ele>
        <time>2015-12-27T11:45:25Z</time>
      </trkpt>
      <trkpt lat="47.33574" lon="-0.70316">
        <ele>-0.4</ele>
        <time>2015-12-27T11:45:27Z</time>
      </trkpt>
      <trkpt lat="47.33583" lon="-0.70305">
        <ele>-0.4</ele>
        <time>2015-12-27T11:45:29Z</time>
      </trkpt>
      <trkpt lat="47.33589" lon="-0.70291">
        <ele>-0.8</ele>
        <time>2015-12-27T11:45:31Z</time>
      </trkpt>
      <trkpt lat="47.33593" lon="-0.70279">
        <ele>-0.8</ele>
        <time>2015-12-27T11:45:33Z</time>
      </trkpt>
      <trkpt lat="47.33597" lon="-0.70264">
        <ele>-1</ele>
        <time>2015-12-27T11:45:35Z</time>
      </trkpt>
      <trkpt lat="47.33602" lon="-0.70248">
        <ele>-0.9</ele>
        <time>2015-12-27T11:45:37Z</time>
      </trkpt>
      <trkpt lat="47.33605" lon="-0.70234">
        <ele>-1.3</ele>
        <time>2015-12-27T11:45:39Z</time>
      </trkpt>
      <trkpt lat="47.3361" lon="-0.70217">
        <ele>-0.6</ele>
        <time>2015-12-27T11:45:42Z</time>
      </trkpt>
      <trkpt lat="47.33616" lon="-0.70207">
        <ele>-0.4</ele>
        <time>2015-12-27T11:45:45Z</time>
      </trkpt>
      <trkpt lat="47.33628" lon="-0.702">
        <ele>0.6</ele>
        <time>2015-12-27T11:45:48Z</time>
      </trkpt>
      <trkpt lat="47.33634" lon="-0.70191">
        <ele>2.4</ele>
        <time>2015-12-27T11:45:52Z</time>
      </trkpt>
      <trkpt lat="47.3364" lon="-0.70175">
        <ele>2.7</ele>
        <time>2015-12-27T11:45:55Z</time>
      </trkpt>
      <trkpt lat="47.33645" lon="-0.7016">
        <ele>2.2</ele>
        <time>2015-12-27T11:45:58Z</time>
      </trkpt>
      <trkpt lat="47.33648" lon="-0.70128">
        <ele>0.9</ele>
        <time>2015-12-27T11:46:02Z</time>
      </trkpt>
      <trkpt lat="47.33649" lon="-0.70114">
        <ele>0.8</ele>
        <time>2015-12-27T11:46:04Z</time>
      </trkpt>
      <trkpt lat="47.33657" lon="-0.70099">
        <ele>0.7</ele>
        <time>2015-12-27T11:46:07Z</time>
      </trkpt>
      <trkpt lat="47.33659" lon="-0.70081">
        <ele>0.8</ele>
        <time>2015-12-27T11:46:10Z</time>
      </trkpt>
      <trkpt lat="47.33662" lon="-0.70067">
        <ele>1.2</ele>
        <time>2015-12-27T11:46:12Z</time>
      </trkpt>
      <trkpt lat="47.33669" lon="-0.70053">
        <ele>1.1</ele>
        <time>2015-12-27T11:46:14Z</time>
      </trkpt>
      <trkpt lat="47.33675" lon="-0.7004">
        <ele>1.4</ele>
        <time>2015-12-27T11:46:16Z</time>
      </trkpt>
      <trkpt lat="47.33683" lon="-0.70023">
        <ele>1.6</ele>
        <time>2015-12-27T11:46:19Z</time>
      </trkpt>
      <trkpt lat="47.33689" lon="-0.70012">
        <ele>1.3</ele>
        <time>2015-12-27T11:46:21Z</time>
      </trkpt>
      <trkpt lat="47.33694" lon="-0.69997">
        <ele>1</ele>
        <time>2015-12-27T11:46:23Z</time>
      </trkpt>
      <trkpt lat="47.33697" lon="-0.69983">
        <ele>0.8</ele>
        <time>2015-12-27T11:46:25Z</time>
      </trkpt>
      <trkpt lat="47.33697" lon="-0.69968">
        <ele>0.7</ele>
        <time>2015-12-27T11:46:27Z</time>
      </trkpt>
      <trkpt lat="47.33696" lon="-0.69952">
        <ele>0.7</ele>
        <time>2015-12-27T11:46:29Z</time>
      </trkpt>
      <trkpt lat="47.33699" lon="-0.69939">
        <ele>0.3</ele>
        <time>2015-12-27T11:46:31Z</time>
      </trkpt>
      <trkpt lat="47.33699" lon="-0.69921">
        <ele>1</ele>
        <time>2015-12-27T11:46:34Z</time>
      </trkpt>
      <trkpt lat="47.33699" lon="-0.69906">
        <ele>1.5</ele>
        <time>2015-12-27T11:46:36Z</time>
      </trkpt>
      <trkpt lat="47.33706" lon="-0.69898">
        <ele>2.1</ele>
        <time>2015-12-27T11:46:38Z</time>
      </trkpt>
      <trkpt lat="47.33709" lon="-0.69882">
        <ele>2.3</ele>
        <time>2015-12-27T11:46:41Z</time>
      </trkpt>
      <trkpt lat="47.33712" lon="-0.69867">
        <ele>2.1</ele>
        <time>2015-12-27T11:46:44Z</time>
      </trkpt>
      <trkpt lat="47.33711" lon="-0.69847">
        <ele>1.7</ele>
        <time>2015-12-27T11:46:47Z</time>
      </trkpt>
      <trkpt lat="47.33713" lon="-0.69833">
        <ele>1.2</ele>
        <time>2015-12-27T11:46:49Z</time>
      </trkpt>
      <trkpt lat="47.33721" lon="-0.69818">
        <ele>0.6</ele>
        <time>2015-12-27T11:46:51Z</time>
      </trkpt>
      <trkpt lat="47.33725" lon="-0.69804">
        <ele>0.3</ele>
        <time>2015-12-27T11:46:53Z</time>
      </trkpt>
      <trkpt lat="47.3373" lon="-0.69789">
        <ele>0.5</ele>
        <time>2015-12-27T11:46:56Z</time>
      </trkpt>
      <trkpt lat="47.33732" lon="-0.69773">
        <ele>0.7</ele>
        <time>2015-12-27T11:46:59Z</time>
      </trkpt>
      <trkpt lat="47.33739" lon="-0.69744">
        <ele>2.3</ele>
        <time>2015-12-27T11:47:09Z</time>
      </trkpt>
      <trkpt lat="47.33742" lon="-0.69729">
        <ele>2.7</ele>
        <time>2015-12-27T11:47:13Z</time>
      </trkpt>
      <trkpt lat="47.33747" lon="-0.69716">
        <ele>2.9</ele>
        <time>2015-12-27T11:47:16Z</time>
      </trkpt>
      <trkpt lat="47.33754" lon="-0.69706">
        <ele>3.8</ele>
        <time>2015-12-27T11:47:20Z</time>
      </trkpt>
      <trkpt lat="47.33762" lon="-0.69702">
        <ele>4.6</ele>
        <time>2015-12-27T11:47:24Z</time>
      </trkpt>
      <trkpt lat="47.33771" lon="-0.69707">
        <ele>6</ele>
        <time>2015-12-27T11:47:30Z</time>
      </trkpt>
      <trkpt lat="47.3378" lon="-0.69707">
        <ele>7.3</ele>
        <time>2015-12-27T11:48:11Z</time>
      </trkpt>
      <trkpt lat="47.338" lon="-0.69694">
        <ele>8.5</ele>
        <time>2015-12-27T11:48:18Z</time>
      </trkpt>
      <trkpt lat="47.3381" lon="-0.6969">
        <ele>9.5</ele>
        <time>2015-12-27T11:48:23Z</time>
      </trkpt>
      <trkpt lat="47.3382" lon="-0.69688">
        <ele>10.9</ele>
        <time>2015-12-27T11:48:28Z</time>
      </trkpt>
      <trkpt lat="47.33829" lon="-0.69683">
        <ele>12.5</ele>
        <time>2015-12-27T11:48:34Z</time>
      </trkpt>
      <trkpt lat="47.3384" lon="-0.69684">
        <ele>13.9</ele>
        <time>2015-12-27T11:48:40Z</time>
      </trkpt>
      <trkpt lat="47.33849" lon="-0.69687">
        <ele>15.4</ele>
        <time>2015-12-27T11:48:45Z</time>
      </trkpt>
      <trkpt lat="47.33858" lon="-0.69692">
        <ele>17.4</ele>
        <time>2015-12-27T11:48:52Z</time>
      </trkpt>
      <trkpt lat="47.33867" lon="-0.69697">
        <ele>18.4</ele>
        <time>2015-12-27T11:48:58Z</time>
      </trkpt>
      <trkpt lat="47.33875" lon="-0.69703">
        <ele>20.1</ele>
        <time>2015-12-27T11:49:06Z</time>
      </trkpt>
      <trkpt lat="47.33884" lon="-0.69707">
        <ele>21</ele>
        <time>2015-12-27T11:49:14Z</time>
      </trkpt>
      <trkpt lat="47.339" lon="-0.69722">
        <ele>24</ele>
        <time>2015-12-27T11:49:30Z</time>
      </trkpt>
      <trkpt lat="47.33908" lon="-0.69728">
        <ele>25.9</ele>
        <time>2015-12-27T11:49:37Z</time>
      </trkpt>
      <trkpt lat="47.33915" lon="-0.69738">
        <ele>27.1</ele>
        <time>2015-12-27T11:49:44Z</time>
      </trkpt>
      <trkpt lat="47.33921" lon="-0.69747">
        <ele>28.2</ele>
        <time>2015-12-27T11:49:50Z</time>
      </trkpt>
      <trkpt lat="47.33929" lon="-0.69754">
        <ele>29.5</ele>
        <time>2015-12-27T11:49:57Z</time>
      </trkpt>
      <trkpt lat="47.33937" lon="-0.69761">
        <ele>30.6</ele>
        <time>2015-12-27T11:50:04Z</time>
      </trkpt>
      <trkpt lat="47.33943" lon="-0.69772">
        <ele>31.4</ele>
        <time>2015-12-27T11:50:10Z</time>
      </trkpt>
      <trkpt lat="47.3395" lon="-0.69781">
        <ele>32.5</ele>
        <time>2015-12-27T11:50:16Z</time>
      </trkpt>
      <trkpt lat="47.33964" lon="-0.69799">
        <ele>35</ele>
        <time>2015-12-27T11:50:27Z</time>
      </trkpt>
      <trkpt lat="47.33971" lon="-0.69811">
        <ele>36</ele>
        <time>2015-12-27T11:50:33Z</time>
      </trkpt>
      <trkpt lat="47.33978" lon="-0.69823">
        <ele>36.7</ele>
        <time>2015-12-27T11:50:39Z</time>
      </trkpt>
      <trkpt lat="47.33984" lon="-0.69835">
        <ele>37.6</ele>
        <time>2015-12-27T11:50:44Z</time>
      </trkpt>
      <trkpt lat="47.3399" lon="-0.69847">
        <ele>38.3</ele>
        <time>2015-12-27T11:50:49Z</time>
      </trkpt>
      <trkpt lat="47.33999" lon="-0.69855">
        <ele>39.5</ele>
        <time>2015-12-27T11:50:54Z</time>
      </trkpt>
      <trkpt lat="47.34007" lon="-0.69846">
        <ele>40.6</ele>
        <time>2015-12-27T11:51:00Z</time>
      </trkpt>
      <trkpt lat="47.34016" lon="-0.69839">
        <ele>42.3</ele>
        <time>2015-12-27T11:51:07Z</time>
      </trkpt>
      <trkpt lat="47.34025" lon="-0.69844">
        <ele>43.4</ele>
        <time>2015-12-27T11:51:13Z</time>
      </trkpt>
      <trkpt lat="47.34034" lon="-0.69853">
        <ele>45.1</ele>
        <time>2015-12-27T11:51:20Z</time>
      </trkpt>
      <trkpt lat="47.34048" lon="-0.69833">
        <ele>46.5</ele>
        <time>2015-12-27T11:51:30Z</time>
      </trkpt>
      <trkpt lat="47.34055" lon="-0.69824">
        <ele>47</ele>
        <time>2015-12-27T11:51:34Z</time>
      </trkpt>
      <trkpt lat="47.34063" lon="-0.69814">
        <ele>47.9</ele>
        <time>2015-12-27T11:51:39Z</time>
      </trkpt>
      <trkpt lat="47.34073" lon="-0.69806">
        <ele>48.9</ele>
        <time>2015-12-27T11:51:44Z</time>
      </trkpt>
      <trkpt lat="47.34081" lon="-0.69799">
        <ele>49.7</ele>
        <time>2015-12-27T11:51:48Z</time>
      </trkpt>
      <trkpt lat="47.34089" lon="-0.69788">
        <ele>50.4</ele>
        <time>2015-12-27T11:51:52Z</time>
      </trkpt>
      <trkpt lat="47.34096" lon="-0.69776">
        <ele>51.1</ele>
        <time>2015-12-27T11:51:56Z</time>
      </trkpt>
      <trkpt lat="47.34095" lon="-0.69758">
        <ele>52</ele>
        <time>2015-12-27T11:52:00Z</time>
      </trkpt>
      <trkpt lat="47.34091" lon="-0.69746">
        <ele>52.6</ele>
        <time>2015-12-27T11:52:03Z</time>
      </trkpt>
      <trkpt lat="47.34089" lon="-0.69732">
        <ele>53.2</ele>
        <time>2015-12-27T11:52:09Z</time>
      </trkpt>
      <trkpt lat="47.34097" lon="-0.69725">
        <ele>53.9</ele>
        <time>2015-12-27T11:54:28Z</time>
      </trkpt>
      <trkpt lat="47.34117" lon="-0.69719">
        <ele>53.2</ele>
        <time>2015-12-27T11:55:05Z</time>
      </trkpt>
      <trkpt lat="47.34128" lon="-0.69713">
        <ele>53.2</ele>
        <time>2015-12-27T11:55:09Z</time>
      </trkpt>
      <trkpt lat="47.34135" lon="-0.69703">
        <ele>53.3</ele>
        <time>2015-12-27T11:55:13Z</time>
      </trkpt>
      <trkpt lat="47.34138" lon="-0.69689">
        <ele>53.6</ele>
        <time>2015-12-27T11:55:17Z</time>
      </trkpt>
      <trkpt lat="47.34139" lon="-0.69671">
        <ele>53.6</ele>
        <time>2015-12-27T11:55:21Z</time>
      </trkpt>
      <trkpt lat="47.34139" lon="-0.69656">
        <ele>53.9</ele>
        <time>2015-12-27T11:55:24Z</time>
      </trkpt>
      <trkpt lat="47.34139" lon="-0.69639">
        <ele>53.8</ele>
        <time>2015-12-27T11:55:27Z</time>
      </trkpt>
      <trkpt lat="47.34139" lon="-0.69621">
        <ele>53.6</ele>
        <time>2015-12-27T11:55:30Z</time>
      </trkpt>
      <trkpt lat="47.3414" lon="-0.69587">
        <ele>53.1</ele>
        <time>2015-12-27T11:55:36Z</time>
      </trkpt>
      <trkpt lat="47.34143" lon="-0.69569">
        <ele>52.5</ele>
        <time>2015-12-27T11:55:39Z</time>
      </trkpt>
      <trkpt lat="47.34147" lon="-0.69551">
        <ele>52.2</ele>
        <time>2015-12-27T11:55:42Z</time>
      </trkpt>
      <trkpt lat="47.34151" lon="-0.69532">
        <ele>51.6</ele>
        <time>2015-12-27T11:55:45Z</time>
      </trkpt>
      <trkpt lat="47.34153" lon="-0.69517">
        <ele>50.9</ele>
        <time>2015-12-27T11:55:47Z</time>
      </trkpt>
      <trkpt lat="47.34157" lon="-0.695">
        <ele>50.3</ele>
        <time>2015-12-27T11:55:49Z</time>
      </trkpt>
      <trkpt lat="47.34162" lon="-0.69483">
        <ele>49.7</ele>
        <time>2015-12-27T11:55:51Z</time>
      </trkpt>
      <trkpt lat="47.34167" lon="-0.69464">
        <ele>49</ele>
        <time>2015-12-27T11:55:53Z</time>
      </trkpt>
      <trkpt lat="47.34174" lon="-0.69445">
        <ele>48.1</ele>
        <time>2015-12-27T11:55:55Z</time>
      </trkpt>
      <trkpt lat="47.34183" lon="-0.69426">
        <ele>46.9</ele>
        <time>2015-12-27T11:55:57Z</time>
      </trkpt>
      <trkpt lat="47.34193" lon="-0.69408">
        <ele>45.1</ele>
        <time>2015-12-27T11:55:59Z</time>
      </trkpt>
      <trkpt lat="47.34203" lon="-0.69388">
        <ele>43.7</ele>
        <time>2015-12-27T11:56:01Z</time>
      </trkpt>
      <trkpt lat="47.34209" lon="-0.69364">
        <ele>43</ele>
        <time>2015-12-27T11:56:03Z</time>
      </trkpt>
      <trkpt lat="47.34208" lon="-0.69343">
        <ele>42.9</ele>
        <time>2015-12-27T11:56:05Z</time>
      </trkpt>
      <trkpt lat="47.34206" lon="-0.69323">
        <ele>43.1</ele>
        <time>2015-12-27T11:56:07Z</time>
      </trkpt>
      <trkpt lat="47.34205" lon="-0.69307">
        <ele>43.4</ele>
        <time>2015-12-27T11:56:09Z</time>
      </trkpt>
      <trkpt lat="47.34202" lon="-0.6929">
        <ele>44.7</ele>
        <time>2015-12-27T11:56:12Z</time>
      </trkpt>
      <trkpt lat="47.34202" lon="-0.69271">
        <ele>45.5</ele>
        <time>2015-12-27T11:56:15Z</time>
      </trkpt>
      <trkpt lat="47.34201" lon="-0.69256">
        <ele>46.2</ele>
        <time>2015-12-27T11:56:17Z</time>
      </trkpt>
      <trkpt lat="47.34199" lon="-0.69242">
        <ele>46.9</ele>
        <time>2015-12-27T11:56:19Z</time>
      </trkpt>
      <trkpt lat="47.34197" lon="-0.69227">
        <ele>47.2</ele>
        <time>2015-12-27T11:56:21Z</time>
      </trkpt>
      <trkpt lat="47.34196" lon="-0.69214">
        <ele>47.5</ele>
        <time>2015-12-27T11:56:23Z</time>
      </trkpt>
      <trkpt lat="47.34194" lon="-0.69196">
        <ele>48.5</ele>
        <time>2015-12-27T11:56:26Z</time>
      </trkpt>
      <trkpt lat="47.34193" lon="-0.69179">
        <ele>49.8</ele>
        <time>2015-12-27T11:56:29Z</time>
      </trkpt>
      <trkpt lat="47.34191" lon="-0.69164">
        <ele>50.8</ele>
        <time>2015-12-27T11:56:32Z</time>
      </trkpt>
      <trkpt lat="47.3419" lon="-0.69134">
        <ele>52.1</ele>
        <time>2015-12-27T11:56:38Z</time>
      </trkpt>
      <trkpt lat="47.34192" lon="-0.69119">
        <ele>52.7</ele>
        <time>2015-12-27T11:56:41Z</time>
      </trkpt>
      <trkpt lat="47.34195" lon="-0.69105">
        <ele>53.3</ele>
        <time>2015-12-27T11:56:44Z</time>
      </trkpt>
      <trkpt lat="47.34199" lon="-0.69092">
        <ele>53.9</ele>
        <time>2015-12-27T11:56:47Z</time>
      </trkpt>
      <trkpt lat="47.34203" lon="-0.69079">
        <ele>54.5</ele>
        <time>2015-12-27T11:56:50Z</time>
      </trkpt>
      <trkpt lat="47.34206" lon="-0.69066">
        <ele>54.9</ele>
        <time>2015-12-27T11:56:53Z</time>
      </trkpt>
      <trkpt lat="47.34211" lon="-0.69051">
        <ele>55</ele>
        <time>2015-12-27T11:56:56Z</time>
      </trkpt>
      <trkpt lat="47.34213" lon="-0.69036">
        <ele>55.6</ele>
        <time>2015-12-27T11:56:59Z</time>
      </trkpt>
      <trkpt lat="47.34215" lon="-0.6902">
        <ele>56.1</ele>
        <time>2015-12-27T11:57:02Z</time>
      </trkpt>
      <trkpt lat="47.34217" lon="-0.69004">
        <ele>56.6</ele>
        <time>2015-12-27T11:57:05Z</time>
      </trkpt>
      <trkpt lat="47.34219" lon="-0.68988">
        <ele>57.4</ele>
        <time>2015-12-27T11:57:08Z</time>
      </trkpt>
      <trkpt lat="47.34222" lon="-0.68972">
        <ele>58.2</ele>
        <time>2015-12-27T11:57:11Z</time>
      </trkpt>
      <trkpt lat="47.34225" lon="-0.68958">
        <ele>58.9</ele>
        <time>2015-12-27T11:57:14Z</time>
      </trkpt>
      <trkpt lat="47.34229" lon="-0.68944">
        <ele>59.7</ele>
        <time>2015-12-27T11:57:17Z</time>
      </trkpt>
      <trkpt lat="47.34232" lon="-0.68931">
        <ele>60.6</ele>
        <time>2015-12-27T11:57:20Z</time>
      </trkpt>
      <trkpt lat="47.34237" lon="-0.6892">
        <ele>61.4</ele>
        <time>2015-12-27T11:57:23Z</time>
      </trkpt>
      <trkpt lat="47.34241" lon="-0.68908">
        <ele>62.3</ele>
        <time>2015-12-27T11:57:26Z</time>
      </trkpt>
      <trkpt lat="47.34245" lon="-0.68896">
        <ele>63.1</ele>
        <time>2015-12-27T11:57:29Z</time>
      </trkpt>
      <trkpt lat="47.34249" lon="-0.68884">
        <ele>63.5</ele>
        <time>2015-12-27T11:57:32Z</time>
      </trkpt>
      <trkpt lat="47.34252" lon="-0.68871">
        <ele>64</ele>
        <time>2015-12-27T11:57:35Z</time>
      </trkpt>
      <trkpt lat="47.34266" lon="-0.68846">
        <ele>64.5</ele>
        <time>2015-12-27T11:57:43Z</time>
      </trkpt>
      <trkpt lat="47.34275" lon="-0.68847">
        <ele>63.9</ele>
        <time>2015-12-27T11:57:45Z</time>
      </trkpt>
      <trkpt lat="47.34288" lon="-0.68845">
        <ele>62.8</ele>
        <time>2015-12-27T11:57:47Z</time>
      </trkpt>
      <trkpt lat="47.34303" lon="-0.68842">
        <ele>60.9</ele>
        <time>2015-12-27T11:57:49Z</time>
      </trkpt>
      <trkpt lat="47.3432" lon="-0.68839">
        <ele>59.6</ele>
        <time>2015-12-27T11:57:51Z</time>
      </trkpt>
      <trkpt lat="47.3433" lon="-0.68839">
        <ele>58.9</ele>
        <time>2015-12-27T11:57:52Z</time>
      </trkpt>
      <trkpt lat="47.34346" lon="-0.68841">
        <ele>57.6</ele>
        <time>2015-12-27T11:57:54Z</time>
      </trkpt>
      <trkpt lat="47.34358" lon="-0.68836">
        <ele>56.2</ele>
        <time>2015-12-27T11:57:56Z</time>
      </trkpt>
      <trkpt lat="47.34363" lon="-0.68822">
        <ele>54.4</ele>
        <time>2015-12-27T11:57:58Z</time>
      </trkpt>
      <trkpt lat="47.34367" lon="-0.68805">
        <ele>52.8</ele>
        <time>2015-12-27T11:58:00Z</time>
      </trkpt>
      <trkpt lat="47.34373" lon="-0.6879">
        <ele>51.9</ele>
        <time>2015-12-27T11:58:02Z</time>
      </trkpt>
      <trkpt lat="47.3438" lon="-0.68776">
        <ele>50.6</ele>
        <time>2015-12-27T11:58:04Z</time>
      </trkpt>
      <trkpt lat="47.34389" lon="-0.6876">
        <ele>49.4</ele>
        <time>2015-12-27T11:58:06Z</time>
      </trkpt>
      <trkpt lat="47.34399" lon="-0.68742">
        <ele>48.2</ele>
        <time>2015-12-27T11:58:08Z</time>
      </trkpt>
      <trkpt lat="47.34406" lon="-0.68723">
        <ele>46.5</ele>
        <time>2015-12-27T11:58:10Z</time>
      </trkpt>
      <trkpt lat="47.34411" lon="-0.68708">
        <ele>45.4</ele>
        <time>2015-12-27T11:58:12Z</time>
      </trkpt>
      <trkpt lat="47.34418" lon="-0.68694">
        <ele>44</ele>
        <time>2015-12-27T11:58:15Z</time>
      </trkpt>
      <trkpt lat="47.34427" lon="-0.68696">
        <ele>43</ele>
        <time>2015-12-27T11:58:19Z</time>
      </trkpt>
      <trkpt lat="47.34437" lon="-0.68699">
        <ele>42.1</ele>
        <time>2015-12-27T11:58:22Z</time>
      </trkpt>
      <trkpt lat="47.3444" lon="-0.68717">
        <ele>41.5</ele>
        <time>2015-12-27T11:58:26Z</time>
      </trkpt>
      <trkpt lat="47.34439" lon="-0.68733">
        <ele>42.1</ele>
        <time>2015-12-27T11:58:29Z</time>
      </trkpt>
      <trkpt lat="47.34439" lon="-0.68748">
        <ele>41.9</ele>
        <time>2015-12-27T11:58:32Z</time>
      </trkpt>
      <trkpt lat="47.3444" lon="-0.68764">
        <ele>42.3</ele>
        <time>2015-12-27T11:58:35Z</time>
      </trkpt>
      <trkpt lat="47.3444" lon="-0.68782">
        <ele>42.6</ele>
        <time>2015-12-27T11:58:38Z</time>
      </trkpt>
      <trkpt lat="47.34443" lon="-0.68813">
        <ele>42.4</ele>
        <time>2015-12-27T11:58:43Z</time>
      </trkpt>
      <trkpt lat="47.34445" lon="-0.68826">
        <ele>42.1</ele>
        <time>2015-12-27T11:58:45Z</time>
      </trkpt>
      <trkpt lat="47.34447" lon="-0.68844">
        <ele>41.9</ele>
        <time>2015-12-27T11:58:48Z</time>
      </trkpt>
      <trkpt lat="47.34454" lon="-0.68856">
        <ele>41.1</ele>
        <time>2015-12-27T11:58:52Z</time>
      </trkpt>
      <trkpt lat="47.34465" lon="-0.68852">
        <ele>40</ele>
        <time>2015-12-27T11:58:56Z</time>
      </trkpt>
      <trkpt lat="47.34472" lon="-0.68861">
        <ele>39.1</ele>
        <time>2015-12-27T11:58:59Z</time>
      </trkpt>
      <trkpt lat="47.34475" lon="-0.68875">
        <ele>38.6</ele>
        <time>2015-12-27T11:59:02Z</time>
      </trkpt>
      <trkpt lat="47.34477" lon="-0.68888">
        <ele>37.9</ele>
        <time>2015-12-27T11:59:05Z</time>
      </trkpt>
      <trkpt lat="47.34479" lon="-0.68905">
        <ele>38.7</ele>
        <time>2015-12-27T11:59:09Z</time>
      </trkpt>
      <trkpt lat="47.3448" lon="-0.68918">
        <ele>39</ele>
        <time>2015-12-27T11:59:12Z</time>
      </trkpt>
      <trkpt lat="47.34478" lon="-0.68934">
        <ele>39.3</ele>
        <time>2015-12-27T11:59:16Z</time>
      </trkpt>
      <trkpt lat="47.34476" lon="-0.68947">
        <ele>39.5</ele>
        <time>2015-12-27T11:59:19Z</time>
      </trkpt>
      <trkpt lat="47.34474" lon="-0.68963">
        <ele>39.6</ele>
        <time>2015-12-27T11:59:22Z</time>
      </trkpt>
      <trkpt lat="47.34472" lon="-0.68981">
        <ele>39.2</ele>
        <time>2015-12-27T11:59:25Z</time>
      </trkpt>
      <trkpt lat="47.3447" lon="-0.68999">
        <ele>38.8</ele>
        <time>2015-12-27T11:59:28Z</time>
      </trkpt>
      <trkpt lat="47.34467" lon="-0.69016">
        <ele>38.6</ele>
        <time>2015-12-27T11:59:31Z</time>
      </trkpt>
      <trkpt lat="47.34465" lon="-0.69029">
        <ele>38.5</ele>
        <time>2015-12-27T11:59:34Z</time>
      </trkpt>
      <trkpt lat="47.34463" lon="-0.69043">
        <ele>39.2</ele>
        <time>2015-12-27T11:59:38Z</time>
      </trkpt>
      <trkpt lat="47.3447" lon="-0.69053">
        <ele>38.4</ele>
        <time>2015-12-27T11:59:42Z</time>
      </trkpt>
      <trkpt lat="47.34481" lon="-0.69075">
        <ele>36.2</ele>
        <time>2015-12-27T11:59:46Z</time>
      </trkpt>
      <trkpt lat="47.34482" lon="-0.69093">
        <ele>35.4</ele>
        <time>2015-12-27T11:59:49Z</time>
      </trkpt>
      <trkpt lat="47.34483" lon="-0.69108">
        <ele>33.6</ele>
        <time>2015-12-27T11:59:53Z</time>
      </trkpt>
      <trkpt lat="47.34484" lon="-0.69124">
        <ele>32</ele>
        <time>2015-12-27T12:00:02Z</time>
      </trkpt>
      <trkpt lat="47.34484" lon="-0.69111">
        <ele>32</ele>
        <time>2015-12-27T12:01:19Z</time>
      </trkpt>
      <trkpt lat="47.34499" lon="-0.69088">
        <ele>29.5</ele>
        <time>2015-12-27T12:02:14Z</time>
      </trkpt>
      <trkpt lat="47.34499" lon="-0.69075">
        <ele>29.7</ele>
        <time>2015-12-27T12:02:29Z</time>
      </trkpt>
      <trkpt lat="47.34511" lon="-0.69094">
        <ele>21.4</ele>
        <time>2015-12-27T12:03:05Z</time>
      </trkpt>
      <trkpt lat="47.34516" lon="-0.69105">
        <ele>16.9</ele>
        <time>2015-12-27T12:03:21Z</time>
      </trkpt>
      <trkpt lat="47.34525" lon="-0.69111">
        <ele>12</ele>
        <time>2015-12-27T12:03:37Z</time>
      </trkpt>
      <trkpt lat="47.3454" lon="-0.69124">
        <ele>5.1</ele>
        <time>2015-12-27T12:03:53Z</time>
      </trkpt>
      <trkpt lat="47.34543" lon="-0.69107">
        <ele>3.4</ele>
        <time>2015-12-27T12:04:00Z</time>
      </trkpt>
      <trkpt lat="47.34543" lon="-0.69093">
        <ele>3.3</ele>
        <time>2015-12-27T12:04:03Z</time>
      </trkpt>
      <trkpt lat="47.34545" lon="-0.69075">
        <ele>3.3</ele>
        <time>2015-12-27T12:04:06Z</time>
      </trkpt>
      <trkpt lat="47.34547" lon="-0.69061">
        <ele>3.3</ele>
        <time>2015-12-27T12:04:09Z</time>
      </trkpt>
      <trkpt lat="47.34548" lon="-0.69046">
        <ele>3.7</ele>
        <time>2015-12-27T12:04:12Z</time>
      </trkpt>
      <trkpt lat="47.3455" lon="-0.6903">
        <ele>3.8</ele>
        <time>2015-12-27T12:04:16Z</time>
      </trkpt>
      <trkpt lat="47.34552" lon="-0.69017">
        <ele>3.7</ele>
        <time>2015-12-27T12:04:19Z</time>
      </trkpt>
      <trkpt lat="47.34553" lon="-0.69002">
        <ele>3.5</ele>
        <time>2015-12-27T12:04:22Z</time>
      </trkpt>
      <trkpt lat="47.34551" lon="-0.68988">
        <ele>3.8</ele>
        <time>2015-12-27T12:04:25Z</time>
      </trkpt>
      <trkpt lat="47.34548" lon="-0.68972">
        <ele>4</ele>
        <time>2015-12-27T12:04:30Z</time>
      </trkpt>
      <trkpt lat="47.34548" lon="-0.68958">
        <ele>4</ele>
        <time>2015-12-27T12:04:33Z</time>
      </trkpt>
      <trkpt lat="47.34547" lon="-0.68941">
        <ele>4.2</ele>
        <time>2015-12-27T12:04:36Z</time>
      </trkpt>
      <trkpt lat="47.34547" lon="-0.68923">
        <ele>4</ele>
        <time>2015-12-27T12:04:39Z</time>
      </trkpt>
      <trkpt lat="47.34549" lon="-0.68887">
        <ele>3.9</ele>
        <time>2015-12-27T12:04:45Z</time>
      </trkpt>
      <trkpt lat="47.34553" lon="-0.68873">
        <ele>3.8</ele>
        <time>2015-12-27T12:04:47Z</time>
      </trkpt>
      <trkpt lat="47.34558" lon="-0.6886">
        <ele>3.9</ele>
        <time>2015-12-27T12:04:49Z</time>
      </trkpt>
      <trkpt lat="47.34563" lon="-0.68848">
        <ele>4.2</ele>
        <time>2015-12-27T12:04:51Z</time>
      </trkpt>
      <trkpt lat="47.34571" lon="-0.68837">
        <ele>4.2</ele>
        <time>2015-12-27T12:04:53Z</time>
      </trkpt>
      <trkpt lat="47.34579" lon="-0.68824">
        <ele>4.4</ele>
        <time>2015-12-27T12:04:55Z</time>
      </trkpt>
      <trkpt lat="47.34585" lon="-0.68812">
        <ele>4.1</ele>
        <time>2015-12-27T12:04:57Z</time>
      </trkpt>
      <trkpt lat="47.34592" lon="-0.688">
        <ele>4.3</ele>
        <time>2015-12-27T12:04:59Z</time>
      </trkpt>
      <trkpt lat="47.34598" lon="-0.68787">
        <ele>4.3</ele>
        <time>2015-12-27T12:05:01Z</time>
      </trkpt>
      <trkpt lat="47.34604" lon="-0.68774">
        <ele>4.3</ele>
        <time>2015-12-27T12:05:03Z</time>
      </trkpt>
      <trkpt lat="47.34609" lon="-0.68759">
        <ele>4.2</ele>
        <time>2015-12-27T12:05:05Z</time>
      </trkpt>
      <trkpt lat="47.34614" lon="-0.68743">
        <ele>4</ele>
        <time>2015-12-27T12:05:07Z</time>
      </trkpt>
      <trkpt lat="47.34621" lon="-0.68727">
        <ele>3.9</ele>
        <time>2015-12-27T12:05:09Z</time>
      </trkpt>
      <trkpt lat="47.34628" lon="-0.68712">
        <ele>3.8</ele>
        <time>2015-12-27T12:05:11Z</time>
      </trkpt>
      <trkpt lat="47.34631" lon="-0.68698">
        <ele>3.5</ele>
        <time>2015-12-27T12:05:13Z</time>
      </trkpt>
      <trkpt lat="47.34636" lon="-0.68684">
        <ele>3.4</ele>
        <time>2015-12-27T12:05:15Z</time>
      </trkpt>
      <trkpt lat="47.34643" lon="-0.68669">
        <ele>3.2</ele>
        <time>2015-12-27T12:05:17Z</time>
      </trkpt>
      <trkpt lat="47.34649" lon="-0.68655">
        <ele>3.9</ele>
        <time>2015-12-27T12:05:19Z</time>
      </trkpt>
      <trkpt lat="47.34655" lon="-0.68638">
        <ele>3.6</ele>
        <time>2015-12-27T12:05:21Z</time>
      </trkpt>
      <trkpt lat="47.34662" lon="-0.68622">
        <ele>3.5</ele>
        <time>2015-12-27T12:05:23Z</time>
      </trkpt>
      <trkpt lat="47.34662" lon="-0.68608">
        <ele>3.6</ele>
        <time>2015-12-27T12:05:25Z</time>
      </trkpt>
      <trkpt lat="47.34662" lon="-0.68595">
        <ele>2.8</ele>
        <time>2015-12-27T12:05:27Z</time>
      </trkpt>
      <trkpt lat="47.34666" lon="-0.68579">
        <ele>2.6</ele>
        <time>2015-12-27T12:05:29Z</time>
      </trkpt>
      <trkpt lat="47.34671" lon="-0.68564">
        <ele>2.3</ele>
        <time>2015-12-27T12:05:31Z</time>
      </trkpt>
      <trkpt lat="47.34676" lon="-0.6855">
        <ele>2.3</ele>
        <time>2015-12-27T12:05:33Z</time>
      </trkpt>
      <trkpt lat="47.3468" lon="-0.68534">
        <ele>2.5</ele>
        <time>2015-12-27T12:05:35Z</time>
      </trkpt>
      <trkpt lat="47.34681" lon="-0.68519">
        <ele>2.5</ele>
        <time>2015-12-27T12:05:37Z</time>
      </trkpt>
      <trkpt lat="47.34681" lon="-0.68505">
        <ele>2.6</ele>
        <time>2015-12-27T12:05:39Z</time>
      </trkpt>
      <trkpt lat="47.34679" lon="-0.68491">
        <ele>2.7</ele>
        <time>2015-12-27T12:05:41Z</time>
      </trkpt>
      <trkpt lat="47.34676" lon="-0.68461">
        <ele>2.7</ele>
        <time>2015-12-27T12:05:45Z</time>
      </trkpt>
      <trkpt lat="47.34673" lon="-0.68447">
        <ele>2.3</ele>
        <time>2015-12-27T12:05:47Z</time>
      </trkpt>
      <trkpt lat="47.34667" lon="-0.68433">
        <ele>2.2</ele>
        <time>2015-12-27T12:05:49Z</time>
      </trkpt>
      <trkpt lat="47.34661" lon="-0.68419">
        <ele>2.5</ele>
        <time>2015-12-27T12:05:51Z</time>
      </trkpt>
      <trkpt lat="47.34655" lon="-0.68404">
        <ele>2.5</ele>
        <time>2015-12-27T12:05:53Z</time>
      </trkpt>
      <trkpt lat="47.34653" lon="-0.68389">
        <ele>2.3</ele>
        <time>2015-12-27T12:05:55Z</time>
      </trkpt>
      <trkpt lat="47.34649" lon="-0.68374">
        <ele>2.4</ele>
        <time>2015-12-27T12:05:57Z</time>
      </trkpt>
      <trkpt lat="47.34644" lon="-0.6836">
        <ele>1.9</ele>
        <time>2015-12-27T12:05:59Z</time>
      </trkpt>
      <trkpt lat="47.34641" lon="-0.68347">
        <ele>2.4</ele>
        <time>2015-12-27T12:06:01Z</time>
      </trkpt>
      <trkpt lat="47.3464" lon="-0.68328">
        <ele>2.6</ele>
        <time>2015-12-27T12:06:04Z</time>
      </trkpt>
      <trkpt lat="47.34641" lon="-0.68308">
        <ele>2.7</ele>
        <time>2015-12-27T12:06:07Z</time>
      </trkpt>
      <trkpt lat="47.34637" lon="-0.68293">
        <ele>2.8</ele>
        <time>2015-12-27T12:06:09Z</time>
      </trkpt>
      <trkpt lat="47.34636" lon="-0.68279">
        <ele>3.2</ele>
        <time>2015-12-27T12:06:11Z</time>
      </trkpt>
      <trkpt lat="47.34636" lon="-0.6826">
        <ele>3.2</ele>
        <time>2015-12-27T12:06:14Z</time>
      </trkpt>
      <trkpt lat="47.34637" lon="-0.68242">
        <ele>3.4</ele>
        <time>2015-12-27T12:06:17Z</time>
      </trkpt>
      <trkpt lat="47.34642" lon="-0.68224">
        <ele>3.4</ele>
        <time>2015-12-27T12:06:20Z</time>
      </trkpt>
      <trkpt lat="47.34645" lon="-0.68212">
        <ele>3.5</ele>
        <time>2015-12-27T12:06:22Z</time>
      </trkpt>
      <trkpt lat="47.34649" lon="-0.68193">
        <ele>3.4</ele>
        <time>2015-12-27T12:06:25Z</time>
      </trkpt>
      <trkpt lat="47.34652" lon="-0.68175">
        <ele>3.4</ele>
        <time>2015-12-27T12:06:28Z</time>
      </trkpt>
      <trkpt lat="47.34654" lon="-0.6816">
        <ele>3</ele>
        <time>2015-12-27T12:06:32Z</time>
      </trkpt>
      <trkpt lat="47.34659" lon="-0.68142">
        <ele>3.1</ele>
        <time>2015-12-27T12:06:35Z</time>
      </trkpt>
      <trkpt lat="47.34661" lon="-0.68129">
        <ele>2.4</ele>
        <time>2015-12-27T12:06:37Z</time>
      </trkpt>
      <trkpt lat="47.34665" lon="-0.68116">
        <ele>2.6</ele>
        <time>2015-12-27T12:06:39Z</time>
      </trkpt>
      <trkpt lat="47.34666" lon="-0.68101">
        <ele>2.4</ele>
        <time>2015-12-27T12:06:41Z</time>
      </trkpt>
      <trkpt lat="47.34669" lon="-0.68087">
        <ele>2.4</ele>
        <time>2015-12-27T12:06:43Z</time>
      </trkpt>
      <trkpt lat="47.34678" lon="-0.6806">
        <ele>2.3</ele>
        <time>2015-12-27T12:06:47Z</time>
      </trkpt>
      <trkpt lat="47.34683" lon="-0.68046">
        <ele>2.3</ele>
        <time>2015-12-27T12:06:49Z</time>
      </trkpt>
      <trkpt lat="47.34689" lon="-0.68032">
        <ele>1.4</ele>
        <time>2015-12-27T12:06:51Z</time>
      </trkpt>
      <trkpt lat="47.34693" lon="-0.68018">
        <ele>1.9</ele>
        <time>2015-12-27T12:06:53Z</time>
      </trkpt>
      <trkpt lat="47.34698" lon="-0.68003">
        <ele>2</ele>
        <time>2015-12-27T12:06:55Z</time>
      </trkpt>
      <trkpt lat="47.34701" lon="-0.67987">
        <ele>2.1</ele>
        <time>2015-12-27T12:06:57Z</time>
      </trkpt>
      <trkpt lat="47.34707" lon="-0.67971">
        <ele>1.8</ele>
        <time>2015-12-27T12:06:59Z</time>
      </trkpt>
      <trkpt lat="47.34713" lon="-0.67957">
        <ele>1.3</ele>
        <time>2015-12-27T12:07:01Z</time>
      </trkpt>
      <trkpt lat="47.34719" lon="-0.67944">
        <ele>1.6</ele>
        <time>2015-12-27T12:07:03Z</time>
      </trkpt>
      <trkpt lat="47.34724" lon="-0.67932">
        <ele>2.1</ele>
        <time>2015-12-27T12:07:05Z</time>
      </trkpt>
      <trkpt lat="47.3473" lon="-0.67919">
        <ele>1.9</ele>
        <time>2015-12-27T12:07:07Z</time>
      </trkpt>
      <trkpt lat="47.34735" lon="-0.67906">
        <ele>1.4</ele>
        <time>2015-12-27T12:07:09Z</time>
      </trkpt>
      <trkpt lat="47.34732" lon="-0.67892">
        <ele>1.3</ele>
        <time>2015-12-27T12:07:11Z</time>
      </trkpt>
      <trkpt lat="47.34735" lon="-0.67878">
        <ele>2.1</ele>
        <time>2015-12-27T12:07:13Z</time>
      </trkpt>
      <trkpt lat="47.34738" lon="-0.67859">
        <ele>2.3</ele>
        <time>2015-12-27T12:07:16Z</time>
      </trkpt>
      <trkpt lat="47.34742" lon="-0.6784">
        <ele>2.6</ele>
        <time>2015-12-27T12:07:19Z</time>
      </trkpt>
      <trkpt lat="47.34746" lon="-0.67828">
        <ele>2.5</ele>
        <time>2015-12-27T12:07:21Z</time>
      </trkpt>
      <trkpt lat="47.34751" lon="-0.67815">
        <ele>2.8</ele>
        <time>2015-12-27T12:07:23Z</time>
      </trkpt>
      <trkpt lat="47.34757" lon="-0.67803">
        <ele>2.5</ele>
        <time>2015-12-27T12:07:25Z</time>
      </trkpt>
      <trkpt lat="47.34755" lon="-0.67787">
        <ele>2.3</ele>
        <time>2015-12-27T12:07:28Z</time>
      </trkpt>
      <trkpt lat="47.34757" lon="-0.67771">
        <ele>2.5</ele>
        <time>2015-12-27T12:07:31Z</time>
      </trkpt>
      <trkpt lat="47.34764" lon="-0.67756">
        <ele>2.6</ele>
        <time>2015-12-27T12:07:34Z</time>
      </trkpt>
      <trkpt lat="47.34769" lon="-0.67744">
        <ele>2.7</ele>
        <time>2015-12-27T12:07:36Z</time>
      </trkpt>
      <trkpt lat="47.34774" lon="-0.67731">
        <ele>2.7</ele>
        <time>2015-12-27T12:07:38Z</time>
      </trkpt>
      <trkpt lat="47.34781" lon="-0.67715">
        <ele>2.9</ele>
        <time>2015-12-27T12:07:41Z</time>
      </trkpt>
      <trkpt lat="47.34787" lon="-0.67704">
        <ele>2.8</ele>
        <time>2015-12-27T12:07:43Z</time>
      </trkpt>
      <trkpt lat="47.34795" lon="-0.67694">
        <ele>2.6</ele>
        <time>2015-12-27T12:07:45Z</time>
      </trkpt>
      <trkpt lat="47.34814" lon="-0.67672">
        <ele>2.6</ele>
        <time>2015-12-27T12:07:49Z</time>
      </trkpt>
      <trkpt lat="47.34821" lon="-0.67658">
        <ele>2.8</ele>
        <time>2015-12-27T12:07:51Z</time>
      </trkpt>
      <trkpt lat="47.34825" lon="-0.67643">
        <ele>2.2</ele>
        <time>2015-12-27T12:07:53Z</time>
      </trkpt>
      <trkpt lat="47.34824" lon="-0.67628">
        <ele>1.8</ele>
        <time>2015-12-27T12:07:55Z</time>
      </trkpt>
      <trkpt lat="47.34825" lon="-0.67611">
        <ele>1.8</ele>
        <time>2015-12-27T12:07:58Z</time>
      </trkpt>
      <trkpt lat="47.34826" lon="-0.67596">
        <ele>2.2</ele>
        <time>2015-12-27T12:08:01Z</time>
      </trkpt>
      <trkpt lat="47.34828" lon="-0.67577">
        <ele>2.1</ele>
        <time>2015-12-27T12:08:04Z</time>
      </trkpt>
      <trkpt lat="47.34836" lon="-0.67562">
        <ele>2.3</ele>
        <time>2015-12-27T12:08:07Z</time>
      </trkpt>
      <trkpt lat="47.34848" lon="-0.67556">
        <ele>1.9</ele>
        <time>2015-12-27T12:08:10Z</time>
      </trkpt>
      <trkpt lat="47.34857" lon="-0.67557">
        <ele>1.7</ele>
        <time>2015-12-27T12:08:12Z</time>
      </trkpt>
      <trkpt lat="47.34867" lon="-0.67558">
        <ele>1.7</ele>
        <time>2015-12-27T12:08:14Z</time>
      </trkpt>
      <trkpt lat="47.3488" lon="-0.67558">
        <ele>2.2</ele>
        <time>2015-12-27T12:08:17Z</time>
      </trkpt>
      <trkpt lat="47.34893" lon="-0.67554">
        <ele>2.5</ele>
        <time>2015-12-27T12:08:20Z</time>
      </trkpt>
      <trkpt lat="47.34902" lon="-0.67549">
        <ele>2.8</ele>
        <time>2015-12-27T12:08:22Z</time>
      </trkpt>
      <trkpt lat="47.3491" lon="-0.67542">
        <ele>2.9</ele>
        <time>2015-12-27T12:08:24Z</time>
      </trkpt>
      <trkpt lat="47.3492" lon="-0.67531">
        <ele>3</ele>
        <time>2015-12-27T12:08:27Z</time>
      </trkpt>
      <trkpt lat="47.34929" lon="-0.67525">
        <ele>2.7</ele>
        <time>2015-12-27T12:08:29Z</time>
      </trkpt>
      <trkpt lat="47.34937" lon="-0.67519">
        <ele>2.7</ele>
        <time>2015-12-27T12:08:31Z</time>
      </trkpt>
      <trkpt lat="47.34947" lon="-0.67513">
        <ele>2.7</ele>
        <time>2015-12-27T12:08:33Z</time>
      </trkpt>
      <trkpt lat="47.34956" lon="-0.67507">
        <ele>2.8</ele>
        <time>2015-12-27T12:08:35Z</time>
      </trkpt>
      <trkpt lat="47.34966" lon="-0.67503">
        <ele>3</ele>
        <time>2015-12-27T12:08:37Z</time>
      </trkpt>
      <trkpt lat="47.34976" lon="-0.67499">
        <ele>3.2</ele>
        <time>2015-12-27T12:08:39Z</time>
      </trkpt>
      <trkpt lat="47.34985" lon="-0.67493">
        <ele>3.4</ele>
        <time>2015-12-27T12:08:41Z</time>
      </trkpt>
      <trkpt lat="47.34994" lon="-0.67488">
        <ele>3.6</ele>
        <time>2015-12-27T12:08:43Z</time>
      </trkpt>
      <trkpt lat="47.35005" lon="-0.67481">
        <ele>3.3</ele>
        <time>2015-12-27T12:08:45Z</time>
      </trkpt>
      <trkpt lat="47.35015" lon="-0.67475">
        <ele>3.2</ele>
        <time>2015-12-27T12:08:47Z</time>
      </trkpt>
      <trkpt lat="47.35034" lon="-0.67458">
        <ele>3.4</ele>
        <time>2015-12-27T12:08:51Z</time>
      </trkpt>
      <trkpt lat="47.35043" lon="-0.6745">
        <ele>3.7</ele>
        <time>2015-12-27T12:08:53Z</time>
      </trkpt>
      <trkpt lat="47.35051" lon="-0.67441">
        <ele>3.6</ele>
        <time>2015-12-27T12:08:55Z</time>
      </trkpt>
      <trkpt lat="47.35059" lon="-0.67426">
        <ele>3.8</ele>
        <time>2015-12-27T12:08:58Z</time>
      </trkpt>
      <trkpt lat="47.35065" lon="-0.6741">
        <ele>3.4</ele>
        <time>2015-12-27T12:09:01Z</time>
      </trkpt>
      <trkpt lat="47.35069" lon="-0.67392">
        <ele>3</ele>
        <time>2015-12-27T12:09:04Z</time>
      </trkpt>
      <trkpt lat="47.35073" lon="-0.67374">
        <ele>3.4</ele>
        <time>2015-12-27T12:09:07Z</time>
      </trkpt>
      <trkpt lat="47.35078" lon="-0.67362">
        <ele>3.5</ele>
        <time>2015-12-27T12:09:09Z</time>
      </trkpt>
      <trkpt lat="47.35086" lon="-0.67346">
        <ele>3.5</ele>
        <time>2015-12-27T12:09:12Z</time>
      </trkpt>
      <trkpt lat="47.35093" lon="-0.67331">
        <ele>3.7</ele>
        <time>2015-12-27T12:09:15Z</time>
      </trkpt>
      <trkpt lat="47.35104" lon="-0.67319">
        <ele>3.5</ele>
        <time>2015-12-27T12:09:18Z</time>
      </trkpt>
      <trkpt lat="47.35113" lon="-0.67314">
        <ele>3.2</ele>
        <time>2015-12-27T12:09:20Z</time>
      </trkpt>
      <trkpt lat="47.35123" lon="-0.6731">
        <ele>3.1</ele>
        <time>2015-12-27T12:09:22Z</time>
      </trkpt>
      <trkpt lat="47.35134" lon="-0.67306">
        <ele>3.2</ele>
        <time>2015-12-27T12:09:24Z</time>
      </trkpt>
      <trkpt lat="47.35145" lon="-0.67298">
        <ele>3</ele>
        <time>2015-12-27T12:09:26Z</time>
      </trkpt>
      <trkpt lat="47.35154" lon="-0.67285">
        <ele>3</ele>
        <time>2015-12-27T12:09:28Z</time>
      </trkpt>
      <trkpt lat="47.35161" lon="-0.67272">
        <ele>3.5</ele>
        <time>2015-12-27T12:09:30Z</time>
      </trkpt>
      <trkpt lat="47.35167" lon="-0.6726">
        <ele>3.4</ele>
        <time>2015-12-27T12:09:32Z</time>
      </trkpt>
      <trkpt lat="47.35174" lon="-0.67247">
        <ele>3.3</ele>
        <time>2015-12-27T12:09:34Z</time>
      </trkpt>
      <trkpt lat="47.35179" lon="-0.67234">
        <ele>3.3</ele>
        <time>2015-12-27T12:09:36Z</time>
      </trkpt>
      <trkpt lat="47.35184" lon="-0.67222">
        <ele>3.2</ele>
        <time>2015-12-27T12:09:38Z</time>
      </trkpt>
      <trkpt lat="47.35192" lon="-0.67206">
        <ele>3</ele>
        <time>2015-12-27T12:09:41Z</time>
      </trkpt>
      <trkpt lat="47.35199" lon="-0.67195">
        <ele>3.1</ele>
        <time>2015-12-27T12:09:43Z</time>
      </trkpt>
      <trkpt lat="47.35205" lon="-0.67185">
        <ele>3.4</ele>
        <time>2015-12-27T12:09:45Z</time>
      </trkpt>
      <trkpt lat="47.35215" lon="-0.67171">
        <ele>3.5</ele>
        <time>2015-12-27T12:09:48Z</time>
      </trkpt>
      <trkpt lat="47.35223" lon="-0.67163">
        <ele>3.7</ele>
        <time>2015-12-27T12:09:50Z</time>
      </trkpt>
      <trkpt lat="47.35238" lon="-0.67142">
        <ele>3.4</ele>
        <time>2015-12-27T12:09:54Z</time>
      </trkpt>
      <trkpt lat="47.35245" lon="-0.67131">
        <ele>3</ele>
        <time>2015-12-27T12:09:56Z</time>
      </trkpt>
      <trkpt lat="47.35252" lon="-0.67119">
        <ele>2.8</ele>
        <time>2015-12-27T12:09:58Z</time>
      </trkpt>
      <trkpt lat="47.35259" lon="-0.67107">
        <ele>2.8</ele>
        <time>2015-12-27T12:10:00Z</time>
      </trkpt>
      <trkpt lat="47.35265" lon="-0.67097">
        <ele>2.6</ele>
        <time>2015-12-27T12:10:02Z</time>
      </trkpt>
      <trkpt lat="47.35272" lon="-0.67086">
        <ele>2.8</ele>
        <time>2015-12-27T12:10:04Z</time>
      </trkpt>
      <trkpt lat="47.35279" lon="-0.67075">
        <ele>2.7</ele>
        <time>2015-12-27T12:10:06Z</time>
      </trkpt>
      <trkpt lat="47.35285" lon="-0.67065">
        <ele>2.9</ele>
        <time>2015-12-27T12:10:08Z</time>
      </trkpt>
      <trkpt lat="47.35291" lon="-0.67055">
        <ele>2.9</ele>
        <time>2015-12-27T12:10:10Z</time>
      </trkpt>
      <trkpt lat="47.35298" lon="-0.67038">
        <ele>3</ele>
        <time>2015-12-27T12:10:13Z</time>
      </trkpt>
      <trkpt lat="47.35304" lon="-0.67028">
        <ele>3.2</ele>
        <time>2015-12-27T12:10:15Z</time>
      </trkpt>
      <trkpt lat="47.3531" lon="-0.67017">
        <ele>3.1</ele>
        <time>2015-12-27T12:10:17Z</time>
      </trkpt>
      <trkpt lat="47.35316" lon="-0.67005">
        <ele>3.1</ele>
        <time>2015-12-27T12:10:19Z</time>
      </trkpt>
      <trkpt lat="47.35323" lon="-0.66993">
        <ele>3.4</ele>
        <time>2015-12-27T12:10:21Z</time>
      </trkpt>
      <trkpt lat="47.35329" lon="-0.66983">
        <ele>3.4</ele>
        <time>2015-12-27T12:10:23Z</time>
      </trkpt>
      <trkpt lat="47.35336" lon="-0.66971">
        <ele>3.4</ele>
        <time>2015-12-27T12:10:25Z</time>
      </trkpt>
      <trkpt lat="47.35344" lon="-0.6696">
        <ele>3.5</ele>
        <time>2015-12-27T12:10:27Z</time>
      </trkpt>
      <trkpt lat="47.35351" lon="-0.66949">
        <ele>3.7</ele>
        <time>2015-12-27T12:10:29Z</time>
      </trkpt>
      <trkpt lat="47.35359" lon="-0.66937">
        <ele>3.4</ele>
        <time>2015-12-27T12:10:31Z</time>
      </trkpt>
      <trkpt lat="47.35365" lon="-0.66926">
        <ele>3.5</ele>
        <time>2015-12-27T12:10:33Z</time>
      </trkpt>
      <trkpt lat="47.35372" lon="-0.66914">
        <ele>3.5</ele>
        <time>2015-12-27T12:10:35Z</time>
      </trkpt>
      <trkpt lat="47.35379" lon="-0.66903">
        <ele>3.6</ele>
        <time>2015-12-27T12:10:37Z</time>
      </trkpt>
      <trkpt lat="47.35385" lon="-0.66891">
        <ele>3.7</ele>
        <time>2015-12-27T12:10:39Z</time>
      </trkpt>
      <trkpt lat="47.35392" lon="-0.6688">
        <ele>3.7</ele>
        <time>2015-12-27T12:10:41Z</time>
      </trkpt>
      <trkpt lat="47.35399" lon="-0.66868">
        <ele>3.5</ele>
        <time>2015-12-27T12:10:43Z</time>
      </trkpt>
      <trkpt lat="47.35406" lon="-0.66856">
        <ele>3.6</ele>
        <time>2015-12-27T12:10:45Z</time>
      </trkpt>
      <trkpt lat="47.35413" lon="-0.66845">
        <ele>3.6</ele>
        <time>2015-12-27T12:10:47Z</time>
      </trkpt>
      <trkpt lat="47.3542" lon="-0.66833">
        <ele>4</ele>
        <time>2015-12-27T12:10:49Z</time>
      </trkpt>
      <trkpt lat="47.35426" lon="-0.66822">
        <ele>3.7</ele>
        <time>2015-12-27T12:10:51Z</time>
      </trkpt>
      <trkpt lat="47.35438" lon="-0.66798">
        <ele>3.5</ele>
        <time>2015-12-27T12:10:55Z</time>
      </trkpt>
      <trkpt lat="47.35445" lon="-0.66787">
        <ele>3.3</ele>
        <time>2015-12-27T12:10:57Z</time>
      </trkpt>
      <trkpt lat="47.35452" lon="-0.66776">
        <ele>3.3</ele>
        <time>2015-12-27T12:10:59Z</time>
      </trkpt>
      <trkpt lat="47.35458" lon="-0.66763">
        <ele>3.4</ele>
        <time>2015-12-27T12:11:01Z</time>
      </trkpt>
      <trkpt lat="47.35462" lon="-0.66749">
        <ele>3.7</ele>
        <time>2015-12-27T12:11:03Z</time>
      </trkpt>
      <trkpt lat="47.35466" lon="-0.66735">
        <ele>3.7</ele>
        <time>2015-12-27T12:11:05Z</time>
      </trkpt>
      <trkpt lat="47.35469" lon="-0.6672">
        <ele>4.2</ele>
        <time>2015-12-27T12:11:07Z</time>
      </trkpt>
      <trkpt lat="47.35473" lon="-0.66706">
        <ele>4.2</ele>
        <time>2015-12-27T12:11:09Z</time>
      </trkpt>
      <trkpt lat="47.35477" lon="-0.66692">
        <ele>4.2</ele>
        <time>2015-12-27T12:11:11Z</time>
      </trkpt>
      <trkpt lat="47.35481" lon="-0.66678">
        <ele>4</ele>
        <time>2015-12-27T12:11:13Z</time>
      </trkpt>
      <trkpt lat="47.35485" lon="-0.66664">
        <ele>4</ele>
        <time>2015-12-27T12:11:15Z</time>
      </trkpt>
      <trkpt lat="47.35489" lon="-0.66649">
        <ele>3.4</ele>
        <time>2015-12-27T12:11:17Z</time>
      </trkpt>
      <trkpt lat="47.35493" lon="-0.66635">
        <ele>4</ele>
        <time>2015-12-27T12:11:19Z</time>
      </trkpt>
      <trkpt lat="47.35497" lon="-0.66621">
        <ele>4</ele>
        <time>2015-12-27T12:11:21Z</time>
      </trkpt>
      <trkpt lat="47.35501" lon="-0.66607">
        <ele>3.3</ele>
        <time>2015-12-27T12:11:23Z</time>
      </trkpt>
      <trkpt lat="47.35507" lon="-0.66594">
        <ele>3.4</ele>
        <time>2015-12-27T12:11:25Z</time>
      </trkpt>
      <trkpt lat="47.35516" lon="-0.66584">
        <ele>3.6</ele>
        <time>2015-12-27T12:11:27Z</time>
      </trkpt>
      <trkpt lat="47.35524" lon="-0.66574">
        <ele>3.9</ele>
        <time>2015-12-27T12:11:29Z</time>
      </trkpt>
      <trkpt lat="47.35534" lon="-0.66567">
        <ele>4.1</ele>
        <time>2015-12-27T12:11:31Z</time>
      </trkpt>
      <trkpt lat="47.35543" lon="-0.6656">
        <ele>4.4</ele>
        <time>2015-12-27T12:11:33Z</time>
      </trkpt>
      <trkpt lat="47.35554" lon="-0.66554">
        <ele>4.2</ele>
        <time>2015-12-27T12:11:35Z</time>
      </trkpt>
      <trkpt lat="47.35564" lon="-0.66548">
        <ele>3.8</ele>
        <time>2015-12-27T12:11:37Z</time>
      </trkpt>
      <trkpt lat="47.35574" lon="-0.66543">
        <ele>3.9</ele>
        <time>2015-12-27T12:11:39Z</time>
      </trkpt>
      <trkpt lat="47.35583" lon="-0.66534">
        <ele>4</ele>
        <time>2015-12-27T12:11:41Z</time>
      </trkpt>
      <trkpt lat="47.3559" lon="-0.66522">
        <ele>4</ele>
        <time>2015-12-27T12:11:43Z</time>
      </trkpt>
      <trkpt lat="47.35595" lon="-0.66508">
        <ele>4.2</ele>
        <time>2015-12-27T12:11:45Z</time>
      </trkpt>
      <trkpt lat="47.356" lon="-0.66494">
        <ele>4</ele>
        <time>2015-12-27T12:11:47Z</time>
      </trkpt>
      <trkpt lat="47.35604" lon="-0.6648">
        <ele>3.9</ele>
        <time>2015-12-27T12:11:49Z</time>
      </trkpt>
      <trkpt lat="47.35607" lon="-0.66467">
        <ele>4</ele>
        <time>2015-12-27T12:11:51Z</time>
      </trkpt>
      <trkpt lat="47.3561" lon="-0.66453">
        <ele>4</ele>
        <time>2015-12-27T12:11:53Z</time>
      </trkpt>
      <trkpt lat="47.35617" lon="-0.66426">
        <ele>4.3</ele>
        <time>2015-12-27T12:11:57Z</time>
      </trkpt>
      <trkpt lat="47.35621" lon="-0.66412">
        <ele>4.3</ele>
        <time>2015-12-27T12:11:59Z</time>
      </trkpt>
      <trkpt lat="47.35624" lon="-0.66397">
        <ele>4.8</ele>
        <time>2015-12-27T12:12:01Z</time>
      </trkpt>
      <trkpt lat="47.35628" lon="-0.66381">
        <ele>4.6</ele>
        <time>2015-12-27T12:12:03Z</time>
      </trkpt>
      <trkpt lat="47.35633" lon="-0.66366">
        <ele>4.1</ele>
        <time>2015-12-27T12:12:05Z</time>
      </trkpt>
      <trkpt lat="47.35637" lon="-0.66349">
        <ele>4.5</ele>
        <time>2015-12-27T12:12:07Z</time>
      </trkpt>
      <trkpt lat="47.35641" lon="-0.66333">
        <ele>4.3</ele>
        <time>2015-12-27T12:12:09Z</time>
      </trkpt>
      <trkpt lat="47.35645" lon="-0.66316">
        <ele>4.1</ele>
        <time>2015-12-27T12:12:11Z</time>
      </trkpt>
      <trkpt lat="47.35648" lon="-0.663">
        <ele>4.4</ele>
        <time>2015-12-27T12:12:13Z</time>
      </trkpt>
      <trkpt lat="47.35652" lon="-0.66284">
        <ele>4.5</ele>
        <time>2015-12-27T12:12:15Z</time>
      </trkpt>
      <trkpt lat="47.35655" lon="-0.66269">
        <ele>4.7</ele>
        <time>2015-12-27T12:12:17Z</time>
      </trkpt>
      <trkpt lat="47.35657" lon="-0.66253">
        <ele>5.1</ele>
        <time>2015-12-27T12:12:19Z</time>
      </trkpt>
      <trkpt lat="47.35661" lon="-0.66238">
        <ele>5.1</ele>
        <time>2015-12-27T12:12:21Z</time>
      </trkpt>
      <trkpt lat="47.35664" lon="-0.66222">
        <ele>5.4</ele>
        <time>2015-12-27T12:12:23Z</time>
      </trkpt>
      <trkpt lat="47.35665" lon="-0.66206">
        <ele>5.7</ele>
        <time>2015-12-27T12:12:25Z</time>
      </trkpt>
      <trkpt lat="47.35669" lon="-0.6619">
        <ele>6</ele>
        <time>2015-12-27T12:12:27Z</time>
      </trkpt>
      <trkpt lat="47.35672" lon="-0.66174">
        <ele>6.3</ele>
        <time>2015-12-27T12:12:29Z</time>
      </trkpt>
      <trkpt lat="47.35675" lon="-0.66159">
        <ele>6.9</ele>
        <time>2015-12-27T12:12:31Z</time>
      </trkpt>
      <trkpt lat="47.35678" lon="-0.66145">
        <ele>6.8</ele>
        <time>2015-12-27T12:12:33Z</time>
      </trkpt>
      <trkpt lat="47.3568" lon="-0.66131">
        <ele>6.7</ele>
        <time>2015-12-27T12:12:35Z</time>
      </trkpt>
      <trkpt lat="47.35684" lon="-0.66115">
        <ele>6.6</ele>
        <time>2015-12-27T12:12:37Z</time>
      </trkpt>
      <trkpt lat="47.35688" lon="-0.66098">
        <ele>6.5</ele>
        <time>2015-12-27T12:12:39Z</time>
      </trkpt>
      <trkpt lat="47.35692" lon="-0.6608">
        <ele>6.3</ele>
        <time>2015-12-27T12:12:41Z</time>
      </trkpt>
      <trkpt lat="47.35695" lon="-0.66063">
        <ele>6.4</ele>
        <time>2015-12-27T12:12:43Z</time>
      </trkpt>
      <trkpt lat="47.35699" lon="-0.66046">
        <ele>6.7</ele>
        <time>2015-12-27T12:12:45Z</time>
      </trkpt>
      <trkpt lat="47.35703" lon="-0.66031">
        <ele>7.3</ele>
        <time>2015-12-27T12:12:47Z</time>
      </trkpt>
      <trkpt lat="47.35706" lon="-0.66015">
        <ele>7.8</ele>
        <time>2015-12-27T12:12:49Z</time>
      </trkpt>
      <trkpt lat="47.35708" lon="-0.66">
        <ele>8</ele>
        <time>2015-12-27T12:12:51Z</time>
      </trkpt>
      <trkpt lat="47.3571" lon="-0.65985">
        <ele>8.1</ele>
        <time>2015-12-27T12:12:53Z</time>
      </trkpt>
      <trkpt lat="47.35713" lon="-0.65969">
        <ele>8.3</ele>
        <time>2015-12-27T12:12:55Z</time>
      </trkpt>
      <trkpt lat="47.35719" lon="-0.65938">
        <ele>8.4</ele>
        <time>2015-12-27T12:12:59Z</time>
      </trkpt>
      <trkpt lat="47.35722" lon="-0.65922">
        <ele>8.7</ele>
        <time>2015-12-27T12:13:01Z</time>
      </trkpt>
      <trkpt lat="47.35726" lon="-0.65907">
        <ele>8.7</ele>
        <time>2015-12-27T12:13:03Z</time>
      </trkpt>
      <trkpt lat="47.35729" lon="-0.65894">
        <ele>8.7</ele>
        <time>2015-12-27T12:13:05Z</time>
      </trkpt>
      <trkpt lat="47.35739" lon="-0.65888">
        <ele>8.9</ele>
        <time>2015-12-27T12:13:08Z</time>
      </trkpt>
      <trkpt lat="47.3575" lon="-0.65896">
        <ele>8.7</ele>
        <time>2015-12-27T12:13:11Z</time>
      </trkpt>
      <trkpt lat="47.3576" lon="-0.65896">
        <ele>8.7</ele>
        <time>2015-12-27T12:13:14Z</time>
      </trkpt>
      <trkpt lat="47.3577" lon="-0.65895">
        <ele>8</ele>
        <time>2015-12-27T12:13:16Z</time>
      </trkpt>
      <trkpt lat="47.35782" lon="-0.65895">
        <ele>7.2</ele>
        <time>2015-12-27T12:13:18Z</time>
      </trkpt>
      <trkpt lat="47.35795" lon="-0.65894">
        <ele>6.5</ele>
        <time>2015-12-27T12:13:20Z</time>
      </trkpt>
      <trkpt lat="47.35802" lon="-0.65882">
        <ele>6.3</ele>
        <time>2015-12-27T12:13:22Z</time>
      </trkpt>
      <trkpt lat="47.35805" lon="-0.65865">
        <ele>5.9</ele>
        <time>2015-12-27T12:13:24Z</time>
      </trkpt>
      <trkpt lat="47.35809" lon="-0.65848">
        <ele>5.8</ele>
        <time>2015-12-27T12:13:26Z</time>
      </trkpt>
      <trkpt lat="47.35814" lon="-0.65831">
        <ele>5.8</ele>
        <time>2015-12-27T12:13:28Z</time>
      </trkpt>
      <trkpt lat="47.35819" lon="-0.65814">
        <ele>5.8</ele>
        <time>2015-12-27T12:13:30Z</time>
      </trkpt>
      <trkpt lat="47.35825" lon="-0.65797">
        <ele>5.7</ele>
        <time>2015-12-27T12:13:32Z</time>
      </trkpt>
      <trkpt lat="47.35829" lon="-0.65779">
        <ele>5.7</ele>
        <time>2015-12-27T12:13:34Z</time>
      </trkpt>
      <trkpt lat="47.35834" lon="-0.65761">
        <ele>5.7</ele>
        <time>2015-12-27T12:13:36Z</time>
      </trkpt>
      <trkpt lat="47.35839" lon="-0.65743">
        <ele>5.4</ele>
        <time>2015-12-27T12:13:38Z</time>
      </trkpt>
      <trkpt lat="47.35843" lon="-0.65726">
        <ele>5.6</ele>
        <time>2015-12-27T12:13:40Z</time>
      </trkpt>
      <trkpt lat="47.35848" lon="-0.65708">
        <ele>5.6</ele>
        <time>2015-12-27T12:13:42Z</time>
      </trkpt>
      <trkpt lat="47.35852" lon="-0.6569">
        <ele>5.5</ele>
        <time>2015-12-27T12:13:44Z</time>
      </trkpt>
      <trkpt lat="47.35856" lon="-0.65671">
        <ele>5.2</ele>
        <time>2015-12-27T12:13:46Z</time>
      </trkpt>
      <trkpt lat="47.35861" lon="-0.65653">
        <ele>5.1</ele>
        <time>2015-12-27T12:13:48Z</time>
      </trkpt>
      <trkpt lat="47.35865" lon="-0.65634">
        <ele>5.1</ele>
        <time>2015-12-27T12:13:50Z</time>
      </trkpt>
      <trkpt lat="47.3587" lon="-0.65616">
        <ele>5.9</ele>
        <time>2015-12-27T12:13:52Z</time>
      </trkpt>
      <trkpt lat="47.35874" lon="-0.65598">
        <ele>5.9</ele>
        <time>2015-12-27T12:13:54Z</time>
      </trkpt>
      <trkpt lat="47.35879" lon="-0.65582">
        <ele>5.9</ele>
        <time>2015-12-27T12:13:56Z</time>
      </trkpt>
      <trkpt lat="47.35886" lon="-0.65551">
        <ele>5.8</ele>
        <time>2015-12-27T12:14:00Z</time>
      </trkpt>
      <trkpt lat="47.35886" lon="-0.65533">
        <ele>6.2</ele>
        <time>2015-12-27T12:14:03Z</time>
      </trkpt>
      <trkpt lat="47.35889" lon="-0.65515">
        <ele>6.5</ele>
        <time>2015-12-27T12:14:06Z</time>
      </trkpt>
      <trkpt lat="47.35899" lon="-0.65506">
        <ele>7.1</ele>
        <time>2015-12-27T12:14:09Z</time>
      </trkpt>
      <trkpt lat="47.35909" lon="-0.65509">
        <ele>7.2</ele>
        <time>2015-12-27T12:14:12Z</time>
      </trkpt>
      <trkpt lat="47.3592" lon="-0.65514">
        <ele>7.7</ele>
        <time>2015-12-27T12:14:15Z</time>
      </trkpt>
      <trkpt lat="47.35931" lon="-0.65519">
        <ele>7.9</ele>
        <time>2015-12-27T12:14:18Z</time>
      </trkpt>
      <trkpt lat="47.35941" lon="-0.65522">
        <ele>8.1</ele>
        <time>2015-12-27T12:14:21Z</time>
      </trkpt>
      <trkpt lat="47.3595" lon="-0.65524">
        <ele>8</ele>
        <time>2015-12-27T12:14:24Z</time>
      </trkpt>
      <trkpt lat="47.35961" lon="-0.65527">
        <ele>7.9</ele>
        <time>2015-12-27T12:14:27Z</time>
      </trkpt>
      <trkpt lat="47.35974" lon="-0.65532">
        <ele>7.8</ele>
        <time>2015-12-27T12:14:30Z</time>
      </trkpt>
      <trkpt lat="47.35983" lon="-0.65536">
        <ele>7.2</ele>
        <time>2015-12-27T12:14:32Z</time>
      </trkpt>
      <trkpt lat="47.35994" lon="-0.65541">
        <ele>6.7</ele>
        <time>2015-12-27T12:14:34Z</time>
      </trkpt>
      <trkpt lat="47.36005" lon="-0.65546">
        <ele>6.2</ele>
        <time>2015-12-27T12:14:36Z</time>
      </trkpt>
      <trkpt lat="47.36016" lon="-0.6555">
        <ele>5.5</ele>
        <time>2015-12-27T12:14:38Z</time>
      </trkpt>
      <trkpt lat="47.36026" lon="-0.65559">
        <ele>5.3</ele>
        <time>2015-12-27T12:14:40Z</time>
      </trkpt>
      <trkpt lat="47.36028" lon="-0.65573">
        <ele>5.2</ele>
        <time>2015-12-27T12:14:42Z</time>
      </trkpt>
      <trkpt lat="47.36024" lon="-0.65587">
        <ele>5.4</ele>
        <time>2015-12-27T12:14:44Z</time>
      </trkpt>
      <trkpt lat="47.3602" lon="-0.656">
        <ele>5.3</ele>
        <time>2015-12-27T12:14:46Z</time>
      </trkpt>
      <trkpt lat="47.36015" lon="-0.65618">
        <ele>5.3</ele>
        <time>2015-12-27T12:14:49Z</time>
      </trkpt>
      <trkpt lat="47.3601" lon="-0.65635">
        <ele>5.4</ele>
        <time>2015-12-27T12:14:52Z</time>
      </trkpt>
      <trkpt lat="47.36006" lon="-0.65648">
        <ele>5.6</ele>
        <time>2015-12-27T12:14:54Z</time>
      </trkpt>
      <trkpt lat="47.36003" lon="-0.6566">
        <ele>5.5</ele>
        <time>2015-12-27T12:14:56Z</time>
      </trkpt>
      <trkpt lat="47.35997" lon="-0.65677">
        <ele>5.6</ele>
        <time>2015-12-27T12:14:59Z</time>
      </trkpt>
      <trkpt lat="47.35984" lon="-0.6571">
        <ele>5.1</ele>
        <time>2015-12-27T12:15:05Z</time>
      </trkpt>
      <trkpt lat="47.35977" lon="-0.65727">
        <ele>5.2</ele>
        <time>2015-12-27T12:15:08Z</time>
      </trkpt>
      <trkpt lat="47.35971" lon="-0.65743">
        <ele>5.3</ele>
        <time>2015-12-27T12:15:11Z</time>
      </trkpt>
      <trkpt lat="47.35965" lon="-0.65759">
        <ele>5.6</ele>
        <time>2015-12-27T12:15:14Z</time>
      </trkpt>
      <trkpt lat="47.35959" lon="-0.65771">
        <ele>5.7</ele>
        <time>2015-12-27T12:15:17Z</time>
      </trkpt>
      <trkpt lat="47.35949" lon="-0.65784">
        <ele>5.5</ele>
        <time>2015-12-27T12:15:20Z</time>
      </trkpt>
      <trkpt lat="47.35941" lon="-0.65794">
        <ele>5.5</ele>
        <time>2015-12-27T12:15:23Z</time>
      </trkpt>
      <trkpt lat="47.35932" lon="-0.65806">
        <ele>5.4</ele>
        <time>2015-12-27T12:15:26Z</time>
      </trkpt>
      <trkpt lat="47.35927" lon="-0.6582">
        <ele>5.3</ele>
        <time>2015-12-27T12:15:30Z</time>
      </trkpt>
      <trkpt lat="47.35924" lon="-0.65833">
        <ele>5</ele>
        <time>2015-12-27T12:15:34Z</time>
      </trkpt>
      <trkpt lat="47.35924" lon="-0.65848">
        <ele>5</ele>
        <time>2015-12-27T12:15:38Z</time>
      </trkpt>
      <trkpt lat="47.35929" lon="-0.65862">
        <ele>4.9</ele>
        <time>2015-12-27T12:15:42Z</time>
      </trkpt>
      <trkpt lat="47.35939" lon="-0.65861">
        <ele>3.7</ele>
        <time>2015-12-27T12:15:46Z</time>
      </trkpt>
      <trkpt lat="47.3594" lon="-0.65865">
        <ele>5.4</ele>
        <time>2015-12-27T12:16:05Z</time>
      </trkpt>
    </trkseg>
  </trk>
</gpx>